<?xml version="1.0" encoding="UTF-8" standalone="no" ?>
<gpx xmlns="http://www.topografix.com/GPX/1/1" xmlns:xsi="http://www.w3.org/2001/XMLSchema-instance" xsi:schemaLocation="http://www.topografix.com/GPX/1/1 http://www.topografix.com/GPX/1/1/gpx.xsd" version="1.1" creator="VisuGPX - https://www.visugpx.com">
  <metadata>
    <name>Voie verte</name>
    <desc><![CDATA[P & Nor]]></desc>
  </metadata>
  <trk>
    <name><![CDATA[2023 06 17 voie verte]]></name>
    <desc><![CDATA[P & Nor]]></desc>
    <trkseg>
      <trkpt lat="46.12176" lon="4.7186">
        <ele>199.23851</ele>
        <time>2023-06-17T08:11:55.631Z</time>
      </trkpt>
      <trkpt lat="46.12176" lon="4.71862">
        <ele>199.1385</ele>
        <time>2023-06-17T08:14:29.000Z</time>
      </trkpt>
      <trkpt lat="46.12175" lon="4.71866">
        <ele>199.19792</ele>
        <time>2023-06-17T08:14:31.000Z</time>
      </trkpt>
      <trkpt lat="46.12175" lon="4.7187">
        <ele>199.05722</ele>
        <time>2023-06-17T08:14:33.000Z</time>
      </trkpt>
      <trkpt lat="46.12176" lon="4.71875">
        <ele>198.84859</ele>
        <time>2023-06-17T08:14:35.000Z</time>
      </trkpt>
      <trkpt lat="46.12175" lon="4.71878">
        <ele>198.61017</ele>
        <time>2023-06-17T08:14:37.000Z</time>
      </trkpt>
      <trkpt lat="46.12174" lon="4.71882">
        <ele>198.38184</ele>
        <time>2023-06-17T08:14:40.000Z</time>
      </trkpt>
      <trkpt lat="46.12175" lon="4.71885">
        <ele>198.22131</ele>
        <time>2023-06-17T08:14:41.000Z</time>
      </trkpt>
      <trkpt lat="46.12176" lon="4.71888">
        <ele>198.14609</ele>
        <time>2023-06-17T08:14:42.000Z</time>
      </trkpt>
      <trkpt lat="46.12177" lon="4.7189">
        <ele>198.07671</ele>
        <time>2023-06-17T08:14:43.000Z</time>
      </trkpt>
      <trkpt lat="46.12179" lon="4.71891">
        <ele>198.0081</ele>
        <time>2023-06-17T08:14:44.000Z</time>
      </trkpt>
      <trkpt lat="46.1218" lon="4.71893">
        <ele>197.91408</ele>
        <time>2023-06-17T08:14:45.000Z</time>
      </trkpt>
      <trkpt lat="46.12182" lon="4.71893">
        <ele>197.80028</ele>
        <time>2023-06-17T08:14:46.000Z</time>
      </trkpt>
      <trkpt lat="46.12185" lon="4.71892">
        <ele>197.24977</ele>
        <time>2023-06-17T08:14:47.000Z</time>
      </trkpt>
      <trkpt lat="46.12186" lon="4.71889">
        <ele>196.82375</ele>
        <time>2023-06-17T08:14:48.000Z</time>
      </trkpt>
      <trkpt lat="46.12186" lon="4.71884">
        <ele>196.45717</ele>
        <time>2023-06-17T08:14:49.000Z</time>
      </trkpt>
      <trkpt lat="46.12186" lon="4.7188">
        <ele>196.27034</ele>
        <time>2023-06-17T08:14:50.000Z</time>
      </trkpt>
      <trkpt lat="46.12187" lon="4.71876">
        <ele>196.15947</ele>
        <time>2023-06-17T08:14:51.000Z</time>
      </trkpt>
      <trkpt lat="46.12189" lon="4.71872">
        <ele>196.08679</ele>
        <time>2023-06-17T08:14:52.000Z</time>
      </trkpt>
      <trkpt lat="46.1219" lon="4.71868">
        <ele>196.03339</ele>
        <time>2023-06-17T08:14:53.000Z</time>
      </trkpt>
      <trkpt lat="46.12192" lon="4.71864">
        <ele>195.89908</ele>
        <time>2023-06-17T08:14:54.000Z</time>
      </trkpt>
      <trkpt lat="46.12193" lon="4.7186">
        <ele>195.7836</ele>
        <time>2023-06-17T08:14:55.000Z</time>
      </trkpt>
      <trkpt lat="46.12194" lon="4.71855">
        <ele>195.66924</ele>
        <time>2023-06-17T08:14:56.000Z</time>
      </trkpt>
      <trkpt lat="46.12194" lon="4.71851">
        <ele>195.57649</ele>
        <time>2023-06-17T08:14:57.000Z</time>
      </trkpt>
      <trkpt lat="46.12194" lon="4.71848">
        <ele>195.5146</ele>
        <time>2023-06-17T08:14:58.000Z</time>
      </trkpt>
      <trkpt lat="46.12194" lon="4.71842">
        <ele>195.42725</ele>
        <time>2023-06-17T08:15:00.000Z</time>
      </trkpt>
      <trkpt lat="46.12192" lon="4.7184">
        <ele>195.34204</ele>
        <time>2023-06-17T08:15:01.000Z</time>
      </trkpt>
      <trkpt lat="46.1219" lon="4.71839">
        <ele>195.2449</ele>
        <time>2023-06-17T08:15:02.000Z</time>
      </trkpt>
      <trkpt lat="46.12188" lon="4.71838">
        <ele>195.13605</ele>
        <time>2023-06-17T08:15:03.000Z</time>
      </trkpt>
      <trkpt lat="46.12185" lon="4.71837">
        <ele>195.04579</ele>
        <time>2023-06-17T08:15:04.000Z</time>
      </trkpt>
      <trkpt lat="46.12183" lon="4.71837">
        <ele>194.94032</ele>
        <time>2023-06-17T08:15:05.000Z</time>
      </trkpt>
      <trkpt lat="46.1218" lon="4.71836">
        <ele>194.86119</ele>
        <time>2023-06-17T08:15:06.000Z</time>
      </trkpt>
      <trkpt lat="46.12177" lon="4.71835">
        <ele>194.8204</ele>
        <time>2023-06-17T08:15:07.000Z</time>
      </trkpt>
      <trkpt lat="46.12175" lon="4.71834">
        <ele>195.08577</ele>
        <time>2023-06-17T08:15:08.000Z</time>
      </trkpt>
      <trkpt lat="46.12172" lon="4.71833">
        <ele>195.27657</ele>
        <time>2023-06-17T08:15:09.000Z</time>
      </trkpt>
      <trkpt lat="46.12169" lon="4.71832">
        <ele>195.46506</ele>
        <time>2023-06-17T08:15:10.000Z</time>
      </trkpt>
      <trkpt lat="46.12166" lon="4.71831">
        <ele>195.55069</ele>
        <time>2023-06-17T08:15:11.000Z</time>
      </trkpt>
      <trkpt lat="46.12162" lon="4.7183">
        <ele>195.58388</ele>
        <time>2023-06-17T08:15:12.000Z</time>
      </trkpt>
      <trkpt lat="46.12159" lon="4.71829">
        <ele>195.58701</ele>
        <time>2023-06-17T08:15:13.000Z</time>
      </trkpt>
      <trkpt lat="46.12156" lon="4.71829">
        <ele>195.57774</ele>
        <time>2023-06-17T08:15:14.000Z</time>
      </trkpt>
      <trkpt lat="46.12153" lon="4.71828">
        <ele>195.48534</ele>
        <time>2023-06-17T08:15:15.000Z</time>
      </trkpt>
      <trkpt lat="46.1215" lon="4.71827">
        <ele>195.37552</ele>
        <time>2023-06-17T08:15:16.000Z</time>
      </trkpt>
      <trkpt lat="46.12147" lon="4.71825">
        <ele>195.2355</ele>
        <time>2023-06-17T08:15:17.000Z</time>
      </trkpt>
      <trkpt lat="46.12143" lon="4.71825">
        <ele>195.11105</ele>
        <time>2023-06-17T08:15:18.000Z</time>
      </trkpt>
      <trkpt lat="46.1214" lon="4.71824">
        <ele>195.01224</ele>
        <time>2023-06-17T08:15:19.000Z</time>
      </trkpt>
      <trkpt lat="46.12136" lon="4.71823">
        <ele>194.96184</ele>
        <time>2023-06-17T08:15:20.000Z</time>
      </trkpt>
      <trkpt lat="46.12133" lon="4.71821">
        <ele>194.9324</ele>
        <time>2023-06-17T08:15:21.000Z</time>
      </trkpt>
      <trkpt lat="46.1213" lon="4.71819">
        <ele>194.90669</ele>
        <time>2023-06-17T08:15:22.000Z</time>
      </trkpt>
      <trkpt lat="46.12126" lon="4.71816">
        <ele>194.86945</ele>
        <time>2023-06-17T08:15:23.000Z</time>
      </trkpt>
      <trkpt lat="46.12123" lon="4.71814">
        <ele>194.80363</ele>
        <time>2023-06-17T08:15:24.000Z</time>
      </trkpt>
      <trkpt lat="46.12119" lon="4.71812">
        <ele>194.75687</ele>
        <time>2023-06-17T08:15:25.000Z</time>
      </trkpt>
      <trkpt lat="46.12116" lon="4.71811">
        <ele>194.70056</ele>
        <time>2023-06-17T08:15:26.000Z</time>
      </trkpt>
      <trkpt lat="46.12112" lon="4.7181">
        <ele>194.64072</ele>
        <time>2023-06-17T08:15:27.000Z</time>
      </trkpt>
      <trkpt lat="46.12109" lon="4.71809">
        <ele>194.59782</ele>
        <time>2023-06-17T08:15:28.000Z</time>
      </trkpt>
      <trkpt lat="46.12105" lon="4.71807">
        <ele>194.58665</ele>
        <time>2023-06-17T08:15:29.000Z</time>
      </trkpt>
      <trkpt lat="46.12102" lon="4.71805">
        <ele>194.57184</ele>
        <time>2023-06-17T08:15:30.000Z</time>
      </trkpt>
      <trkpt lat="46.12098" lon="4.71804">
        <ele>194.5493</ele>
        <time>2023-06-17T08:15:31.000Z</time>
      </trkpt>
      <trkpt lat="46.12094" lon="4.71803">
        <ele>194.52756</ele>
        <time>2023-06-17T08:15:32.000Z</time>
      </trkpt>
      <trkpt lat="46.12091" lon="4.71801">
        <ele>194.50589</ele>
        <time>2023-06-17T08:15:33.000Z</time>
      </trkpt>
      <trkpt lat="46.12088" lon="4.71799">
        <ele>194.4751</ele>
        <time>2023-06-17T08:15:34.000Z</time>
      </trkpt>
      <trkpt lat="46.12085" lon="4.71796">
        <ele>194.19426</ele>
        <time>2023-06-17T08:15:35.000Z</time>
      </trkpt>
      <trkpt lat="46.12084" lon="4.71792">
        <ele>194.1261</ele>
        <time>2023-06-17T08:15:36.000Z</time>
      </trkpt>
      <trkpt lat="46.12084" lon="4.71787">
        <ele>194.08577</ele>
        <time>2023-06-17T08:15:37.000Z</time>
      </trkpt>
      <trkpt lat="46.12086" lon="4.71782">
        <ele>194.05281</ele>
        <time>2023-06-17T08:15:38.000Z</time>
      </trkpt>
      <trkpt lat="46.12088" lon="4.71777">
        <ele>193.97615</ele>
        <time>2023-06-17T08:15:39.000Z</time>
      </trkpt>
      <trkpt lat="46.1209" lon="4.71772">
        <ele>193.91212</ele>
        <time>2023-06-17T08:15:40.000Z</time>
      </trkpt>
      <trkpt lat="46.12092" lon="4.71767">
        <ele>193.84538</ele>
        <time>2023-06-17T08:15:41.000Z</time>
      </trkpt>
      <trkpt lat="46.12094" lon="4.71762">
        <ele>193.77142</ele>
        <time>2023-06-17T08:15:42.000Z</time>
      </trkpt>
      <trkpt lat="46.12096" lon="4.71757">
        <ele>193.7101</ele>
        <time>2023-06-17T08:15:43.000Z</time>
      </trkpt>
      <trkpt lat="46.12098" lon="4.71752">
        <ele>193.66406</ele>
        <time>2023-06-17T08:15:44.000Z</time>
      </trkpt>
      <trkpt lat="46.12099" lon="4.71746">
        <ele>193.61398</ele>
        <time>2023-06-17T08:15:45.000Z</time>
      </trkpt>
      <trkpt lat="46.12101" lon="4.7174">
        <ele>193.56509</ele>
        <time>2023-06-17T08:15:46.000Z</time>
      </trkpt>
      <trkpt lat="46.12102" lon="4.71735">
        <ele>193.51744</ele>
        <time>2023-06-17T08:15:47.000Z</time>
      </trkpt>
      <trkpt lat="46.12103" lon="4.71729">
        <ele>193.46439</ele>
        <time>2023-06-17T08:15:48.000Z</time>
      </trkpt>
      <trkpt lat="46.12105" lon="4.71723">
        <ele>193.42006</ele>
        <time>2023-06-17T08:15:49.000Z</time>
      </trkpt>
      <trkpt lat="46.12106" lon="4.71717">
        <ele>193.37039</ele>
        <time>2023-06-17T08:15:50.000Z</time>
      </trkpt>
      <trkpt lat="46.12107" lon="4.71711">
        <ele>193.36797</ele>
        <time>2023-06-17T08:15:51.000Z</time>
      </trkpt>
      <trkpt lat="46.12109" lon="4.71704">
        <ele>193.36203</ele>
        <time>2023-06-17T08:15:52.000Z</time>
      </trkpt>
      <trkpt lat="46.1211" lon="4.71697">
        <ele>193.36479</ele>
        <time>2023-06-17T08:15:53.000Z</time>
      </trkpt>
      <trkpt lat="46.12112" lon="4.71691">
        <ele>193.33066</ele>
        <time>2023-06-17T08:15:54.000Z</time>
      </trkpt>
      <trkpt lat="46.12114" lon="4.71684">
        <ele>193.56528</ele>
        <time>2023-06-17T08:15:55.000Z</time>
      </trkpt>
      <trkpt lat="46.12116" lon="4.71677">
        <ele>193.64023</ele>
        <time>2023-06-17T08:15:56.000Z</time>
      </trkpt>
      <trkpt lat="46.12117" lon="4.71671">
        <ele>193.72116</ele>
        <time>2023-06-17T08:15:57.000Z</time>
      </trkpt>
      <trkpt lat="46.12119" lon="4.71665">
        <ele>193.72983</ele>
        <time>2023-06-17T08:15:58.000Z</time>
      </trkpt>
      <trkpt lat="46.12121" lon="4.71658">
        <ele>193.7341</ele>
        <time>2023-06-17T08:15:59.000Z</time>
      </trkpt>
      <trkpt lat="46.12123" lon="4.71651">
        <ele>193.73801</ele>
        <time>2023-06-17T08:16:00.000Z</time>
      </trkpt>
      <trkpt lat="46.12125" lon="4.71644">
        <ele>193.75485</ele>
        <time>2023-06-17T08:16:01.000Z</time>
      </trkpt>
      <trkpt lat="46.12126" lon="4.71638">
        <ele>193.78636</ele>
        <time>2023-06-17T08:16:02.000Z</time>
      </trkpt>
      <trkpt lat="46.12129" lon="4.71632">
        <ele>193.8143</ele>
        <time>2023-06-17T08:16:03.000Z</time>
      </trkpt>
      <trkpt lat="46.1213" lon="4.71625">
        <ele>193.84311</ele>
        <time>2023-06-17T08:16:04.000Z</time>
      </trkpt>
      <trkpt lat="46.12132" lon="4.71619">
        <ele>193.84795</ele>
        <time>2023-06-17T08:16:05.000Z</time>
      </trkpt>
      <trkpt lat="46.12134" lon="4.71612">
        <ele>193.86642</ele>
        <time>2023-06-17T08:16:06.000Z</time>
      </trkpt>
      <trkpt lat="46.12136" lon="4.71606">
        <ele>193.84549</ele>
        <time>2023-06-17T08:16:07.000Z</time>
      </trkpt>
      <trkpt lat="46.12137" lon="4.71598">
        <ele>193.81253</ele>
        <time>2023-06-17T08:16:08.000Z</time>
      </trkpt>
      <trkpt lat="46.12139" lon="4.7159">
        <ele>193.54538</ele>
        <time>2023-06-17T08:16:09.000Z</time>
      </trkpt>
      <trkpt lat="46.1214" lon="4.71583">
        <ele>193.28009</ele>
        <time>2023-06-17T08:16:10.000Z</time>
      </trkpt>
      <trkpt lat="46.12142" lon="4.71575">
        <ele>193.3107</ele>
        <time>2023-06-17T08:16:11.000Z</time>
      </trkpt>
      <trkpt lat="46.12143" lon="4.71567">
        <ele>193.35214</ele>
        <time>2023-06-17T08:16:12.000Z</time>
      </trkpt>
      <trkpt lat="46.12146" lon="4.7156">
        <ele>193.4333</ele>
        <time>2023-06-17T08:16:13.000Z</time>
      </trkpt>
      <trkpt lat="46.12148" lon="4.71554">
        <ele>193.5325</ele>
        <time>2023-06-17T08:16:14.000Z</time>
      </trkpt>
      <trkpt lat="46.1215" lon="4.71547">
        <ele>193.64377</ele>
        <time>2023-06-17T08:16:15.000Z</time>
      </trkpt>
      <trkpt lat="46.12152" lon="4.71539">
        <ele>193.4805</ele>
        <time>2023-06-17T08:16:16.000Z</time>
      </trkpt>
      <trkpt lat="46.12153" lon="4.71532">
        <ele>193.29536</ele>
        <time>2023-06-17T08:16:17.000Z</time>
      </trkpt>
      <trkpt lat="46.12155" lon="4.71525">
        <ele>193.15961</ele>
        <time>2023-06-17T08:16:18.000Z</time>
      </trkpt>
      <trkpt lat="46.12157" lon="4.71519">
        <ele>193.0466</ele>
        <time>2023-06-17T08:16:19.000Z</time>
      </trkpt>
      <trkpt lat="46.12159" lon="4.71511">
        <ele>192.93994</ele>
        <time>2023-06-17T08:16:20.000Z</time>
      </trkpt>
      <trkpt lat="46.12161" lon="4.71504">
        <ele>192.80948</ele>
        <time>2023-06-17T08:16:21.000Z</time>
      </trkpt>
      <trkpt lat="46.12163" lon="4.71498">
        <ele>192.67332</ele>
        <time>2023-06-17T08:16:22.000Z</time>
      </trkpt>
      <trkpt lat="46.12164" lon="4.71491">
        <ele>192.54451</ele>
        <time>2023-06-17T08:16:23.000Z</time>
      </trkpt>
      <trkpt lat="46.12166" lon="4.71485">
        <ele>192.50223</ele>
        <time>2023-06-17T08:16:24.000Z</time>
      </trkpt>
      <trkpt lat="46.12169" lon="4.71478">
        <ele>192.57138</ele>
        <time>2023-06-17T08:16:25.000Z</time>
      </trkpt>
      <trkpt lat="46.1217" lon="4.71471">
        <ele>192.61604</ele>
        <time>2023-06-17T08:16:26.000Z</time>
      </trkpt>
      <trkpt lat="46.12172" lon="4.71465">
        <ele>192.68248</ele>
        <time>2023-06-17T08:16:27.000Z</time>
      </trkpt>
      <trkpt lat="46.12173" lon="4.71458">
        <ele>192.76093</ele>
        <time>2023-06-17T08:16:28.000Z</time>
      </trkpt>
      <trkpt lat="46.12174" lon="4.71453">
        <ele>193.14371</ele>
        <time>2023-06-17T08:16:29.000Z</time>
      </trkpt>
      <trkpt lat="46.12176" lon="4.71449">
        <ele>193.51973</ele>
        <time>2023-06-17T08:16:30.000Z</time>
      </trkpt>
      <trkpt lat="46.12178" lon="4.71444">
        <ele>193.53896</ele>
        <time>2023-06-17T08:16:31.000Z</time>
      </trkpt>
      <trkpt lat="46.12181" lon="4.71441">
        <ele>193.56348</ele>
        <time>2023-06-17T08:16:32.000Z</time>
      </trkpt>
      <trkpt lat="46.12184" lon="4.71437">
        <ele>193.46756</ele>
        <time>2023-06-17T08:16:33.000Z</time>
      </trkpt>
      <trkpt lat="46.12186" lon="4.71433">
        <ele>193.38391</ele>
        <time>2023-06-17T08:16:34.000Z</time>
      </trkpt>
      <trkpt lat="46.12188" lon="4.71428">
        <ele>193.36418</ele>
        <time>2023-06-17T08:16:35.000Z</time>
      </trkpt>
      <trkpt lat="46.12189" lon="4.71423">
        <ele>193.58789</ele>
        <time>2023-06-17T08:16:36.000Z</time>
      </trkpt>
      <trkpt lat="46.1219" lon="4.71418">
        <ele>193.8237</ele>
        <time>2023-06-17T08:16:37.000Z</time>
      </trkpt>
      <trkpt lat="46.12192" lon="4.71413">
        <ele>194.06992</ele>
        <time>2023-06-17T08:16:38.000Z</time>
      </trkpt>
      <trkpt lat="46.12194" lon="4.71408">
        <ele>194.30923</ele>
        <time>2023-06-17T08:16:39.000Z</time>
      </trkpt>
      <trkpt lat="46.12195" lon="4.71402">
        <ele>194.5276</ele>
        <time>2023-06-17T08:16:40.000Z</time>
      </trkpt>
      <trkpt lat="46.12197" lon="4.71397">
        <ele>194.75909</ele>
        <time>2023-06-17T08:16:41.000Z</time>
      </trkpt>
      <trkpt lat="46.12198" lon="4.71391">
        <ele>195.00058</ele>
        <time>2023-06-17T08:16:42.000Z</time>
      </trkpt>
      <trkpt lat="46.12199" lon="4.71385">
        <ele>195.18231</ele>
        <time>2023-06-17T08:16:43.000Z</time>
      </trkpt>
      <trkpt lat="46.12201" lon="4.71378">
        <ele>195.28177</ele>
        <time>2023-06-17T08:16:44.000Z</time>
      </trkpt>
      <trkpt lat="46.12203" lon="4.71372">
        <ele>195.29721</ele>
        <time>2023-06-17T08:16:45.000Z</time>
      </trkpt>
      <trkpt lat="46.12205" lon="4.71366">
        <ele>195.33102</ele>
        <time>2023-06-17T08:16:46.000Z</time>
      </trkpt>
      <trkpt lat="46.12207" lon="4.71359">
        <ele>195.37843</ele>
        <time>2023-06-17T08:16:47.000Z</time>
      </trkpt>
      <trkpt lat="46.12209" lon="4.71352">
        <ele>195.43152</ele>
        <time>2023-06-17T08:16:48.000Z</time>
      </trkpt>
      <trkpt lat="46.12211" lon="4.71346">
        <ele>195.40312</ele>
        <time>2023-06-17T08:16:49.000Z</time>
      </trkpt>
      <trkpt lat="46.12213" lon="4.71339">
        <ele>195.37949</ele>
        <time>2023-06-17T08:16:50.000Z</time>
      </trkpt>
      <trkpt lat="46.12215" lon="4.71332">
        <ele>195.37473</ele>
        <time>2023-06-17T08:16:51.000Z</time>
      </trkpt>
      <trkpt lat="46.12216" lon="4.71325">
        <ele>195.36191</ele>
        <time>2023-06-17T08:16:52.000Z</time>
      </trkpt>
      <trkpt lat="46.12218" lon="4.71318">
        <ele>195.42764</ele>
        <time>2023-06-17T08:16:53.000Z</time>
      </trkpt>
      <trkpt lat="46.12219" lon="4.71311">
        <ele>195.51357</ele>
        <time>2023-06-17T08:16:54.000Z</time>
      </trkpt>
      <trkpt lat="46.12221" lon="4.71304">
        <ele>195.51167</ele>
        <time>2023-06-17T08:16:55.000Z</time>
      </trkpt>
      <trkpt lat="46.12223" lon="4.71297">
        <ele>195.57759</ele>
        <time>2023-06-17T08:16:56.000Z</time>
      </trkpt>
      <trkpt lat="46.12225" lon="4.71289">
        <ele>195.64452</ele>
        <time>2023-06-17T08:16:57.000Z</time>
      </trkpt>
      <trkpt lat="46.12226" lon="4.71282">
        <ele>195.71602</ele>
        <time>2023-06-17T08:16:58.000Z</time>
      </trkpt>
      <trkpt lat="46.12229" lon="4.71275">
        <ele>195.79774</ele>
        <time>2023-06-17T08:16:59.000Z</time>
      </trkpt>
      <trkpt lat="46.12231" lon="4.71267">
        <ele>195.88548</ele>
        <time>2023-06-17T08:17:00.000Z</time>
      </trkpt>
      <trkpt lat="46.12233" lon="4.7126">
        <ele>195.97403</ele>
        <time>2023-06-17T08:17:01.000Z</time>
      </trkpt>
      <trkpt lat="46.12235" lon="4.71253">
        <ele>196.06155</ele>
        <time>2023-06-17T08:17:02.000Z</time>
      </trkpt>
      <trkpt lat="46.12236" lon="4.71245">
        <ele>196.19339</ele>
        <time>2023-06-17T08:17:03.000Z</time>
      </trkpt>
      <trkpt lat="46.12238" lon="4.71238">
        <ele>196.32294</ele>
        <time>2023-06-17T08:17:04.000Z</time>
      </trkpt>
      <trkpt lat="46.1224" lon="4.71231">
        <ele>196.45621</ele>
        <time>2023-06-17T08:17:05.000Z</time>
      </trkpt>
      <trkpt lat="46.12242" lon="4.71223">
        <ele>196.57657</ele>
        <time>2023-06-17T08:17:06.000Z</time>
      </trkpt>
      <trkpt lat="46.12244" lon="4.71215">
        <ele>196.69252</ele>
        <time>2023-06-17T08:17:07.000Z</time>
      </trkpt>
      <trkpt lat="46.12246" lon="4.71208">
        <ele>196.81129</ele>
        <time>2023-06-17T08:17:08.000Z</time>
      </trkpt>
      <trkpt lat="46.12248" lon="4.71201">
        <ele>196.93922</ele>
        <time>2023-06-17T08:17:09.000Z</time>
      </trkpt>
      <trkpt lat="46.1225" lon="4.71193">
        <ele>197.07507</ele>
        <time>2023-06-17T08:17:10.000Z</time>
      </trkpt>
      <trkpt lat="46.12252" lon="4.71186">
        <ele>197.20021</ele>
        <time>2023-06-17T08:17:11.000Z</time>
      </trkpt>
      <trkpt lat="46.12254" lon="4.71179">
        <ele>197.32964</ele>
        <time>2023-06-17T08:17:12.000Z</time>
      </trkpt>
      <trkpt lat="46.12255" lon="4.71172">
        <ele>197.37694</ele>
        <time>2023-06-17T08:17:13.000Z</time>
      </trkpt>
      <trkpt lat="46.12257" lon="4.71165">
        <ele>197.4258</ele>
        <time>2023-06-17T08:17:14.000Z</time>
      </trkpt>
      <trkpt lat="46.12257" lon="4.71157">
        <ele>197.47668</ele>
        <time>2023-06-17T08:17:15.000Z</time>
      </trkpt>
      <trkpt lat="46.12257" lon="4.71149">
        <ele>197.5397</ele>
        <time>2023-06-17T08:17:16.000Z</time>
      </trkpt>
      <trkpt lat="46.12257" lon="4.71142">
        <ele>197.58987</ele>
        <time>2023-06-17T08:17:17.000Z</time>
      </trkpt>
      <trkpt lat="46.12259" lon="4.71134">
        <ele>197.63483</ele>
        <time>2023-06-17T08:17:18.000Z</time>
      </trkpt>
      <trkpt lat="46.12261" lon="4.71127">
        <ele>197.68018</ele>
        <time>2023-06-17T08:17:19.000Z</time>
      </trkpt>
      <trkpt lat="46.12263" lon="4.7112">
        <ele>197.73059</ele>
        <time>2023-06-17T08:17:20.000Z</time>
      </trkpt>
      <trkpt lat="46.12265" lon="4.71112">
        <ele>197.78584</ele>
        <time>2023-06-17T08:17:21.000Z</time>
      </trkpt>
      <trkpt lat="46.12267" lon="4.71105">
        <ele>197.82222</ele>
        <time>2023-06-17T08:17:22.000Z</time>
      </trkpt>
      <trkpt lat="46.12269" lon="4.71098">
        <ele>197.86075</ele>
        <time>2023-06-17T08:17:23.000Z</time>
      </trkpt>
      <trkpt lat="46.1227" lon="4.7109">
        <ele>197.89992</ele>
        <time>2023-06-17T08:17:24.000Z</time>
      </trkpt>
      <trkpt lat="46.12272" lon="4.71083">
        <ele>197.95135</ele>
        <time>2023-06-17T08:17:25.000Z</time>
      </trkpt>
      <trkpt lat="46.12274" lon="4.71076">
        <ele>198.00102</ele>
        <time>2023-06-17T08:17:26.000Z</time>
      </trkpt>
      <trkpt lat="46.12276" lon="4.71068">
        <ele>198.05377</ele>
        <time>2023-06-17T08:17:27.000Z</time>
      </trkpt>
      <trkpt lat="46.12278" lon="4.71062">
        <ele>198.09134</ele>
        <time>2023-06-17T08:17:28.000Z</time>
      </trkpt>
      <trkpt lat="46.1228" lon="4.71054">
        <ele>198.07753</ele>
        <time>2023-06-17T08:17:29.000Z</time>
      </trkpt>
      <trkpt lat="46.12282" lon="4.71047">
        <ele>198.05923</ele>
        <time>2023-06-17T08:17:30.000Z</time>
      </trkpt>
      <trkpt lat="46.12284" lon="4.7104">
        <ele>198.04851</ele>
        <time>2023-06-17T08:17:31.000Z</time>
      </trkpt>
      <trkpt lat="46.12285" lon="4.71032">
        <ele>198.0298</ele>
        <time>2023-06-17T08:17:32.000Z</time>
      </trkpt>
      <trkpt lat="46.12287" lon="4.71025">
        <ele>198.08691</ele>
        <time>2023-06-17T08:17:33.000Z</time>
      </trkpt>
      <trkpt lat="46.12289" lon="4.71017">
        <ele>198.1329</ele>
        <time>2023-06-17T08:17:34.000Z</time>
      </trkpt>
      <trkpt lat="46.12291" lon="4.7101">
        <ele>198.18881</ele>
        <time>2023-06-17T08:17:35.000Z</time>
      </trkpt>
      <trkpt lat="46.12294" lon="4.71002">
        <ele>198.08452</ele>
        <time>2023-06-17T08:17:36.000Z</time>
      </trkpt>
      <trkpt lat="46.12296" lon="4.70995">
        <ele>197.97949</ele>
        <time>2023-06-17T08:17:37.000Z</time>
      </trkpt>
      <trkpt lat="46.12298" lon="4.70987">
        <ele>197.87787</ele>
        <time>2023-06-17T08:17:38.000Z</time>
      </trkpt>
      <trkpt lat="46.123" lon="4.70979">
        <ele>197.8829</ele>
        <time>2023-06-17T08:17:39.000Z</time>
      </trkpt>
      <trkpt lat="46.12301" lon="4.70971">
        <ele>197.87045</ele>
        <time>2023-06-17T08:17:40.000Z</time>
      </trkpt>
      <trkpt lat="46.12304" lon="4.70964">
        <ele>197.84445</ele>
        <time>2023-06-17T08:17:41.000Z</time>
      </trkpt>
      <trkpt lat="46.12306" lon="4.70956">
        <ele>197.82828</ele>
        <time>2023-06-17T08:17:42.000Z</time>
      </trkpt>
      <trkpt lat="46.12307" lon="4.70947">
        <ele>197.80255</ele>
        <time>2023-06-17T08:17:43.000Z</time>
      </trkpt>
      <trkpt lat="46.12309" lon="4.70939">
        <ele>197.83064</ele>
        <time>2023-06-17T08:17:44.000Z</time>
      </trkpt>
      <trkpt lat="46.12311" lon="4.7093">
        <ele>197.8479</ele>
        <time>2023-06-17T08:17:45.000Z</time>
      </trkpt>
      <trkpt lat="46.12313" lon="4.70923">
        <ele>197.8817</ele>
        <time>2023-06-17T08:17:46.000Z</time>
      </trkpt>
      <trkpt lat="46.12315" lon="4.70915">
        <ele>197.90398</ele>
        <time>2023-06-17T08:17:47.000Z</time>
      </trkpt>
      <trkpt lat="46.12318" lon="4.70908">
        <ele>197.93533</ele>
        <time>2023-06-17T08:17:48.000Z</time>
      </trkpt>
      <trkpt lat="46.12319" lon="4.709">
        <ele>198.02426</ele>
        <time>2023-06-17T08:17:49.000Z</time>
      </trkpt>
      <trkpt lat="46.12321" lon="4.70892">
        <ele>198.12355</ele>
        <time>2023-06-17T08:17:50.000Z</time>
      </trkpt>
      <trkpt lat="46.12323" lon="4.70885">
        <ele>198.20226</ele>
        <time>2023-06-17T08:17:51.000Z</time>
      </trkpt>
      <trkpt lat="46.12325" lon="4.70877">
        <ele>198.16173</ele>
        <time>2023-06-17T08:17:52.000Z</time>
      </trkpt>
      <trkpt lat="46.12327" lon="4.7087">
        <ele>198.0804</ele>
        <time>2023-06-17T08:17:53.000Z</time>
      </trkpt>
      <trkpt lat="46.12329" lon="4.70862">
        <ele>197.98708</ele>
        <time>2023-06-17T08:17:54.000Z</time>
      </trkpt>
      <trkpt lat="46.1233" lon="4.70854">
        <ele>197.96695</ele>
        <time>2023-06-17T08:17:55.000Z</time>
      </trkpt>
      <trkpt lat="46.12332" lon="4.70845">
        <ele>197.97012</ele>
        <time>2023-06-17T08:17:56.000Z</time>
      </trkpt>
      <trkpt lat="46.12334" lon="4.70837">
        <ele>197.96628</ele>
        <time>2023-06-17T08:17:57.000Z</time>
      </trkpt>
      <trkpt lat="46.12336" lon="4.7083">
        <ele>197.99466</ele>
        <time>2023-06-17T08:17:58.000Z</time>
      </trkpt>
      <trkpt lat="46.12339" lon="4.70823">
        <ele>197.91739</ele>
        <time>2023-06-17T08:17:59.000Z</time>
      </trkpt>
      <trkpt lat="46.12342" lon="4.70816">
        <ele>197.93155</ele>
        <time>2023-06-17T08:18:00.000Z</time>
      </trkpt>
      <trkpt lat="46.12343" lon="4.70806">
        <ele>198.01804</ele>
        <time>2023-06-17T08:18:01.000Z</time>
      </trkpt>
      <trkpt lat="46.12345" lon="4.70799">
        <ele>198.12848</ele>
        <time>2023-06-17T08:18:02.000Z</time>
      </trkpt>
      <trkpt lat="46.12347" lon="4.70791">
        <ele>198.25519</ele>
        <time>2023-06-17T08:18:03.000Z</time>
      </trkpt>
      <trkpt lat="46.12349" lon="4.70784">
        <ele>198.15646</ele>
        <time>2023-06-17T08:18:04.000Z</time>
      </trkpt>
      <trkpt lat="46.1235" lon="4.70777">
        <ele>198.03944</ele>
        <time>2023-06-17T08:18:05.000Z</time>
      </trkpt>
      <trkpt lat="46.12353" lon="4.70766">
        <ele>197.93283</ele>
        <time>2023-06-17T08:18:06.000Z</time>
      </trkpt>
      <trkpt lat="46.12355" lon="4.70757">
        <ele>197.84592</ele>
        <time>2023-06-17T08:18:07.000Z</time>
      </trkpt>
      <trkpt lat="46.12358" lon="4.70749">
        <ele>197.76828</ele>
        <time>2023-06-17T08:18:08.000Z</time>
      </trkpt>
      <trkpt lat="46.1236" lon="4.70742">
        <ele>197.70755</ele>
        <time>2023-06-17T08:18:09.000Z</time>
      </trkpt>
      <trkpt lat="46.12362" lon="4.70734">
        <ele>197.6154</ele>
        <time>2023-06-17T08:18:10.000Z</time>
      </trkpt>
      <trkpt lat="46.12364" lon="4.70725">
        <ele>197.55357</ele>
        <time>2023-06-17T08:18:11.000Z</time>
      </trkpt>
      <trkpt lat="46.12367" lon="4.70718">
        <ele>197.60634</ele>
        <time>2023-06-17T08:18:12.000Z</time>
      </trkpt>
      <trkpt lat="46.12369" lon="4.70711">
        <ele>197.70335</ele>
        <time>2023-06-17T08:18:13.000Z</time>
      </trkpt>
      <trkpt lat="46.12371" lon="4.70702">
        <ele>197.83702</ele>
        <time>2023-06-17T08:18:14.000Z</time>
      </trkpt>
      <trkpt lat="46.12373" lon="4.70695">
        <ele>197.87965</ele>
        <time>2023-06-17T08:18:15.000Z</time>
      </trkpt>
      <trkpt lat="46.12374" lon="4.70688">
        <ele>197.98418</ele>
        <time>2023-06-17T08:18:16.000Z</time>
      </trkpt>
      <trkpt lat="46.12376" lon="4.70679">
        <ele>198.08286</ele>
        <time>2023-06-17T08:18:17.000Z</time>
      </trkpt>
      <trkpt lat="46.12379" lon="4.70673">
        <ele>198.1693</ele>
        <time>2023-06-17T08:18:18.000Z</time>
      </trkpt>
      <trkpt lat="46.1238" lon="4.70665">
        <ele>198.24182</ele>
        <time>2023-06-17T08:18:19.000Z</time>
      </trkpt>
      <trkpt lat="46.12383" lon="4.70657">
        <ele>198.24004</ele>
        <time>2023-06-17T08:18:20.000Z</time>
      </trkpt>
      <trkpt lat="46.12384" lon="4.7065">
        <ele>198.16592</ele>
        <time>2023-06-17T08:18:21.000Z</time>
      </trkpt>
      <trkpt lat="46.12386" lon="4.70643">
        <ele>198.07767</ele>
        <time>2023-06-17T08:18:22.000Z</time>
      </trkpt>
      <trkpt lat="46.12388" lon="4.70635">
        <ele>197.98314</ele>
        <time>2023-06-17T08:18:23.000Z</time>
      </trkpt>
      <trkpt lat="46.12389" lon="4.70628">
        <ele>198.06461</ele>
        <time>2023-06-17T08:18:24.000Z</time>
      </trkpt>
      <trkpt lat="46.12392" lon="4.70621">
        <ele>198.13803</ele>
        <time>2023-06-17T08:18:25.000Z</time>
      </trkpt>
      <trkpt lat="46.12394" lon="4.70613">
        <ele>198.18869</ele>
        <time>2023-06-17T08:18:26.000Z</time>
      </trkpt>
      <trkpt lat="46.12395" lon="4.70606">
        <ele>198.23074</ele>
        <time>2023-06-17T08:18:27.000Z</time>
      </trkpt>
      <trkpt lat="46.12397" lon="4.70598">
        <ele>198.38649</ele>
        <time>2023-06-17T08:18:28.000Z</time>
      </trkpt>
      <trkpt lat="46.12399" lon="4.70591">
        <ele>198.52975</ele>
        <time>2023-06-17T08:18:29.000Z</time>
      </trkpt>
      <trkpt lat="46.12401" lon="4.70584">
        <ele>198.683</ele>
        <time>2023-06-17T08:18:30.000Z</time>
      </trkpt>
      <trkpt lat="46.12403" lon="4.70577">
        <ele>198.80872</ele>
        <time>2023-06-17T08:18:31.000Z</time>
      </trkpt>
      <trkpt lat="46.12405" lon="4.70569">
        <ele>198.93668</ele>
        <time>2023-06-17T08:18:32.000Z</time>
      </trkpt>
      <trkpt lat="46.12407" lon="4.70563">
        <ele>199.0453</ele>
        <time>2023-06-17T08:18:33.000Z</time>
      </trkpt>
      <trkpt lat="46.12409" lon="4.70556">
        <ele>199.12891</ele>
        <time>2023-06-17T08:18:34.000Z</time>
      </trkpt>
      <trkpt lat="46.12411" lon="4.70548">
        <ele>199.22934</ele>
        <time>2023-06-17T08:18:35.000Z</time>
      </trkpt>
      <trkpt lat="46.12413" lon="4.70542">
        <ele>199.3017</ele>
        <time>2023-06-17T08:18:36.000Z</time>
      </trkpt>
      <trkpt lat="46.12414" lon="4.70536">
        <ele>199.40309</ele>
        <time>2023-06-17T08:18:37.000Z</time>
      </trkpt>
      <trkpt lat="46.12416" lon="4.70528">
        <ele>199.49321</ele>
        <time>2023-06-17T08:18:38.000Z</time>
      </trkpt>
      <trkpt lat="46.12419" lon="4.70519">
        <ele>199.57036</ele>
        <time>2023-06-17T08:18:39.000Z</time>
      </trkpt>
      <trkpt lat="46.1242" lon="4.70511">
        <ele>199.63516</ele>
        <time>2023-06-17T08:18:40.000Z</time>
      </trkpt>
      <trkpt lat="46.12422" lon="4.70504">
        <ele>199.70197</ele>
        <time>2023-06-17T08:18:41.000Z</time>
      </trkpt>
      <trkpt lat="46.12423" lon="4.70497">
        <ele>199.75441</ele>
        <time>2023-06-17T08:18:42.000Z</time>
      </trkpt>
      <trkpt lat="46.12425" lon="4.70491">
        <ele>199.80179</ele>
        <time>2023-06-17T08:18:43.000Z</time>
      </trkpt>
      <trkpt lat="46.12428" lon="4.70483">
        <ele>199.84329</ele>
        <time>2023-06-17T08:18:44.000Z</time>
      </trkpt>
      <trkpt lat="46.1243" lon="4.70475">
        <ele>199.94179</ele>
        <time>2023-06-17T08:18:45.000Z</time>
      </trkpt>
      <trkpt lat="46.12431" lon="4.70468">
        <ele>200.06937</ele>
        <time>2023-06-17T08:18:46.000Z</time>
      </trkpt>
      <trkpt lat="46.12433" lon="4.7046">
        <ele>200.16678</ele>
        <time>2023-06-17T08:18:47.000Z</time>
      </trkpt>
      <trkpt lat="46.12435" lon="4.70452">
        <ele>200.14391</ele>
        <time>2023-06-17T08:18:48.000Z</time>
      </trkpt>
      <trkpt lat="46.12437" lon="4.70445">
        <ele>200.11809</ele>
        <time>2023-06-17T08:18:49.000Z</time>
      </trkpt>
      <trkpt lat="46.1244" lon="4.70437">
        <ele>200.14302</ele>
        <time>2023-06-17T08:18:50.000Z</time>
      </trkpt>
      <trkpt lat="46.12442" lon="4.70429">
        <ele>200.17561</ele>
        <time>2023-06-17T08:18:51.000Z</time>
      </trkpt>
      <trkpt lat="46.12444" lon="4.70422">
        <ele>200.21591</ele>
        <time>2023-06-17T08:18:52.000Z</time>
      </trkpt>
      <trkpt lat="46.12445" lon="4.70417">
        <ele>200.26639</ele>
        <time>2023-06-17T08:18:53.000Z</time>
      </trkpt>
      <trkpt lat="46.12446" lon="4.7041">
        <ele>200.29507</ele>
        <time>2023-06-17T08:18:54.000Z</time>
      </trkpt>
      <trkpt lat="46.12448" lon="4.70404">
        <ele>200.3213</ele>
        <time>2023-06-17T08:18:55.000Z</time>
      </trkpt>
      <trkpt lat="46.1245" lon="4.70397">
        <ele>200.34825</ele>
        <time>2023-06-17T08:18:56.000Z</time>
      </trkpt>
      <trkpt lat="46.12452" lon="4.70389">
        <ele>200.34595</ele>
        <time>2023-06-17T08:18:57.000Z</time>
      </trkpt>
      <trkpt lat="46.12453" lon="4.70383">
        <ele>200.33548</ele>
        <time>2023-06-17T08:18:58.000Z</time>
      </trkpt>
      <trkpt lat="46.12455" lon="4.70376">
        <ele>200.33536</ele>
        <time>2023-06-17T08:18:59.000Z</time>
      </trkpt>
      <trkpt lat="46.12457" lon="4.70368">
        <ele>200.34654</ele>
        <time>2023-06-17T08:19:00.000Z</time>
      </trkpt>
      <trkpt lat="46.1246" lon="4.70361">
        <ele>200.34695</ele>
        <time>2023-06-17T08:19:01.000Z</time>
      </trkpt>
      <trkpt lat="46.12462" lon="4.70353">
        <ele>200.36401</ele>
        <time>2023-06-17T08:19:02.000Z</time>
      </trkpt>
      <trkpt lat="46.12464" lon="4.70345">
        <ele>200.38374</ele>
        <time>2023-06-17T08:19:03.000Z</time>
      </trkpt>
      <trkpt lat="46.12466" lon="4.70336">
        <ele>200.40785</ele>
        <time>2023-06-17T08:19:04.000Z</time>
      </trkpt>
      <trkpt lat="46.12467" lon="4.70328">
        <ele>200.38576</ele>
        <time>2023-06-17T08:19:05.000Z</time>
      </trkpt>
      <trkpt lat="46.12469" lon="4.7032">
        <ele>200.345</ele>
        <time>2023-06-17T08:19:06.000Z</time>
      </trkpt>
      <trkpt lat="46.1247" lon="4.70312">
        <ele>200.33591</ele>
        <time>2023-06-17T08:19:07.000Z</time>
      </trkpt>
      <trkpt lat="46.12473" lon="4.70304">
        <ele>200.31049</ele>
        <time>2023-06-17T08:19:08.000Z</time>
      </trkpt>
      <trkpt lat="46.12474" lon="4.70296">
        <ele>200.2695</ele>
        <time>2023-06-17T08:19:09.000Z</time>
      </trkpt>
      <trkpt lat="46.12477" lon="4.70288">
        <ele>200.21951</ele>
        <time>2023-06-17T08:19:10.000Z</time>
      </trkpt>
      <trkpt lat="46.12479" lon="4.70281">
        <ele>200.1705</ele>
        <time>2023-06-17T08:19:11.000Z</time>
      </trkpt>
      <trkpt lat="46.12482" lon="4.70273">
        <ele>200.12706</ele>
        <time>2023-06-17T08:19:12.000Z</time>
      </trkpt>
      <trkpt lat="46.12484" lon="4.70264">
        <ele>200.11215</ele>
        <time>2023-06-17T08:19:13.000Z</time>
      </trkpt>
      <trkpt lat="46.12486" lon="4.70257">
        <ele>200.12646</ele>
        <time>2023-06-17T08:19:14.000Z</time>
      </trkpt>
      <trkpt lat="46.12488" lon="4.7025">
        <ele>200.13904</ele>
        <time>2023-06-17T08:19:15.000Z</time>
      </trkpt>
      <trkpt lat="46.12489" lon="4.70242">
        <ele>200.13438</ele>
        <time>2023-06-17T08:19:16.000Z</time>
      </trkpt>
      <trkpt lat="46.12492" lon="4.70235">
        <ele>200.14828</ele>
        <time>2023-06-17T08:19:17.000Z</time>
      </trkpt>
      <trkpt lat="46.12494" lon="4.70226">
        <ele>200.17438</ele>
        <time>2023-06-17T08:19:18.000Z</time>
      </trkpt>
      <trkpt lat="46.12496" lon="4.70218">
        <ele>200.20384</ele>
        <time>2023-06-17T08:19:19.000Z</time>
      </trkpt>
      <trkpt lat="46.12498" lon="4.7021">
        <ele>200.231</ele>
        <time>2023-06-17T08:19:20.000Z</time>
      </trkpt>
      <trkpt lat="46.12501" lon="4.70202">
        <ele>200.25522</ele>
        <time>2023-06-17T08:19:21.000Z</time>
      </trkpt>
      <trkpt lat="46.12503" lon="4.70194">
        <ele>200.25095</ele>
        <time>2023-06-17T08:19:22.000Z</time>
      </trkpt>
      <trkpt lat="46.12505" lon="4.70187">
        <ele>200.24232</ele>
        <time>2023-06-17T08:19:23.000Z</time>
      </trkpt>
      <trkpt lat="46.12507" lon="4.7018">
        <ele>200.24561</ele>
        <time>2023-06-17T08:19:24.000Z</time>
      </trkpt>
      <trkpt lat="46.12509" lon="4.70171">
        <ele>200.23212</ele>
        <time>2023-06-17T08:19:25.000Z</time>
      </trkpt>
      <trkpt lat="46.12512" lon="4.70162">
        <ele>200.21135</ele>
        <time>2023-06-17T08:19:26.000Z</time>
      </trkpt>
      <trkpt lat="46.12515" lon="4.70152">
        <ele>200.19551</ele>
        <time>2023-06-17T08:19:27.000Z</time>
      </trkpt>
      <trkpt lat="46.12517" lon="4.70145">
        <ele>200.22488</ele>
        <time>2023-06-17T08:19:28.000Z</time>
      </trkpt>
      <trkpt lat="46.12519" lon="4.70136">
        <ele>200.27499</ele>
        <time>2023-06-17T08:19:29.000Z</time>
      </trkpt>
      <trkpt lat="46.12521" lon="4.70128">
        <ele>200.30241</ele>
        <time>2023-06-17T08:19:30.000Z</time>
      </trkpt>
      <trkpt lat="46.12522" lon="4.7012">
        <ele>200.36069</ele>
        <time>2023-06-17T08:19:31.000Z</time>
      </trkpt>
      <trkpt lat="46.12525" lon="4.70111">
        <ele>200.39725</ele>
        <time>2023-06-17T08:19:32.000Z</time>
      </trkpt>
      <trkpt lat="46.12526" lon="4.70104">
        <ele>200.36008</ele>
        <time>2023-06-17T08:19:33.000Z</time>
      </trkpt>
      <trkpt lat="46.12527" lon="4.70095">
        <ele>200.32092</ele>
        <time>2023-06-17T08:19:34.000Z</time>
      </trkpt>
      <trkpt lat="46.12529" lon="4.70085">
        <ele>200.27841</ele>
        <time>2023-06-17T08:19:35.000Z</time>
      </trkpt>
      <trkpt lat="46.1253" lon="4.70077">
        <ele>200.26607</ele>
        <time>2023-06-17T08:19:36.000Z</time>
      </trkpt>
      <trkpt lat="46.12531" lon="4.7007">
        <ele>200.22408</ele>
        <time>2023-06-17T08:19:37.000Z</time>
      </trkpt>
      <trkpt lat="46.12533" lon="4.70061">
        <ele>200.17276</ele>
        <time>2023-06-17T08:19:38.000Z</time>
      </trkpt>
      <trkpt lat="46.12534" lon="4.70052">
        <ele>200.12912</ele>
        <time>2023-06-17T08:19:39.000Z</time>
      </trkpt>
      <trkpt lat="46.12535" lon="4.70043">
        <ele>200.08466</ele>
        <time>2023-06-17T08:19:40.000Z</time>
      </trkpt>
      <trkpt lat="46.12537" lon="4.70033">
        <ele>200.06587</ele>
        <time>2023-06-17T08:19:41.000Z</time>
      </trkpt>
      <trkpt lat="46.12537" lon="4.70025">
        <ele>200.05046</ele>
        <time>2023-06-17T08:19:42.000Z</time>
      </trkpt>
      <trkpt lat="46.12539" lon="4.70015">
        <ele>200.06584</ele>
        <time>2023-06-17T08:19:43.000Z</time>
      </trkpt>
      <trkpt lat="46.12539" lon="4.70007">
        <ele>200.08566</ele>
        <time>2023-06-17T08:19:44.000Z</time>
      </trkpt>
      <trkpt lat="46.1254" lon="4.69998">
        <ele>200.09322</ele>
        <time>2023-06-17T08:19:45.000Z</time>
      </trkpt>
      <trkpt lat="46.12541" lon="4.69989">
        <ele>200.12735</ele>
        <time>2023-06-17T08:19:46.000Z</time>
      </trkpt>
      <trkpt lat="46.12542" lon="4.69981">
        <ele>200.14072</ele>
        <time>2023-06-17T08:19:47.000Z</time>
      </trkpt>
      <trkpt lat="46.12542" lon="4.69972">
        <ele>200.1368</ele>
        <time>2023-06-17T08:19:48.000Z</time>
      </trkpt>
      <trkpt lat="46.12542" lon="4.69964">
        <ele>200.12103</ele>
        <time>2023-06-17T08:19:49.000Z</time>
      </trkpt>
      <trkpt lat="46.12542" lon="4.69956">
        <ele>200.09619</ele>
        <time>2023-06-17T08:19:50.000Z</time>
      </trkpt>
      <trkpt lat="46.12544" lon="4.69948">
        <ele>200.02992</ele>
        <time>2023-06-17T08:19:51.000Z</time>
      </trkpt>
      <trkpt lat="46.12544" lon="4.69939">
        <ele>199.96295</ele>
        <time>2023-06-17T08:19:52.000Z</time>
      </trkpt>
      <trkpt lat="46.12545" lon="4.69931">
        <ele>199.97659</ele>
        <time>2023-06-17T08:19:53.000Z</time>
      </trkpt>
      <trkpt lat="46.12545" lon="4.69922">
        <ele>199.9928</ele>
        <time>2023-06-17T08:19:54.000Z</time>
      </trkpt>
      <trkpt lat="46.12544" lon="4.69913">
        <ele>199.99484</ele>
        <time>2023-06-17T08:19:55.000Z</time>
      </trkpt>
      <trkpt lat="46.12544" lon="4.69905">
        <ele>200.06679</ele>
        <time>2023-06-17T08:19:56.000Z</time>
      </trkpt>
      <trkpt lat="46.12545" lon="4.69895">
        <ele>200.17496</ele>
        <time>2023-06-17T08:19:57.000Z</time>
      </trkpt>
      <trkpt lat="46.12545" lon="4.69888">
        <ele>200.27084</ele>
        <time>2023-06-17T08:19:58.000Z</time>
      </trkpt>
      <trkpt lat="46.12544" lon="4.6988">
        <ele>200.36966</ele>
        <time>2023-06-17T08:19:59.000Z</time>
      </trkpt>
      <trkpt lat="46.12544" lon="4.69873">
        <ele>200.47316</ele>
        <time>2023-06-17T08:20:00.000Z</time>
      </trkpt>
      <trkpt lat="46.12543" lon="4.69865">
        <ele>200.54646</ele>
        <time>2023-06-17T08:20:01.000Z</time>
      </trkpt>
      <trkpt lat="46.12542" lon="4.69858">
        <ele>200.6236</ele>
        <time>2023-06-17T08:20:02.000Z</time>
      </trkpt>
      <trkpt lat="46.12542" lon="4.69851">
        <ele>200.68399</ele>
        <time>2023-06-17T08:20:03.000Z</time>
      </trkpt>
      <trkpt lat="46.12541" lon="4.69843">
        <ele>200.74866</ele>
        <time>2023-06-17T08:20:04.000Z</time>
      </trkpt>
      <trkpt lat="46.12542" lon="4.69835">
        <ele>200.85945</ele>
        <time>2023-06-17T08:20:05.000Z</time>
      </trkpt>
      <trkpt lat="46.12543" lon="4.69827">
        <ele>200.93184</ele>
        <time>2023-06-17T08:20:06.000Z</time>
      </trkpt>
      <trkpt lat="46.12542" lon="4.69821">
        <ele>200.98782</ele>
        <time>2023-06-17T08:20:07.000Z</time>
      </trkpt>
      <trkpt lat="46.1254" lon="4.69813">
        <ele>201.02548</ele>
        <time>2023-06-17T08:20:08.000Z</time>
      </trkpt>
      <trkpt lat="46.12537" lon="4.69804">
        <ele>201.07063</ele>
        <time>2023-06-17T08:20:09.000Z</time>
      </trkpt>
      <trkpt lat="46.12536" lon="4.69797">
        <ele>201.11081</ele>
        <time>2023-06-17T08:20:10.000Z</time>
      </trkpt>
      <trkpt lat="46.12535" lon="4.69788">
        <ele>201.21359</ele>
        <time>2023-06-17T08:20:11.000Z</time>
      </trkpt>
      <trkpt lat="46.12533" lon="4.6978">
        <ele>201.28375</ele>
        <time>2023-06-17T08:20:12.000Z</time>
      </trkpt>
      <trkpt lat="46.12532" lon="4.69772">
        <ele>201.34184</ele>
        <time>2023-06-17T08:20:13.000Z</time>
      </trkpt>
      <trkpt lat="46.12532" lon="4.69764">
        <ele>201.41679</ele>
        <time>2023-06-17T08:20:14.000Z</time>
      </trkpt>
      <trkpt lat="46.12531" lon="4.69756">
        <ele>201.51582</ele>
        <time>2023-06-17T08:20:15.000Z</time>
      </trkpt>
      <trkpt lat="46.12529" lon="4.69748">
        <ele>201.53775</ele>
        <time>2023-06-17T08:20:16.000Z</time>
      </trkpt>
      <trkpt lat="46.12528" lon="4.69741">
        <ele>201.56276</ele>
        <time>2023-06-17T08:20:17.000Z</time>
      </trkpt>
      <trkpt lat="46.12526" lon="4.69734">
        <ele>201.58401</ele>
        <time>2023-06-17T08:20:18.000Z</time>
      </trkpt>
      <trkpt lat="46.12525" lon="4.69727">
        <ele>201.62943</ele>
        <time>2023-06-17T08:20:19.000Z</time>
      </trkpt>
      <trkpt lat="46.12523" lon="4.69719">
        <ele>201.66779</ele>
        <time>2023-06-17T08:20:20.000Z</time>
      </trkpt>
      <trkpt lat="46.12522" lon="4.69711">
        <ele>201.72353</ele>
        <time>2023-06-17T08:20:21.000Z</time>
      </trkpt>
      <trkpt lat="46.1252" lon="4.69704">
        <ele>201.75041</ele>
        <time>2023-06-17T08:20:22.000Z</time>
      </trkpt>
      <trkpt lat="46.12519" lon="4.69696">
        <ele>201.77466</ele>
        <time>2023-06-17T08:20:23.000Z</time>
      </trkpt>
      <trkpt lat="46.12516" lon="4.69689">
        <ele>201.75119</ele>
        <time>2023-06-17T08:20:24.000Z</time>
      </trkpt>
      <trkpt lat="46.12514" lon="4.69681">
        <ele>201.78537</ele>
        <time>2023-06-17T08:20:25.000Z</time>
      </trkpt>
      <trkpt lat="46.12512" lon="4.69673">
        <ele>201.83186</ele>
        <time>2023-06-17T08:20:26.000Z</time>
      </trkpt>
      <trkpt lat="46.1251" lon="4.69667">
        <ele>201.92056</ele>
        <time>2023-06-17T08:20:27.000Z</time>
      </trkpt>
      <trkpt lat="46.12507" lon="4.6966">
        <ele>202.00935</ele>
        <time>2023-06-17T08:20:28.000Z</time>
      </trkpt>
      <trkpt lat="46.12505" lon="4.69653">
        <ele>202.08347</ele>
        <time>2023-06-17T08:20:29.000Z</time>
      </trkpt>
      <trkpt lat="46.12503" lon="4.69646">
        <ele>202.16684</ele>
        <time>2023-06-17T08:20:30.000Z</time>
      </trkpt>
      <trkpt lat="46.125" lon="4.69639">
        <ele>202.20804</ele>
        <time>2023-06-17T08:20:31.000Z</time>
      </trkpt>
      <trkpt lat="46.12497" lon="4.69633">
        <ele>202.27321</ele>
        <time>2023-06-17T08:20:32.000Z</time>
      </trkpt>
      <trkpt lat="46.12495" lon="4.69626">
        <ele>202.32352</ele>
        <time>2023-06-17T08:20:33.000Z</time>
      </trkpt>
      <trkpt lat="46.12492" lon="4.69619">
        <ele>202.34682</ele>
        <time>2023-06-17T08:20:34.000Z</time>
      </trkpt>
      <trkpt lat="46.12489" lon="4.69612">
        <ele>202.35141</ele>
        <time>2023-06-17T08:20:35.000Z</time>
      </trkpt>
      <trkpt lat="46.12487" lon="4.69605">
        <ele>202.34438</ele>
        <time>2023-06-17T08:20:36.000Z</time>
      </trkpt>
      <trkpt lat="46.12484" lon="4.69598">
        <ele>202.32954</ele>
        <time>2023-06-17T08:20:37.000Z</time>
      </trkpt>
      <trkpt lat="46.12482" lon="4.6959">
        <ele>202.3951</ele>
        <time>2023-06-17T08:20:38.000Z</time>
      </trkpt>
      <trkpt lat="46.12479" lon="4.69584">
        <ele>202.42236</ele>
        <time>2023-06-17T08:20:39.000Z</time>
      </trkpt>
      <trkpt lat="46.12478" lon="4.69576">
        <ele>202.49818</ele>
        <time>2023-06-17T08:20:40.000Z</time>
      </trkpt>
      <trkpt lat="46.12475" lon="4.69569">
        <ele>202.6114</ele>
        <time>2023-06-17T08:20:41.000Z</time>
      </trkpt>
      <trkpt lat="46.12474" lon="4.69562">
        <ele>202.82182</ele>
        <time>2023-06-17T08:20:42.000Z</time>
      </trkpt>
      <trkpt lat="46.1247" lon="4.69555">
        <ele>203.00415</ele>
        <time>2023-06-17T08:20:43.000Z</time>
      </trkpt>
      <trkpt lat="46.12468" lon="4.69547">
        <ele>203.21286</ele>
        <time>2023-06-17T08:20:44.000Z</time>
      </trkpt>
      <trkpt lat="46.12465" lon="4.69539">
        <ele>203.37234</ele>
        <time>2023-06-17T08:20:45.000Z</time>
      </trkpt>
      <trkpt lat="46.12463" lon="4.69532">
        <ele>203.49669</ele>
        <time>2023-06-17T08:20:46.000Z</time>
      </trkpt>
      <trkpt lat="46.12461" lon="4.69526">
        <ele>203.62613</ele>
        <time>2023-06-17T08:20:47.000Z</time>
      </trkpt>
      <trkpt lat="46.12457" lon="4.69519">
        <ele>203.71475</ele>
        <time>2023-06-17T08:20:48.000Z</time>
      </trkpt>
      <trkpt lat="46.12454" lon="4.69512">
        <ele>203.78674</ele>
        <time>2023-06-17T08:20:49.000Z</time>
      </trkpt>
      <trkpt lat="46.12453" lon="4.69506">
        <ele>203.85745</ele>
        <time>2023-06-17T08:20:50.000Z</time>
      </trkpt>
      <trkpt lat="46.12449" lon="4.69497">
        <ele>203.93211</ele>
        <time>2023-06-17T08:20:51.000Z</time>
      </trkpt>
      <trkpt lat="46.12447" lon="4.69489">
        <ele>204.00046</ele>
        <time>2023-06-17T08:20:52.000Z</time>
      </trkpt>
      <trkpt lat="46.12444" lon="4.69483">
        <ele>204.0345</ele>
        <time>2023-06-17T08:20:53.000Z</time>
      </trkpt>
      <trkpt lat="46.12442" lon="4.69476">
        <ele>204.19041</ele>
        <time>2023-06-17T08:20:54.000Z</time>
      </trkpt>
      <trkpt lat="46.1244" lon="4.69468">
        <ele>204.3712</ele>
        <time>2023-06-17T08:20:55.000Z</time>
      </trkpt>
      <trkpt lat="46.12438" lon="4.6946">
        <ele>204.55731</ele>
        <time>2023-06-17T08:20:56.000Z</time>
      </trkpt>
      <trkpt lat="46.12435" lon="4.69452">
        <ele>204.73993</ele>
        <time>2023-06-17T08:20:57.000Z</time>
      </trkpt>
      <trkpt lat="46.12433" lon="4.69445">
        <ele>204.8717</ele>
        <time>2023-06-17T08:20:58.000Z</time>
      </trkpt>
      <trkpt lat="46.1243" lon="4.69438">
        <ele>205.0437</ele>
        <time>2023-06-17T08:20:59.000Z</time>
      </trkpt>
      <trkpt lat="46.12428" lon="4.6943">
        <ele>205.16499</ele>
        <time>2023-06-17T08:21:00.000Z</time>
      </trkpt>
      <trkpt lat="46.12426" lon="4.69422">
        <ele>205.27425</ele>
        <time>2023-06-17T08:21:01.000Z</time>
      </trkpt>
      <trkpt lat="46.12424" lon="4.69414">
        <ele>205.3429</ele>
        <time>2023-06-17T08:21:02.000Z</time>
      </trkpt>
      <trkpt lat="46.12422" lon="4.69408">
        <ele>205.46614</ele>
        <time>2023-06-17T08:21:03.000Z</time>
      </trkpt>
      <trkpt lat="46.12419" lon="4.69402">
        <ele>205.51314</ele>
        <time>2023-06-17T08:21:04.000Z</time>
      </trkpt>
      <trkpt lat="46.12416" lon="4.69395">
        <ele>205.54948</ele>
        <time>2023-06-17T08:21:05.000Z</time>
      </trkpt>
      <trkpt lat="46.12412" lon="4.69388">
        <ele>205.57588</ele>
        <time>2023-06-17T08:21:06.000Z</time>
      </trkpt>
      <trkpt lat="46.1241" lon="4.69382">
        <ele>205.65759</ele>
        <time>2023-06-17T08:21:07.000Z</time>
      </trkpt>
      <trkpt lat="46.12409" lon="4.69374">
        <ele>205.76633</ele>
        <time>2023-06-17T08:21:08.000Z</time>
      </trkpt>
      <trkpt lat="46.12408" lon="4.69367">
        <ele>205.93755</ele>
        <time>2023-06-17T08:21:09.000Z</time>
      </trkpt>
      <trkpt lat="46.12407" lon="4.69358">
        <ele>206.14424</ele>
        <time>2023-06-17T08:21:10.000Z</time>
      </trkpt>
      <trkpt lat="46.12406" lon="4.69352">
        <ele>206.36536</ele>
        <time>2023-06-17T08:21:11.000Z</time>
      </trkpt>
      <trkpt lat="46.12403" lon="4.69345">
        <ele>206.5809</ele>
        <time>2023-06-17T08:21:12.000Z</time>
      </trkpt>
      <trkpt lat="46.124" lon="4.69337">
        <ele>206.80132</ele>
        <time>2023-06-17T08:21:13.000Z</time>
      </trkpt>
      <trkpt lat="46.12398" lon="4.6933">
        <ele>206.88078</ele>
        <time>2023-06-17T08:21:14.000Z</time>
      </trkpt>
      <trkpt lat="46.12398" lon="4.69322">
        <ele>207.00418</ele>
        <time>2023-06-17T08:21:15.000Z</time>
      </trkpt>
      <trkpt lat="46.12397" lon="4.69314">
        <ele>207.1337</ele>
        <time>2023-06-17T08:21:16.000Z</time>
      </trkpt>
      <trkpt lat="46.12396" lon="4.69306">
        <ele>207.22749</ele>
        <time>2023-06-17T08:21:17.000Z</time>
      </trkpt>
      <trkpt lat="46.12395" lon="4.69299">
        <ele>207.2876</ele>
        <time>2023-06-17T08:21:18.000Z</time>
      </trkpt>
      <trkpt lat="46.12395" lon="4.69288">
        <ele>207.46594</ele>
        <time>2023-06-17T08:21:19.000Z</time>
      </trkpt>
      <trkpt lat="46.12392" lon="4.69278">
        <ele>207.56226</ele>
        <time>2023-06-17T08:21:20.000Z</time>
      </trkpt>
      <trkpt lat="46.12391" lon="4.6927">
        <ele>207.6093</ele>
        <time>2023-06-17T08:21:21.000Z</time>
      </trkpt>
      <trkpt lat="46.1239" lon="4.69262">
        <ele>207.65393</ele>
        <time>2023-06-17T08:21:22.000Z</time>
      </trkpt>
      <trkpt lat="46.12389" lon="4.69253">
        <ele>207.68596</ele>
        <time>2023-06-17T08:21:23.000Z</time>
      </trkpt>
      <trkpt lat="46.12387" lon="4.69246">
        <ele>207.77213</ele>
        <time>2023-06-17T08:21:24.000Z</time>
      </trkpt>
      <trkpt lat="46.12385" lon="4.69238">
        <ele>207.88155</ele>
        <time>2023-06-17T08:21:25.000Z</time>
      </trkpt>
      <trkpt lat="46.12383" lon="4.69229">
        <ele>208.049</ele>
        <time>2023-06-17T08:21:26.000Z</time>
      </trkpt>
      <trkpt lat="46.12383" lon="4.69222">
        <ele>208.14668</ele>
        <time>2023-06-17T08:21:27.000Z</time>
      </trkpt>
      <trkpt lat="46.12382" lon="4.69214">
        <ele>208.2677</ele>
        <time>2023-06-17T08:21:28.000Z</time>
      </trkpt>
      <trkpt lat="46.12381" lon="4.69206">
        <ele>208.36044</ele>
        <time>2023-06-17T08:21:29.000Z</time>
      </trkpt>
      <trkpt lat="46.12379" lon="4.69199">
        <ele>208.31735</ele>
        <time>2023-06-17T08:21:30.000Z</time>
      </trkpt>
      <trkpt lat="46.12379" lon="4.6919">
        <ele>208.27127</ele>
        <time>2023-06-17T08:21:31.000Z</time>
      </trkpt>
      <trkpt lat="46.12377" lon="4.69182">
        <ele>208.24236</ele>
        <time>2023-06-17T08:21:32.000Z</time>
      </trkpt>
      <trkpt lat="46.12377" lon="4.69174">
        <ele>208.21103</ele>
        <time>2023-06-17T08:21:33.000Z</time>
      </trkpt>
      <trkpt lat="46.12376" lon="4.69167">
        <ele>208.11136</ele>
        <time>2023-06-17T08:21:34.000Z</time>
      </trkpt>
      <trkpt lat="46.12374" lon="4.69158">
        <ele>207.90401</ele>
        <time>2023-06-17T08:21:35.000Z</time>
      </trkpt>
      <trkpt lat="46.12374" lon="4.69149">
        <ele>207.79988</ele>
        <time>2023-06-17T08:21:36.000Z</time>
      </trkpt>
      <trkpt lat="46.12373" lon="4.6914">
        <ele>207.69382</ele>
        <time>2023-06-17T08:21:37.000Z</time>
      </trkpt>
      <trkpt lat="46.12372" lon="4.69133">
        <ele>207.60999</ele>
        <time>2023-06-17T08:21:38.000Z</time>
      </trkpt>
      <trkpt lat="46.12372" lon="4.69124">
        <ele>207.37605</ele>
        <time>2023-06-17T08:21:39.000Z</time>
      </trkpt>
      <trkpt lat="46.12371" lon="4.69118">
        <ele>207.23674</ele>
        <time>2023-06-17T08:21:40.000Z</time>
      </trkpt>
      <trkpt lat="46.12373" lon="4.6911">
        <ele>207.14517</ele>
        <time>2023-06-17T08:21:41.000Z</time>
      </trkpt>
      <trkpt lat="46.12372" lon="4.69103">
        <ele>207.03035</ele>
        <time>2023-06-17T08:21:42.000Z</time>
      </trkpt>
      <trkpt lat="46.12374" lon="4.69094">
        <ele>206.93283</ele>
        <time>2023-06-17T08:21:43.000Z</time>
      </trkpt>
      <trkpt lat="46.12373" lon="4.69088">
        <ele>206.79898</ele>
        <time>2023-06-17T08:21:44.000Z</time>
      </trkpt>
      <trkpt lat="46.12373" lon="4.6908">
        <ele>206.64365</ele>
        <time>2023-06-17T08:21:45.000Z</time>
      </trkpt>
      <trkpt lat="46.12375" lon="4.69072">
        <ele>206.50813</ele>
        <time>2023-06-17T08:21:46.000Z</time>
      </trkpt>
      <trkpt lat="46.12375" lon="4.69064">
        <ele>206.31677</ele>
        <time>2023-06-17T08:21:47.000Z</time>
      </trkpt>
      <trkpt lat="46.12375" lon="4.69057">
        <ele>206.0621</ele>
        <time>2023-06-17T08:21:48.000Z</time>
      </trkpt>
      <trkpt lat="46.12375" lon="4.69049">
        <ele>205.90616</ele>
        <time>2023-06-17T08:21:49.000Z</time>
      </trkpt>
      <trkpt lat="46.12375" lon="4.69042">
        <ele>205.8134</ele>
        <time>2023-06-17T08:21:50.000Z</time>
      </trkpt>
      <trkpt lat="46.12375" lon="4.69038">
        <ele>205.67627</ele>
        <time>2023-06-17T08:21:51.000Z</time>
      </trkpt>
      <trkpt lat="46.12374" lon="4.6903">
        <ele>205.56528</ele>
        <time>2023-06-17T08:21:52.000Z</time>
      </trkpt>
      <trkpt lat="46.12374" lon="4.69023">
        <ele>205.47932</ele>
        <time>2023-06-17T08:21:53.000Z</time>
      </trkpt>
      <trkpt lat="46.12373" lon="4.69016">
        <ele>205.49631</ele>
        <time>2023-06-17T08:21:54.000Z</time>
      </trkpt>
      <trkpt lat="46.12374" lon="4.69007">
        <ele>205.52185</ele>
        <time>2023-06-17T08:21:55.000Z</time>
      </trkpt>
      <trkpt lat="46.12375" lon="4.69">
        <ele>205.45505</ele>
        <time>2023-06-17T08:21:56.000Z</time>
      </trkpt>
      <trkpt lat="46.12374" lon="4.68991">
        <ele>205.39688</ele>
        <time>2023-06-17T08:21:57.000Z</time>
      </trkpt>
      <trkpt lat="46.12375" lon="4.68982">
        <ele>205.35123</ele>
        <time>2023-06-17T08:21:58.000Z</time>
      </trkpt>
      <trkpt lat="46.12376" lon="4.68973">
        <ele>205.31076</ele>
        <time>2023-06-17T08:21:59.000Z</time>
      </trkpt>
      <trkpt lat="46.12376" lon="4.68966">
        <ele>205.26712</ele>
        <time>2023-06-17T08:22:00.000Z</time>
      </trkpt>
      <trkpt lat="46.12376" lon="4.68958">
        <ele>205.17856</ele>
        <time>2023-06-17T08:22:01.000Z</time>
      </trkpt>
      <trkpt lat="46.12376" lon="4.68951">
        <ele>205.11838</ele>
        <time>2023-06-17T08:22:02.000Z</time>
      </trkpt>
      <trkpt lat="46.12372" lon="4.68943">
        <ele>204.91435</ele>
        <time>2023-06-17T08:22:03.000Z</time>
      </trkpt>
      <trkpt lat="46.12374" lon="4.68935">
        <ele>204.88785</ele>
        <time>2023-06-17T08:22:04.000Z</time>
      </trkpt>
      <trkpt lat="46.12376" lon="4.68927">
        <ele>204.87212</ele>
        <time>2023-06-17T08:22:05.000Z</time>
      </trkpt>
      <trkpt lat="46.12378" lon="4.6892">
        <ele>204.8804</ele>
        <time>2023-06-17T08:22:06.000Z</time>
      </trkpt>
      <trkpt lat="46.12378" lon="4.68913">
        <ele>204.8439</ele>
        <time>2023-06-17T08:22:07.000Z</time>
      </trkpt>
      <trkpt lat="46.12379" lon="4.68906">
        <ele>204.83768</ele>
        <time>2023-06-17T08:22:08.000Z</time>
      </trkpt>
      <trkpt lat="46.1238" lon="4.68899">
        <ele>204.74072</ele>
        <time>2023-06-17T08:22:09.000Z</time>
      </trkpt>
      <trkpt lat="46.12381" lon="4.6889">
        <ele>204.66403</ele>
        <time>2023-06-17T08:22:10.000Z</time>
      </trkpt>
      <trkpt lat="46.12381" lon="4.68881">
        <ele>204.69667</ele>
        <time>2023-06-17T08:22:11.000Z</time>
      </trkpt>
      <trkpt lat="46.12382" lon="4.68874">
        <ele>204.79472</ele>
        <time>2023-06-17T08:22:12.000Z</time>
      </trkpt>
      <trkpt lat="46.12381" lon="4.68866">
        <ele>204.9012</ele>
        <time>2023-06-17T08:22:13.000Z</time>
      </trkpt>
      <trkpt lat="46.1238" lon="4.68858">
        <ele>205.00952</ele>
        <time>2023-06-17T08:22:14.000Z</time>
      </trkpt>
      <trkpt lat="46.12381" lon="4.6885">
        <ele>205.11723</ele>
        <time>2023-06-17T08:22:15.000Z</time>
      </trkpt>
      <trkpt lat="46.12381" lon="4.68842">
        <ele>205.17651</ele>
        <time>2023-06-17T08:22:16.000Z</time>
      </trkpt>
      <trkpt lat="46.12383" lon="4.68833">
        <ele>205.28915</ele>
        <time>2023-06-17T08:22:17.000Z</time>
      </trkpt>
      <trkpt lat="46.12384" lon="4.68827">
        <ele>205.4241</ele>
        <time>2023-06-17T08:22:18.000Z</time>
      </trkpt>
      <trkpt lat="46.12384" lon="4.68819">
        <ele>205.48154</ele>
        <time>2023-06-17T08:22:19.000Z</time>
      </trkpt>
      <trkpt lat="46.12385" lon="4.68811">
        <ele>205.48601</ele>
        <time>2023-06-17T08:22:20.000Z</time>
      </trkpt>
      <trkpt lat="46.12387" lon="4.68804">
        <ele>205.66885</ele>
        <time>2023-06-17T08:22:21.000Z</time>
      </trkpt>
      <trkpt lat="46.12387" lon="4.68796">
        <ele>205.84981</ele>
        <time>2023-06-17T08:22:22.000Z</time>
      </trkpt>
      <trkpt lat="46.1239" lon="4.68788">
        <ele>206.12231</ele>
        <time>2023-06-17T08:22:23.000Z</time>
      </trkpt>
      <trkpt lat="46.12389" lon="4.68781">
        <ele>206.26486</ele>
        <time>2023-06-17T08:22:24.000Z</time>
      </trkpt>
      <trkpt lat="46.12387" lon="4.68775">
        <ele>206.36649</ele>
        <time>2023-06-17T08:22:25.000Z</time>
      </trkpt>
      <trkpt lat="46.12386" lon="4.68767">
        <ele>206.399</ele>
        <time>2023-06-17T08:22:26.000Z</time>
      </trkpt>
      <trkpt lat="46.12385" lon="4.68758">
        <ele>206.52364</ele>
        <time>2023-06-17T08:22:27.000Z</time>
      </trkpt>
      <trkpt lat="46.12385" lon="4.68751">
        <ele>206.69511</ele>
        <time>2023-06-17T08:22:28.000Z</time>
      </trkpt>
      <trkpt lat="46.12387" lon="4.68742">
        <ele>206.87766</ele>
        <time>2023-06-17T08:22:29.000Z</time>
      </trkpt>
      <trkpt lat="46.12387" lon="4.68733">
        <ele>207.0667</ele>
        <time>2023-06-17T08:22:30.000Z</time>
      </trkpt>
      <trkpt lat="46.12387" lon="4.68725">
        <ele>207.14848</ele>
        <time>2023-06-17T08:22:31.000Z</time>
      </trkpt>
      <trkpt lat="46.12386" lon="4.68716">
        <ele>207.0955</ele>
        <time>2023-06-17T08:22:32.000Z</time>
      </trkpt>
      <trkpt lat="46.12386" lon="4.68709">
        <ele>207.04321</ele>
        <time>2023-06-17T08:22:33.000Z</time>
      </trkpt>
      <trkpt lat="46.12386" lon="4.687">
        <ele>207.03711</ele>
        <time>2023-06-17T08:22:34.000Z</time>
      </trkpt>
      <trkpt lat="46.12386" lon="4.68694">
        <ele>207.10458</ele>
        <time>2023-06-17T08:22:35.000Z</time>
      </trkpt>
      <trkpt lat="46.12386" lon="4.68685">
        <ele>207.21516</ele>
        <time>2023-06-17T08:22:36.000Z</time>
      </trkpt>
      <trkpt lat="46.12386" lon="4.68677">
        <ele>207.28426</ele>
        <time>2023-06-17T08:22:37.000Z</time>
      </trkpt>
      <trkpt lat="46.12386" lon="4.68671">
        <ele>207.32455</ele>
        <time>2023-06-17T08:22:38.000Z</time>
      </trkpt>
      <trkpt lat="46.12384" lon="4.68662">
        <ele>207.4397</ele>
        <time>2023-06-17T08:22:39.000Z</time>
      </trkpt>
      <trkpt lat="46.12382" lon="4.68652">
        <ele>207.60779</ele>
        <time>2023-06-17T08:22:40.000Z</time>
      </trkpt>
      <trkpt lat="46.1238" lon="4.68644">
        <ele>207.66159</ele>
        <time>2023-06-17T08:22:41.000Z</time>
      </trkpt>
      <trkpt lat="46.12381" lon="4.68635">
        <ele>207.72749</ele>
        <time>2023-06-17T08:22:42.000Z</time>
      </trkpt>
      <trkpt lat="46.12378" lon="4.68627">
        <ele>207.78682</ele>
        <time>2023-06-17T08:22:43.000Z</time>
      </trkpt>
      <trkpt lat="46.12378" lon="4.68619">
        <ele>207.87056</ele>
        <time>2023-06-17T08:22:44.000Z</time>
      </trkpt>
      <trkpt lat="46.12376" lon="4.68613">
        <ele>207.91492</ele>
        <time>2023-06-17T08:22:45.000Z</time>
      </trkpt>
      <trkpt lat="46.12375" lon="4.68605">
        <ele>208.01669</ele>
        <time>2023-06-17T08:22:46.000Z</time>
      </trkpt>
      <trkpt lat="46.12374" lon="4.68597">
        <ele>208.12178</ele>
        <time>2023-06-17T08:22:47.000Z</time>
      </trkpt>
      <trkpt lat="46.12374" lon="4.68589">
        <ele>208.14743</ele>
        <time>2023-06-17T08:22:48.000Z</time>
      </trkpt>
      <trkpt lat="46.12373" lon="4.68581">
        <ele>208.12973</ele>
        <time>2023-06-17T08:22:49.000Z</time>
      </trkpt>
      <trkpt lat="46.12372" lon="4.68573">
        <ele>208.1595</ele>
        <time>2023-06-17T08:22:50.000Z</time>
      </trkpt>
      <trkpt lat="46.12371" lon="4.68565">
        <ele>208.21147</ele>
        <time>2023-06-17T08:22:51.000Z</time>
      </trkpt>
      <trkpt lat="46.12368" lon="4.68558">
        <ele>208.24162</ele>
        <time>2023-06-17T08:22:52.000Z</time>
      </trkpt>
      <trkpt lat="46.12367" lon="4.6855">
        <ele>208.31503</ele>
        <time>2023-06-17T08:22:53.000Z</time>
      </trkpt>
      <trkpt lat="46.12367" lon="4.68541">
        <ele>208.32303</ele>
        <time>2023-06-17T08:22:54.000Z</time>
      </trkpt>
      <trkpt lat="46.12365" lon="4.68534">
        <ele>208.23569</ele>
        <time>2023-06-17T08:22:55.000Z</time>
      </trkpt>
      <trkpt lat="46.12365" lon="4.68524">
        <ele>208.297</ele>
        <time>2023-06-17T08:22:56.000Z</time>
      </trkpt>
      <trkpt lat="46.12364" lon="4.68514">
        <ele>208.33357</ele>
        <time>2023-06-17T08:22:57.000Z</time>
      </trkpt>
      <trkpt lat="46.12363" lon="4.68506">
        <ele>208.31174</ele>
        <time>2023-06-17T08:22:58.000Z</time>
      </trkpt>
      <trkpt lat="46.12362" lon="4.68499">
        <ele>208.27371</ele>
        <time>2023-06-17T08:22:59.000Z</time>
      </trkpt>
      <trkpt lat="46.12359" lon="4.68491">
        <ele>208.27364</ele>
        <time>2023-06-17T08:23:00.000Z</time>
      </trkpt>
      <trkpt lat="46.12357" lon="4.68482">
        <ele>208.14001</ele>
        <time>2023-06-17T08:23:01.000Z</time>
      </trkpt>
      <trkpt lat="46.12355" lon="4.68474">
        <ele>207.95479</ele>
        <time>2023-06-17T08:23:02.000Z</time>
      </trkpt>
      <trkpt lat="46.12354" lon="4.68466">
        <ele>207.7012</ele>
        <time>2023-06-17T08:23:03.000Z</time>
      </trkpt>
      <trkpt lat="46.12352" lon="4.68458">
        <ele>207.45291</ele>
        <time>2023-06-17T08:23:04.000Z</time>
      </trkpt>
      <trkpt lat="46.12352" lon="4.68448">
        <ele>207.26721</ele>
        <time>2023-06-17T08:23:05.000Z</time>
      </trkpt>
      <trkpt lat="46.1235" lon="4.68439">
        <ele>207.04898</ele>
        <time>2023-06-17T08:23:06.000Z</time>
      </trkpt>
      <trkpt lat="46.12347" lon="4.68429">
        <ele>206.95743</ele>
        <time>2023-06-17T08:23:07.000Z</time>
      </trkpt>
      <trkpt lat="46.12346" lon="4.68421">
        <ele>206.91122</ele>
        <time>2023-06-17T08:23:08.000Z</time>
      </trkpt>
      <trkpt lat="46.12343" lon="4.68413">
        <ele>206.87369</ele>
        <time>2023-06-17T08:23:09.000Z</time>
      </trkpt>
      <trkpt lat="46.12342" lon="4.68404">
        <ele>206.82397</ele>
        <time>2023-06-17T08:23:10.000Z</time>
      </trkpt>
      <trkpt lat="46.12341" lon="4.68396">
        <ele>206.70114</ele>
        <time>2023-06-17T08:23:11.000Z</time>
      </trkpt>
      <trkpt lat="46.12339" lon="4.68388">
        <ele>206.67439</ele>
        <time>2023-06-17T08:23:12.000Z</time>
      </trkpt>
      <trkpt lat="46.12338" lon="4.68379">
        <ele>206.57378</ele>
        <time>2023-06-17T08:23:13.000Z</time>
      </trkpt>
      <trkpt lat="46.12335" lon="4.68369">
        <ele>206.58965</ele>
        <time>2023-06-17T08:23:14.000Z</time>
      </trkpt>
      <trkpt lat="46.12333" lon="4.68362">
        <ele>206.59187</ele>
        <time>2023-06-17T08:23:15.000Z</time>
      </trkpt>
      <trkpt lat="46.12332" lon="4.68352">
        <ele>206.47896</ele>
        <time>2023-06-17T08:23:16.000Z</time>
      </trkpt>
      <trkpt lat="46.12329" lon="4.68345">
        <ele>206.38152</ele>
        <time>2023-06-17T08:23:17.000Z</time>
      </trkpt>
      <trkpt lat="46.12328" lon="4.68335">
        <ele>206.37524</ele>
        <time>2023-06-17T08:23:18.000Z</time>
      </trkpt>
      <trkpt lat="46.12327" lon="4.68327">
        <ele>206.42757</ele>
        <time>2023-06-17T08:23:19.000Z</time>
      </trkpt>
      <trkpt lat="46.12326" lon="4.68318">
        <ele>206.48552</ele>
        <time>2023-06-17T08:23:20.000Z</time>
      </trkpt>
      <trkpt lat="46.12325" lon="4.68309">
        <ele>206.66599</ele>
        <time>2023-06-17T08:23:21.000Z</time>
      </trkpt>
      <trkpt lat="46.12324" lon="4.68299">
        <ele>206.87386</ele>
        <time>2023-06-17T08:23:22.000Z</time>
      </trkpt>
      <trkpt lat="46.12323" lon="4.6829">
        <ele>207.19524</ele>
        <time>2023-06-17T08:23:23.000Z</time>
      </trkpt>
      <trkpt lat="46.12321" lon="4.68281">
        <ele>207.52356</ele>
        <time>2023-06-17T08:23:24.000Z</time>
      </trkpt>
      <trkpt lat="46.1232" lon="4.68272">
        <ele>207.85986</ele>
        <time>2023-06-17T08:23:25.000Z</time>
      </trkpt>
      <trkpt lat="46.12318" lon="4.68264">
        <ele>208.19162</ele>
        <time>2023-06-17T08:23:26.000Z</time>
      </trkpt>
      <trkpt lat="46.12316" lon="4.68254">
        <ele>208.42851</ele>
        <time>2023-06-17T08:23:27.000Z</time>
      </trkpt>
      <trkpt lat="46.12315" lon="4.68245">
        <ele>208.63274</ele>
        <time>2023-06-17T08:23:28.000Z</time>
      </trkpt>
      <trkpt lat="46.12315" lon="4.68235">
        <ele>208.7916</ele>
        <time>2023-06-17T08:23:29.000Z</time>
      </trkpt>
      <trkpt lat="46.12314" lon="4.68226">
        <ele>208.91277</ele>
        <time>2023-06-17T08:23:30.000Z</time>
      </trkpt>
      <trkpt lat="46.12312" lon="4.68217">
        <ele>209.1102</ele>
        <time>2023-06-17T08:23:31.000Z</time>
      </trkpt>
      <trkpt lat="46.1231" lon="4.68208">
        <ele>209.32114</ele>
        <time>2023-06-17T08:23:32.000Z</time>
      </trkpt>
      <trkpt lat="46.12309" lon="4.68198">
        <ele>209.569</ele>
        <time>2023-06-17T08:23:33.000Z</time>
      </trkpt>
      <trkpt lat="46.12308" lon="4.68189">
        <ele>209.71042</ele>
        <time>2023-06-17T08:23:34.000Z</time>
      </trkpt>
      <trkpt lat="46.12307" lon="4.68181">
        <ele>209.89546</ele>
        <time>2023-06-17T08:23:35.000Z</time>
      </trkpt>
      <trkpt lat="46.12305" lon="4.68172">
        <ele>210.04887</ele>
        <time>2023-06-17T08:23:36.000Z</time>
      </trkpt>
      <trkpt lat="46.12304" lon="4.68163">
        <ele>210.23279</ele>
        <time>2023-06-17T08:23:37.000Z</time>
      </trkpt>
      <trkpt lat="46.12302" lon="4.68155">
        <ele>210.36128</ele>
        <time>2023-06-17T08:23:38.000Z</time>
      </trkpt>
      <trkpt lat="46.12301" lon="4.68146">
        <ele>210.45142</ele>
        <time>2023-06-17T08:23:39.000Z</time>
      </trkpt>
      <trkpt lat="46.12299" lon="4.68138">
        <ele>210.49002</ele>
        <time>2023-06-17T08:23:40.000Z</time>
      </trkpt>
      <trkpt lat="46.12298" lon="4.68128">
        <ele>210.51436</ele>
        <time>2023-06-17T08:23:41.000Z</time>
      </trkpt>
      <trkpt lat="46.12297" lon="4.68119">
        <ele>210.51859</ele>
        <time>2023-06-17T08:23:42.000Z</time>
      </trkpt>
      <trkpt lat="46.12296" lon="4.68111">
        <ele>210.48743</ele>
        <time>2023-06-17T08:23:43.000Z</time>
      </trkpt>
      <trkpt lat="46.12295" lon="4.68101">
        <ele>210.4261</ele>
        <time>2023-06-17T08:23:44.000Z</time>
      </trkpt>
      <trkpt lat="46.12293" lon="4.68092">
        <ele>210.35881</ele>
        <time>2023-06-17T08:23:45.000Z</time>
      </trkpt>
      <trkpt lat="46.12292" lon="4.68083">
        <ele>210.29134</ele>
        <time>2023-06-17T08:23:46.000Z</time>
      </trkpt>
      <trkpt lat="46.12291" lon="4.68074">
        <ele>210.19742</ele>
        <time>2023-06-17T08:23:47.000Z</time>
      </trkpt>
      <trkpt lat="46.12289" lon="4.68066">
        <ele>210.13651</ele>
        <time>2023-06-17T08:23:48.000Z</time>
      </trkpt>
      <trkpt lat="46.12288" lon="4.68058">
        <ele>210.12585</ele>
        <time>2023-06-17T08:23:49.000Z</time>
      </trkpt>
      <trkpt lat="46.12287" lon="4.68049">
        <ele>210.11992</ele>
        <time>2023-06-17T08:23:50.000Z</time>
      </trkpt>
      <trkpt lat="46.12285" lon="4.68039">
        <ele>210.1097</ele>
        <time>2023-06-17T08:23:51.000Z</time>
      </trkpt>
      <trkpt lat="46.12284" lon="4.68031">
        <ele>210.07288</ele>
        <time>2023-06-17T08:23:52.000Z</time>
      </trkpt>
      <trkpt lat="46.12283" lon="4.68022">
        <ele>210.03894</ele>
        <time>2023-06-17T08:23:53.000Z</time>
      </trkpt>
      <trkpt lat="46.12282" lon="4.68014">
        <ele>209.99113</ele>
        <time>2023-06-17T08:23:54.000Z</time>
      </trkpt>
      <trkpt lat="46.12281" lon="4.68007">
        <ele>209.96626</ele>
        <time>2023-06-17T08:23:55.000Z</time>
      </trkpt>
      <trkpt lat="46.12279" lon="4.67999">
        <ele>209.94385</ele>
        <time>2023-06-17T08:23:56.000Z</time>
      </trkpt>
      <trkpt lat="46.12278" lon="4.67991">
        <ele>209.92532</ele>
        <time>2023-06-17T08:23:57.000Z</time>
      </trkpt>
      <trkpt lat="46.12277" lon="4.67984">
        <ele>209.93318</ele>
        <time>2023-06-17T08:23:58.000Z</time>
      </trkpt>
      <trkpt lat="46.12276" lon="4.67977">
        <ele>209.91763</ele>
        <time>2023-06-17T08:23:59.000Z</time>
      </trkpt>
      <trkpt lat="46.12275" lon="4.6797">
        <ele>209.89658</ele>
        <time>2023-06-17T08:24:00.000Z</time>
      </trkpt>
      <trkpt lat="46.12275" lon="4.67964">
        <ele>209.87077</ele>
        <time>2023-06-17T08:24:01.000Z</time>
      </trkpt>
      <trkpt lat="46.12273" lon="4.67957">
        <ele>209.875</ele>
        <time>2023-06-17T08:24:02.000Z</time>
      </trkpt>
      <trkpt lat="46.12272" lon="4.67951">
        <ele>209.89738</ele>
        <time>2023-06-17T08:24:03.000Z</time>
      </trkpt>
      <trkpt lat="46.1227" lon="4.67944">
        <ele>209.92581</ele>
        <time>2023-06-17T08:24:04.000Z</time>
      </trkpt>
      <trkpt lat="46.12269" lon="4.67937">
        <ele>209.96371</ele>
        <time>2023-06-17T08:24:05.000Z</time>
      </trkpt>
      <trkpt lat="46.12268" lon="4.67929">
        <ele>210.00752</ele>
        <time>2023-06-17T08:24:06.000Z</time>
      </trkpt>
      <trkpt lat="46.12267" lon="4.67922">
        <ele>210.0452</ele>
        <time>2023-06-17T08:24:07.000Z</time>
      </trkpt>
      <trkpt lat="46.12265" lon="4.67914">
        <ele>210.11356</ele>
        <time>2023-06-17T08:24:08.000Z</time>
      </trkpt>
      <trkpt lat="46.12264" lon="4.67907">
        <ele>210.17886</ele>
        <time>2023-06-17T08:24:09.000Z</time>
      </trkpt>
      <trkpt lat="46.12263" lon="4.679">
        <ele>210.26456</ele>
        <time>2023-06-17T08:24:10.000Z</time>
      </trkpt>
      <trkpt lat="46.12263" lon="4.67894">
        <ele>210.36772</ele>
        <time>2023-06-17T08:24:11.000Z</time>
      </trkpt>
      <trkpt lat="46.12262" lon="4.67887">
        <ele>210.45671</ele>
        <time>2023-06-17T08:24:12.000Z</time>
      </trkpt>
      <trkpt lat="46.1226" lon="4.6788">
        <ele>210.55502</ele>
        <time>2023-06-17T08:24:13.000Z</time>
      </trkpt>
      <trkpt lat="46.1226" lon="4.67871">
        <ele>210.6665</ele>
        <time>2023-06-17T08:24:14.000Z</time>
      </trkpt>
      <trkpt lat="46.12259" lon="4.67863">
        <ele>210.77673</ele>
        <time>2023-06-17T08:24:15.000Z</time>
      </trkpt>
      <trkpt lat="46.12257" lon="4.67857">
        <ele>210.90015</ele>
        <time>2023-06-17T08:24:16.000Z</time>
      </trkpt>
      <trkpt lat="46.12255" lon="4.67849">
        <ele>211.0282</ele>
        <time>2023-06-17T08:24:17.000Z</time>
      </trkpt>
      <trkpt lat="46.12254" lon="4.67841">
        <ele>211.04782</ele>
        <time>2023-06-17T08:24:18.000Z</time>
      </trkpt>
      <trkpt lat="46.12252" lon="4.67834">
        <ele>211.02139</ele>
        <time>2023-06-17T08:24:19.000Z</time>
      </trkpt>
      <trkpt lat="46.1225" lon="4.67827">
        <ele>210.98677</ele>
        <time>2023-06-17T08:24:20.000Z</time>
      </trkpt>
      <trkpt lat="46.12248" lon="4.67819">
        <ele>211.1053</ele>
        <time>2023-06-17T08:24:21.000Z</time>
      </trkpt>
      <trkpt lat="46.12248" lon="4.67811">
        <ele>211.19495</ele>
        <time>2023-06-17T08:24:22.000Z</time>
      </trkpt>
      <trkpt lat="46.12248" lon="4.67803">
        <ele>211.23965</ele>
        <time>2023-06-17T08:24:23.000Z</time>
      </trkpt>
      <trkpt lat="46.12246" lon="4.67796">
        <ele>211.25903</ele>
        <time>2023-06-17T08:24:24.000Z</time>
      </trkpt>
      <trkpt lat="46.12244" lon="4.67789">
        <ele>211.28934</ele>
        <time>2023-06-17T08:24:25.000Z</time>
      </trkpt>
      <trkpt lat="46.12243" lon="4.67782">
        <ele>211.3251</ele>
        <time>2023-06-17T08:24:26.000Z</time>
      </trkpt>
      <trkpt lat="46.12242" lon="4.67775">
        <ele>211.36382</ele>
        <time>2023-06-17T08:24:27.000Z</time>
      </trkpt>
      <trkpt lat="46.12241" lon="4.67766">
        <ele>211.36421</ele>
        <time>2023-06-17T08:24:28.000Z</time>
      </trkpt>
      <trkpt lat="46.12241" lon="4.67757">
        <ele>211.32751</ele>
        <time>2023-06-17T08:24:29.000Z</time>
      </trkpt>
      <trkpt lat="46.1224" lon="4.67748">
        <ele>211.28918</ele>
        <time>2023-06-17T08:24:30.000Z</time>
      </trkpt>
      <trkpt lat="46.12238" lon="4.67741">
        <ele>211.21191</ele>
        <time>2023-06-17T08:24:31.000Z</time>
      </trkpt>
      <trkpt lat="46.12237" lon="4.67733">
        <ele>211.15549</ele>
        <time>2023-06-17T08:24:32.000Z</time>
      </trkpt>
      <trkpt lat="46.12235" lon="4.67725">
        <ele>211.09964</ele>
        <time>2023-06-17T08:24:33.000Z</time>
      </trkpt>
      <trkpt lat="46.12234" lon="4.67716">
        <ele>211.04964</ele>
        <time>2023-06-17T08:24:34.000Z</time>
      </trkpt>
      <trkpt lat="46.12232" lon="4.67708">
        <ele>211.02922</ele>
        <time>2023-06-17T08:24:35.000Z</time>
      </trkpt>
      <trkpt lat="46.12231" lon="4.67699">
        <ele>210.99788</ele>
        <time>2023-06-17T08:24:36.000Z</time>
      </trkpt>
      <trkpt lat="46.12229" lon="4.6769">
        <ele>210.96243</ele>
        <time>2023-06-17T08:24:37.000Z</time>
      </trkpt>
      <trkpt lat="46.12227" lon="4.67681">
        <ele>211.03134</ele>
        <time>2023-06-17T08:24:38.000Z</time>
      </trkpt>
      <trkpt lat="46.12226" lon="4.67672">
        <ele>211.18938</ele>
        <time>2023-06-17T08:24:39.000Z</time>
      </trkpt>
      <trkpt lat="46.12225" lon="4.67664">
        <ele>211.38608</ele>
        <time>2023-06-17T08:24:40.000Z</time>
      </trkpt>
      <trkpt lat="46.12224" lon="4.67655">
        <ele>211.40739</ele>
        <time>2023-06-17T08:24:41.000Z</time>
      </trkpt>
      <trkpt lat="46.12223" lon="4.67646">
        <ele>211.46968</ele>
        <time>2023-06-17T08:24:42.000Z</time>
      </trkpt>
      <trkpt lat="46.12222" lon="4.67638">
        <ele>211.55655</ele>
        <time>2023-06-17T08:24:43.000Z</time>
      </trkpt>
      <trkpt lat="46.1222" lon="4.6763">
        <ele>211.66634</ele>
        <time>2023-06-17T08:24:44.000Z</time>
      </trkpt>
      <trkpt lat="46.1222" lon="4.67621">
        <ele>211.75554</ele>
        <time>2023-06-17T08:24:45.000Z</time>
      </trkpt>
      <trkpt lat="46.12218" lon="4.67613">
        <ele>211.85408</ele>
        <time>2023-06-17T08:24:46.000Z</time>
      </trkpt>
      <trkpt lat="46.12216" lon="4.67604">
        <ele>211.93755</ele>
        <time>2023-06-17T08:24:47.000Z</time>
      </trkpt>
      <trkpt lat="46.12215" lon="4.67597">
        <ele>212.02925</ele>
        <time>2023-06-17T08:24:48.000Z</time>
      </trkpt>
      <trkpt lat="46.12214" lon="4.67588">
        <ele>212.14169</ele>
        <time>2023-06-17T08:24:49.000Z</time>
      </trkpt>
      <trkpt lat="46.12212" lon="4.67579">
        <ele>212.25732</ele>
        <time>2023-06-17T08:24:50.000Z</time>
      </trkpt>
      <trkpt lat="46.12211" lon="4.6757">
        <ele>212.38013</ele>
        <time>2023-06-17T08:24:51.000Z</time>
      </trkpt>
      <trkpt lat="46.12209" lon="4.67562">
        <ele>212.50467</ele>
        <time>2023-06-17T08:24:52.000Z</time>
      </trkpt>
      <trkpt lat="46.12209" lon="4.67553">
        <ele>212.59042</ele>
        <time>2023-06-17T08:24:53.000Z</time>
      </trkpt>
      <trkpt lat="46.12207" lon="4.67545">
        <ele>212.67293</ele>
        <time>2023-06-17T08:24:54.000Z</time>
      </trkpt>
      <trkpt lat="46.12206" lon="4.67537">
        <ele>212.70544</ele>
        <time>2023-06-17T08:24:55.000Z</time>
      </trkpt>
      <trkpt lat="46.12205" lon="4.67528">
        <ele>212.73544</ele>
        <time>2023-06-17T08:24:56.000Z</time>
      </trkpt>
      <trkpt lat="46.12203" lon="4.6752">
        <ele>212.74361</ele>
        <time>2023-06-17T08:24:57.000Z</time>
      </trkpt>
      <trkpt lat="46.12202" lon="4.67511">
        <ele>212.73166</ele>
        <time>2023-06-17T08:24:58.000Z</time>
      </trkpt>
      <trkpt lat="46.122" lon="4.67502">
        <ele>212.70944</ele>
        <time>2023-06-17T08:24:59.000Z</time>
      </trkpt>
      <trkpt lat="46.12199" lon="4.67494">
        <ele>212.68221</ele>
        <time>2023-06-17T08:25:00.000Z</time>
      </trkpt>
      <trkpt lat="46.12198" lon="4.67485">
        <ele>212.66989</ele>
        <time>2023-06-17T08:25:01.000Z</time>
      </trkpt>
      <trkpt lat="46.12196" lon="4.67477">
        <ele>212.64836</ele>
        <time>2023-06-17T08:25:02.000Z</time>
      </trkpt>
      <trkpt lat="46.12195" lon="4.67469">
        <ele>212.65215</ele>
        <time>2023-06-17T08:25:03.000Z</time>
      </trkpt>
      <trkpt lat="46.12194" lon="4.67461">
        <ele>212.6396</ele>
        <time>2023-06-17T08:25:04.000Z</time>
      </trkpt>
      <trkpt lat="46.12193" lon="4.67453">
        <ele>212.63347</ele>
        <time>2023-06-17T08:25:05.000Z</time>
      </trkpt>
      <trkpt lat="46.12193" lon="4.67444">
        <ele>212.60098</ele>
        <time>2023-06-17T08:25:06.000Z</time>
      </trkpt>
      <trkpt lat="46.12192" lon="4.67436">
        <ele>212.54326</ele>
        <time>2023-06-17T08:25:07.000Z</time>
      </trkpt>
      <trkpt lat="46.12191" lon="4.67428">
        <ele>212.49373</ele>
        <time>2023-06-17T08:25:08.000Z</time>
      </trkpt>
      <trkpt lat="46.12189" lon="4.67421">
        <ele>212.45044</ele>
        <time>2023-06-17T08:25:09.000Z</time>
      </trkpt>
      <trkpt lat="46.12187" lon="4.67413">
        <ele>212.4008</ele>
        <time>2023-06-17T08:25:10.000Z</time>
      </trkpt>
      <trkpt lat="46.12186" lon="4.67406">
        <ele>212.3652</ele>
        <time>2023-06-17T08:25:11.000Z</time>
      </trkpt>
      <trkpt lat="46.12185" lon="4.67398">
        <ele>212.327</ele>
        <time>2023-06-17T08:25:12.000Z</time>
      </trkpt>
      <trkpt lat="46.12183" lon="4.67391">
        <ele>212.29749</ele>
        <time>2023-06-17T08:25:13.000Z</time>
      </trkpt>
      <trkpt lat="46.12182" lon="4.67385">
        <ele>212.28398</ele>
        <time>2023-06-17T08:25:14.000Z</time>
      </trkpt>
      <trkpt lat="46.12181" lon="4.67378">
        <ele>212.32588</ele>
        <time>2023-06-17T08:25:15.000Z</time>
      </trkpt>
      <trkpt lat="46.1218" lon="4.67372">
        <ele>212.36235</ele>
        <time>2023-06-17T08:25:16.000Z</time>
      </trkpt>
      <trkpt lat="46.12178" lon="4.67366">
        <ele>212.39507</ele>
        <time>2023-06-17T08:25:17.000Z</time>
      </trkpt>
      <trkpt lat="46.12177" lon="4.6736">
        <ele>212.43523</ele>
        <time>2023-06-17T08:25:18.000Z</time>
      </trkpt>
      <trkpt lat="46.12176" lon="4.67353">
        <ele>212.47102</ele>
        <time>2023-06-17T08:25:19.000Z</time>
      </trkpt>
      <trkpt lat="46.12175" lon="4.67347">
        <ele>212.48608</ele>
        <time>2023-06-17T08:25:20.000Z</time>
      </trkpt>
      <trkpt lat="46.12174" lon="4.67341">
        <ele>212.51436</ele>
        <time>2023-06-17T08:25:21.000Z</time>
      </trkpt>
      <trkpt lat="46.12172" lon="4.67334">
        <ele>212.51038</ele>
        <time>2023-06-17T08:25:22.000Z</time>
      </trkpt>
      <trkpt lat="46.12171" lon="4.67326">
        <ele>212.49899</ele>
        <time>2023-06-17T08:25:23.000Z</time>
      </trkpt>
      <trkpt lat="46.1217" lon="4.67318">
        <ele>212.49036</ele>
        <time>2023-06-17T08:25:24.000Z</time>
      </trkpt>
      <trkpt lat="46.12169" lon="4.67312">
        <ele>212.49924</ele>
        <time>2023-06-17T08:25:25.000Z</time>
      </trkpt>
      <trkpt lat="46.12167" lon="4.67305">
        <ele>212.51265</ele>
        <time>2023-06-17T08:25:26.000Z</time>
      </trkpt>
      <trkpt lat="46.12166" lon="4.67299">
        <ele>212.56601</ele>
        <time>2023-06-17T08:25:27.000Z</time>
      </trkpt>
      <trkpt lat="46.12164" lon="4.67293">
        <ele>212.61719</ele>
        <time>2023-06-17T08:25:28.000Z</time>
      </trkpt>
      <trkpt lat="46.12164" lon="4.67286">
        <ele>212.68062</ele>
        <time>2023-06-17T08:25:29.000Z</time>
      </trkpt>
      <trkpt lat="46.12163" lon="4.67278">
        <ele>212.7493</ele>
        <time>2023-06-17T08:25:30.000Z</time>
      </trkpt>
      <trkpt lat="46.12161" lon="4.67269">
        <ele>212.80798</ele>
        <time>2023-06-17T08:25:31.000Z</time>
      </trkpt>
      <trkpt lat="46.12159" lon="4.67261">
        <ele>212.86031</ele>
        <time>2023-06-17T08:25:32.000Z</time>
      </trkpt>
      <trkpt lat="46.12158" lon="4.67253">
        <ele>212.93106</ele>
        <time>2023-06-17T08:25:33.000Z</time>
      </trkpt>
      <trkpt lat="46.12156" lon="4.67246">
        <ele>212.92038</ele>
        <time>2023-06-17T08:25:34.000Z</time>
      </trkpt>
      <trkpt lat="46.12156" lon="4.67236">
        <ele>212.89157</ele>
        <time>2023-06-17T08:25:35.000Z</time>
      </trkpt>
      <trkpt lat="46.12155" lon="4.67229">
        <ele>212.90051</ele>
        <time>2023-06-17T08:25:36.000Z</time>
      </trkpt>
      <trkpt lat="46.12155" lon="4.6722">
        <ele>212.91841</ele>
        <time>2023-06-17T08:25:37.000Z</time>
      </trkpt>
      <trkpt lat="46.12153" lon="4.6721">
        <ele>212.86588</ele>
        <time>2023-06-17T08:25:38.000Z</time>
      </trkpt>
      <trkpt lat="46.12152" lon="4.67203">
        <ele>212.76408</ele>
        <time>2023-06-17T08:25:39.000Z</time>
      </trkpt>
      <trkpt lat="46.12151" lon="4.67193">
        <ele>212.66255</ele>
        <time>2023-06-17T08:25:40.000Z</time>
      </trkpt>
      <trkpt lat="46.12149" lon="4.67184">
        <ele>212.73015</ele>
        <time>2023-06-17T08:25:41.000Z</time>
      </trkpt>
      <trkpt lat="46.12147" lon="4.67176">
        <ele>212.76424</ele>
        <time>2023-06-17T08:25:42.000Z</time>
      </trkpt>
      <trkpt lat="46.12145" lon="4.67167">
        <ele>212.7919</ele>
        <time>2023-06-17T08:25:43.000Z</time>
      </trkpt>
      <trkpt lat="46.12143" lon="4.67158">
        <ele>212.80725</ele>
        <time>2023-06-17T08:25:44.000Z</time>
      </trkpt>
      <trkpt lat="46.12141" lon="4.6715">
        <ele>212.82857</ele>
        <time>2023-06-17T08:25:45.000Z</time>
      </trkpt>
      <trkpt lat="46.12139" lon="4.67142">
        <ele>212.87386</ele>
        <time>2023-06-17T08:25:46.000Z</time>
      </trkpt>
      <trkpt lat="46.12138" lon="4.67133">
        <ele>212.90384</ele>
        <time>2023-06-17T08:25:47.000Z</time>
      </trkpt>
      <trkpt lat="46.12136" lon="4.67126">
        <ele>212.93637</ele>
        <time>2023-06-17T08:25:48.000Z</time>
      </trkpt>
      <trkpt lat="46.12135" lon="4.67118">
        <ele>212.94193</ele>
        <time>2023-06-17T08:25:49.000Z</time>
      </trkpt>
      <trkpt lat="46.12134" lon="4.67109">
        <ele>212.94588</ele>
        <time>2023-06-17T08:25:50.000Z</time>
      </trkpt>
      <trkpt lat="46.12132" lon="4.67102">
        <ele>212.95598</ele>
        <time>2023-06-17T08:25:51.000Z</time>
      </trkpt>
      <trkpt lat="46.12131" lon="4.67093">
        <ele>212.97086</ele>
        <time>2023-06-17T08:25:52.000Z</time>
      </trkpt>
      <trkpt lat="46.12129" lon="4.67086">
        <ele>212.97847</ele>
        <time>2023-06-17T08:25:53.000Z</time>
      </trkpt>
      <trkpt lat="46.12126" lon="4.67078">
        <ele>213.04704</ele>
        <time>2023-06-17T08:25:54.000Z</time>
      </trkpt>
      <trkpt lat="46.12124" lon="4.6707">
        <ele>213.12073</ele>
        <time>2023-06-17T08:25:55.000Z</time>
      </trkpt>
      <trkpt lat="46.12122" lon="4.67062">
        <ele>213.17184</ele>
        <time>2023-06-17T08:25:56.000Z</time>
      </trkpt>
      <trkpt lat="46.1212" lon="4.67055">
        <ele>213.23625</ele>
        <time>2023-06-17T08:25:57.000Z</time>
      </trkpt>
      <trkpt lat="46.12118" lon="4.67047">
        <ele>213.37154</ele>
        <time>2023-06-17T08:25:58.000Z</time>
      </trkpt>
      <trkpt lat="46.12116" lon="4.67039">
        <ele>213.54422</ele>
        <time>2023-06-17T08:25:59.000Z</time>
      </trkpt>
      <trkpt lat="46.12114" lon="4.67032">
        <ele>213.71223</ele>
        <time>2023-06-17T08:26:00.000Z</time>
      </trkpt>
      <trkpt lat="46.12113" lon="4.67024">
        <ele>213.75488</ele>
        <time>2023-06-17T08:26:01.000Z</time>
      </trkpt>
      <trkpt lat="46.12111" lon="4.67016">
        <ele>213.86052</ele>
        <time>2023-06-17T08:26:02.000Z</time>
      </trkpt>
      <trkpt lat="46.12109" lon="4.67009">
        <ele>213.96294</ele>
        <time>2023-06-17T08:26:03.000Z</time>
      </trkpt>
      <trkpt lat="46.12108" lon="4.67001">
        <ele>214.08545</ele>
        <time>2023-06-17T08:26:04.000Z</time>
      </trkpt>
      <trkpt lat="46.12106" lon="4.66993">
        <ele>214.18486</ele>
        <time>2023-06-17T08:26:05.000Z</time>
      </trkpt>
      <trkpt lat="46.12105" lon="4.66985">
        <ele>214.25691</ele>
        <time>2023-06-17T08:26:06.000Z</time>
      </trkpt>
      <trkpt lat="46.12103" lon="4.66977">
        <ele>214.34192</ele>
        <time>2023-06-17T08:26:07.000Z</time>
      </trkpt>
      <trkpt lat="46.12102" lon="4.6697">
        <ele>214.43291</ele>
        <time>2023-06-17T08:26:08.000Z</time>
      </trkpt>
      <trkpt lat="46.121" lon="4.66962">
        <ele>214.5549</ele>
        <time>2023-06-17T08:26:09.000Z</time>
      </trkpt>
      <trkpt lat="46.12098" lon="4.66955">
        <ele>214.66629</ele>
        <time>2023-06-17T08:26:10.000Z</time>
      </trkpt>
      <trkpt lat="46.12097" lon="4.66947">
        <ele>214.78464</ele>
        <time>2023-06-17T08:26:11.000Z</time>
      </trkpt>
      <trkpt lat="46.12096" lon="4.6694">
        <ele>214.91077</ele>
        <time>2023-06-17T08:26:12.000Z</time>
      </trkpt>
      <trkpt lat="46.12094" lon="4.66932">
        <ele>215.04768</ele>
        <time>2023-06-17T08:26:13.000Z</time>
      </trkpt>
      <trkpt lat="46.12093" lon="4.66925">
        <ele>215.19902</ele>
        <time>2023-06-17T08:26:14.000Z</time>
      </trkpt>
      <trkpt lat="46.12091" lon="4.66918">
        <ele>215.34799</ele>
        <time>2023-06-17T08:26:15.000Z</time>
      </trkpt>
      <trkpt lat="46.12089" lon="4.66912">
        <ele>215.49072</ele>
        <time>2023-06-17T08:26:16.000Z</time>
      </trkpt>
      <trkpt lat="46.12088" lon="4.66906">
        <ele>215.63191</ele>
        <time>2023-06-17T08:26:17.000Z</time>
      </trkpt>
      <trkpt lat="46.12087" lon="4.669">
        <ele>215.7876</ele>
        <time>2023-06-17T08:26:18.000Z</time>
      </trkpt>
      <trkpt lat="46.12086" lon="4.66897">
        <ele>215.96518</ele>
        <time>2023-06-17T08:26:19.000Z</time>
      </trkpt>
      <trkpt lat="46.12086" lon="4.66894">
        <ele>216.1694</ele>
        <time>2023-06-17T08:26:20.000Z</time>
      </trkpt>
      <trkpt lat="46.12084" lon="4.66891">
        <ele>216.28604</ele>
        <time>2023-06-17T08:26:21.000Z</time>
      </trkpt>
      <trkpt lat="46.12083" lon="4.66887">
        <ele>216.3365</ele>
        <time>2023-06-17T08:26:22.000Z</time>
      </trkpt>
      <trkpt lat="46.12082" lon="4.66882">
        <ele>216.38155</ele>
        <time>2023-06-17T08:26:23.000Z</time>
      </trkpt>
      <trkpt lat="46.1208" lon="4.66875">
        <ele>216.43701</ele>
        <time>2023-06-17T08:26:24.000Z</time>
      </trkpt>
      <trkpt lat="46.12079" lon="4.66868">
        <ele>216.49751</ele>
        <time>2023-06-17T08:26:25.000Z</time>
      </trkpt>
      <trkpt lat="46.12077" lon="4.6686">
        <ele>216.54854</ele>
        <time>2023-06-17T08:26:26.000Z</time>
      </trkpt>
      <trkpt lat="46.12075" lon="4.66853">
        <ele>216.5771</ele>
        <time>2023-06-17T08:26:27.000Z</time>
      </trkpt>
      <trkpt lat="46.12074" lon="4.66845">
        <ele>216.6095</ele>
        <time>2023-06-17T08:26:28.000Z</time>
      </trkpt>
      <trkpt lat="46.12072" lon="4.66837">
        <ele>216.62007</ele>
        <time>2023-06-17T08:26:29.000Z</time>
      </trkpt>
      <trkpt lat="46.12071" lon="4.66829">
        <ele>216.62659</ele>
        <time>2023-06-17T08:26:30.000Z</time>
      </trkpt>
      <trkpt lat="46.1207" lon="4.66822">
        <ele>216.62427</ele>
        <time>2023-06-17T08:26:31.000Z</time>
      </trkpt>
      <trkpt lat="46.12068" lon="4.66814">
        <ele>216.61198</ele>
        <time>2023-06-17T08:26:32.000Z</time>
      </trkpt>
      <trkpt lat="46.12067" lon="4.66806">
        <ele>216.60574</ele>
        <time>2023-06-17T08:26:33.000Z</time>
      </trkpt>
      <trkpt lat="46.12066" lon="4.66798">
        <ele>216.58029</ele>
        <time>2023-06-17T08:26:34.000Z</time>
      </trkpt>
      <trkpt lat="46.12064" lon="4.6679">
        <ele>216.53421</ele>
        <time>2023-06-17T08:26:35.000Z</time>
      </trkpt>
      <trkpt lat="46.12062" lon="4.66783">
        <ele>216.46115</ele>
        <time>2023-06-17T08:26:36.000Z</time>
      </trkpt>
      <trkpt lat="46.1206" lon="4.66775">
        <ele>216.39429</ele>
        <time>2023-06-17T08:26:37.000Z</time>
      </trkpt>
      <trkpt lat="46.12058" lon="4.66768">
        <ele>216.22005</ele>
        <time>2023-06-17T08:26:38.000Z</time>
      </trkpt>
      <trkpt lat="46.12057" lon="4.6676">
        <ele>216.01123</ele>
        <time>2023-06-17T08:26:39.000Z</time>
      </trkpt>
      <trkpt lat="46.12055" lon="4.66753">
        <ele>215.78354</ele>
        <time>2023-06-17T08:26:40.000Z</time>
      </trkpt>
      <trkpt lat="46.12054" lon="4.66745">
        <ele>215.50969</ele>
        <time>2023-06-17T08:26:41.000Z</time>
      </trkpt>
      <trkpt lat="46.12052" lon="4.66738">
        <ele>215.49895</ele>
        <time>2023-06-17T08:26:42.000Z</time>
      </trkpt>
      <trkpt lat="46.12051" lon="4.66731">
        <ele>215.46411</ele>
        <time>2023-06-17T08:26:43.000Z</time>
      </trkpt>
      <trkpt lat="46.1205" lon="4.66724">
        <ele>215.43901</ele>
        <time>2023-06-17T08:26:44.000Z</time>
      </trkpt>
      <trkpt lat="46.12049" lon="4.66717">
        <ele>215.42551</ele>
        <time>2023-06-17T08:26:45.000Z</time>
      </trkpt>
      <trkpt lat="46.12047" lon="4.66709">
        <ele>215.4216</ele>
        <time>2023-06-17T08:26:46.000Z</time>
      </trkpt>
      <trkpt lat="46.12046" lon="4.66702">
        <ele>215.43777</ele>
        <time>2023-06-17T08:26:47.000Z</time>
      </trkpt>
      <trkpt lat="46.12045" lon="4.66695">
        <ele>215.4375</ele>
        <time>2023-06-17T08:26:48.000Z</time>
      </trkpt>
      <trkpt lat="46.12044" lon="4.66687">
        <ele>215.42546</ele>
        <time>2023-06-17T08:26:49.000Z</time>
      </trkpt>
      <trkpt lat="46.12043" lon="4.66678">
        <ele>215.40958</ele>
        <time>2023-06-17T08:26:50.000Z</time>
      </trkpt>
      <trkpt lat="46.12041" lon="4.66671">
        <ele>215.41299</ele>
        <time>2023-06-17T08:26:51.000Z</time>
      </trkpt>
      <trkpt lat="46.12039" lon="4.66665">
        <ele>215.41365</ele>
        <time>2023-06-17T08:26:52.000Z</time>
      </trkpt>
      <trkpt lat="46.12037" lon="4.66658">
        <ele>215.39767</ele>
        <time>2023-06-17T08:26:53.000Z</time>
      </trkpt>
      <trkpt lat="46.12035" lon="4.66651">
        <ele>215.39082</ele>
        <time>2023-06-17T08:26:54.000Z</time>
      </trkpt>
      <trkpt lat="46.12033" lon="4.66644">
        <ele>215.38696</ele>
        <time>2023-06-17T08:26:55.000Z</time>
      </trkpt>
      <trkpt lat="46.12031" lon="4.66636">
        <ele>215.40683</ele>
        <time>2023-06-17T08:26:56.000Z</time>
      </trkpt>
      <trkpt lat="46.1203" lon="4.66629">
        <ele>215.40054</ele>
        <time>2023-06-17T08:26:57.000Z</time>
      </trkpt>
      <trkpt lat="46.12028" lon="4.66622">
        <ele>215.48784</ele>
        <time>2023-06-17T08:26:58.000Z</time>
      </trkpt>
      <trkpt lat="46.12026" lon="4.66615">
        <ele>215.59676</ele>
        <time>2023-06-17T08:26:59.000Z</time>
      </trkpt>
      <trkpt lat="46.12024" lon="4.66607">
        <ele>215.70898</ele>
        <time>2023-06-17T08:27:00.000Z</time>
      </trkpt>
      <trkpt lat="46.12023" lon="4.666">
        <ele>215.88716</ele>
        <time>2023-06-17T08:27:01.000Z</time>
      </trkpt>
      <trkpt lat="46.12021" lon="4.66592">
        <ele>215.8553</ele>
        <time>2023-06-17T08:27:02.000Z</time>
      </trkpt>
      <trkpt lat="46.12019" lon="4.66584">
        <ele>215.85117</ele>
        <time>2023-06-17T08:27:03.000Z</time>
      </trkpt>
      <trkpt lat="46.12017" lon="4.66577">
        <ele>215.8409</ele>
        <time>2023-06-17T08:27:04.000Z</time>
      </trkpt>
      <trkpt lat="46.12016" lon="4.66568">
        <ele>215.80807</ele>
        <time>2023-06-17T08:27:05.000Z</time>
      </trkpt>
      <trkpt lat="46.12014" lon="4.6656">
        <ele>215.77153</ele>
        <time>2023-06-17T08:27:06.000Z</time>
      </trkpt>
      <trkpt lat="46.12013" lon="4.66551">
        <ele>215.74582</ele>
        <time>2023-06-17T08:27:07.000Z</time>
      </trkpt>
      <trkpt lat="46.12012" lon="4.66543">
        <ele>215.73392</ele>
        <time>2023-06-17T08:27:08.000Z</time>
      </trkpt>
      <trkpt lat="46.1201" lon="4.66535">
        <ele>215.76262</ele>
        <time>2023-06-17T08:27:09.000Z</time>
      </trkpt>
      <trkpt lat="46.12009" lon="4.66527">
        <ele>215.80392</ele>
        <time>2023-06-17T08:27:10.000Z</time>
      </trkpt>
      <trkpt lat="46.12007" lon="4.6652">
        <ele>215.85396</ele>
        <time>2023-06-17T08:27:11.000Z</time>
      </trkpt>
      <trkpt lat="46.12004" lon="4.66513">
        <ele>215.90414</ele>
        <time>2023-06-17T08:27:12.000Z</time>
      </trkpt>
      <trkpt lat="46.12003" lon="4.66505">
        <ele>215.94962</ele>
        <time>2023-06-17T08:27:13.000Z</time>
      </trkpt>
      <trkpt lat="46.12001" lon="4.66497">
        <ele>215.98227</ele>
        <time>2023-06-17T08:27:14.000Z</time>
      </trkpt>
      <trkpt lat="46.11998" lon="4.66489">
        <ele>216.01506</ele>
        <time>2023-06-17T08:27:15.000Z</time>
      </trkpt>
      <trkpt lat="46.11996" lon="4.66481">
        <ele>216.02527</ele>
        <time>2023-06-17T08:27:16.000Z</time>
      </trkpt>
      <trkpt lat="46.11993" lon="4.66473">
        <ele>216.07089</ele>
        <time>2023-06-17T08:27:17.000Z</time>
      </trkpt>
      <trkpt lat="46.11991" lon="4.66466">
        <ele>216.13489</ele>
        <time>2023-06-17T08:27:18.000Z</time>
      </trkpt>
      <trkpt lat="46.1199" lon="4.66458">
        <ele>216.19023</ele>
        <time>2023-06-17T08:27:19.000Z</time>
      </trkpt>
      <trkpt lat="46.11988" lon="4.6645">
        <ele>216.23349</ele>
        <time>2023-06-17T08:27:20.000Z</time>
      </trkpt>
      <trkpt lat="46.11987" lon="4.66442">
        <ele>216.26401</ele>
        <time>2023-06-17T08:27:21.000Z</time>
      </trkpt>
      <trkpt lat="46.11985" lon="4.66435">
        <ele>216.29721</ele>
        <time>2023-06-17T08:27:22.000Z</time>
      </trkpt>
      <trkpt lat="46.11984" lon="4.66426">
        <ele>216.35953</ele>
        <time>2023-06-17T08:27:23.000Z</time>
      </trkpt>
      <trkpt lat="46.11982" lon="4.66418">
        <ele>216.41064</ele>
        <time>2023-06-17T08:27:24.000Z</time>
      </trkpt>
      <trkpt lat="46.1198" lon="4.66412">
        <ele>216.4563</ele>
        <time>2023-06-17T08:27:25.000Z</time>
      </trkpt>
      <trkpt lat="46.11978" lon="4.66404">
        <ele>216.52962</ele>
        <time>2023-06-17T08:27:26.000Z</time>
      </trkpt>
      <trkpt lat="46.11976" lon="4.66397">
        <ele>216.5817</ele>
        <time>2023-06-17T08:27:27.000Z</time>
      </trkpt>
      <trkpt lat="46.11974" lon="4.66388">
        <ele>216.63736</ele>
        <time>2023-06-17T08:27:28.000Z</time>
      </trkpt>
      <trkpt lat="46.11973" lon="4.6638">
        <ele>216.69522</ele>
        <time>2023-06-17T08:27:29.000Z</time>
      </trkpt>
      <trkpt lat="46.11971" lon="4.66373">
        <ele>216.72415</ele>
        <time>2023-06-17T08:27:30.000Z</time>
      </trkpt>
      <trkpt lat="46.1197" lon="4.66366">
        <ele>216.71452</ele>
        <time>2023-06-17T08:27:31.000Z</time>
      </trkpt>
      <trkpt lat="46.11968" lon="4.66358">
        <ele>216.58418</ele>
        <time>2023-06-17T08:27:32.000Z</time>
      </trkpt>
      <trkpt lat="46.11967" lon="4.66349">
        <ele>216.39072</ele>
        <time>2023-06-17T08:27:33.000Z</time>
      </trkpt>
      <trkpt lat="46.11965" lon="4.66341">
        <ele>216.43684</ele>
        <time>2023-06-17T08:27:34.000Z</time>
      </trkpt>
      <trkpt lat="46.11962" lon="4.66333">
        <ele>216.42583</ele>
        <time>2023-06-17T08:27:35.000Z</time>
      </trkpt>
      <trkpt lat="46.1196" lon="4.66325">
        <ele>216.41956</ele>
        <time>2023-06-17T08:27:36.000Z</time>
      </trkpt>
      <trkpt lat="46.11958" lon="4.66317">
        <ele>216.40865</ele>
        <time>2023-06-17T08:27:37.000Z</time>
      </trkpt>
      <trkpt lat="46.11956" lon="4.66309">
        <ele>216.37582</ele>
        <time>2023-06-17T08:27:38.000Z</time>
      </trkpt>
      <trkpt lat="46.11955" lon="4.66301">
        <ele>216.35518</ele>
        <time>2023-06-17T08:27:39.000Z</time>
      </trkpt>
      <trkpt lat="46.11954" lon="4.66293">
        <ele>216.33859</ele>
        <time>2023-06-17T08:27:40.000Z</time>
      </trkpt>
      <trkpt lat="46.11953" lon="4.66284">
        <ele>216.34341</ele>
        <time>2023-06-17T08:27:41.000Z</time>
      </trkpt>
      <trkpt lat="46.11951" lon="4.66276">
        <ele>216.35269</ele>
        <time>2023-06-17T08:27:42.000Z</time>
      </trkpt>
      <trkpt lat="46.1195" lon="4.66268">
        <ele>216.3278</ele>
        <time>2023-06-17T08:27:43.000Z</time>
      </trkpt>
      <trkpt lat="46.11948" lon="4.6626">
        <ele>216.31638</ele>
        <time>2023-06-17T08:27:44.000Z</time>
      </trkpt>
      <trkpt lat="46.11946" lon="4.66252">
        <ele>216.31075</ele>
        <time>2023-06-17T08:27:45.000Z</time>
      </trkpt>
      <trkpt lat="46.11943" lon="4.66245">
        <ele>216.29385</ele>
        <time>2023-06-17T08:27:46.000Z</time>
      </trkpt>
      <trkpt lat="46.11942" lon="4.66237">
        <ele>216.28154</ele>
        <time>2023-06-17T08:27:47.000Z</time>
      </trkpt>
      <trkpt lat="46.11941" lon="4.66228">
        <ele>216.25821</ele>
        <time>2023-06-17T08:27:48.000Z</time>
      </trkpt>
      <trkpt lat="46.11939" lon="4.6622">
        <ele>216.22885</ele>
        <time>2023-06-17T08:27:49.000Z</time>
      </trkpt>
      <trkpt lat="46.11937" lon="4.66212">
        <ele>216.21529</ele>
        <time>2023-06-17T08:27:50.000Z</time>
      </trkpt>
      <trkpt lat="46.11936" lon="4.66203">
        <ele>216.22961</ele>
        <time>2023-06-17T08:27:51.000Z</time>
      </trkpt>
      <trkpt lat="46.11934" lon="4.66196">
        <ele>216.3669</ele>
        <time>2023-06-17T08:27:52.000Z</time>
      </trkpt>
      <trkpt lat="46.11933" lon="4.66188">
        <ele>216.58133</ele>
        <time>2023-06-17T08:27:53.000Z</time>
      </trkpt>
      <trkpt lat="46.11932" lon="4.6618">
        <ele>216.56604</ele>
        <time>2023-06-17T08:27:54.000Z</time>
      </trkpt>
      <trkpt lat="46.11931" lon="4.66172">
        <ele>216.63086</ele>
        <time>2023-06-17T08:27:55.000Z</time>
      </trkpt>
      <trkpt lat="46.1193" lon="4.66165">
        <ele>216.6947</ele>
        <time>2023-06-17T08:27:56.000Z</time>
      </trkpt>
      <trkpt lat="46.11929" lon="4.66157">
        <ele>216.75049</ele>
        <time>2023-06-17T08:27:57.000Z</time>
      </trkpt>
      <trkpt lat="46.11928" lon="4.66149">
        <ele>216.82388</ele>
        <time>2023-06-17T08:27:58.000Z</time>
      </trkpt>
      <trkpt lat="46.11927" lon="4.66141">
        <ele>216.87805</ele>
        <time>2023-06-17T08:27:59.000Z</time>
      </trkpt>
      <trkpt lat="46.11926" lon="4.66133">
        <ele>216.91959</ele>
        <time>2023-06-17T08:28:00.000Z</time>
      </trkpt>
      <trkpt lat="46.11925" lon="4.66126">
        <ele>216.95972</ele>
        <time>2023-06-17T08:28:01.000Z</time>
      </trkpt>
      <trkpt lat="46.11925" lon="4.66118">
        <ele>216.99968</ele>
        <time>2023-06-17T08:28:02.000Z</time>
      </trkpt>
      <trkpt lat="46.11924" lon="4.66111">
        <ele>217.0387</ele>
        <time>2023-06-17T08:28:03.000Z</time>
      </trkpt>
      <trkpt lat="46.11923" lon="4.66104">
        <ele>217.05684</ele>
        <time>2023-06-17T08:28:04.000Z</time>
      </trkpt>
      <trkpt lat="46.11922" lon="4.66096">
        <ele>217.08061</ele>
        <time>2023-06-17T08:28:05.000Z</time>
      </trkpt>
      <trkpt lat="46.11921" lon="4.66088">
        <ele>217.09944</ele>
        <time>2023-06-17T08:28:06.000Z</time>
      </trkpt>
      <trkpt lat="46.1192" lon="4.66081">
        <ele>217.10954</ele>
        <time>2023-06-17T08:28:07.000Z</time>
      </trkpt>
      <trkpt lat="46.1192" lon="4.66072">
        <ele>217.11987</ele>
        <time>2023-06-17T08:28:08.000Z</time>
      </trkpt>
      <trkpt lat="46.1192" lon="4.66063">
        <ele>217.08755</ele>
        <time>2023-06-17T08:28:09.000Z</time>
      </trkpt>
      <trkpt lat="46.11919" lon="4.66054">
        <ele>217.06711</ele>
        <time>2023-06-17T08:28:10.000Z</time>
      </trkpt>
      <trkpt lat="46.11917" lon="4.66046">
        <ele>217.05412</ele>
        <time>2023-06-17T08:28:11.000Z</time>
      </trkpt>
      <trkpt lat="46.11916" lon="4.66038">
        <ele>217.02888</ele>
        <time>2023-06-17T08:28:12.000Z</time>
      </trkpt>
      <trkpt lat="46.11917" lon="4.66029">
        <ele>217.01102</ele>
        <time>2023-06-17T08:28:13.000Z</time>
      </trkpt>
      <trkpt lat="46.11916" lon="4.6602">
        <ele>217.00642</ele>
        <time>2023-06-17T08:28:14.000Z</time>
      </trkpt>
      <trkpt lat="46.11915" lon="4.66012">
        <ele>216.97469</ele>
        <time>2023-06-17T08:28:15.000Z</time>
      </trkpt>
      <trkpt lat="46.11915" lon="4.66005">
        <ele>216.95674</ele>
        <time>2023-06-17T08:28:16.000Z</time>
      </trkpt>
      <trkpt lat="46.11914" lon="4.65996">
        <ele>216.92087</ele>
        <time>2023-06-17T08:28:17.000Z</time>
      </trkpt>
      <trkpt lat="46.11913" lon="4.65988">
        <ele>216.88847</ele>
        <time>2023-06-17T08:28:18.000Z</time>
      </trkpt>
      <trkpt lat="46.11912" lon="4.6598">
        <ele>216.85519</ele>
        <time>2023-06-17T08:28:19.000Z</time>
      </trkpt>
      <trkpt lat="46.11912" lon="4.65972">
        <ele>216.83257</ele>
        <time>2023-06-17T08:28:20.000Z</time>
      </trkpt>
      <trkpt lat="46.11912" lon="4.65963">
        <ele>216.80591</ele>
        <time>2023-06-17T08:28:21.000Z</time>
      </trkpt>
      <trkpt lat="46.11911" lon="4.65955">
        <ele>216.76006</ele>
        <time>2023-06-17T08:28:22.000Z</time>
      </trkpt>
      <trkpt lat="46.11912" lon="4.65948">
        <ele>216.72778</ele>
        <time>2023-06-17T08:28:23.000Z</time>
      </trkpt>
      <trkpt lat="46.11911" lon="4.6594">
        <ele>216.72246</ele>
        <time>2023-06-17T08:28:24.000Z</time>
      </trkpt>
      <trkpt lat="46.11911" lon="4.65931">
        <ele>216.71574</ele>
        <time>2023-06-17T08:28:25.000Z</time>
      </trkpt>
      <trkpt lat="46.1191" lon="4.65923">
        <ele>216.7128</ele>
        <time>2023-06-17T08:28:26.000Z</time>
      </trkpt>
      <trkpt lat="46.1191" lon="4.65914">
        <ele>216.7291</ele>
        <time>2023-06-17T08:28:27.000Z</time>
      </trkpt>
      <trkpt lat="46.11909" lon="4.65906">
        <ele>216.74594</ele>
        <time>2023-06-17T08:28:28.000Z</time>
      </trkpt>
      <trkpt lat="46.11909" lon="4.65898">
        <ele>216.81155</ele>
        <time>2023-06-17T08:28:29.000Z</time>
      </trkpt>
      <trkpt lat="46.11909" lon="4.6589">
        <ele>216.86496</ele>
        <time>2023-06-17T08:28:30.000Z</time>
      </trkpt>
      <trkpt lat="46.11908" lon="4.65882">
        <ele>216.89795</ele>
        <time>2023-06-17T08:28:31.000Z</time>
      </trkpt>
      <trkpt lat="46.11909" lon="4.65874">
        <ele>216.94553</ele>
        <time>2023-06-17T08:28:32.000Z</time>
      </trkpt>
      <trkpt lat="46.11908" lon="4.65866">
        <ele>216.98137</ele>
        <time>2023-06-17T08:28:33.000Z</time>
      </trkpt>
      <trkpt lat="46.11907" lon="4.65858">
        <ele>217.00693</ele>
        <time>2023-06-17T08:28:34.000Z</time>
      </trkpt>
      <trkpt lat="46.11907" lon="4.6585">
        <ele>217.02165</ele>
        <time>2023-06-17T08:28:35.000Z</time>
      </trkpt>
      <trkpt lat="46.11906" lon="4.65842">
        <ele>217.05722</ele>
        <time>2023-06-17T08:28:36.000Z</time>
      </trkpt>
      <trkpt lat="46.11906" lon="4.65833">
        <ele>217.10217</ele>
        <time>2023-06-17T08:28:37.000Z</time>
      </trkpt>
      <trkpt lat="46.11906" lon="4.65825">
        <ele>217.12112</ele>
        <time>2023-06-17T08:28:38.000Z</time>
      </trkpt>
      <trkpt lat="46.11906" lon="4.65816">
        <ele>217.16048</ele>
        <time>2023-06-17T08:28:39.000Z</time>
      </trkpt>
      <trkpt lat="46.11906" lon="4.65808">
        <ele>217.21758</ele>
        <time>2023-06-17T08:28:40.000Z</time>
      </trkpt>
      <trkpt lat="46.11905" lon="4.658">
        <ele>217.29243</ele>
        <time>2023-06-17T08:28:41.000Z</time>
      </trkpt>
      <trkpt lat="46.11905" lon="4.65791">
        <ele>217.38858</ele>
        <time>2023-06-17T08:28:42.000Z</time>
      </trkpt>
      <trkpt lat="46.11904" lon="4.65783">
        <ele>217.4899</ele>
        <time>2023-06-17T08:28:43.000Z</time>
      </trkpt>
      <trkpt lat="46.11904" lon="4.65774">
        <ele>217.57895</ele>
        <time>2023-06-17T08:28:44.000Z</time>
      </trkpt>
      <trkpt lat="46.11903" lon="4.65766">
        <ele>217.6727</ele>
        <time>2023-06-17T08:28:45.000Z</time>
      </trkpt>
      <trkpt lat="46.11903" lon="4.65757">
        <ele>217.76328</ele>
        <time>2023-06-17T08:28:46.000Z</time>
      </trkpt>
      <trkpt lat="46.11903" lon="4.65749">
        <ele>217.82004</ele>
        <time>2023-06-17T08:28:47.000Z</time>
      </trkpt>
      <trkpt lat="46.11902" lon="4.65741">
        <ele>217.90332</ele>
        <time>2023-06-17T08:28:48.000Z</time>
      </trkpt>
      <trkpt lat="46.11902" lon="4.65733">
        <ele>217.97734</ele>
        <time>2023-06-17T08:28:49.000Z</time>
      </trkpt>
      <trkpt lat="46.11902" lon="4.65725">
        <ele>218.04475</ele>
        <time>2023-06-17T08:28:50.000Z</time>
      </trkpt>
      <trkpt lat="46.11901" lon="4.65717">
        <ele>218.12639</ele>
        <time>2023-06-17T08:28:51.000Z</time>
      </trkpt>
      <trkpt lat="46.11901" lon="4.65708">
        <ele>218.19641</ele>
        <time>2023-06-17T08:28:52.000Z</time>
      </trkpt>
      <trkpt lat="46.11901" lon="4.657">
        <ele>218.26689</ele>
        <time>2023-06-17T08:28:53.000Z</time>
      </trkpt>
      <trkpt lat="46.11901" lon="4.65692">
        <ele>218.32576</ele>
        <time>2023-06-17T08:28:54.000Z</time>
      </trkpt>
      <trkpt lat="46.11901" lon="4.65684">
        <ele>218.40012</ele>
        <time>2023-06-17T08:28:55.000Z</time>
      </trkpt>
      <trkpt lat="46.119" lon="4.65676">
        <ele>218.45161</ele>
        <time>2023-06-17T08:28:56.000Z</time>
      </trkpt>
      <trkpt lat="46.119" lon="4.65668">
        <ele>218.49446</ele>
        <time>2023-06-17T08:28:57.000Z</time>
      </trkpt>
      <trkpt lat="46.11899" lon="4.6566">
        <ele>218.52364</ele>
        <time>2023-06-17T08:28:58.000Z</time>
      </trkpt>
      <trkpt lat="46.11898" lon="4.65652">
        <ele>218.54607</ele>
        <time>2023-06-17T08:28:59.000Z</time>
      </trkpt>
      <trkpt lat="46.11898" lon="4.65643">
        <ele>218.56303</ele>
        <time>2023-06-17T08:29:00.000Z</time>
      </trkpt>
      <trkpt lat="46.11897" lon="4.65635">
        <ele>218.59001</ele>
        <time>2023-06-17T08:29:01.000Z</time>
      </trkpt>
      <trkpt lat="46.11897" lon="4.65627">
        <ele>218.61868</ele>
        <time>2023-06-17T08:29:02.000Z</time>
      </trkpt>
      <trkpt lat="46.11897" lon="4.65619">
        <ele>218.65433</ele>
        <time>2023-06-17T08:29:03.000Z</time>
      </trkpt>
      <trkpt lat="46.11896" lon="4.6561">
        <ele>218.66988</ele>
        <time>2023-06-17T08:29:04.000Z</time>
      </trkpt>
      <trkpt lat="46.11895" lon="4.65602">
        <ele>218.67183</ele>
        <time>2023-06-17T08:29:05.000Z</time>
      </trkpt>
      <trkpt lat="46.11894" lon="4.65594">
        <ele>218.68005</ele>
        <time>2023-06-17T08:29:06.000Z</time>
      </trkpt>
      <trkpt lat="46.11894" lon="4.65585">
        <ele>218.71469</ele>
        <time>2023-06-17T08:29:07.000Z</time>
      </trkpt>
      <trkpt lat="46.11894" lon="4.65577">
        <ele>218.71359</ele>
        <time>2023-06-17T08:29:08.000Z</time>
      </trkpt>
      <trkpt lat="46.11893" lon="4.6557">
        <ele>218.69363</ele>
        <time>2023-06-17T08:29:09.000Z</time>
      </trkpt>
      <trkpt lat="46.11893" lon="4.65562">
        <ele>218.69621</ele>
        <time>2023-06-17T08:29:10.000Z</time>
      </trkpt>
      <trkpt lat="46.11895" lon="4.65555">
        <ele>218.6658</ele>
        <time>2023-06-17T08:29:11.000Z</time>
      </trkpt>
      <trkpt lat="46.11894" lon="4.65548">
        <ele>218.6595</ele>
        <time>2023-06-17T08:29:12.000Z</time>
      </trkpt>
      <trkpt lat="46.11894" lon="4.65542">
        <ele>218.66049</ele>
        <time>2023-06-17T08:29:13.000Z</time>
      </trkpt>
      <trkpt lat="46.11894" lon="4.65536">
        <ele>218.66031</ele>
        <time>2023-06-17T08:29:14.000Z</time>
      </trkpt>
      <trkpt lat="46.11893" lon="4.6553">
        <ele>218.66272</ele>
        <time>2023-06-17T08:29:15.000Z</time>
      </trkpt>
      <trkpt lat="46.11893" lon="4.65523">
        <ele>218.6834</ele>
        <time>2023-06-17T08:29:16.000Z</time>
      </trkpt>
      <trkpt lat="46.11893" lon="4.65518">
        <ele>218.70102</ele>
        <time>2023-06-17T08:29:17.000Z</time>
      </trkpt>
      <trkpt lat="46.11893" lon="4.65511">
        <ele>218.75935</ele>
        <time>2023-06-17T08:29:18.000Z</time>
      </trkpt>
      <trkpt lat="46.11892" lon="4.65505">
        <ele>218.81897</ele>
        <time>2023-06-17T08:29:19.000Z</time>
      </trkpt>
      <trkpt lat="46.11893" lon="4.65498">
        <ele>218.87358</ele>
        <time>2023-06-17T08:29:20.000Z</time>
      </trkpt>
      <trkpt lat="46.11892" lon="4.65492">
        <ele>218.91394</ele>
        <time>2023-06-17T08:29:21.000Z</time>
      </trkpt>
      <trkpt lat="46.11892" lon="4.65486">
        <ele>218.9659</ele>
        <time>2023-06-17T08:29:22.000Z</time>
      </trkpt>
      <trkpt lat="46.11892" lon="4.6548">
        <ele>218.99826</ele>
        <time>2023-06-17T08:29:23.000Z</time>
      </trkpt>
      <trkpt lat="46.11892" lon="4.65473">
        <ele>219.05728</ele>
        <time>2023-06-17T08:29:24.000Z</time>
      </trkpt>
      <trkpt lat="46.11892" lon="4.65466">
        <ele>219.1221</ele>
        <time>2023-06-17T08:29:25.000Z</time>
      </trkpt>
      <trkpt lat="46.11891" lon="4.6546">
        <ele>219.15715</ele>
        <time>2023-06-17T08:29:26.000Z</time>
      </trkpt>
      <trkpt lat="46.11891" lon="4.65454">
        <ele>219.18864</ele>
        <time>2023-06-17T08:29:27.000Z</time>
      </trkpt>
      <trkpt lat="46.1189" lon="4.65447">
        <ele>219.25676</ele>
        <time>2023-06-17T08:29:28.000Z</time>
      </trkpt>
      <trkpt lat="46.1189" lon="4.65441">
        <ele>219.34538</ele>
        <time>2023-06-17T08:29:29.000Z</time>
      </trkpt>
      <trkpt lat="46.1189" lon="4.65435">
        <ele>219.3934</ele>
        <time>2023-06-17T08:29:30.000Z</time>
      </trkpt>
      <trkpt lat="46.1189" lon="4.6543">
        <ele>219.45255</ele>
        <time>2023-06-17T08:29:31.000Z</time>
      </trkpt>
      <trkpt lat="46.1189" lon="4.65423">
        <ele>219.47636</ele>
        <time>2023-06-17T08:29:32.000Z</time>
      </trkpt>
      <trkpt lat="46.1189" lon="4.65416">
        <ele>219.4957</ele>
        <time>2023-06-17T08:29:33.000Z</time>
      </trkpt>
      <trkpt lat="46.11889" lon="4.6541">
        <ele>219.50752</ele>
        <time>2023-06-17T08:29:34.000Z</time>
      </trkpt>
      <trkpt lat="46.11889" lon="4.65403">
        <ele>219.52657</ele>
        <time>2023-06-17T08:29:35.000Z</time>
      </trkpt>
      <trkpt lat="46.11889" lon="4.65396">
        <ele>219.53397</ele>
        <time>2023-06-17T08:29:36.000Z</time>
      </trkpt>
      <trkpt lat="46.11888" lon="4.65389">
        <ele>219.56941</ele>
        <time>2023-06-17T08:29:37.000Z</time>
      </trkpt>
      <trkpt lat="46.11888" lon="4.65382">
        <ele>219.5864</ele>
        <time>2023-06-17T08:29:38.000Z</time>
      </trkpt>
      <trkpt lat="46.11888" lon="4.65376">
        <ele>219.59378</ele>
        <time>2023-06-17T08:29:39.000Z</time>
      </trkpt>
      <trkpt lat="46.11888" lon="4.65368">
        <ele>219.60403</ele>
        <time>2023-06-17T08:29:40.000Z</time>
      </trkpt>
      <trkpt lat="46.11887" lon="4.65361">
        <ele>219.61797</ele>
        <time>2023-06-17T08:29:41.000Z</time>
      </trkpt>
      <trkpt lat="46.11887" lon="4.65354">
        <ele>219.88972</ele>
        <time>2023-06-17T08:29:42.000Z</time>
      </trkpt>
      <trkpt lat="46.11886" lon="4.65348">
        <ele>220.16267</ele>
        <time>2023-06-17T08:29:43.000Z</time>
      </trkpt>
      <trkpt lat="46.11886" lon="4.6534">
        <ele>220.42094</ele>
        <time>2023-06-17T08:29:44.000Z</time>
      </trkpt>
      <trkpt lat="46.11886" lon="4.65333">
        <ele>220.68523</ele>
        <time>2023-06-17T08:29:45.000Z</time>
      </trkpt>
      <trkpt lat="46.11886" lon="4.65326">
        <ele>220.97806</ele>
        <time>2023-06-17T08:29:46.000Z</time>
      </trkpt>
      <trkpt lat="46.11885" lon="4.65318">
        <ele>221.29538</ele>
        <time>2023-06-17T08:29:47.000Z</time>
      </trkpt>
      <trkpt lat="46.11884" lon="4.65311">
        <ele>221.60397</ele>
        <time>2023-06-17T08:29:48.000Z</time>
      </trkpt>
      <trkpt lat="46.11885" lon="4.65303">
        <ele>221.90332</ele>
        <time>2023-06-17T08:29:49.000Z</time>
      </trkpt>
      <trkpt lat="46.11885" lon="4.65296">
        <ele>222.23918</ele>
        <time>2023-06-17T08:29:50.000Z</time>
      </trkpt>
      <trkpt lat="46.11885" lon="4.65288">
        <ele>222.58292</ele>
        <time>2023-06-17T08:29:51.000Z</time>
      </trkpt>
      <trkpt lat="46.11884" lon="4.6528">
        <ele>222.93765</ele>
        <time>2023-06-17T08:29:52.000Z</time>
      </trkpt>
      <trkpt lat="46.11884" lon="4.65273">
        <ele>223.27022</ele>
        <time>2023-06-17T08:29:53.000Z</time>
      </trkpt>
      <trkpt lat="46.11883" lon="4.65265">
        <ele>223.62268</ele>
        <time>2023-06-17T08:29:54.000Z</time>
      </trkpt>
      <trkpt lat="46.11882" lon="4.65259">
        <ele>223.97087</ele>
        <time>2023-06-17T08:29:55.000Z</time>
      </trkpt>
      <trkpt lat="46.11882" lon="4.65251">
        <ele>224.32805</ele>
        <time>2023-06-17T08:29:56.000Z</time>
      </trkpt>
      <trkpt lat="46.11881" lon="4.65244">
        <ele>224.67276</ele>
        <time>2023-06-17T08:29:57.000Z</time>
      </trkpt>
      <trkpt lat="46.11881" lon="4.65237">
        <ele>224.99496</ele>
        <time>2023-06-17T08:29:58.000Z</time>
      </trkpt>
      <trkpt lat="46.1188" lon="4.6523">
        <ele>225.32285</ele>
        <time>2023-06-17T08:29:59.000Z</time>
      </trkpt>
      <trkpt lat="46.11881" lon="4.65223">
        <ele>225.72476</ele>
        <time>2023-06-17T08:30:00.000Z</time>
      </trkpt>
      <trkpt lat="46.11881" lon="4.65216">
        <ele>226.08281</ele>
        <time>2023-06-17T08:30:01.000Z</time>
      </trkpt>
      <trkpt lat="46.1188" lon="4.6521">
        <ele>226.19019</ele>
        <time>2023-06-17T08:30:02.000Z</time>
      </trkpt>
      <trkpt lat="46.11879" lon="4.65203">
        <ele>226.29976</ele>
        <time>2023-06-17T08:30:03.000Z</time>
      </trkpt>
      <trkpt lat="46.11879" lon="4.65196">
        <ele>226.408</ele>
        <time>2023-06-17T08:30:04.000Z</time>
      </trkpt>
      <trkpt lat="46.11879" lon="4.65189">
        <ele>226.51297</ele>
        <time>2023-06-17T08:30:05.000Z</time>
      </trkpt>
      <trkpt lat="46.11878" lon="4.65183">
        <ele>226.63472</ele>
        <time>2023-06-17T08:30:06.000Z</time>
      </trkpt>
      <trkpt lat="46.11879" lon="4.65176">
        <ele>226.74161</ele>
        <time>2023-06-17T08:30:07.000Z</time>
      </trkpt>
      <trkpt lat="46.11879" lon="4.65169">
        <ele>226.81804</ele>
        <time>2023-06-17T08:30:08.000Z</time>
      </trkpt>
      <trkpt lat="46.11879" lon="4.65163">
        <ele>226.89941</ele>
        <time>2023-06-17T08:30:09.000Z</time>
      </trkpt>
      <trkpt lat="46.11879" lon="4.65156">
        <ele>226.981</ele>
        <time>2023-06-17T08:30:10.000Z</time>
      </trkpt>
      <trkpt lat="46.11878" lon="4.6515">
        <ele>227.06339</ele>
        <time>2023-06-17T08:30:11.000Z</time>
      </trkpt>
      <trkpt lat="46.11879" lon="4.65144">
        <ele>227.13928</ele>
        <time>2023-06-17T08:30:12.000Z</time>
      </trkpt>
      <trkpt lat="46.11878" lon="4.65137">
        <ele>227.22498</ele>
        <time>2023-06-17T08:30:13.000Z</time>
      </trkpt>
      <trkpt lat="46.11878" lon="4.65132">
        <ele>227.32307</ele>
        <time>2023-06-17T08:30:14.000Z</time>
      </trkpt>
      <trkpt lat="46.11877" lon="4.65126">
        <ele>227.42972</ele>
        <time>2023-06-17T08:30:15.000Z</time>
      </trkpt>
      <trkpt lat="46.11877" lon="4.65119">
        <ele>227.52133</ele>
        <time>2023-06-17T08:30:16.000Z</time>
      </trkpt>
      <trkpt lat="46.11876" lon="4.65113">
        <ele>227.61748</ele>
        <time>2023-06-17T08:30:17.000Z</time>
      </trkpt>
      <trkpt lat="46.11877" lon="4.65106">
        <ele>227.7114</ele>
        <time>2023-06-17T08:30:18.000Z</time>
      </trkpt>
      <trkpt lat="46.11877" lon="4.65099">
        <ele>227.80569</ele>
        <time>2023-06-17T08:30:19.000Z</time>
      </trkpt>
      <trkpt lat="46.11876" lon="4.65092">
        <ele>227.83597</ele>
        <time>2023-06-17T08:30:20.000Z</time>
      </trkpt>
      <trkpt lat="46.11876" lon="4.65086">
        <ele>227.93669</ele>
        <time>2023-06-17T08:30:21.000Z</time>
      </trkpt>
      <trkpt lat="46.11875" lon="4.65078">
        <ele>228.00192</ele>
        <time>2023-06-17T08:30:22.000Z</time>
      </trkpt>
      <trkpt lat="46.11874" lon="4.65071">
        <ele>228.0824</ele>
        <time>2023-06-17T08:30:23.000Z</time>
      </trkpt>
      <trkpt lat="46.11874" lon="4.65064">
        <ele>228.16922</ele>
        <time>2023-06-17T08:30:24.000Z</time>
      </trkpt>
      <trkpt lat="46.11873" lon="4.65057">
        <ele>228.23154</ele>
        <time>2023-06-17T08:30:25.000Z</time>
      </trkpt>
      <trkpt lat="46.11874" lon="4.6505">
        <ele>228.22092</ele>
        <time>2023-06-17T08:30:26.000Z</time>
      </trkpt>
      <trkpt lat="46.11873" lon="4.65043">
        <ele>228.17908</ele>
        <time>2023-06-17T08:30:27.000Z</time>
      </trkpt>
      <trkpt lat="46.11872" lon="4.65035">
        <ele>228.14182</ele>
        <time>2023-06-17T08:30:28.000Z</time>
      </trkpt>
      <trkpt lat="46.11872" lon="4.65028">
        <ele>228.11568</ele>
        <time>2023-06-17T08:30:29.000Z</time>
      </trkpt>
      <trkpt lat="46.11872" lon="4.65021">
        <ele>228.08696</ele>
        <time>2023-06-17T08:30:30.000Z</time>
      </trkpt>
      <trkpt lat="46.11871" lon="4.65013">
        <ele>228.06438</ele>
        <time>2023-06-17T08:30:31.000Z</time>
      </trkpt>
      <trkpt lat="46.11871" lon="4.65006">
        <ele>228.05295</ele>
        <time>2023-06-17T08:30:32.000Z</time>
      </trkpt>
      <trkpt lat="46.1187" lon="4.64999">
        <ele>228.05049</ele>
        <time>2023-06-17T08:30:33.000Z</time>
      </trkpt>
      <trkpt lat="46.1187" lon="4.64992">
        <ele>228.04593</ele>
        <time>2023-06-17T08:30:34.000Z</time>
      </trkpt>
      <trkpt lat="46.1187" lon="4.64984">
        <ele>228.04057</ele>
        <time>2023-06-17T08:30:35.000Z</time>
      </trkpt>
      <trkpt lat="46.1187" lon="4.64977">
        <ele>228.03874</ele>
        <time>2023-06-17T08:30:36.000Z</time>
      </trkpt>
      <trkpt lat="46.11869" lon="4.64969">
        <ele>228.02388</ele>
        <time>2023-06-17T08:30:37.000Z</time>
      </trkpt>
      <trkpt lat="46.11869" lon="4.64962">
        <ele>228.04514</ele>
        <time>2023-06-17T08:30:38.000Z</time>
      </trkpt>
      <trkpt lat="46.11869" lon="4.64954">
        <ele>228.06905</ele>
        <time>2023-06-17T08:30:39.000Z</time>
      </trkpt>
      <trkpt lat="46.11869" lon="4.64947">
        <ele>228.09419</ele>
        <time>2023-06-17T08:30:40.000Z</time>
      </trkpt>
      <trkpt lat="46.11868" lon="4.6494">
        <ele>228.05827</ele>
        <time>2023-06-17T08:30:41.000Z</time>
      </trkpt>
      <trkpt lat="46.11869" lon="4.64932">
        <ele>228.03659</ele>
        <time>2023-06-17T08:30:42.000Z</time>
      </trkpt>
      <trkpt lat="46.11869" lon="4.64925">
        <ele>228.00388</ele>
        <time>2023-06-17T08:30:43.000Z</time>
      </trkpt>
      <trkpt lat="46.11868" lon="4.64917">
        <ele>227.9603</ele>
        <time>2023-06-17T08:30:44.000Z</time>
      </trkpt>
      <trkpt lat="46.11868" lon="4.64911">
        <ele>227.95532</ele>
        <time>2023-06-17T08:30:45.000Z</time>
      </trkpt>
      <trkpt lat="46.11869" lon="4.64903">
        <ele>227.99467</ele>
        <time>2023-06-17T08:30:46.000Z</time>
      </trkpt>
      <trkpt lat="46.11869" lon="4.64896">
        <ele>228.06868</ele>
        <time>2023-06-17T08:30:47.000Z</time>
      </trkpt>
      <trkpt lat="46.1187" lon="4.64889">
        <ele>228.17867</ele>
        <time>2023-06-17T08:30:48.000Z</time>
      </trkpt>
      <trkpt lat="46.1187" lon="4.64881">
        <ele>228.28841</ele>
        <time>2023-06-17T08:30:49.000Z</time>
      </trkpt>
      <trkpt lat="46.1187" lon="4.64874">
        <ele>228.37224</ele>
        <time>2023-06-17T08:30:50.000Z</time>
      </trkpt>
      <trkpt lat="46.11871" lon="4.64866">
        <ele>228.44193</ele>
        <time>2023-06-17T08:30:51.000Z</time>
      </trkpt>
      <trkpt lat="46.11871" lon="4.6486">
        <ele>228.51221</ele>
        <time>2023-06-17T08:30:52.000Z</time>
      </trkpt>
      <trkpt lat="46.11871" lon="4.64853">
        <ele>228.57141</ele>
        <time>2023-06-17T08:30:53.000Z</time>
      </trkpt>
      <trkpt lat="46.1187" lon="4.64846">
        <ele>228.65274</ele>
        <time>2023-06-17T08:30:54.000Z</time>
      </trkpt>
      <trkpt lat="46.11871" lon="4.64839">
        <ele>228.69345</ele>
        <time>2023-06-17T08:30:55.000Z</time>
      </trkpt>
      <trkpt lat="46.11872" lon="4.64832">
        <ele>228.72322</ele>
        <time>2023-06-17T08:30:56.000Z</time>
      </trkpt>
      <trkpt lat="46.11873" lon="4.64825">
        <ele>228.74789</ele>
        <time>2023-06-17T08:30:57.000Z</time>
      </trkpt>
      <trkpt lat="46.11874" lon="4.64817">
        <ele>228.74995</ele>
        <time>2023-06-17T08:30:58.000Z</time>
      </trkpt>
      <trkpt lat="46.11874" lon="4.64811">
        <ele>228.73691</ele>
        <time>2023-06-17T08:30:59.000Z</time>
      </trkpt>
      <trkpt lat="46.11875" lon="4.64804">
        <ele>228.72859</ele>
        <time>2023-06-17T08:31:00.000Z</time>
      </trkpt>
      <trkpt lat="46.11876" lon="4.64798">
        <ele>228.75989</ele>
        <time>2023-06-17T08:31:01.000Z</time>
      </trkpt>
      <trkpt lat="46.11877" lon="4.64791">
        <ele>228.78601</ele>
        <time>2023-06-17T08:31:02.000Z</time>
      </trkpt>
      <trkpt lat="46.11878" lon="4.64784">
        <ele>228.81062</ele>
        <time>2023-06-17T08:31:03.000Z</time>
      </trkpt>
      <trkpt lat="46.11879" lon="4.64777">
        <ele>228.8243</ele>
        <time>2023-06-17T08:31:04.000Z</time>
      </trkpt>
      <trkpt lat="46.1188" lon="4.6477">
        <ele>228.82761</ele>
        <time>2023-06-17T08:31:05.000Z</time>
      </trkpt>
      <trkpt lat="46.11881" lon="4.64763">
        <ele>228.83228</ele>
        <time>2023-06-17T08:31:06.000Z</time>
      </trkpt>
      <trkpt lat="46.11881" lon="4.64755">
        <ele>228.84668</ele>
        <time>2023-06-17T08:31:07.000Z</time>
      </trkpt>
      <trkpt lat="46.11882" lon="4.64748">
        <ele>228.84573</ele>
        <time>2023-06-17T08:31:08.000Z</time>
      </trkpt>
      <trkpt lat="46.11883" lon="4.64742">
        <ele>228.8428</ele>
        <time>2023-06-17T08:31:09.000Z</time>
      </trkpt>
      <trkpt lat="46.11883" lon="4.64735">
        <ele>228.87302</ele>
        <time>2023-06-17T08:31:10.000Z</time>
      </trkpt>
      <trkpt lat="46.11885" lon="4.64728">
        <ele>228.9023</ele>
        <time>2023-06-17T08:31:11.000Z</time>
      </trkpt>
      <trkpt lat="46.11885" lon="4.64722">
        <ele>228.9407</ele>
        <time>2023-06-17T08:31:12.000Z</time>
      </trkpt>
      <trkpt lat="46.11887" lon="4.64715">
        <ele>228.99248</ele>
        <time>2023-06-17T08:31:13.000Z</time>
      </trkpt>
      <trkpt lat="46.11888" lon="4.64708">
        <ele>229.0096</ele>
        <time>2023-06-17T08:31:14.000Z</time>
      </trkpt>
      <trkpt lat="46.11888" lon="4.64702">
        <ele>229.06535</ele>
        <time>2023-06-17T08:31:15.000Z</time>
      </trkpt>
      <trkpt lat="46.11889" lon="4.64695">
        <ele>229.12593</ele>
        <time>2023-06-17T08:31:16.000Z</time>
      </trkpt>
      <trkpt lat="46.11891" lon="4.64689">
        <ele>229.21265</ele>
        <time>2023-06-17T08:31:17.000Z</time>
      </trkpt>
      <trkpt lat="46.11892" lon="4.64682">
        <ele>229.30852</ele>
        <time>2023-06-17T08:31:18.000Z</time>
      </trkpt>
      <trkpt lat="46.11893" lon="4.64676">
        <ele>229.40007</ele>
        <time>2023-06-17T08:31:19.000Z</time>
      </trkpt>
      <trkpt lat="46.11895" lon="4.64669">
        <ele>229.46533</ele>
        <time>2023-06-17T08:31:20.000Z</time>
      </trkpt>
      <trkpt lat="46.11896" lon="4.64664">
        <ele>229.51704</ele>
        <time>2023-06-17T08:31:21.000Z</time>
      </trkpt>
      <trkpt lat="46.11898" lon="4.64657">
        <ele>229.55801</ele>
        <time>2023-06-17T08:31:22.000Z</time>
      </trkpt>
      <trkpt lat="46.11899" lon="4.64651">
        <ele>229.60538</ele>
        <time>2023-06-17T08:31:23.000Z</time>
      </trkpt>
      <trkpt lat="46.119" lon="4.64644">
        <ele>229.67632</ele>
        <time>2023-06-17T08:31:24.000Z</time>
      </trkpt>
      <trkpt lat="46.11901" lon="4.64638">
        <ele>229.73923</ele>
        <time>2023-06-17T08:31:25.000Z</time>
      </trkpt>
      <trkpt lat="46.11903" lon="4.64631">
        <ele>229.81226</ele>
        <time>2023-06-17T08:31:26.000Z</time>
      </trkpt>
      <trkpt lat="46.11904" lon="4.64624">
        <ele>229.86105</ele>
        <time>2023-06-17T08:31:27.000Z</time>
      </trkpt>
      <trkpt lat="46.11904" lon="4.64617">
        <ele>229.53828</ele>
        <time>2023-06-17T08:31:28.000Z</time>
      </trkpt>
      <trkpt lat="46.11906" lon="4.6461">
        <ele>229.20317</ele>
        <time>2023-06-17T08:31:29.000Z</time>
      </trkpt>
      <trkpt lat="46.11908" lon="4.64603">
        <ele>228.84468</ele>
        <time>2023-06-17T08:31:30.000Z</time>
      </trkpt>
      <trkpt lat="46.1191" lon="4.64597">
        <ele>228.47437</ele>
        <time>2023-06-17T08:31:31.000Z</time>
      </trkpt>
      <trkpt lat="46.11911" lon="4.6459">
        <ele>228.10886</ele>
        <time>2023-06-17T08:31:32.000Z</time>
      </trkpt>
      <trkpt lat="46.11913" lon="4.64583">
        <ele>227.7458</ele>
        <time>2023-06-17T08:31:33.000Z</time>
      </trkpt>
      <trkpt lat="46.11915" lon="4.64577">
        <ele>227.38972</ele>
        <time>2023-06-17T08:31:34.000Z</time>
      </trkpt>
      <trkpt lat="46.11917" lon="4.6457">
        <ele>227.02962</ele>
        <time>2023-06-17T08:31:35.000Z</time>
      </trkpt>
      <trkpt lat="46.11918" lon="4.64563">
        <ele>226.67671</ele>
        <time>2023-06-17T08:31:36.000Z</time>
      </trkpt>
      <trkpt lat="46.11921" lon="4.64556">
        <ele>226.07336</ele>
        <time>2023-06-17T08:31:37.000Z</time>
      </trkpt>
      <trkpt lat="46.11923" lon="4.64549">
        <ele>226.09013</ele>
        <time>2023-06-17T08:31:38.000Z</time>
      </trkpt>
      <trkpt lat="46.11925" lon="4.64543">
        <ele>226.15935</ele>
        <time>2023-06-17T08:31:39.000Z</time>
      </trkpt>
      <trkpt lat="46.11927" lon="4.64536">
        <ele>225.66304</ele>
        <time>2023-06-17T08:31:40.000Z</time>
      </trkpt>
      <trkpt lat="46.11929" lon="4.64529">
        <ele>225.118</ele>
        <time>2023-06-17T08:31:41.000Z</time>
      </trkpt>
      <trkpt lat="46.11931" lon="4.64523">
        <ele>225.10603</ele>
        <time>2023-06-17T08:31:42.000Z</time>
      </trkpt>
      <trkpt lat="46.11932" lon="4.64516">
        <ele>225.18423</ele>
        <time>2023-06-17T08:31:43.000Z</time>
      </trkpt>
      <trkpt lat="46.11934" lon="4.64509">
        <ele>225.26131</ele>
        <time>2023-06-17T08:31:44.000Z</time>
      </trkpt>
      <trkpt lat="46.11937" lon="4.64502">
        <ele>225.29033</ele>
        <time>2023-06-17T08:31:45.000Z</time>
      </trkpt>
      <trkpt lat="46.11939" lon="4.64496">
        <ele>225.33023</ele>
        <time>2023-06-17T08:31:46.000Z</time>
      </trkpt>
      <trkpt lat="46.11941" lon="4.64489">
        <ele>225.38123</ele>
        <time>2023-06-17T08:31:47.000Z</time>
      </trkpt>
      <trkpt lat="46.11944" lon="4.64482">
        <ele>225.77921</ele>
        <time>2023-06-17T08:31:48.000Z</time>
      </trkpt>
      <trkpt lat="46.11946" lon="4.64475">
        <ele>226.16855</ele>
        <time>2023-06-17T08:31:49.000Z</time>
      </trkpt>
      <trkpt lat="46.11949" lon="4.64469">
        <ele>226.54968</ele>
        <time>2023-06-17T08:31:50.000Z</time>
      </trkpt>
      <trkpt lat="46.11951" lon="4.64463">
        <ele>226.9185</ele>
        <time>2023-06-17T08:31:51.000Z</time>
      </trkpt>
      <trkpt lat="46.11953" lon="4.64456">
        <ele>227.42928</ele>
        <time>2023-06-17T08:31:52.000Z</time>
      </trkpt>
      <trkpt lat="46.11956" lon="4.64449">
        <ele>227.91084</ele>
        <time>2023-06-17T08:31:53.000Z</time>
      </trkpt>
      <trkpt lat="46.11958" lon="4.64443">
        <ele>228.40451</ele>
        <time>2023-06-17T08:31:54.000Z</time>
      </trkpt>
      <trkpt lat="46.11959" lon="4.64436">
        <ele>228.86621</ele>
        <time>2023-06-17T08:31:55.000Z</time>
      </trkpt>
      <trkpt lat="46.11962" lon="4.6443">
        <ele>229.32634</ele>
        <time>2023-06-17T08:31:56.000Z</time>
      </trkpt>
      <trkpt lat="46.11964" lon="4.64424">
        <ele>230.00398</ele>
        <time>2023-06-17T08:31:57.000Z</time>
      </trkpt>
      <trkpt lat="46.11966" lon="4.64419">
        <ele>230.01328</ele>
        <time>2023-06-17T08:31:58.000Z</time>
      </trkpt>
      <trkpt lat="46.11969" lon="4.64413">
        <ele>229.97672</ele>
        <time>2023-06-17T08:31:59.000Z</time>
      </trkpt>
      <trkpt lat="46.11972" lon="4.64407">
        <ele>230.48459</ele>
        <time>2023-06-17T08:32:00.000Z</time>
      </trkpt>
      <trkpt lat="46.11975" lon="4.64399">
        <ele>230.98918</ele>
        <time>2023-06-17T08:32:01.000Z</time>
      </trkpt>
      <trkpt lat="46.11978" lon="4.64393">
        <ele>230.93787</ele>
        <time>2023-06-17T08:32:02.000Z</time>
      </trkpt>
      <trkpt lat="46.1198" lon="4.64387">
        <ele>230.77153</ele>
        <time>2023-06-17T08:32:03.000Z</time>
      </trkpt>
      <trkpt lat="46.11983" lon="4.6438">
        <ele>230.59152</ele>
        <time>2023-06-17T08:32:04.000Z</time>
      </trkpt>
      <trkpt lat="46.11986" lon="4.64372">
        <ele>230.60347</ele>
        <time>2023-06-17T08:32:05.000Z</time>
      </trkpt>
      <trkpt lat="46.1199" lon="4.64365">
        <ele>230.57712</ele>
        <time>2023-06-17T08:32:06.000Z</time>
      </trkpt>
      <trkpt lat="46.11993" lon="4.64359">
        <ele>230.57381</ele>
        <time>2023-06-17T08:32:07.000Z</time>
      </trkpt>
      <trkpt lat="46.11996" lon="4.64353">
        <ele>230.6136</ele>
        <time>2023-06-17T08:32:08.000Z</time>
      </trkpt>
      <trkpt lat="46.12" lon="4.64346">
        <ele>230.64494</ele>
        <time>2023-06-17T08:32:09.000Z</time>
      </trkpt>
      <trkpt lat="46.12004" lon="4.64338">
        <ele>230.69878</ele>
        <time>2023-06-17T08:32:10.000Z</time>
      </trkpt>
      <trkpt lat="46.12007" lon="4.64331">
        <ele>230.80435</ele>
        <time>2023-06-17T08:32:11.000Z</time>
      </trkpt>
      <trkpt lat="46.12012" lon="4.64324">
        <ele>230.76981</ele>
        <time>2023-06-17T08:32:12.000Z</time>
      </trkpt>
      <trkpt lat="46.12015" lon="4.64317">
        <ele>230.75388</ele>
        <time>2023-06-17T08:32:13.000Z</time>
      </trkpt>
      <trkpt lat="46.12019" lon="4.6431">
        <ele>230.71078</ele>
        <time>2023-06-17T08:32:14.000Z</time>
      </trkpt>
      <trkpt lat="46.12023" lon="4.64303">
        <ele>230.71347</ele>
        <time>2023-06-17T08:32:15.000Z</time>
      </trkpt>
      <trkpt lat="46.12026" lon="4.64296">
        <ele>230.70395</ele>
        <time>2023-06-17T08:32:16.000Z</time>
      </trkpt>
      <trkpt lat="46.1203" lon="4.6429">
        <ele>230.70935</ele>
        <time>2023-06-17T08:32:17.000Z</time>
      </trkpt>
      <trkpt lat="46.12034" lon="4.64283">
        <ele>230.76892</ele>
        <time>2023-06-17T08:32:18.000Z</time>
      </trkpt>
      <trkpt lat="46.12037" lon="4.64277">
        <ele>230.84006</ele>
        <time>2023-06-17T08:32:19.000Z</time>
      </trkpt>
      <trkpt lat="46.12041" lon="4.64271">
        <ele>230.94116</ele>
        <time>2023-06-17T08:32:20.000Z</time>
      </trkpt>
      <trkpt lat="46.12045" lon="4.64266">
        <ele>231.09615</ele>
        <time>2023-06-17T08:32:21.000Z</time>
      </trkpt>
      <trkpt lat="46.12048" lon="4.64259">
        <ele>231.28093</ele>
        <time>2023-06-17T08:32:22.000Z</time>
      </trkpt>
      <trkpt lat="46.12052" lon="4.64253">
        <ele>231.50037</ele>
        <time>2023-06-17T08:32:23.000Z</time>
      </trkpt>
      <trkpt lat="46.12058" lon="4.64246">
        <ele>231.77307</ele>
        <time>2023-06-17T08:32:24.000Z</time>
      </trkpt>
      <trkpt lat="46.12061" lon="4.6424">
        <ele>231.86897</ele>
        <time>2023-06-17T08:32:25.000Z</time>
      </trkpt>
      <trkpt lat="46.12065" lon="4.64234">
        <ele>231.98019</ele>
        <time>2023-06-17T08:32:26.000Z</time>
      </trkpt>
      <trkpt lat="46.12068" lon="4.64228">
        <ele>232.05884</ele>
        <time>2023-06-17T08:32:27.000Z</time>
      </trkpt>
      <trkpt lat="46.12072" lon="4.64222">
        <ele>232.10391</ele>
        <time>2023-06-17T08:32:28.000Z</time>
      </trkpt>
      <trkpt lat="46.12076" lon="4.64216">
        <ele>232.15567</ele>
        <time>2023-06-17T08:32:29.000Z</time>
      </trkpt>
      <trkpt lat="46.1208" lon="4.64209">
        <ele>232.20151</ele>
        <time>2023-06-17T08:32:30.000Z</time>
      </trkpt>
      <trkpt lat="46.12084" lon="4.64203">
        <ele>232.20471</ele>
        <time>2023-06-17T08:32:31.000Z</time>
      </trkpt>
      <trkpt lat="46.12088" lon="4.64198">
        <ele>232.18994</ele>
        <time>2023-06-17T08:32:32.000Z</time>
      </trkpt>
      <trkpt lat="46.12093" lon="4.64191">
        <ele>232.19592</ele>
        <time>2023-06-17T08:32:33.000Z</time>
      </trkpt>
      <trkpt lat="46.12096" lon="4.64184">
        <ele>232.20911</ele>
        <time>2023-06-17T08:32:34.000Z</time>
      </trkpt>
      <trkpt lat="46.121" lon="4.64177">
        <ele>232.22226</ele>
        <time>2023-06-17T08:32:35.000Z</time>
      </trkpt>
      <trkpt lat="46.12104" lon="4.64171">
        <ele>232.24812</ele>
        <time>2023-06-17T08:32:36.000Z</time>
      </trkpt>
      <trkpt lat="46.12109" lon="4.64165">
        <ele>232.24313</ele>
        <time>2023-06-17T08:32:37.000Z</time>
      </trkpt>
      <trkpt lat="46.12113" lon="4.64158">
        <ele>232.23921</ele>
        <time>2023-06-17T08:32:38.000Z</time>
      </trkpt>
      <trkpt lat="46.12117" lon="4.64152">
        <ele>232.24673</ele>
        <time>2023-06-17T08:32:39.000Z</time>
      </trkpt>
      <trkpt lat="46.12121" lon="4.64146">
        <ele>232.23088</ele>
        <time>2023-06-17T08:32:40.000Z</time>
      </trkpt>
      <trkpt lat="46.12124" lon="4.6414">
        <ele>232.20625</ele>
        <time>2023-06-17T08:32:41.000Z</time>
      </trkpt>
      <trkpt lat="46.12128" lon="4.64134">
        <ele>232.19328</ele>
        <time>2023-06-17T08:32:42.000Z</time>
      </trkpt>
      <trkpt lat="46.12132" lon="4.64129">
        <ele>232.16318</ele>
        <time>2023-06-17T08:32:43.000Z</time>
      </trkpt>
      <trkpt lat="46.12135" lon="4.64122">
        <ele>232.10721</ele>
        <time>2023-06-17T08:32:44.000Z</time>
      </trkpt>
      <trkpt lat="46.12138" lon="4.64116">
        <ele>232.08997</ele>
        <time>2023-06-17T08:32:45.000Z</time>
      </trkpt>
      <trkpt lat="46.12142" lon="4.64111">
        <ele>232.08369</ele>
        <time>2023-06-17T08:32:46.000Z</time>
      </trkpt>
      <trkpt lat="46.12146" lon="4.64106">
        <ele>232.07222</ele>
        <time>2023-06-17T08:32:47.000Z</time>
      </trkpt>
      <trkpt lat="46.12149" lon="4.64101">
        <ele>232.06367</ele>
        <time>2023-06-17T08:32:48.000Z</time>
      </trkpt>
      <trkpt lat="46.12152" lon="4.64096">
        <ele>232.06596</ele>
        <time>2023-06-17T08:32:49.000Z</time>
      </trkpt>
      <trkpt lat="46.12155" lon="4.64092">
        <ele>232.07944</ele>
        <time>2023-06-17T08:32:50.000Z</time>
      </trkpt>
      <trkpt lat="46.12159" lon="4.64087">
        <ele>232.10385</ele>
        <time>2023-06-17T08:32:51.000Z</time>
      </trkpt>
      <trkpt lat="46.12162" lon="4.64082">
        <ele>232.14761</ele>
        <time>2023-06-17T08:32:52.000Z</time>
      </trkpt>
      <trkpt lat="46.12165" lon="4.64077">
        <ele>232.18713</ele>
        <time>2023-06-17T08:32:53.000Z</time>
      </trkpt>
      <trkpt lat="46.12169" lon="4.64071">
        <ele>232.21346</ele>
        <time>2023-06-17T08:32:54.000Z</time>
      </trkpt>
      <trkpt lat="46.12172" lon="4.64067">
        <ele>232.23819</ele>
        <time>2023-06-17T08:32:55.000Z</time>
      </trkpt>
      <trkpt lat="46.12175" lon="4.64061">
        <ele>232.26506</ele>
        <time>2023-06-17T08:32:56.000Z</time>
      </trkpt>
      <trkpt lat="46.12178" lon="4.64055">
        <ele>232.30855</ele>
        <time>2023-06-17T08:32:57.000Z</time>
      </trkpt>
      <trkpt lat="46.12181" lon="4.6405">
        <ele>232.27364</ele>
        <time>2023-06-17T08:32:58.000Z</time>
      </trkpt>
      <trkpt lat="46.12184" lon="4.64044">
        <ele>232.17197</ele>
        <time>2023-06-17T08:32:59.000Z</time>
      </trkpt>
      <trkpt lat="46.12187" lon="4.6404">
        <ele>232.23833</ele>
        <time>2023-06-17T08:33:00.000Z</time>
      </trkpt>
      <trkpt lat="46.12191" lon="4.64033">
        <ele>232.29324</ele>
        <time>2023-06-17T08:33:01.000Z</time>
      </trkpt>
      <trkpt lat="46.12195" lon="4.64028">
        <ele>232.34265</ele>
        <time>2023-06-17T08:33:02.000Z</time>
      </trkpt>
      <trkpt lat="46.12198" lon="4.64024">
        <ele>232.39578</ele>
        <time>2023-06-17T08:33:03.000Z</time>
      </trkpt>
      <trkpt lat="46.12202" lon="4.64018">
        <ele>232.42554</ele>
        <time>2023-06-17T08:33:04.000Z</time>
      </trkpt>
      <trkpt lat="46.12205" lon="4.64013">
        <ele>232.47734</ele>
        <time>2023-06-17T08:33:05.000Z</time>
      </trkpt>
      <trkpt lat="46.12208" lon="4.64007">
        <ele>232.53996</ele>
        <time>2023-06-17T08:33:06.000Z</time>
      </trkpt>
      <trkpt lat="46.12211" lon="4.64003">
        <ele>232.60144</ele>
        <time>2023-06-17T08:33:07.000Z</time>
      </trkpt>
      <trkpt lat="46.12215" lon="4.63997">
        <ele>232.6658</ele>
        <time>2023-06-17T08:33:08.000Z</time>
      </trkpt>
      <trkpt lat="46.12218" lon="4.63992">
        <ele>232.75549</ele>
        <time>2023-06-17T08:33:09.000Z</time>
      </trkpt>
      <trkpt lat="46.12222" lon="4.63987">
        <ele>232.83049</ele>
        <time>2023-06-17T08:33:10.000Z</time>
      </trkpt>
      <trkpt lat="46.12225" lon="4.63983">
        <ele>232.93982</ele>
        <time>2023-06-17T08:33:11.000Z</time>
      </trkpt>
      <trkpt lat="46.12228" lon="4.63977">
        <ele>233.02864</ele>
        <time>2023-06-17T08:33:12.000Z</time>
      </trkpt>
      <trkpt lat="46.12232" lon="4.63972">
        <ele>233.0798</ele>
        <time>2023-06-17T08:33:13.000Z</time>
      </trkpt>
      <trkpt lat="46.12235" lon="4.63967">
        <ele>233.13297</ele>
        <time>2023-06-17T08:33:14.000Z</time>
      </trkpt>
      <trkpt lat="46.12239" lon="4.63961">
        <ele>233.1783</ele>
        <time>2023-06-17T08:33:15.000Z</time>
      </trkpt>
      <trkpt lat="46.12242" lon="4.63955">
        <ele>233.22226</ele>
        <time>2023-06-17T08:33:16.000Z</time>
      </trkpt>
      <trkpt lat="46.12245" lon="4.63949">
        <ele>233.27298</ele>
        <time>2023-06-17T08:33:17.000Z</time>
      </trkpt>
      <trkpt lat="46.12249" lon="4.63945">
        <ele>233.3737</ele>
        <time>2023-06-17T08:33:18.000Z</time>
      </trkpt>
      <trkpt lat="46.12253" lon="4.63939">
        <ele>233.53938</ele>
        <time>2023-06-17T08:33:19.000Z</time>
      </trkpt>
      <trkpt lat="46.12256" lon="4.63934">
        <ele>233.52377</ele>
        <time>2023-06-17T08:33:20.000Z</time>
      </trkpt>
      <trkpt lat="46.1226" lon="4.63928">
        <ele>233.53618</ele>
        <time>2023-06-17T08:33:21.000Z</time>
      </trkpt>
      <trkpt lat="46.12263" lon="4.63923">
        <ele>233.52983</ele>
        <time>2023-06-17T08:33:22.000Z</time>
      </trkpt>
      <trkpt lat="46.12267" lon="4.63917">
        <ele>233.52361</ele>
        <time>2023-06-17T08:33:23.000Z</time>
      </trkpt>
      <trkpt lat="46.1227" lon="4.63912">
        <ele>233.54227</ele>
        <time>2023-06-17T08:33:24.000Z</time>
      </trkpt>
      <trkpt lat="46.12273" lon="4.63906">
        <ele>233.52205</ele>
        <time>2023-06-17T08:33:25.000Z</time>
      </trkpt>
      <trkpt lat="46.12277" lon="4.639">
        <ele>233.48373</ele>
        <time>2023-06-17T08:33:26.000Z</time>
      </trkpt>
      <trkpt lat="46.12281" lon="4.63894">
        <ele>233.45743</ele>
        <time>2023-06-17T08:33:27.000Z</time>
      </trkpt>
      <trkpt lat="46.12284" lon="4.63888">
        <ele>233.43596</ele>
        <time>2023-06-17T08:33:28.000Z</time>
      </trkpt>
      <trkpt lat="46.12287" lon="4.63883">
        <ele>233.38997</ele>
        <time>2023-06-17T08:33:29.000Z</time>
      </trkpt>
      <trkpt lat="46.12291" lon="4.63877">
        <ele>233.36618</ele>
        <time>2023-06-17T08:33:30.000Z</time>
      </trkpt>
      <trkpt lat="46.12294" lon="4.63872">
        <ele>233.32625</ele>
        <time>2023-06-17T08:33:31.000Z</time>
      </trkpt>
      <trkpt lat="46.12298" lon="4.63866">
        <ele>233.31523</ele>
        <time>2023-06-17T08:33:32.000Z</time>
      </trkpt>
      <trkpt lat="46.12301" lon="4.63861">
        <ele>233.31685</ele>
        <time>2023-06-17T08:33:33.000Z</time>
      </trkpt>
      <trkpt lat="46.12305" lon="4.63855">
        <ele>233.32321</ele>
        <time>2023-06-17T08:33:34.000Z</time>
      </trkpt>
      <trkpt lat="46.12309" lon="4.63849">
        <ele>233.34274</ele>
        <time>2023-06-17T08:33:35.000Z</time>
      </trkpt>
      <trkpt lat="46.12313" lon="4.63843">
        <ele>233.36792</ele>
        <time>2023-06-17T08:33:36.000Z</time>
      </trkpt>
      <trkpt lat="46.12316" lon="4.63837">
        <ele>233.39474</ele>
        <time>2023-06-17T08:33:37.000Z</time>
      </trkpt>
      <trkpt lat="46.12319" lon="4.63832">
        <ele>233.46013</ele>
        <time>2023-06-17T08:33:38.000Z</time>
      </trkpt>
      <trkpt lat="46.12323" lon="4.63827">
        <ele>233.49789</ele>
        <time>2023-06-17T08:33:39.000Z</time>
      </trkpt>
      <trkpt lat="46.12327" lon="4.63822">
        <ele>233.57068</ele>
        <time>2023-06-17T08:33:40.000Z</time>
      </trkpt>
      <trkpt lat="46.1233" lon="4.63816">
        <ele>233.66232</ele>
        <time>2023-06-17T08:33:41.000Z</time>
      </trkpt>
      <trkpt lat="46.12333" lon="4.63811">
        <ele>233.75069</ele>
        <time>2023-06-17T08:33:42.000Z</time>
      </trkpt>
      <trkpt lat="46.12336" lon="4.63805">
        <ele>233.84534</ele>
        <time>2023-06-17T08:33:43.000Z</time>
      </trkpt>
      <trkpt lat="46.1234" lon="4.63797">
        <ele>233.9425</ele>
        <time>2023-06-17T08:33:44.000Z</time>
      </trkpt>
      <trkpt lat="46.12344" lon="4.63792">
        <ele>234.035</ele>
        <time>2023-06-17T08:33:45.000Z</time>
      </trkpt>
      <trkpt lat="46.12348" lon="4.63787">
        <ele>234.14534</ele>
        <time>2023-06-17T08:33:46.000Z</time>
      </trkpt>
      <trkpt lat="46.12351" lon="4.63781">
        <ele>234.25822</ele>
        <time>2023-06-17T08:33:47.000Z</time>
      </trkpt>
      <trkpt lat="46.12354" lon="4.63776">
        <ele>234.35889</ele>
        <time>2023-06-17T08:33:48.000Z</time>
      </trkpt>
      <trkpt lat="46.12358" lon="4.63771">
        <ele>234.46455</ele>
        <time>2023-06-17T08:33:49.000Z</time>
      </trkpt>
      <trkpt lat="46.12362" lon="4.63765">
        <ele>234.5629</ele>
        <time>2023-06-17T08:33:50.000Z</time>
      </trkpt>
      <trkpt lat="46.12366" lon="4.63761">
        <ele>234.6431</ele>
        <time>2023-06-17T08:33:51.000Z</time>
      </trkpt>
      <trkpt lat="46.12369" lon="4.63755">
        <ele>234.70215</ele>
        <time>2023-06-17T08:33:52.000Z</time>
      </trkpt>
      <trkpt lat="46.12373" lon="4.63749">
        <ele>234.77527</ele>
        <time>2023-06-17T08:33:53.000Z</time>
      </trkpt>
      <trkpt lat="46.12376" lon="4.63743">
        <ele>234.85599</ele>
        <time>2023-06-17T08:33:54.000Z</time>
      </trkpt>
      <trkpt lat="46.12379" lon="4.63737">
        <ele>234.90884</ele>
        <time>2023-06-17T08:33:55.000Z</time>
      </trkpt>
      <trkpt lat="46.12382" lon="4.63731">
        <ele>234.96988</ele>
        <time>2023-06-17T08:33:56.000Z</time>
      </trkpt>
      <trkpt lat="46.12385" lon="4.63726">
        <ele>235.04817</ele>
        <time>2023-06-17T08:33:57.000Z</time>
      </trkpt>
      <trkpt lat="46.12389" lon="4.63721">
        <ele>235.09866</ele>
        <time>2023-06-17T08:33:58.000Z</time>
      </trkpt>
      <trkpt lat="46.12391" lon="4.63714">
        <ele>235.1604</ele>
        <time>2023-06-17T08:33:59.000Z</time>
      </trkpt>
      <trkpt lat="46.12395" lon="4.6371">
        <ele>235.25742</ele>
        <time>2023-06-17T08:34:00.000Z</time>
      </trkpt>
      <trkpt lat="46.12398" lon="4.63705">
        <ele>235.3287</ele>
        <time>2023-06-17T08:34:01.000Z</time>
      </trkpt>
      <trkpt lat="46.12402" lon="4.63699">
        <ele>235.40048</ele>
        <time>2023-06-17T08:34:02.000Z</time>
      </trkpt>
      <trkpt lat="46.12404" lon="4.63694">
        <ele>235.46451</ele>
        <time>2023-06-17T08:34:03.000Z</time>
      </trkpt>
      <trkpt lat="46.12407" lon="4.63689">
        <ele>235.50558</ele>
        <time>2023-06-17T08:34:04.000Z</time>
      </trkpt>
      <trkpt lat="46.1241" lon="4.63684">
        <ele>235.57056</ele>
        <time>2023-06-17T08:34:05.000Z</time>
      </trkpt>
      <trkpt lat="46.12414" lon="4.63679">
        <ele>235.604</ele>
        <time>2023-06-17T08:34:06.000Z</time>
      </trkpt>
      <trkpt lat="46.12418" lon="4.63674">
        <ele>235.66602</ele>
        <time>2023-06-17T08:34:07.000Z</time>
      </trkpt>
      <trkpt lat="46.12421" lon="4.63669">
        <ele>235.759</ele>
        <time>2023-06-17T08:34:08.000Z</time>
      </trkpt>
      <trkpt lat="46.12424" lon="4.63664">
        <ele>235.83337</ele>
        <time>2023-06-17T08:34:09.000Z</time>
      </trkpt>
      <trkpt lat="46.12427" lon="4.63659">
        <ele>235.90469</ele>
        <time>2023-06-17T08:34:10.000Z</time>
      </trkpt>
      <trkpt lat="46.12431" lon="4.63653">
        <ele>235.87732</ele>
        <time>2023-06-17T08:34:11.000Z</time>
      </trkpt>
      <trkpt lat="46.12435" lon="4.63648">
        <ele>235.87747</ele>
        <time>2023-06-17T08:34:12.000Z</time>
      </trkpt>
      <trkpt lat="46.12437" lon="4.63645">
        <ele>235.75293</ele>
        <time>2023-06-17T08:34:13.000Z</time>
      </trkpt>
      <trkpt lat="46.12441" lon="4.6364">
        <ele>235.86533</ele>
        <time>2023-06-17T08:34:14.000Z</time>
      </trkpt>
      <trkpt lat="46.12444" lon="4.63635">
        <ele>235.95358</ele>
        <time>2023-06-17T08:34:15.000Z</time>
      </trkpt>
      <trkpt lat="46.12448" lon="4.63628">
        <ele>236.00639</ele>
        <time>2023-06-17T08:34:16.000Z</time>
      </trkpt>
      <trkpt lat="46.12451" lon="4.63621">
        <ele>236.0759</ele>
        <time>2023-06-17T08:34:17.000Z</time>
      </trkpt>
      <trkpt lat="46.12454" lon="4.63617">
        <ele>236.17383</ele>
        <time>2023-06-17T08:34:18.000Z</time>
      </trkpt>
      <trkpt lat="46.12457" lon="4.63611">
        <ele>236.24458</ele>
        <time>2023-06-17T08:34:19.000Z</time>
      </trkpt>
      <trkpt lat="46.1246" lon="4.63606">
        <ele>236.31009</ele>
        <time>2023-06-17T08:34:20.000Z</time>
      </trkpt>
      <trkpt lat="46.12464" lon="4.63601">
        <ele>236.37411</ele>
        <time>2023-06-17T08:34:21.000Z</time>
      </trkpt>
      <trkpt lat="46.12467" lon="4.63595">
        <ele>236.46819</ele>
        <time>2023-06-17T08:34:22.000Z</time>
      </trkpt>
      <trkpt lat="46.12469" lon="4.6359">
        <ele>236.55302</ele>
        <time>2023-06-17T08:34:23.000Z</time>
      </trkpt>
      <trkpt lat="46.12473" lon="4.63585">
        <ele>236.63327</ele>
        <time>2023-06-17T08:34:24.000Z</time>
      </trkpt>
      <trkpt lat="46.12476" lon="4.6358">
        <ele>236.70859</ele>
        <time>2023-06-17T08:34:25.000Z</time>
      </trkpt>
      <trkpt lat="46.1248" lon="4.63575">
        <ele>236.78903</ele>
        <time>2023-06-17T08:34:26.000Z</time>
      </trkpt>
      <trkpt lat="46.12483" lon="4.6357">
        <ele>236.76192</ele>
        <time>2023-06-17T08:34:27.000Z</time>
      </trkpt>
      <trkpt lat="46.12487" lon="4.63565">
        <ele>236.70833</ele>
        <time>2023-06-17T08:34:28.000Z</time>
      </trkpt>
      <trkpt lat="46.1249" lon="4.6356">
        <ele>236.6718</ele>
        <time>2023-06-17T08:34:29.000Z</time>
      </trkpt>
      <trkpt lat="46.12493" lon="4.63555">
        <ele>236.63132</ele>
        <time>2023-06-17T08:34:30.000Z</time>
      </trkpt>
      <trkpt lat="46.12497" lon="4.6355">
        <ele>236.70511</ele>
        <time>2023-06-17T08:34:31.000Z</time>
      </trkpt>
      <trkpt lat="46.125" lon="4.63545">
        <ele>236.75098</ele>
        <time>2023-06-17T08:34:32.000Z</time>
      </trkpt>
      <trkpt lat="46.12503" lon="4.6354">
        <ele>236.92</ele>
        <time>2023-06-17T08:34:33.000Z</time>
      </trkpt>
      <trkpt lat="46.12506" lon="4.63536">
        <ele>236.85762</ele>
        <time>2023-06-17T08:34:34.000Z</time>
      </trkpt>
      <trkpt lat="46.1251" lon="4.63531">
        <ele>236.83389</ele>
        <time>2023-06-17T08:34:35.000Z</time>
      </trkpt>
      <trkpt lat="46.12513" lon="4.63527">
        <ele>236.83064</ele>
        <time>2023-06-17T08:34:36.000Z</time>
      </trkpt>
      <trkpt lat="46.12516" lon="4.63523">
        <ele>236.80078</ele>
        <time>2023-06-17T08:34:37.000Z</time>
      </trkpt>
      <trkpt lat="46.12518" lon="4.63519">
        <ele>236.74541</ele>
        <time>2023-06-17T08:34:38.000Z</time>
      </trkpt>
      <trkpt lat="46.1252" lon="4.63518">
        <ele>236.72697</ele>
        <time>2023-06-17T08:34:40.000Z</time>
      </trkpt>
      <trkpt lat="46.12521" lon="4.63514">
        <ele>236.82222</ele>
        <time>2023-06-17T08:35:13.000Z</time>
      </trkpt>
      <trkpt lat="46.12523" lon="4.63512">
        <ele>236.91655</ele>
        <time>2023-06-17T08:35:14.000Z</time>
      </trkpt>
      <trkpt lat="46.12525" lon="4.6351">
        <ele>236.99309</ele>
        <time>2023-06-17T08:35:15.000Z</time>
      </trkpt>
      <trkpt lat="46.12526" lon="4.63507">
        <ele>237.07999</ele>
        <time>2023-06-17T08:35:16.000Z</time>
      </trkpt>
      <trkpt lat="46.12527" lon="4.63505">
        <ele>237.15535</ele>
        <time>2023-06-17T08:35:17.000Z</time>
      </trkpt>
      <trkpt lat="46.12529" lon="4.63502">
        <ele>237.2421</ele>
        <time>2023-06-17T08:35:18.000Z</time>
      </trkpt>
      <trkpt lat="46.12531" lon="4.63499">
        <ele>237.32771</ele>
        <time>2023-06-17T08:35:19.000Z</time>
      </trkpt>
      <trkpt lat="46.12533" lon="4.63496">
        <ele>237.47665</ele>
        <time>2023-06-17T08:35:20.000Z</time>
      </trkpt>
      <trkpt lat="46.12535" lon="4.63493">
        <ele>237.62378</ele>
        <time>2023-06-17T08:35:21.000Z</time>
      </trkpt>
      <trkpt lat="46.12537" lon="4.6349">
        <ele>237.72873</ele>
        <time>2023-06-17T08:35:22.000Z</time>
      </trkpt>
      <trkpt lat="46.12538" lon="4.63487">
        <ele>237.76563</ele>
        <time>2023-06-17T08:35:23.000Z</time>
      </trkpt>
      <trkpt lat="46.1254" lon="4.63485">
        <ele>237.79785</ele>
        <time>2023-06-17T08:35:24.000Z</time>
      </trkpt>
      <trkpt lat="46.12542" lon="4.63482">
        <ele>237.80913</ele>
        <time>2023-06-17T08:35:25.000Z</time>
      </trkpt>
      <trkpt lat="46.12544" lon="4.63478">
        <ele>237.78572</ele>
        <time>2023-06-17T08:35:26.000Z</time>
      </trkpt>
      <trkpt lat="46.12546" lon="4.63475">
        <ele>237.7437</ele>
        <time>2023-06-17T08:35:27.000Z</time>
      </trkpt>
      <trkpt lat="46.12548" lon="4.63471">
        <ele>237.681</ele>
        <time>2023-06-17T08:35:28.000Z</time>
      </trkpt>
      <trkpt lat="46.12551" lon="4.63468">
        <ele>237.83174</ele>
        <time>2023-06-17T08:35:29.000Z</time>
      </trkpt>
      <trkpt lat="46.12553" lon="4.63465">
        <ele>237.93953</ele>
        <time>2023-06-17T08:35:30.000Z</time>
      </trkpt>
      <trkpt lat="46.12555" lon="4.63462">
        <ele>238.00903</ele>
        <time>2023-06-17T08:35:31.000Z</time>
      </trkpt>
      <trkpt lat="46.12557" lon="4.6346">
        <ele>238.07568</ele>
        <time>2023-06-17T08:35:32.000Z</time>
      </trkpt>
      <trkpt lat="46.12559" lon="4.63456">
        <ele>238.03354</ele>
        <time>2023-06-17T08:35:33.000Z</time>
      </trkpt>
      <trkpt lat="46.12562" lon="4.63452">
        <ele>238.03584</ele>
        <time>2023-06-17T08:35:34.000Z</time>
      </trkpt>
      <trkpt lat="46.12565" lon="4.63444">
        <ele>238.02493</ele>
        <time>2023-06-17T08:35:35.000Z</time>
      </trkpt>
      <trkpt lat="46.12567" lon="4.6344">
        <ele>238.00778</ele>
        <time>2023-06-17T08:35:36.000Z</time>
      </trkpt>
      <trkpt lat="46.1257" lon="4.63435">
        <ele>238.00732</ele>
        <time>2023-06-17T08:35:37.000Z</time>
      </trkpt>
      <trkpt lat="46.12573" lon="4.6343">
        <ele>237.86685</ele>
        <time>2023-06-17T08:35:38.000Z</time>
      </trkpt>
      <trkpt lat="46.12576" lon="4.63425">
        <ele>237.7404</ele>
        <time>2023-06-17T08:35:39.000Z</time>
      </trkpt>
      <trkpt lat="46.12579" lon="4.63421">
        <ele>237.56381</ele>
        <time>2023-06-17T08:35:40.000Z</time>
      </trkpt>
      <trkpt lat="46.12582" lon="4.63417">
        <ele>237.36946</ele>
        <time>2023-06-17T08:35:41.000Z</time>
      </trkpt>
      <trkpt lat="46.12585" lon="4.63412">
        <ele>237.21823</ele>
        <time>2023-06-17T08:35:42.000Z</time>
      </trkpt>
      <trkpt lat="46.12588" lon="4.63407">
        <ele>237.37241</ele>
        <time>2023-06-17T08:35:43.000Z</time>
      </trkpt>
      <trkpt lat="46.12592" lon="4.63402">
        <ele>237.48535</ele>
        <time>2023-06-17T08:35:44.000Z</time>
      </trkpt>
      <trkpt lat="46.12595" lon="4.63397">
        <ele>237.6116</ele>
        <time>2023-06-17T08:35:45.000Z</time>
      </trkpt>
      <trkpt lat="46.12599" lon="4.63392">
        <ele>237.74393</ele>
        <time>2023-06-17T08:35:46.000Z</time>
      </trkpt>
      <trkpt lat="46.12602" lon="4.63386">
        <ele>237.87329</ele>
        <time>2023-06-17T08:35:47.000Z</time>
      </trkpt>
      <trkpt lat="46.12604" lon="4.63381">
        <ele>238.02217</ele>
        <time>2023-06-17T08:35:48.000Z</time>
      </trkpt>
      <trkpt lat="46.12608" lon="4.63376">
        <ele>237.9604</ele>
        <time>2023-06-17T08:35:49.000Z</time>
      </trkpt>
      <trkpt lat="46.12611" lon="4.63371">
        <ele>237.95113</ele>
        <time>2023-06-17T08:35:50.000Z</time>
      </trkpt>
      <trkpt lat="46.12613" lon="4.63367">
        <ele>237.99316</ele>
        <time>2023-06-17T08:35:51.000Z</time>
      </trkpt>
      <trkpt lat="46.12616" lon="4.63362">
        <ele>238.04147</ele>
        <time>2023-06-17T08:35:52.000Z</time>
      </trkpt>
      <trkpt lat="46.1262" lon="4.63356">
        <ele>238.0424</ele>
        <time>2023-06-17T08:35:53.000Z</time>
      </trkpt>
      <trkpt lat="46.12623" lon="4.6335">
        <ele>238.00882</ele>
        <time>2023-06-17T08:35:54.000Z</time>
      </trkpt>
      <trkpt lat="46.12627" lon="4.63346">
        <ele>237.96964</ele>
        <time>2023-06-17T08:35:55.000Z</time>
      </trkpt>
      <trkpt lat="46.1263" lon="4.6334">
        <ele>237.93649</ele>
        <time>2023-06-17T08:35:56.000Z</time>
      </trkpt>
      <trkpt lat="46.12634" lon="4.63334">
        <ele>237.892</ele>
        <time>2023-06-17T08:35:57.000Z</time>
      </trkpt>
      <trkpt lat="46.12637" lon="4.6333">
        <ele>238.00615</ele>
        <time>2023-06-17T08:35:58.000Z</time>
      </trkpt>
      <trkpt lat="46.1264" lon="4.63325">
        <ele>238.00208</ele>
        <time>2023-06-17T08:35:59.000Z</time>
      </trkpt>
      <trkpt lat="46.12643" lon="4.63319">
        <ele>237.99773</ele>
        <time>2023-06-17T08:36:00.000Z</time>
      </trkpt>
      <trkpt lat="46.12646" lon="4.63314">
        <ele>238.25769</ele>
        <time>2023-06-17T08:36:01.000Z</time>
      </trkpt>
      <trkpt lat="46.12649" lon="4.63309">
        <ele>238.45882</ele>
        <time>2023-06-17T08:36:02.000Z</time>
      </trkpt>
      <trkpt lat="46.12652" lon="4.63304">
        <ele>238.40268</ele>
        <time>2023-06-17T08:36:03.000Z</time>
      </trkpt>
      <trkpt lat="46.12655" lon="4.63299">
        <ele>238.39368</ele>
        <time>2023-06-17T08:36:04.000Z</time>
      </trkpt>
      <trkpt lat="46.12658" lon="4.63294">
        <ele>238.40215</ele>
        <time>2023-06-17T08:36:05.000Z</time>
      </trkpt>
      <trkpt lat="46.12662" lon="4.63289">
        <ele>238.44145</ele>
        <time>2023-06-17T08:36:06.000Z</time>
      </trkpt>
      <trkpt lat="46.12665" lon="4.63284">
        <ele>238.48618</ele>
        <time>2023-06-17T08:36:07.000Z</time>
      </trkpt>
      <trkpt lat="46.12668" lon="4.63278">
        <ele>238.52002</ele>
        <time>2023-06-17T08:36:08.000Z</time>
      </trkpt>
      <trkpt lat="46.12671" lon="4.63273">
        <ele>238.4447</ele>
        <time>2023-06-17T08:36:09.000Z</time>
      </trkpt>
      <trkpt lat="46.12673" lon="4.63268">
        <ele>238.27744</ele>
        <time>2023-06-17T08:36:10.000Z</time>
      </trkpt>
      <trkpt lat="46.12676" lon="4.63263">
        <ele>238.34773</ele>
        <time>2023-06-17T08:36:11.000Z</time>
      </trkpt>
      <trkpt lat="46.12679" lon="4.63259">
        <ele>238.39507</ele>
        <time>2023-06-17T08:36:12.000Z</time>
      </trkpt>
      <trkpt lat="46.12682" lon="4.63254">
        <ele>238.46355</ele>
        <time>2023-06-17T08:36:13.000Z</time>
      </trkpt>
      <trkpt lat="46.12686" lon="4.63249">
        <ele>238.53159</ele>
        <time>2023-06-17T08:36:14.000Z</time>
      </trkpt>
      <trkpt lat="46.12689" lon="4.63243">
        <ele>238.61198</ele>
        <time>2023-06-17T08:36:15.000Z</time>
      </trkpt>
      <trkpt lat="46.12692" lon="4.63238">
        <ele>238.69284</ele>
        <time>2023-06-17T08:36:16.000Z</time>
      </trkpt>
      <trkpt lat="46.12696" lon="4.63233">
        <ele>238.795</ele>
        <time>2023-06-17T08:36:17.000Z</time>
      </trkpt>
      <trkpt lat="46.12699" lon="4.63227">
        <ele>238.86258</ele>
        <time>2023-06-17T08:36:18.000Z</time>
      </trkpt>
      <trkpt lat="46.12702" lon="4.63223">
        <ele>239.03976</ele>
        <time>2023-06-17T08:36:19.000Z</time>
      </trkpt>
      <trkpt lat="46.12705" lon="4.63218">
        <ele>239.27658</ele>
        <time>2023-06-17T08:36:20.000Z</time>
      </trkpt>
      <trkpt lat="46.12709" lon="4.63213">
        <ele>239.26089</ele>
        <time>2023-06-17T08:36:21.000Z</time>
      </trkpt>
      <trkpt lat="46.12712" lon="4.63209">
        <ele>239.29663</ele>
        <time>2023-06-17T08:36:22.000Z</time>
      </trkpt>
      <trkpt lat="46.12714" lon="4.63204">
        <ele>239.36165</ele>
        <time>2023-06-17T08:36:23.000Z</time>
      </trkpt>
      <trkpt lat="46.12717" lon="4.63199">
        <ele>239.44315</ele>
        <time>2023-06-17T08:36:24.000Z</time>
      </trkpt>
      <trkpt lat="46.1272" lon="4.63195">
        <ele>239.51633</ele>
        <time>2023-06-17T08:36:25.000Z</time>
      </trkpt>
      <trkpt lat="46.12725" lon="4.63188">
        <ele>239.56326</ele>
        <time>2023-06-17T08:36:26.000Z</time>
      </trkpt>
      <trkpt lat="46.12728" lon="4.63184">
        <ele>239.6012</ele>
        <time>2023-06-17T08:36:27.000Z</time>
      </trkpt>
      <trkpt lat="46.12732" lon="4.63179">
        <ele>239.64432</ele>
        <time>2023-06-17T08:36:28.000Z</time>
      </trkpt>
      <trkpt lat="46.12734" lon="4.63174">
        <ele>239.78238</ele>
        <time>2023-06-17T08:36:29.000Z</time>
      </trkpt>
      <trkpt lat="46.12737" lon="4.63169">
        <ele>240.02026</ele>
        <time>2023-06-17T08:36:30.000Z</time>
      </trkpt>
      <trkpt lat="46.1274" lon="4.63164">
        <ele>240.01567</ele>
        <time>2023-06-17T08:36:31.000Z</time>
      </trkpt>
      <trkpt lat="46.12742" lon="4.63159">
        <ele>240.04085</ele>
        <time>2023-06-17T08:36:32.000Z</time>
      </trkpt>
      <trkpt lat="46.12745" lon="4.63154">
        <ele>240.07809</ele>
        <time>2023-06-17T08:36:33.000Z</time>
      </trkpt>
      <trkpt lat="46.12748" lon="4.63149">
        <ele>239.94858</ele>
        <time>2023-06-17T08:36:34.000Z</time>
      </trkpt>
      <trkpt lat="46.12752" lon="4.63144">
        <ele>239.84988</ele>
        <time>2023-06-17T08:36:35.000Z</time>
      </trkpt>
      <trkpt lat="46.12755" lon="4.6314">
        <ele>239.68318</ele>
        <time>2023-06-17T08:36:36.000Z</time>
      </trkpt>
      <trkpt lat="46.12758" lon="4.63136">
        <ele>239.50906</ele>
        <time>2023-06-17T08:36:37.000Z</time>
      </trkpt>
      <trkpt lat="46.1276" lon="4.63131">
        <ele>239.61861</ele>
        <time>2023-06-17T08:36:38.000Z</time>
      </trkpt>
      <trkpt lat="46.12764" lon="4.63127">
        <ele>239.66504</ele>
        <time>2023-06-17T08:36:39.000Z</time>
      </trkpt>
      <trkpt lat="46.12767" lon="4.63122">
        <ele>239.7189</ele>
        <time>2023-06-17T08:36:40.000Z</time>
      </trkpt>
      <trkpt lat="46.12771" lon="4.63116">
        <ele>239.7614</ele>
        <time>2023-06-17T08:36:41.000Z</time>
      </trkpt>
      <trkpt lat="46.12775" lon="4.63111">
        <ele>239.79451</ele>
        <time>2023-06-17T08:36:42.000Z</time>
      </trkpt>
      <trkpt lat="46.12778" lon="4.63106">
        <ele>239.8073</ele>
        <time>2023-06-17T08:36:43.000Z</time>
      </trkpt>
      <trkpt lat="46.12781" lon="4.63102">
        <ele>239.80008</ele>
        <time>2023-06-17T08:36:44.000Z</time>
      </trkpt>
      <trkpt lat="46.12783" lon="4.63096">
        <ele>239.82578</ele>
        <time>2023-06-17T08:36:45.000Z</time>
      </trkpt>
      <trkpt lat="46.12788" lon="4.6309">
        <ele>239.85286</ele>
        <time>2023-06-17T08:36:46.000Z</time>
      </trkpt>
      <trkpt lat="46.12791" lon="4.63085">
        <ele>239.95869</ele>
        <time>2023-06-17T08:36:47.000Z</time>
      </trkpt>
      <trkpt lat="46.12795" lon="4.63079">
        <ele>240.03531</ele>
        <time>2023-06-17T08:36:48.000Z</time>
      </trkpt>
      <trkpt lat="46.12798" lon="4.63073">
        <ele>240.14243</ele>
        <time>2023-06-17T08:36:49.000Z</time>
      </trkpt>
      <trkpt lat="46.12801" lon="4.63069">
        <ele>240.24109</ele>
        <time>2023-06-17T08:36:50.000Z</time>
      </trkpt>
      <trkpt lat="46.12803" lon="4.63064">
        <ele>240.36967</ele>
        <time>2023-06-17T08:36:51.000Z</time>
      </trkpt>
      <trkpt lat="46.12807" lon="4.63059">
        <ele>240.46761</ele>
        <time>2023-06-17T08:36:52.000Z</time>
      </trkpt>
      <trkpt lat="46.12811" lon="4.63053">
        <ele>240.5553</ele>
        <time>2023-06-17T08:36:53.000Z</time>
      </trkpt>
      <trkpt lat="46.12813" lon="4.63048">
        <ele>240.82256</ele>
        <time>2023-06-17T08:36:54.000Z</time>
      </trkpt>
      <trkpt lat="46.12817" lon="4.63043">
        <ele>241.07138</ele>
        <time>2023-06-17T08:36:55.000Z</time>
      </trkpt>
      <trkpt lat="46.12821" lon="4.63038">
        <ele>241.36008</ele>
        <time>2023-06-17T08:36:56.000Z</time>
      </trkpt>
      <trkpt lat="46.12825" lon="4.63033">
        <ele>241.51941</ele>
        <time>2023-06-17T08:36:57.000Z</time>
      </trkpt>
      <trkpt lat="46.12827" lon="4.63028">
        <ele>241.32719</ele>
        <time>2023-06-17T08:36:58.000Z</time>
      </trkpt>
      <trkpt lat="46.1283" lon="4.63022">
        <ele>241.19308</ele>
        <time>2023-06-17T08:36:59.000Z</time>
      </trkpt>
      <trkpt lat="46.12834" lon="4.63017">
        <ele>241.05563</ele>
        <time>2023-06-17T08:37:00.000Z</time>
      </trkpt>
      <trkpt lat="46.12837" lon="4.63012">
        <ele>241.22102</ele>
        <time>2023-06-17T08:37:01.000Z</time>
      </trkpt>
      <trkpt lat="46.12841" lon="4.63006">
        <ele>241.3508</ele>
        <time>2023-06-17T08:37:02.000Z</time>
      </trkpt>
      <trkpt lat="46.12844" lon="4.63001">
        <ele>241.17239</ele>
        <time>2023-06-17T08:37:03.000Z</time>
      </trkpt>
      <trkpt lat="46.12847" lon="4.62996">
        <ele>240.96761</ele>
        <time>2023-06-17T08:37:04.000Z</time>
      </trkpt>
      <trkpt lat="46.1285" lon="4.6299">
        <ele>240.74069</ele>
        <time>2023-06-17T08:37:05.000Z</time>
      </trkpt>
      <trkpt lat="46.12853" lon="4.62985">
        <ele>240.52861</ele>
        <time>2023-06-17T08:37:06.000Z</time>
      </trkpt>
      <trkpt lat="46.12857" lon="4.6298">
        <ele>240.24585</ele>
        <time>2023-06-17T08:37:07.000Z</time>
      </trkpt>
      <trkpt lat="46.12861" lon="4.62974">
        <ele>240.00923</ele>
        <time>2023-06-17T08:37:08.000Z</time>
      </trkpt>
      <trkpt lat="46.12864" lon="4.62969">
        <ele>239.51236</ele>
        <time>2023-06-17T08:37:09.000Z</time>
      </trkpt>
      <trkpt lat="46.12868" lon="4.62964">
        <ele>238.85551</ele>
        <time>2023-06-17T08:37:10.000Z</time>
      </trkpt>
      <trkpt lat="46.12871" lon="4.62959">
        <ele>238.67586</ele>
        <time>2023-06-17T08:37:11.000Z</time>
      </trkpt>
      <trkpt lat="46.12874" lon="4.62955">
        <ele>238.50957</ele>
        <time>2023-06-17T08:37:12.000Z</time>
      </trkpt>
      <trkpt lat="46.12878" lon="4.62949">
        <ele>238.62065</ele>
        <time>2023-06-17T08:37:13.000Z</time>
      </trkpt>
      <trkpt lat="46.12882" lon="4.62943">
        <ele>238.6803</ele>
        <time>2023-06-17T08:37:14.000Z</time>
      </trkpt>
      <trkpt lat="46.12886" lon="4.62938">
        <ele>238.73032</ele>
        <time>2023-06-17T08:37:15.000Z</time>
      </trkpt>
      <trkpt lat="46.12889" lon="4.62933">
        <ele>238.80266</ele>
        <time>2023-06-17T08:37:16.000Z</time>
      </trkpt>
      <trkpt lat="46.12892" lon="4.62927">
        <ele>239.0126</ele>
        <time>2023-06-17T08:37:17.000Z</time>
      </trkpt>
      <trkpt lat="46.12896" lon="4.62921">
        <ele>239.27661</ele>
        <time>2023-06-17T08:37:18.000Z</time>
      </trkpt>
      <trkpt lat="46.129" lon="4.62915">
        <ele>239.54724</ele>
        <time>2023-06-17T08:37:19.000Z</time>
      </trkpt>
      <trkpt lat="46.12904" lon="4.6291">
        <ele>239.81131</ele>
        <time>2023-06-17T08:37:20.000Z</time>
      </trkpt>
      <trkpt lat="46.12907" lon="4.62904">
        <ele>239.76633</ele>
        <time>2023-06-17T08:37:21.000Z</time>
      </trkpt>
      <trkpt lat="46.12911" lon="4.62898">
        <ele>239.76079</ele>
        <time>2023-06-17T08:37:22.000Z</time>
      </trkpt>
      <trkpt lat="46.12914" lon="4.62892">
        <ele>240.0771</ele>
        <time>2023-06-17T08:37:23.000Z</time>
      </trkpt>
      <trkpt lat="46.12918" lon="4.62886">
        <ele>240.22981</ele>
        <time>2023-06-17T08:37:24.000Z</time>
      </trkpt>
      <trkpt lat="46.12921" lon="4.6288">
        <ele>240.33914</ele>
        <time>2023-06-17T08:37:25.000Z</time>
      </trkpt>
      <trkpt lat="46.12924" lon="4.62874">
        <ele>240.74142</ele>
        <time>2023-06-17T08:37:26.000Z</time>
      </trkpt>
      <trkpt lat="46.12928" lon="4.62868">
        <ele>241.10583</ele>
        <time>2023-06-17T08:37:27.000Z</time>
      </trkpt>
      <trkpt lat="46.12932" lon="4.62862">
        <ele>241.44394</ele>
        <time>2023-06-17T08:37:28.000Z</time>
      </trkpt>
      <trkpt lat="46.12936" lon="4.62857">
        <ele>242.02559</ele>
        <time>2023-06-17T08:37:29.000Z</time>
      </trkpt>
      <trkpt lat="46.12939" lon="4.62851">
        <ele>242.75781</ele>
        <time>2023-06-17T08:37:30.000Z</time>
      </trkpt>
      <trkpt lat="46.12943" lon="4.62846">
        <ele>242.97147</ele>
        <time>2023-06-17T08:37:31.000Z</time>
      </trkpt>
      <trkpt lat="46.12947" lon="4.6284">
        <ele>243.18738</ele>
        <time>2023-06-17T08:37:32.000Z</time>
      </trkpt>
      <trkpt lat="46.12951" lon="4.62834">
        <ele>243.13416</ele>
        <time>2023-06-17T08:37:33.000Z</time>
      </trkpt>
      <trkpt lat="46.12954" lon="4.62828">
        <ele>243.11893</ele>
        <time>2023-06-17T08:37:34.000Z</time>
      </trkpt>
      <trkpt lat="46.12958" lon="4.62822">
        <ele>243.09306</ele>
        <time>2023-06-17T08:37:35.000Z</time>
      </trkpt>
      <trkpt lat="46.12961" lon="4.62817">
        <ele>243.04341</ele>
        <time>2023-06-17T08:37:36.000Z</time>
      </trkpt>
      <trkpt lat="46.12965" lon="4.62811">
        <ele>242.99992</ele>
        <time>2023-06-17T08:37:37.000Z</time>
      </trkpt>
      <trkpt lat="46.12969" lon="4.62805">
        <ele>242.9882</ele>
        <time>2023-06-17T08:37:38.000Z</time>
      </trkpt>
      <trkpt lat="46.12973" lon="4.62798">
        <ele>242.98047</ele>
        <time>2023-06-17T08:37:39.000Z</time>
      </trkpt>
      <trkpt lat="46.12977" lon="4.62792">
        <ele>242.98772</ele>
        <time>2023-06-17T08:37:40.000Z</time>
      </trkpt>
      <trkpt lat="46.1298" lon="4.62787">
        <ele>243.0397</ele>
        <time>2023-06-17T08:37:41.000Z</time>
      </trkpt>
      <trkpt lat="46.12983" lon="4.62781">
        <ele>243.08769</ele>
        <time>2023-06-17T08:37:42.000Z</time>
      </trkpt>
      <trkpt lat="46.12987" lon="4.62776">
        <ele>243.13229</ele>
        <time>2023-06-17T08:37:43.000Z</time>
      </trkpt>
      <trkpt lat="46.1299" lon="4.6277">
        <ele>243.35371</ele>
        <time>2023-06-17T08:37:44.000Z</time>
      </trkpt>
      <trkpt lat="46.12995" lon="4.62764">
        <ele>243.59729</ele>
        <time>2023-06-17T08:37:45.000Z</time>
      </trkpt>
      <trkpt lat="46.12998" lon="4.62759">
        <ele>243.56433</ele>
        <time>2023-06-17T08:37:46.000Z</time>
      </trkpt>
      <trkpt lat="46.13002" lon="4.62754">
        <ele>243.57622</ele>
        <time>2023-06-17T08:37:47.000Z</time>
      </trkpt>
      <trkpt lat="46.13006" lon="4.62749">
        <ele>243.59404</ele>
        <time>2023-06-17T08:37:48.000Z</time>
      </trkpt>
      <trkpt lat="46.13009" lon="4.62743">
        <ele>243.6232</ele>
        <time>2023-06-17T08:37:49.000Z</time>
      </trkpt>
      <trkpt lat="46.13012" lon="4.62737">
        <ele>243.67773</ele>
        <time>2023-06-17T08:37:50.000Z</time>
      </trkpt>
      <trkpt lat="46.13017" lon="4.6273">
        <ele>243.74161</ele>
        <time>2023-06-17T08:37:51.000Z</time>
      </trkpt>
      <trkpt lat="46.1302" lon="4.62724">
        <ele>243.80212</ele>
        <time>2023-06-17T08:37:52.000Z</time>
      </trkpt>
      <trkpt lat="46.13023" lon="4.62719">
        <ele>243.84036</ele>
        <time>2023-06-17T08:37:53.000Z</time>
      </trkpt>
      <trkpt lat="46.13027" lon="4.62712">
        <ele>243.87747</ele>
        <time>2023-06-17T08:37:54.000Z</time>
      </trkpt>
      <trkpt lat="46.1303" lon="4.62706">
        <ele>243.92505</ele>
        <time>2023-06-17T08:37:55.000Z</time>
      </trkpt>
      <trkpt lat="46.13033" lon="4.62701">
        <ele>243.99612</ele>
        <time>2023-06-17T08:37:56.000Z</time>
      </trkpt>
      <trkpt lat="46.13037" lon="4.62695">
        <ele>244.04138</ele>
        <time>2023-06-17T08:37:57.000Z</time>
      </trkpt>
      <trkpt lat="46.13041" lon="4.62688">
        <ele>244.08212</ele>
        <time>2023-06-17T08:37:58.000Z</time>
      </trkpt>
      <trkpt lat="46.13045" lon="4.62683">
        <ele>244.11638</ele>
        <time>2023-06-17T08:37:59.000Z</time>
      </trkpt>
      <trkpt lat="46.13049" lon="4.62677">
        <ele>244.14578</ele>
        <time>2023-06-17T08:38:00.000Z</time>
      </trkpt>
      <trkpt lat="46.13053" lon="4.62671">
        <ele>244.15891</ele>
        <time>2023-06-17T08:38:01.000Z</time>
      </trkpt>
      <trkpt lat="46.13057" lon="4.62665">
        <ele>244.17122</ele>
        <time>2023-06-17T08:38:02.000Z</time>
      </trkpt>
      <trkpt lat="46.1306" lon="4.62659">
        <ele>243.85654</ele>
        <time>2023-06-17T08:38:03.000Z</time>
      </trkpt>
      <trkpt lat="46.13065" lon="4.62653">
        <ele>243.80305</ele>
        <time>2023-06-17T08:38:04.000Z</time>
      </trkpt>
      <trkpt lat="46.13069" lon="4.62647">
        <ele>243.84607</ele>
        <time>2023-06-17T08:38:05.000Z</time>
      </trkpt>
      <trkpt lat="46.13072" lon="4.62641">
        <ele>243.73483</ele>
        <time>2023-06-17T08:38:06.000Z</time>
      </trkpt>
      <trkpt lat="46.13076" lon="4.62634">
        <ele>243.62724</ele>
        <time>2023-06-17T08:38:07.000Z</time>
      </trkpt>
      <trkpt lat="46.13079" lon="4.62628">
        <ele>243.50729</ele>
        <time>2023-06-17T08:38:08.000Z</time>
      </trkpt>
      <trkpt lat="46.13083" lon="4.62622">
        <ele>243.36221</ele>
        <time>2023-06-17T08:38:09.000Z</time>
      </trkpt>
      <trkpt lat="46.13087" lon="4.62616">
        <ele>243.19328</ele>
        <time>2023-06-17T08:38:10.000Z</time>
      </trkpt>
      <trkpt lat="46.1309" lon="4.62611">
        <ele>243.04001</ele>
        <time>2023-06-17T08:38:11.000Z</time>
      </trkpt>
      <trkpt lat="46.13094" lon="4.62605">
        <ele>242.89844</ele>
        <time>2023-06-17T08:38:12.000Z</time>
      </trkpt>
      <trkpt lat="46.13098" lon="4.626">
        <ele>242.757</ele>
        <time>2023-06-17T08:38:13.000Z</time>
      </trkpt>
      <trkpt lat="46.13101" lon="4.62595">
        <ele>242.61104</ele>
        <time>2023-06-17T08:38:14.000Z</time>
      </trkpt>
      <trkpt lat="46.13104" lon="4.62589">
        <ele>242.5009</ele>
        <time>2023-06-17T08:38:15.000Z</time>
      </trkpt>
      <trkpt lat="46.13108" lon="4.62584">
        <ele>242.29781</ele>
        <time>2023-06-17T08:38:16.000Z</time>
      </trkpt>
      <trkpt lat="46.13111" lon="4.62579">
        <ele>242.06099</ele>
        <time>2023-06-17T08:38:17.000Z</time>
      </trkpt>
      <trkpt lat="46.13114" lon="4.62574">
        <ele>242.09111</ele>
        <time>2023-06-17T08:38:18.000Z</time>
      </trkpt>
      <trkpt lat="46.13117" lon="4.6257">
        <ele>242.09268</ele>
        <time>2023-06-17T08:38:19.000Z</time>
      </trkpt>
      <trkpt lat="46.13121" lon="4.62566">
        <ele>242.09933</ele>
        <time>2023-06-17T08:38:20.000Z</time>
      </trkpt>
      <trkpt lat="46.13123" lon="4.62561">
        <ele>242.12004</ele>
        <time>2023-06-17T08:38:21.000Z</time>
      </trkpt>
      <trkpt lat="46.13126" lon="4.62557">
        <ele>242.16275</ele>
        <time>2023-06-17T08:38:22.000Z</time>
      </trkpt>
      <trkpt lat="46.13129" lon="4.62553">
        <ele>242.54581</ele>
        <time>2023-06-17T08:38:23.000Z</time>
      </trkpt>
      <trkpt lat="46.13131" lon="4.62549">
        <ele>242.68228</ele>
        <time>2023-06-17T08:38:24.000Z</time>
      </trkpt>
      <trkpt lat="46.13134" lon="4.62546">
        <ele>242.73296</ele>
        <time>2023-06-17T08:38:25.000Z</time>
      </trkpt>
      <trkpt lat="46.13136" lon="4.62543">
        <ele>242.57718</ele>
        <time>2023-06-17T08:38:26.000Z</time>
      </trkpt>
      <trkpt lat="46.13138" lon="4.62539">
        <ele>242.72733</ele>
        <time>2023-06-17T08:38:27.000Z</time>
      </trkpt>
      <trkpt lat="46.1314" lon="4.62536">
        <ele>242.86018</ele>
        <time>2023-06-17T08:38:28.000Z</time>
      </trkpt>
      <trkpt lat="46.13143" lon="4.62533">
        <ele>243.00198</ele>
        <time>2023-06-17T08:38:29.000Z</time>
      </trkpt>
      <trkpt lat="46.13145" lon="4.6253">
        <ele>243.23996</ele>
        <time>2023-06-17T08:38:30.000Z</time>
      </trkpt>
      <trkpt lat="46.13147" lon="4.62527">
        <ele>243.24158</ele>
        <time>2023-06-17T08:38:31.000Z</time>
      </trkpt>
      <trkpt lat="46.13149" lon="4.62524">
        <ele>243.2187</ele>
        <time>2023-06-17T08:38:32.000Z</time>
      </trkpt>
      <trkpt lat="46.13151" lon="4.6252">
        <ele>243.19893</ele>
        <time>2023-06-17T08:38:33.000Z</time>
      </trkpt>
      <trkpt lat="46.13153" lon="4.62517">
        <ele>243.16711</ele>
        <time>2023-06-17T08:38:34.000Z</time>
      </trkpt>
      <trkpt lat="46.13156" lon="4.62513">
        <ele>243.11728</ele>
        <time>2023-06-17T08:38:35.000Z</time>
      </trkpt>
      <trkpt lat="46.13158" lon="4.6251">
        <ele>243.1779</ele>
        <time>2023-06-17T08:38:36.000Z</time>
      </trkpt>
      <trkpt lat="46.13161" lon="4.62506">
        <ele>243.28569</ele>
        <time>2023-06-17T08:38:37.000Z</time>
      </trkpt>
      <trkpt lat="46.13164" lon="4.62502">
        <ele>243.13638</ele>
        <time>2023-06-17T08:38:38.000Z</time>
      </trkpt>
      <trkpt lat="46.13166" lon="4.62498">
        <ele>243.00232</ele>
        <time>2023-06-17T08:38:39.000Z</time>
      </trkpt>
      <trkpt lat="46.13169" lon="4.62494">
        <ele>242.86362</ele>
        <time>2023-06-17T08:38:40.000Z</time>
      </trkpt>
      <trkpt lat="46.13172" lon="4.6249">
        <ele>242.70789</ele>
        <time>2023-06-17T08:38:41.000Z</time>
      </trkpt>
      <trkpt lat="46.13175" lon="4.62486">
        <ele>242.54944</ele>
        <time>2023-06-17T08:38:42.000Z</time>
      </trkpt>
      <trkpt lat="46.13178" lon="4.62482">
        <ele>241.93013</ele>
        <time>2023-06-17T08:38:43.000Z</time>
      </trkpt>
      <trkpt lat="46.13181" lon="4.62478">
        <ele>241.78781</ele>
        <time>2023-06-17T08:38:44.000Z</time>
      </trkpt>
      <trkpt lat="46.13184" lon="4.62474">
        <ele>241.63799</ele>
        <time>2023-06-17T08:38:45.000Z</time>
      </trkpt>
      <trkpt lat="46.13186" lon="4.62469">
        <ele>241.8353</ele>
        <time>2023-06-17T08:38:46.000Z</time>
      </trkpt>
      <trkpt lat="46.13189" lon="4.62465">
        <ele>241.73776</ele>
        <time>2023-06-17T08:38:47.000Z</time>
      </trkpt>
      <trkpt lat="46.13192" lon="4.6246">
        <ele>241.67488</ele>
        <time>2023-06-17T08:38:48.000Z</time>
      </trkpt>
      <trkpt lat="46.13195" lon="4.62456">
        <ele>241.87582</ele>
        <time>2023-06-17T08:38:49.000Z</time>
      </trkpt>
      <trkpt lat="46.13198" lon="4.62452">
        <ele>241.88876</ele>
        <time>2023-06-17T08:38:50.000Z</time>
      </trkpt>
      <trkpt lat="46.13201" lon="4.62448">
        <ele>242.15263</ele>
        <time>2023-06-17T08:38:51.000Z</time>
      </trkpt>
      <trkpt lat="46.13204" lon="4.62444">
        <ele>242.43657</ele>
        <time>2023-06-17T08:38:52.000Z</time>
      </trkpt>
      <trkpt lat="46.13207" lon="4.62439">
        <ele>242.70073</ele>
        <time>2023-06-17T08:38:53.000Z</time>
      </trkpt>
      <trkpt lat="46.13211" lon="4.62434">
        <ele>242.98018</ele>
        <time>2023-06-17T08:38:54.000Z</time>
      </trkpt>
      <trkpt lat="46.13214" lon="4.62428">
        <ele>243.2491</ele>
        <time>2023-06-17T08:38:55.000Z</time>
      </trkpt>
      <trkpt lat="46.13217" lon="4.62424">
        <ele>243.52495</ele>
        <time>2023-06-17T08:38:56.000Z</time>
      </trkpt>
      <trkpt lat="46.1322" lon="4.62419">
        <ele>243.80978</ele>
        <time>2023-06-17T08:38:57.000Z</time>
      </trkpt>
      <trkpt lat="46.13222" lon="4.62415">
        <ele>244.07828</ele>
        <time>2023-06-17T08:38:58.000Z</time>
      </trkpt>
      <trkpt lat="46.13225" lon="4.62411">
        <ele>244.36728</ele>
        <time>2023-06-17T08:38:59.000Z</time>
      </trkpt>
      <trkpt lat="46.13228" lon="4.62406">
        <ele>244.65108</ele>
        <time>2023-06-17T08:39:00.000Z</time>
      </trkpt>
      <trkpt lat="46.13232" lon="4.62401">
        <ele>244.92583</ele>
        <time>2023-06-17T08:39:01.000Z</time>
      </trkpt>
      <trkpt lat="46.13236" lon="4.62396">
        <ele>245.21542</ele>
        <time>2023-06-17T08:39:02.000Z</time>
      </trkpt>
      <trkpt lat="46.13239" lon="4.6239">
        <ele>245.9371</ele>
        <time>2023-06-17T08:39:03.000Z</time>
      </trkpt>
      <trkpt lat="46.13243" lon="4.62385">
        <ele>246.17874</ele>
        <time>2023-06-17T08:39:04.000Z</time>
      </trkpt>
      <trkpt lat="46.13245" lon="4.62379">
        <ele>246.44026</ele>
        <time>2023-06-17T08:39:05.000Z</time>
      </trkpt>
      <trkpt lat="46.13249" lon="4.62375">
        <ele>246.68069</ele>
        <time>2023-06-17T08:39:06.000Z</time>
      </trkpt>
      <trkpt lat="46.13252" lon="4.6237">
        <ele>246.90353</ele>
        <time>2023-06-17T08:39:07.000Z</time>
      </trkpt>
      <trkpt lat="46.13256" lon="4.62365">
        <ele>247.1097</ele>
        <time>2023-06-17T08:39:08.000Z</time>
      </trkpt>
      <trkpt lat="46.1326" lon="4.6236">
        <ele>247.06384</ele>
        <time>2023-06-17T08:39:09.000Z</time>
      </trkpt>
      <trkpt lat="46.13263" lon="4.62356">
        <ele>247.09309</ele>
        <time>2023-06-17T08:39:10.000Z</time>
      </trkpt>
      <trkpt lat="46.13267" lon="4.62351">
        <ele>247.10294</ele>
        <time>2023-06-17T08:39:11.000Z</time>
      </trkpt>
      <trkpt lat="46.13269" lon="4.62346">
        <ele>247.12325</ele>
        <time>2023-06-17T08:39:12.000Z</time>
      </trkpt>
      <trkpt lat="46.13272" lon="4.62341">
        <ele>247.15027</ele>
        <time>2023-06-17T08:39:13.000Z</time>
      </trkpt>
      <trkpt lat="46.13276" lon="4.62337">
        <ele>247.16878</ele>
        <time>2023-06-17T08:39:14.000Z</time>
      </trkpt>
      <trkpt lat="46.1328" lon="4.62332">
        <ele>247.17038</ele>
        <time>2023-06-17T08:39:15.000Z</time>
      </trkpt>
      <trkpt lat="46.13283" lon="4.62327">
        <ele>247.147</ele>
        <time>2023-06-17T08:39:16.000Z</time>
      </trkpt>
      <trkpt lat="46.13286" lon="4.62322">
        <ele>247.11877</ele>
        <time>2023-06-17T08:39:17.000Z</time>
      </trkpt>
      <trkpt lat="46.13289" lon="4.62318">
        <ele>247.08321</ele>
        <time>2023-06-17T08:39:18.000Z</time>
      </trkpt>
      <trkpt lat="46.13292" lon="4.62311">
        <ele>247.03606</ele>
        <time>2023-06-17T08:39:19.000Z</time>
      </trkpt>
      <trkpt lat="46.13295" lon="4.62307">
        <ele>246.96602</ele>
        <time>2023-06-17T08:39:20.000Z</time>
      </trkpt>
      <trkpt lat="46.13298" lon="4.62302">
        <ele>246.9039</ele>
        <time>2023-06-17T08:39:21.000Z</time>
      </trkpt>
      <trkpt lat="46.13301" lon="4.62297">
        <ele>246.85001</ele>
        <time>2023-06-17T08:39:22.000Z</time>
      </trkpt>
      <trkpt lat="46.13304" lon="4.62292">
        <ele>246.67802</ele>
        <time>2023-06-17T08:39:23.000Z</time>
      </trkpt>
      <trkpt lat="46.13308" lon="4.62288">
        <ele>246.38403</ele>
        <time>2023-06-17T08:39:24.000Z</time>
      </trkpt>
      <trkpt lat="46.1331" lon="4.62282">
        <ele>246.07516</ele>
        <time>2023-06-17T08:39:25.000Z</time>
      </trkpt>
      <trkpt lat="46.13313" lon="4.62277">
        <ele>246.11121</ele>
        <time>2023-06-17T08:39:26.000Z</time>
      </trkpt>
      <trkpt lat="46.13316" lon="4.62271">
        <ele>246.09541</ele>
        <time>2023-06-17T08:39:27.000Z</time>
      </trkpt>
      <trkpt lat="46.1332" lon="4.62264">
        <ele>246.11003</ele>
        <time>2023-06-17T08:39:28.000Z</time>
      </trkpt>
      <trkpt lat="46.13323" lon="4.62258">
        <ele>246.14839</ele>
        <time>2023-06-17T08:39:29.000Z</time>
      </trkpt>
      <trkpt lat="46.13327" lon="4.62254">
        <ele>246.18491</ele>
        <time>2023-06-17T08:39:30.000Z</time>
      </trkpt>
      <trkpt lat="46.13331" lon="4.6225">
        <ele>246.17776</ele>
        <time>2023-06-17T08:39:31.000Z</time>
      </trkpt>
      <trkpt lat="46.13334" lon="4.62244">
        <ele>246.15739</ele>
        <time>2023-06-17T08:39:32.000Z</time>
      </trkpt>
      <trkpt lat="46.13338" lon="4.62238">
        <ele>246.15994</ele>
        <time>2023-06-17T08:39:33.000Z</time>
      </trkpt>
      <trkpt lat="46.13341" lon="4.62234">
        <ele>246.16121</ele>
        <time>2023-06-17T08:39:34.000Z</time>
      </trkpt>
      <trkpt lat="46.13344" lon="4.62228">
        <ele>246.18002</ele>
        <time>2023-06-17T08:39:35.000Z</time>
      </trkpt>
      <trkpt lat="46.13348" lon="4.62223">
        <ele>246.20886</ele>
        <time>2023-06-17T08:39:36.000Z</time>
      </trkpt>
      <trkpt lat="46.13352" lon="4.62218">
        <ele>246.20227</ele>
        <time>2023-06-17T08:39:37.000Z</time>
      </trkpt>
      <trkpt lat="46.13356" lon="4.62214">
        <ele>246.21085</ele>
        <time>2023-06-17T08:39:38.000Z</time>
      </trkpt>
      <trkpt lat="46.1336" lon="4.62208">
        <ele>246.23355</ele>
        <time>2023-06-17T08:39:39.000Z</time>
      </trkpt>
      <trkpt lat="46.13363" lon="4.62203">
        <ele>246.28848</ele>
        <time>2023-06-17T08:39:40.000Z</time>
      </trkpt>
      <trkpt lat="46.13366" lon="4.62198">
        <ele>246.36421</ele>
        <time>2023-06-17T08:39:41.000Z</time>
      </trkpt>
      <trkpt lat="46.1337" lon="4.62193">
        <ele>246.41899</ele>
        <time>2023-06-17T08:39:42.000Z</time>
      </trkpt>
      <trkpt lat="46.13374" lon="4.62188">
        <ele>246.60416</ele>
        <time>2023-06-17T08:39:43.000Z</time>
      </trkpt>
      <trkpt lat="46.13377" lon="4.62183">
        <ele>246.77129</ele>
        <time>2023-06-17T08:39:44.000Z</time>
      </trkpt>
      <trkpt lat="46.13382" lon="4.62177">
        <ele>246.83618</ele>
        <time>2023-06-17T08:39:45.000Z</time>
      </trkpt>
      <trkpt lat="46.13386" lon="4.6217">
        <ele>246.91956</ele>
        <time>2023-06-17T08:39:46.000Z</time>
      </trkpt>
      <trkpt lat="46.1339" lon="4.62165">
        <ele>246.99641</ele>
        <time>2023-06-17T08:39:47.000Z</time>
      </trkpt>
      <trkpt lat="46.13394" lon="4.6216">
        <ele>247.05313</ele>
        <time>2023-06-17T08:39:48.000Z</time>
      </trkpt>
      <trkpt lat="46.13398" lon="4.62154">
        <ele>247.07138</ele>
        <time>2023-06-17T08:39:49.000Z</time>
      </trkpt>
      <trkpt lat="46.13401" lon="4.62148">
        <ele>247.12881</ele>
        <time>2023-06-17T08:39:50.000Z</time>
      </trkpt>
      <trkpt lat="46.13405" lon="4.62143">
        <ele>247.25891</ele>
        <time>2023-06-17T08:39:51.000Z</time>
      </trkpt>
      <trkpt lat="46.13408" lon="4.62138">
        <ele>247.35629</ele>
        <time>2023-06-17T08:39:52.000Z</time>
      </trkpt>
      <trkpt lat="46.13411" lon="4.62132">
        <ele>247.46179</ele>
        <time>2023-06-17T08:39:53.000Z</time>
      </trkpt>
      <trkpt lat="46.13416" lon="4.62127">
        <ele>247.58252</ele>
        <time>2023-06-17T08:39:54.000Z</time>
      </trkpt>
      <trkpt lat="46.1342" lon="4.62122">
        <ele>247.68204</ele>
        <time>2023-06-17T08:39:55.000Z</time>
      </trkpt>
      <trkpt lat="46.13423" lon="4.62116">
        <ele>247.79204</ele>
        <time>2023-06-17T08:39:56.000Z</time>
      </trkpt>
      <trkpt lat="46.13426" lon="4.6211">
        <ele>247.91377</ele>
        <time>2023-06-17T08:39:57.000Z</time>
      </trkpt>
      <trkpt lat="46.1343" lon="4.62105">
        <ele>247.84843</ele>
        <time>2023-06-17T08:39:58.000Z</time>
      </trkpt>
      <trkpt lat="46.13434" lon="4.621">
        <ele>247.77539</ele>
        <time>2023-06-17T08:39:59.000Z</time>
      </trkpt>
      <trkpt lat="46.13437" lon="4.62093">
        <ele>247.67168</ele>
        <time>2023-06-17T08:40:00.000Z</time>
      </trkpt>
      <trkpt lat="46.13441" lon="4.62088">
        <ele>247.5481</ele>
        <time>2023-06-17T08:40:01.000Z</time>
      </trkpt>
      <trkpt lat="46.13446" lon="4.62082">
        <ele>247.43147</ele>
        <time>2023-06-17T08:40:02.000Z</time>
      </trkpt>
      <trkpt lat="46.13449" lon="4.62076">
        <ele>247.33566</ele>
        <time>2023-06-17T08:40:03.000Z</time>
      </trkpt>
      <trkpt lat="46.13452" lon="4.62071">
        <ele>247.38733</ele>
        <time>2023-06-17T08:40:04.000Z</time>
      </trkpt>
      <trkpt lat="46.13456" lon="4.62065">
        <ele>247.52945</ele>
        <time>2023-06-17T08:40:05.000Z</time>
      </trkpt>
      <trkpt lat="46.1346" lon="4.6206">
        <ele>247.31157</ele>
        <time>2023-06-17T08:40:06.000Z</time>
      </trkpt>
      <trkpt lat="46.13464" lon="4.62054">
        <ele>247.17493</ele>
        <time>2023-06-17T08:40:07.000Z</time>
      </trkpt>
      <trkpt lat="46.13468" lon="4.62049">
        <ele>247.02483</ele>
        <time>2023-06-17T08:40:08.000Z</time>
      </trkpt>
      <trkpt lat="46.13471" lon="4.62044">
        <ele>246.76102</ele>
        <time>2023-06-17T08:40:09.000Z</time>
      </trkpt>
      <trkpt lat="46.13475" lon="4.6204">
        <ele>246.45303</ele>
        <time>2023-06-17T08:40:10.000Z</time>
      </trkpt>
      <trkpt lat="46.13478" lon="4.62035">
        <ele>246.45566</ele>
        <time>2023-06-17T08:40:11.000Z</time>
      </trkpt>
      <trkpt lat="46.13482" lon="4.62028">
        <ele>246.44925</ele>
        <time>2023-06-17T08:40:12.000Z</time>
      </trkpt>
      <trkpt lat="46.13485" lon="4.62023">
        <ele>246.43423</ele>
        <time>2023-06-17T08:40:13.000Z</time>
      </trkpt>
      <trkpt lat="46.13489" lon="4.62018">
        <ele>246.40962</ele>
        <time>2023-06-17T08:40:14.000Z</time>
      </trkpt>
      <trkpt lat="46.13493" lon="4.62012">
        <ele>246.39006</ele>
        <time>2023-06-17T08:40:15.000Z</time>
      </trkpt>
      <trkpt lat="46.13497" lon="4.62008">
        <ele>246.30725</ele>
        <time>2023-06-17T08:40:16.000Z</time>
      </trkpt>
      <trkpt lat="46.13501" lon="4.62003">
        <ele>246.26155</ele>
        <time>2023-06-17T08:40:17.000Z</time>
      </trkpt>
      <trkpt lat="46.13504" lon="4.61997">
        <ele>246.14363</ele>
        <time>2023-06-17T08:40:18.000Z</time>
      </trkpt>
      <trkpt lat="46.13507" lon="4.61992">
        <ele>245.97762</ele>
        <time>2023-06-17T08:40:19.000Z</time>
      </trkpt>
      <trkpt lat="46.13511" lon="4.61987">
        <ele>246.14197</ele>
        <time>2023-06-17T08:40:20.000Z</time>
      </trkpt>
      <trkpt lat="46.13516" lon="4.61982">
        <ele>246.20987</ele>
        <time>2023-06-17T08:40:21.000Z</time>
      </trkpt>
      <trkpt lat="46.13519" lon="4.61976">
        <ele>246.24854</ele>
        <time>2023-06-17T08:40:22.000Z</time>
      </trkpt>
      <trkpt lat="46.13523" lon="4.6197">
        <ele>246.27737</ele>
        <time>2023-06-17T08:40:23.000Z</time>
      </trkpt>
      <trkpt lat="46.13526" lon="4.61964">
        <ele>246.32243</ele>
        <time>2023-06-17T08:40:24.000Z</time>
      </trkpt>
      <trkpt lat="46.1353" lon="4.61958">
        <ele>246.40079</ele>
        <time>2023-06-17T08:40:25.000Z</time>
      </trkpt>
      <trkpt lat="46.13534" lon="4.61952">
        <ele>246.49629</ele>
        <time>2023-06-17T08:40:26.000Z</time>
      </trkpt>
      <trkpt lat="46.13538" lon="4.61947">
        <ele>246.5977</ele>
        <time>2023-06-17T08:40:27.000Z</time>
      </trkpt>
      <trkpt lat="46.13541" lon="4.61942">
        <ele>246.69226</ele>
        <time>2023-06-17T08:40:28.000Z</time>
      </trkpt>
      <trkpt lat="46.13545" lon="4.61936">
        <ele>246.90849</ele>
        <time>2023-06-17T08:40:29.000Z</time>
      </trkpt>
      <trkpt lat="46.13549" lon="4.6193">
        <ele>247.16048</ele>
        <time>2023-06-17T08:40:30.000Z</time>
      </trkpt>
      <trkpt lat="46.13553" lon="4.61924">
        <ele>247.06467</ele>
        <time>2023-06-17T08:40:31.000Z</time>
      </trkpt>
      <trkpt lat="46.13557" lon="4.61918">
        <ele>247.02762</ele>
        <time>2023-06-17T08:40:32.000Z</time>
      </trkpt>
      <trkpt lat="46.1356" lon="4.61913">
        <ele>247.00497</ele>
        <time>2023-06-17T08:40:33.000Z</time>
      </trkpt>
      <trkpt lat="46.13564" lon="4.61907">
        <ele>247.00798</ele>
        <time>2023-06-17T08:40:34.000Z</time>
      </trkpt>
      <trkpt lat="46.13568" lon="4.61902">
        <ele>247.0153</ele>
        <time>2023-06-17T08:40:35.000Z</time>
      </trkpt>
      <trkpt lat="46.13571" lon="4.61896">
        <ele>247.06027</ele>
        <time>2023-06-17T08:40:36.000Z</time>
      </trkpt>
      <trkpt lat="46.13575" lon="4.61891">
        <ele>247.06128</ele>
        <time>2023-06-17T08:40:37.000Z</time>
      </trkpt>
      <trkpt lat="46.13578" lon="4.61885">
        <ele>247.34622</ele>
        <time>2023-06-17T08:40:38.000Z</time>
      </trkpt>
      <trkpt lat="46.13582" lon="4.61879">
        <ele>247.69229</ele>
        <time>2023-06-17T08:40:39.000Z</time>
      </trkpt>
      <trkpt lat="46.13586" lon="4.61873">
        <ele>247.74272</ele>
        <time>2023-06-17T08:40:40.000Z</time>
      </trkpt>
      <trkpt lat="46.1359" lon="4.61868">
        <ele>247.88933</ele>
        <time>2023-06-17T08:40:41.000Z</time>
      </trkpt>
      <trkpt lat="46.13593" lon="4.61862">
        <ele>248.06624</ele>
        <time>2023-06-17T08:40:42.000Z</time>
      </trkpt>
      <trkpt lat="46.13597" lon="4.61857">
        <ele>248.24069</ele>
        <time>2023-06-17T08:40:43.000Z</time>
      </trkpt>
      <trkpt lat="46.13601" lon="4.61852">
        <ele>248.39201</ele>
        <time>2023-06-17T08:40:44.000Z</time>
      </trkpt>
      <trkpt lat="46.13605" lon="4.61846">
        <ele>248.48972</ele>
        <time>2023-06-17T08:40:45.000Z</time>
      </trkpt>
      <trkpt lat="46.13609" lon="4.6184">
        <ele>248.56662</ele>
        <time>2023-06-17T08:40:46.000Z</time>
      </trkpt>
      <trkpt lat="46.13613" lon="4.61835">
        <ele>248.5992</ele>
        <time>2023-06-17T08:40:47.000Z</time>
      </trkpt>
      <trkpt lat="46.13617" lon="4.61828">
        <ele>248.67171</ele>
        <time>2023-06-17T08:40:48.000Z</time>
      </trkpt>
      <trkpt lat="46.1362" lon="4.61823">
        <ele>248.74187</ele>
        <time>2023-06-17T08:40:49.000Z</time>
      </trkpt>
      <trkpt lat="46.13624" lon="4.61818">
        <ele>248.83159</ele>
        <time>2023-06-17T08:40:50.000Z</time>
      </trkpt>
      <trkpt lat="46.13628" lon="4.61812">
        <ele>248.91617</ele>
        <time>2023-06-17T08:40:51.000Z</time>
      </trkpt>
      <trkpt lat="46.13632" lon="4.61808">
        <ele>249.01372</ele>
        <time>2023-06-17T08:40:52.000Z</time>
      </trkpt>
      <trkpt lat="46.13636" lon="4.61802">
        <ele>249.06839</ele>
        <time>2023-06-17T08:40:53.000Z</time>
      </trkpt>
      <trkpt lat="46.1364" lon="4.61796">
        <ele>249.1376</ele>
        <time>2023-06-17T08:40:54.000Z</time>
      </trkpt>
      <trkpt lat="46.13644" lon="4.6179">
        <ele>249.22116</ele>
        <time>2023-06-17T08:40:55.000Z</time>
      </trkpt>
      <trkpt lat="46.13648" lon="4.61784">
        <ele>249.31348</ele>
        <time>2023-06-17T08:40:56.000Z</time>
      </trkpt>
      <trkpt lat="46.13652" lon="4.61778">
        <ele>249.43401</ele>
        <time>2023-06-17T08:40:57.000Z</time>
      </trkpt>
      <trkpt lat="46.13655" lon="4.61773">
        <ele>249.50992</ele>
        <time>2023-06-17T08:40:58.000Z</time>
      </trkpt>
      <trkpt lat="46.13659" lon="4.61767">
        <ele>249.57361</ele>
        <time>2023-06-17T08:40:59.000Z</time>
      </trkpt>
      <trkpt lat="46.13663" lon="4.61762">
        <ele>249.61873</ele>
        <time>2023-06-17T08:41:00.000Z</time>
      </trkpt>
      <trkpt lat="46.13667" lon="4.61756">
        <ele>249.67422</ele>
        <time>2023-06-17T08:41:01.000Z</time>
      </trkpt>
      <trkpt lat="46.13671" lon="4.61751">
        <ele>249.71167</ele>
        <time>2023-06-17T08:41:02.000Z</time>
      </trkpt>
      <trkpt lat="46.13675" lon="4.61746">
        <ele>249.77791</ele>
        <time>2023-06-17T08:41:03.000Z</time>
      </trkpt>
      <trkpt lat="46.13679" lon="4.61741">
        <ele>249.82101</ele>
        <time>2023-06-17T08:41:04.000Z</time>
      </trkpt>
      <trkpt lat="46.13683" lon="4.61735">
        <ele>249.90654</ele>
        <time>2023-06-17T08:41:05.000Z</time>
      </trkpt>
      <trkpt lat="46.13686" lon="4.61729">
        <ele>250.03897</ele>
        <time>2023-06-17T08:41:06.000Z</time>
      </trkpt>
      <trkpt lat="46.1369" lon="4.61723">
        <ele>250.17697</ele>
        <time>2023-06-17T08:41:07.000Z</time>
      </trkpt>
      <trkpt lat="46.13694" lon="4.61718">
        <ele>250.32358</ele>
        <time>2023-06-17T08:41:08.000Z</time>
      </trkpt>
      <trkpt lat="46.13698" lon="4.61713">
        <ele>250.45906</ele>
        <time>2023-06-17T08:41:09.000Z</time>
      </trkpt>
      <trkpt lat="46.13701" lon="4.61708">
        <ele>250.5961</ele>
        <time>2023-06-17T08:41:10.000Z</time>
      </trkpt>
      <trkpt lat="46.13705" lon="4.61703">
        <ele>250.73828</ele>
        <time>2023-06-17T08:41:11.000Z</time>
      </trkpt>
      <trkpt lat="46.13709" lon="4.61696">
        <ele>250.84787</ele>
        <time>2023-06-17T08:41:12.000Z</time>
      </trkpt>
      <trkpt lat="46.13712" lon="4.61691">
        <ele>251.00247</ele>
        <time>2023-06-17T08:41:13.000Z</time>
      </trkpt>
      <trkpt lat="46.13716" lon="4.61686">
        <ele>251.10225</ele>
        <time>2023-06-17T08:41:14.000Z</time>
      </trkpt>
      <trkpt lat="46.1372" lon="4.6168">
        <ele>251.21439</ele>
        <time>2023-06-17T08:41:15.000Z</time>
      </trkpt>
      <trkpt lat="46.13724" lon="4.61674">
        <ele>251.30437</ele>
        <time>2023-06-17T08:41:16.000Z</time>
      </trkpt>
      <trkpt lat="46.13727" lon="4.61668">
        <ele>251.35869</ele>
        <time>2023-06-17T08:41:17.000Z</time>
      </trkpt>
      <trkpt lat="46.13731" lon="4.61662">
        <ele>251.27444</ele>
        <time>2023-06-17T08:41:18.000Z</time>
      </trkpt>
      <trkpt lat="46.13735" lon="4.61657">
        <ele>251.19885</ele>
        <time>2023-06-17T08:41:19.000Z</time>
      </trkpt>
      <trkpt lat="46.13739" lon="4.61651">
        <ele>251.12939</ele>
        <time>2023-06-17T08:41:20.000Z</time>
      </trkpt>
      <trkpt lat="46.13742" lon="4.61645">
        <ele>250.94748</ele>
        <time>2023-06-17T08:41:21.000Z</time>
      </trkpt>
      <trkpt lat="46.13745" lon="4.6164">
        <ele>250.71176</ele>
        <time>2023-06-17T08:41:22.000Z</time>
      </trkpt>
      <trkpt lat="46.13749" lon="4.61634">
        <ele>250.43323</ele>
        <time>2023-06-17T08:41:23.000Z</time>
      </trkpt>
      <trkpt lat="46.13753" lon="4.61628">
        <ele>250.57793</ele>
        <time>2023-06-17T08:41:24.000Z</time>
      </trkpt>
      <trkpt lat="46.13757" lon="4.61622">
        <ele>250.6152</ele>
        <time>2023-06-17T08:41:25.000Z</time>
      </trkpt>
      <trkpt lat="46.1376" lon="4.61615">
        <ele>250.63449</ele>
        <time>2023-06-17T08:41:26.000Z</time>
      </trkpt>
      <trkpt lat="46.13763" lon="4.6161">
        <ele>250.69072</ele>
        <time>2023-06-17T08:41:27.000Z</time>
      </trkpt>
      <trkpt lat="46.13767" lon="4.61604">
        <ele>250.69751</ele>
        <time>2023-06-17T08:41:28.000Z</time>
      </trkpt>
      <trkpt lat="46.13772" lon="4.61599">
        <ele>250.50955</ele>
        <time>2023-06-17T08:41:29.000Z</time>
      </trkpt>
      <trkpt lat="46.13775" lon="4.61593">
        <ele>250.28389</ele>
        <time>2023-06-17T08:41:30.000Z</time>
      </trkpt>
      <trkpt lat="46.13779" lon="4.61586">
        <ele>250.0477</ele>
        <time>2023-06-17T08:41:31.000Z</time>
      </trkpt>
      <trkpt lat="46.13782" lon="4.6158">
        <ele>249.70401</ele>
        <time>2023-06-17T08:41:32.000Z</time>
      </trkpt>
      <trkpt lat="46.13786" lon="4.61573">
        <ele>249.32686</ele>
        <time>2023-06-17T08:41:33.000Z</time>
      </trkpt>
      <trkpt lat="46.1379" lon="4.61568">
        <ele>249.35095</ele>
        <time>2023-06-17T08:41:34.000Z</time>
      </trkpt>
      <trkpt lat="46.13794" lon="4.61563">
        <ele>249.25449</ele>
        <time>2023-06-17T08:41:35.000Z</time>
      </trkpt>
      <trkpt lat="46.13796" lon="4.61557">
        <ele>249.20493</ele>
        <time>2023-06-17T08:41:36.000Z</time>
      </trkpt>
      <trkpt lat="46.13799" lon="4.61552">
        <ele>249.20796</ele>
        <time>2023-06-17T08:41:37.000Z</time>
      </trkpt>
      <trkpt lat="46.13802" lon="4.61546">
        <ele>249.37468</ele>
        <time>2023-06-17T08:41:38.000Z</time>
      </trkpt>
      <trkpt lat="46.13805" lon="4.61541">
        <ele>249.5686</ele>
        <time>2023-06-17T08:41:39.000Z</time>
      </trkpt>
      <trkpt lat="46.13808" lon="4.61536">
        <ele>249.77458</ele>
        <time>2023-06-17T08:41:40.000Z</time>
      </trkpt>
      <trkpt lat="46.13811" lon="4.6153">
        <ele>250.05399</ele>
        <time>2023-06-17T08:41:41.000Z</time>
      </trkpt>
      <trkpt lat="46.13814" lon="4.61524">
        <ele>250.39136</ele>
        <time>2023-06-17T08:41:42.000Z</time>
      </trkpt>
      <trkpt lat="46.13817" lon="4.61518">
        <ele>250.78308</ele>
        <time>2023-06-17T08:41:43.000Z</time>
      </trkpt>
      <trkpt lat="46.1382" lon="4.61512">
        <ele>250.75644</ele>
        <time>2023-06-17T08:41:44.000Z</time>
      </trkpt>
      <trkpt lat="46.13823" lon="4.61507">
        <ele>250.82243</ele>
        <time>2023-06-17T08:41:45.000Z</time>
      </trkpt>
      <trkpt lat="46.13827" lon="4.61502">
        <ele>250.84348</ele>
        <time>2023-06-17T08:41:46.000Z</time>
      </trkpt>
      <trkpt lat="46.13831" lon="4.61496">
        <ele>250.85788</ele>
        <time>2023-06-17T08:41:47.000Z</time>
      </trkpt>
      <trkpt lat="46.13834" lon="4.61491">
        <ele>250.66533</ele>
        <time>2023-06-17T08:41:48.000Z</time>
      </trkpt>
      <trkpt lat="46.13838" lon="4.61485">
        <ele>250.70059</ele>
        <time>2023-06-17T08:41:49.000Z</time>
      </trkpt>
      <trkpt lat="46.13841" lon="4.6148">
        <ele>250.74539</ele>
        <time>2023-06-17T08:41:50.000Z</time>
      </trkpt>
      <trkpt lat="46.13844" lon="4.61474">
        <ele>250.80508</ele>
        <time>2023-06-17T08:41:51.000Z</time>
      </trkpt>
      <trkpt lat="46.13847" lon="4.61467">
        <ele>250.98596</ele>
        <time>2023-06-17T08:41:52.000Z</time>
      </trkpt>
      <trkpt lat="46.13851" lon="4.61462">
        <ele>251.10812</ele>
        <time>2023-06-17T08:41:53.000Z</time>
      </trkpt>
      <trkpt lat="46.13855" lon="4.61456">
        <ele>251.25989</ele>
        <time>2023-06-17T08:41:54.000Z</time>
      </trkpt>
      <trkpt lat="46.13858" lon="4.61449">
        <ele>251.43054</ele>
        <time>2023-06-17T08:41:55.000Z</time>
      </trkpt>
      <trkpt lat="46.13861" lon="4.61444">
        <ele>251.55293</ele>
        <time>2023-06-17T08:41:56.000Z</time>
      </trkpt>
      <trkpt lat="46.13864" lon="4.61436">
        <ele>251.66621</ele>
        <time>2023-06-17T08:41:57.000Z</time>
      </trkpt>
      <trkpt lat="46.13867" lon="4.61431">
        <ele>251.75224</ele>
        <time>2023-06-17T08:41:58.000Z</time>
      </trkpt>
      <trkpt lat="46.1387" lon="4.61425">
        <ele>251.79123</ele>
        <time>2023-06-17T08:41:59.000Z</time>
      </trkpt>
      <trkpt lat="46.13873" lon="4.61419">
        <ele>251.8096</ele>
        <time>2023-06-17T08:42:00.000Z</time>
      </trkpt>
      <trkpt lat="46.13875" lon="4.61413">
        <ele>251.85686</ele>
        <time>2023-06-17T08:42:01.000Z</time>
      </trkpt>
      <trkpt lat="46.13878" lon="4.61407">
        <ele>251.61099</ele>
        <time>2023-06-17T08:42:02.000Z</time>
      </trkpt>
      <trkpt lat="46.13881" lon="4.61401">
        <ele>251.33823</ele>
        <time>2023-06-17T08:42:03.000Z</time>
      </trkpt>
      <trkpt lat="46.13884" lon="4.61395">
        <ele>251.09402</ele>
        <time>2023-06-17T08:42:04.000Z</time>
      </trkpt>
      <trkpt lat="46.13887" lon="4.61389">
        <ele>250.83696</ele>
        <time>2023-06-17T08:42:05.000Z</time>
      </trkpt>
      <trkpt lat="46.13889" lon="4.61384">
        <ele>250.55161</ele>
        <time>2023-06-17T08:42:06.000Z</time>
      </trkpt>
      <trkpt lat="46.13893" lon="4.61378">
        <ele>250.21085</ele>
        <time>2023-06-17T08:42:07.000Z</time>
      </trkpt>
      <trkpt lat="46.13896" lon="4.61373">
        <ele>250.56467</ele>
        <time>2023-06-17T08:42:08.000Z</time>
      </trkpt>
      <trkpt lat="46.13899" lon="4.61367">
        <ele>250.83157</ele>
        <time>2023-06-17T08:42:09.000Z</time>
      </trkpt>
      <trkpt lat="46.13902" lon="4.61361">
        <ele>251.11356</ele>
        <time>2023-06-17T08:42:10.000Z</time>
      </trkpt>
      <trkpt lat="46.13905" lon="4.61356">
        <ele>251.11179</ele>
        <time>2023-06-17T08:42:11.000Z</time>
      </trkpt>
      <trkpt lat="46.13908" lon="4.6135">
        <ele>251.36279</ele>
        <time>2023-06-17T08:42:12.000Z</time>
      </trkpt>
      <trkpt lat="46.1391" lon="4.61344">
        <ele>251.70804</ele>
        <time>2023-06-17T08:42:13.000Z</time>
      </trkpt>
      <trkpt lat="46.13913" lon="4.61339">
        <ele>251.62007</ele>
        <time>2023-06-17T08:42:14.000Z</time>
      </trkpt>
      <trkpt lat="46.13916" lon="4.61332">
        <ele>251.64209</ele>
        <time>2023-06-17T08:42:15.000Z</time>
      </trkpt>
      <trkpt lat="46.13918" lon="4.61327">
        <ele>251.69812</ele>
        <time>2023-06-17T08:42:16.000Z</time>
      </trkpt>
      <trkpt lat="46.13921" lon="4.61321">
        <ele>251.75375</ele>
        <time>2023-06-17T08:42:17.000Z</time>
      </trkpt>
      <trkpt lat="46.13924" lon="4.61316">
        <ele>251.80551</ele>
        <time>2023-06-17T08:42:18.000Z</time>
      </trkpt>
      <trkpt lat="46.13926" lon="4.6131">
        <ele>251.84555</ele>
        <time>2023-06-17T08:42:19.000Z</time>
      </trkpt>
      <trkpt lat="46.13929" lon="4.61304">
        <ele>251.88904</ele>
        <time>2023-06-17T08:42:20.000Z</time>
      </trkpt>
      <trkpt lat="46.13931" lon="4.61298">
        <ele>251.93823</ele>
        <time>2023-06-17T08:42:21.000Z</time>
      </trkpt>
      <trkpt lat="46.13934" lon="4.61293">
        <ele>252.274</ele>
        <time>2023-06-17T08:42:22.000Z</time>
      </trkpt>
      <trkpt lat="46.13937" lon="4.61287">
        <ele>252.60754</ele>
        <time>2023-06-17T08:42:23.000Z</time>
      </trkpt>
      <trkpt lat="46.13939" lon="4.61281">
        <ele>252.93152</ele>
        <time>2023-06-17T08:42:24.000Z</time>
      </trkpt>
      <trkpt lat="46.13942" lon="4.61275">
        <ele>253.28015</ele>
        <time>2023-06-17T08:42:25.000Z</time>
      </trkpt>
      <trkpt lat="46.13944" lon="4.6127">
        <ele>253.38635</ele>
        <time>2023-06-17T08:42:26.000Z</time>
      </trkpt>
      <trkpt lat="46.13947" lon="4.61264">
        <ele>253.52986</ele>
        <time>2023-06-17T08:42:27.000Z</time>
      </trkpt>
      <trkpt lat="46.1395" lon="4.61258">
        <ele>253.17288</ele>
        <time>2023-06-17T08:42:28.000Z</time>
      </trkpt>
      <trkpt lat="46.13951" lon="4.61253">
        <ele>253.31367</ele>
        <time>2023-06-17T08:42:29.000Z</time>
      </trkpt>
      <trkpt lat="46.13954" lon="4.61248">
        <ele>253.38123</ele>
        <time>2023-06-17T08:42:30.000Z</time>
      </trkpt>
      <trkpt lat="46.13956" lon="4.61242">
        <ele>253.71323</ele>
        <time>2023-06-17T08:42:31.000Z</time>
      </trkpt>
      <trkpt lat="46.13958" lon="4.61236">
        <ele>253.78325</ele>
        <time>2023-06-17T08:42:32.000Z</time>
      </trkpt>
      <trkpt lat="46.13961" lon="4.61231">
        <ele>253.85905</ele>
        <time>2023-06-17T08:42:33.000Z</time>
      </trkpt>
      <trkpt lat="46.13963" lon="4.61226">
        <ele>253.93765</ele>
        <time>2023-06-17T08:42:34.000Z</time>
      </trkpt>
      <trkpt lat="46.13965" lon="4.61219">
        <ele>254.02078</ele>
        <time>2023-06-17T08:42:35.000Z</time>
      </trkpt>
      <trkpt lat="46.13967" lon="4.61215">
        <ele>254.09985</ele>
        <time>2023-06-17T08:42:36.000Z</time>
      </trkpt>
      <trkpt lat="46.13969" lon="4.61209">
        <ele>254.12219</ele>
        <time>2023-06-17T08:42:37.000Z</time>
      </trkpt>
      <trkpt lat="46.13972" lon="4.61203">
        <ele>254.18005</ele>
        <time>2023-06-17T08:42:38.000Z</time>
      </trkpt>
      <trkpt lat="46.13974" lon="4.61197">
        <ele>254.27498</ele>
        <time>2023-06-17T08:42:39.000Z</time>
      </trkpt>
      <trkpt lat="46.13976" lon="4.61191">
        <ele>254.34421</ele>
        <time>2023-06-17T08:42:40.000Z</time>
      </trkpt>
      <trkpt lat="46.13979" lon="4.61185">
        <ele>254.11588</ele>
        <time>2023-06-17T08:42:41.000Z</time>
      </trkpt>
      <trkpt lat="46.13981" lon="4.61179">
        <ele>253.85051</ele>
        <time>2023-06-17T08:42:42.000Z</time>
      </trkpt>
      <trkpt lat="46.13983" lon="4.61174">
        <ele>253.54749</ele>
        <time>2023-06-17T08:42:43.000Z</time>
      </trkpt>
      <trkpt lat="46.13987" lon="4.61167">
        <ele>253.68579</ele>
        <time>2023-06-17T08:42:44.000Z</time>
      </trkpt>
      <trkpt lat="46.13989" lon="4.61161">
        <ele>253.7419</ele>
        <time>2023-06-17T08:42:45.000Z</time>
      </trkpt>
      <trkpt lat="46.13992" lon="4.61155">
        <ele>254.09604</ele>
        <time>2023-06-17T08:42:46.000Z</time>
      </trkpt>
      <trkpt lat="46.13994" lon="4.61149">
        <ele>254.43802</ele>
        <time>2023-06-17T08:42:47.000Z</time>
      </trkpt>
      <trkpt lat="46.13997" lon="4.61142">
        <ele>254.84834</ele>
        <time>2023-06-17T08:42:48.000Z</time>
      </trkpt>
      <trkpt lat="46.14" lon="4.61136">
        <ele>254.81645</ele>
        <time>2023-06-17T08:42:49.000Z</time>
      </trkpt>
      <trkpt lat="46.14003" lon="4.61128">
        <ele>254.83615</ele>
        <time>2023-06-17T08:42:50.000Z</time>
      </trkpt>
      <trkpt lat="46.14006" lon="4.61121">
        <ele>254.86137</ele>
        <time>2023-06-17T08:42:51.000Z</time>
      </trkpt>
      <trkpt lat="46.14008" lon="4.61114">
        <ele>254.88513</ele>
        <time>2023-06-17T08:42:52.000Z</time>
      </trkpt>
      <trkpt lat="46.14011" lon="4.61108">
        <ele>254.88301</ele>
        <time>2023-06-17T08:42:53.000Z</time>
      </trkpt>
      <trkpt lat="46.14014" lon="4.61102">
        <ele>254.89969</ele>
        <time>2023-06-17T08:42:54.000Z</time>
      </trkpt>
      <trkpt lat="46.14016" lon="4.61096">
        <ele>254.87558</ele>
        <time>2023-06-17T08:42:55.000Z</time>
      </trkpt>
      <trkpt lat="46.14019" lon="4.6109">
        <ele>254.84103</ele>
        <time>2023-06-17T08:42:56.000Z</time>
      </trkpt>
      <trkpt lat="46.14021" lon="4.61085">
        <ele>254.83936</ele>
        <time>2023-06-17T08:42:57.000Z</time>
      </trkpt>
      <trkpt lat="46.14024" lon="4.61079">
        <ele>254.7998</ele>
        <time>2023-06-17T08:42:58.000Z</time>
      </trkpt>
      <trkpt lat="46.14027" lon="4.61074">
        <ele>254.74651</ele>
        <time>2023-06-17T08:42:59.000Z</time>
      </trkpt>
      <trkpt lat="46.14029" lon="4.61067">
        <ele>254.71896</ele>
        <time>2023-06-17T08:43:00.000Z</time>
      </trkpt>
      <trkpt lat="46.14031" lon="4.61061">
        <ele>254.80899</ele>
        <time>2023-06-17T08:43:01.000Z</time>
      </trkpt>
      <trkpt lat="46.14034" lon="4.61055">
        <ele>254.83362</ele>
        <time>2023-06-17T08:43:02.000Z</time>
      </trkpt>
      <trkpt lat="46.14037" lon="4.6105">
        <ele>254.88518</ele>
        <time>2023-06-17T08:43:03.000Z</time>
      </trkpt>
      <trkpt lat="46.14039" lon="4.61043">
        <ele>254.4816</ele>
        <time>2023-06-17T08:43:04.000Z</time>
      </trkpt>
      <trkpt lat="46.14041" lon="4.61037">
        <ele>254.10266</ele>
        <time>2023-06-17T08:43:05.000Z</time>
      </trkpt>
      <trkpt lat="46.14044" lon="4.61031">
        <ele>254.16415</ele>
        <time>2023-06-17T08:43:06.000Z</time>
      </trkpt>
      <trkpt lat="46.14046" lon="4.61025">
        <ele>254.18588</ele>
        <time>2023-06-17T08:43:07.000Z</time>
      </trkpt>
      <trkpt lat="46.14049" lon="4.61019">
        <ele>254.18228</ele>
        <time>2023-06-17T08:43:08.000Z</time>
      </trkpt>
      <trkpt lat="46.14052" lon="4.61013">
        <ele>254.1768</ele>
        <time>2023-06-17T08:43:09.000Z</time>
      </trkpt>
      <trkpt lat="46.14054" lon="4.61006">
        <ele>254.17447</ele>
        <time>2023-06-17T08:43:10.000Z</time>
      </trkpt>
      <trkpt lat="46.14056" lon="4.61">
        <ele>254.19479</ele>
        <time>2023-06-17T08:43:11.000Z</time>
      </trkpt>
      <trkpt lat="46.14058" lon="4.60994">
        <ele>254.01758</ele>
        <time>2023-06-17T08:43:12.000Z</time>
      </trkpt>
      <trkpt lat="46.1406" lon="4.60988">
        <ele>253.68987</ele>
        <time>2023-06-17T08:43:13.000Z</time>
      </trkpt>
      <trkpt lat="46.14062" lon="4.60982">
        <ele>253.79517</ele>
        <time>2023-06-17T08:43:14.000Z</time>
      </trkpt>
      <trkpt lat="46.14062" lon="4.60975">
        <ele>253.8251</ele>
        <time>2023-06-17T08:43:15.000Z</time>
      </trkpt>
      <trkpt lat="46.14063" lon="4.60969">
        <ele>253.85486</ele>
        <time>2023-06-17T08:43:16.000Z</time>
      </trkpt>
      <trkpt lat="46.14064" lon="4.60962">
        <ele>253.8989</ele>
        <time>2023-06-17T08:43:17.000Z</time>
      </trkpt>
      <trkpt lat="46.14064" lon="4.60955">
        <ele>253.93152</ele>
        <time>2023-06-17T08:43:18.000Z</time>
      </trkpt>
      <trkpt lat="46.14066" lon="4.6095">
        <ele>253.99734</ele>
        <time>2023-06-17T08:43:19.000Z</time>
      </trkpt>
      <trkpt lat="46.14068" lon="4.60948">
        <ele>253.77429</ele>
        <time>2023-06-17T08:43:20.000Z</time>
      </trkpt>
      <trkpt lat="46.14072" lon="4.60946">
        <ele>253.68271</ele>
        <time>2023-06-17T08:43:21.000Z</time>
      </trkpt>
      <trkpt lat="46.14075" lon="4.60942">
        <ele>254.15945</ele>
        <time>2023-06-17T08:43:22.000Z</time>
      </trkpt>
      <trkpt lat="46.14077" lon="4.60938">
        <ele>254.56018</ele>
        <time>2023-06-17T08:43:23.000Z</time>
      </trkpt>
      <trkpt lat="46.14079" lon="4.60934">
        <ele>254.95024</ele>
        <time>2023-06-17T08:43:24.000Z</time>
      </trkpt>
      <trkpt lat="46.14081" lon="4.60931">
        <ele>255.37256</ele>
        <time>2023-06-17T08:43:25.000Z</time>
      </trkpt>
      <trkpt lat="46.14082" lon="4.60926">
        <ele>255.37082</ele>
        <time>2023-06-17T08:43:26.000Z</time>
      </trkpt>
      <trkpt lat="46.14084" lon="4.60922">
        <ele>255.43193</ele>
        <time>2023-06-17T08:43:27.000Z</time>
      </trkpt>
      <trkpt lat="46.14086" lon="4.60918">
        <ele>255.49361</ele>
        <time>2023-06-17T08:43:28.000Z</time>
      </trkpt>
      <trkpt lat="46.14088" lon="4.60914">
        <ele>255.58382</ele>
        <time>2023-06-17T08:43:29.000Z</time>
      </trkpt>
      <trkpt lat="46.1409" lon="4.6091">
        <ele>255.65996</ele>
        <time>2023-06-17T08:43:30.000Z</time>
      </trkpt>
      <trkpt lat="46.14092" lon="4.60906">
        <ele>255.73868</ele>
        <time>2023-06-17T08:43:31.000Z</time>
      </trkpt>
      <trkpt lat="46.14094" lon="4.60902">
        <ele>256.01392</ele>
        <time>2023-06-17T08:43:32.000Z</time>
      </trkpt>
      <trkpt lat="46.14096" lon="4.60898">
        <ele>256.44284</ele>
        <time>2023-06-17T08:43:33.000Z</time>
      </trkpt>
      <trkpt lat="46.14097" lon="4.60893">
        <ele>256.43744</ele>
        <time>2023-06-17T08:43:34.000Z</time>
      </trkpt>
      <trkpt lat="46.14099" lon="4.60889">
        <ele>256.55954</ele>
        <time>2023-06-17T08:43:35.000Z</time>
      </trkpt>
      <trkpt lat="46.14101" lon="4.60884">
        <ele>256.46832</ele>
        <time>2023-06-17T08:43:36.000Z</time>
      </trkpt>
      <trkpt lat="46.14102" lon="4.60879">
        <ele>256.37759</ele>
        <time>2023-06-17T08:43:37.000Z</time>
      </trkpt>
      <trkpt lat="46.14104" lon="4.60875">
        <ele>256.71857</ele>
        <time>2023-06-17T08:43:38.000Z</time>
      </trkpt>
      <trkpt lat="46.14106" lon="4.6087">
        <ele>256.815</ele>
        <time>2023-06-17T08:43:39.000Z</time>
      </trkpt>
      <trkpt lat="46.14107" lon="4.60866">
        <ele>257.23639</ele>
        <time>2023-06-17T08:43:40.000Z</time>
      </trkpt>
      <trkpt lat="46.14109" lon="4.60861">
        <ele>257.68634</ele>
        <time>2023-06-17T08:43:41.000Z</time>
      </trkpt>
      <trkpt lat="46.14111" lon="4.60856">
        <ele>257.67703</ele>
        <time>2023-06-17T08:43:42.000Z</time>
      </trkpt>
      <trkpt lat="46.14113" lon="4.60852">
        <ele>257.43484</ele>
        <time>2023-06-17T08:43:43.000Z</time>
      </trkpt>
      <trkpt lat="46.14115" lon="4.60847">
        <ele>257.21021</ele>
        <time>2023-06-17T08:43:44.000Z</time>
      </trkpt>
      <trkpt lat="46.14117" lon="4.60843">
        <ele>256.99731</ele>
        <time>2023-06-17T08:43:45.000Z</time>
      </trkpt>
      <trkpt lat="46.14118" lon="4.60838">
        <ele>256.71957</ele>
        <time>2023-06-17T08:43:46.000Z</time>
      </trkpt>
      <trkpt lat="46.1412" lon="4.60833">
        <ele>256.92276</ele>
        <time>2023-06-17T08:43:47.000Z</time>
      </trkpt>
      <trkpt lat="46.14122" lon="4.60828">
        <ele>257.03137</ele>
        <time>2023-06-17T08:43:48.000Z</time>
      </trkpt>
      <trkpt lat="46.14124" lon="4.60823">
        <ele>257.09772</ele>
        <time>2023-06-17T08:43:49.000Z</time>
      </trkpt>
      <trkpt lat="46.14126" lon="4.60818">
        <ele>257.19501</ele>
        <time>2023-06-17T08:43:50.000Z</time>
      </trkpt>
      <trkpt lat="46.14128" lon="4.60813">
        <ele>257.04794</ele>
        <time>2023-06-17T08:43:51.000Z</time>
      </trkpt>
      <trkpt lat="46.1413" lon="4.60808">
        <ele>256.89954</ele>
        <time>2023-06-17T08:43:52.000Z</time>
      </trkpt>
      <trkpt lat="46.14133" lon="4.60803">
        <ele>256.74393</ele>
        <time>2023-06-17T08:43:53.000Z</time>
      </trkpt>
      <trkpt lat="46.14135" lon="4.60797">
        <ele>256.47821</ele>
        <time>2023-06-17T08:43:54.000Z</time>
      </trkpt>
      <trkpt lat="46.14138" lon="4.60792">
        <ele>256.14319</ele>
        <time>2023-06-17T08:43:55.000Z</time>
      </trkpt>
      <trkpt lat="46.1414" lon="4.60786">
        <ele>255.96375</ele>
        <time>2023-06-17T08:43:56.000Z</time>
      </trkpt>
      <trkpt lat="46.14143" lon="4.6078">
        <ele>255.72928</ele>
        <time>2023-06-17T08:43:57.000Z</time>
      </trkpt>
      <trkpt lat="46.14145" lon="4.60774">
        <ele>255.60339</ele>
        <time>2023-06-17T08:43:58.000Z</time>
      </trkpt>
      <trkpt lat="46.14147" lon="4.60769">
        <ele>255.60127</ele>
        <time>2023-06-17T08:43:59.000Z</time>
      </trkpt>
      <trkpt lat="46.14149" lon="4.60763">
        <ele>255.57666</ele>
        <time>2023-06-17T08:44:00.000Z</time>
      </trkpt>
      <trkpt lat="46.14151" lon="4.60756">
        <ele>255.55313</ele>
        <time>2023-06-17T08:44:01.000Z</time>
      </trkpt>
      <trkpt lat="46.14154" lon="4.6075">
        <ele>255.52519</ele>
        <time>2023-06-17T08:44:02.000Z</time>
      </trkpt>
      <trkpt lat="46.14156" lon="4.60744">
        <ele>255.8291</ele>
        <time>2023-06-17T08:44:03.000Z</time>
      </trkpt>
      <trkpt lat="46.14158" lon="4.60739">
        <ele>256.14618</ele>
        <time>2023-06-17T08:44:04.000Z</time>
      </trkpt>
      <trkpt lat="46.1416" lon="4.60733">
        <ele>256.44556</ele>
        <time>2023-06-17T08:44:05.000Z</time>
      </trkpt>
      <trkpt lat="46.14162" lon="4.60728">
        <ele>256.81128</ele>
        <time>2023-06-17T08:44:06.000Z</time>
      </trkpt>
      <trkpt lat="46.14165" lon="4.60722">
        <ele>256.46466</ele>
        <time>2023-06-17T08:44:07.000Z</time>
      </trkpt>
      <trkpt lat="46.14167" lon="4.60716">
        <ele>256.20013</ele>
        <time>2023-06-17T08:44:08.000Z</time>
      </trkpt>
      <trkpt lat="46.14169" lon="4.6071">
        <ele>255.96069</ele>
        <time>2023-06-17T08:44:09.000Z</time>
      </trkpt>
      <trkpt lat="46.14171" lon="4.60705">
        <ele>255.69429</ele>
        <time>2023-06-17T08:44:10.000Z</time>
      </trkpt>
      <trkpt lat="46.14174" lon="4.60699">
        <ele>255.52324</ele>
        <time>2023-06-17T08:44:11.000Z</time>
      </trkpt>
      <trkpt lat="46.14176" lon="4.60694">
        <ele>255.80301</ele>
        <time>2023-06-17T08:44:12.000Z</time>
      </trkpt>
      <trkpt lat="46.14178" lon="4.60687">
        <ele>255.97978</ele>
        <time>2023-06-17T08:44:13.000Z</time>
      </trkpt>
      <trkpt lat="46.14181" lon="4.6068">
        <ele>256.24417</ele>
        <time>2023-06-17T08:44:14.000Z</time>
      </trkpt>
      <trkpt lat="46.14183" lon="4.60676">
        <ele>256.53506</ele>
        <time>2023-06-17T08:44:15.000Z</time>
      </trkpt>
      <trkpt lat="46.14185" lon="4.6067">
        <ele>256.88922</ele>
        <time>2023-06-17T08:44:16.000Z</time>
      </trkpt>
      <trkpt lat="46.14187" lon="4.60664">
        <ele>257.26721</ele>
        <time>2023-06-17T08:44:17.000Z</time>
      </trkpt>
      <trkpt lat="46.1419" lon="4.60658">
        <ele>257.11014</ele>
        <time>2023-06-17T08:44:18.000Z</time>
      </trkpt>
      <trkpt lat="46.14192" lon="4.60652">
        <ele>257.05908</ele>
        <time>2023-06-17T08:44:19.000Z</time>
      </trkpt>
      <trkpt lat="46.14194" lon="4.60647">
        <ele>257.03214</ele>
        <time>2023-06-17T08:44:20.000Z</time>
      </trkpt>
      <trkpt lat="46.14196" lon="4.60641">
        <ele>257.02216</ele>
        <time>2023-06-17T08:44:21.000Z</time>
      </trkpt>
      <trkpt lat="46.14198" lon="4.60635">
        <ele>257.01071</ele>
        <time>2023-06-17T08:44:22.000Z</time>
      </trkpt>
      <trkpt lat="46.142" lon="4.6063">
        <ele>256.96121</ele>
        <time>2023-06-17T08:44:23.000Z</time>
      </trkpt>
      <trkpt lat="46.14203" lon="4.60624">
        <ele>256.90329</ele>
        <time>2023-06-17T08:44:24.000Z</time>
      </trkpt>
      <trkpt lat="46.14205" lon="4.60618">
        <ele>256.88928</ele>
        <time>2023-06-17T08:44:25.000Z</time>
      </trkpt>
      <trkpt lat="46.14207" lon="4.60613">
        <ele>256.87726</ele>
        <time>2023-06-17T08:44:26.000Z</time>
      </trkpt>
      <trkpt lat="46.1421" lon="4.60607">
        <ele>257.10349</ele>
        <time>2023-06-17T08:44:27.000Z</time>
      </trkpt>
      <trkpt lat="46.14212" lon="4.60602">
        <ele>257.35806</ele>
        <time>2023-06-17T08:44:28.000Z</time>
      </trkpt>
      <trkpt lat="46.14214" lon="4.60596">
        <ele>257.63351</ele>
        <time>2023-06-17T08:44:29.000Z</time>
      </trkpt>
      <trkpt lat="46.14217" lon="4.6059">
        <ele>257.91327</ele>
        <time>2023-06-17T08:44:30.000Z</time>
      </trkpt>
      <trkpt lat="46.1422" lon="4.60585">
        <ele>258.32831</ele>
        <time>2023-06-17T08:44:31.000Z</time>
      </trkpt>
      <trkpt lat="46.14222" lon="4.60578">
        <ele>257.98273</ele>
        <time>2023-06-17T08:44:32.000Z</time>
      </trkpt>
      <trkpt lat="46.14224" lon="4.60573">
        <ele>257.72458</ele>
        <time>2023-06-17T08:44:33.000Z</time>
      </trkpt>
      <trkpt lat="46.14227" lon="4.60566">
        <ele>257.41522</ele>
        <time>2023-06-17T08:44:34.000Z</time>
      </trkpt>
      <trkpt lat="46.1423" lon="4.60561">
        <ele>257.11392</ele>
        <time>2023-06-17T08:44:35.000Z</time>
      </trkpt>
      <trkpt lat="46.14232" lon="4.60554">
        <ele>257.33832</ele>
        <time>2023-06-17T08:44:36.000Z</time>
      </trkpt>
      <trkpt lat="46.14234" lon="4.60549">
        <ele>257.5051</ele>
        <time>2023-06-17T08:44:37.000Z</time>
      </trkpt>
      <trkpt lat="46.14237" lon="4.60543">
        <ele>257.74612</ele>
        <time>2023-06-17T08:44:38.000Z</time>
      </trkpt>
      <trkpt lat="46.14239" lon="4.60537">
        <ele>257.73517</ele>
        <time>2023-06-17T08:44:39.000Z</time>
      </trkpt>
      <trkpt lat="46.14242" lon="4.60531">
        <ele>257.71103</ele>
        <time>2023-06-17T08:44:40.000Z</time>
      </trkpt>
      <trkpt lat="46.14244" lon="4.60525">
        <ele>257.57047</ele>
        <time>2023-06-17T08:44:41.000Z</time>
      </trkpt>
      <trkpt lat="46.14247" lon="4.60519">
        <ele>257.38226</ele>
        <time>2023-06-17T08:44:42.000Z</time>
      </trkpt>
      <trkpt lat="46.1425" lon="4.60514">
        <ele>257.71732</ele>
        <time>2023-06-17T08:44:43.000Z</time>
      </trkpt>
      <trkpt lat="46.14252" lon="4.60508">
        <ele>257.91489</ele>
        <time>2023-06-17T08:44:44.000Z</time>
      </trkpt>
      <trkpt lat="46.14254" lon="4.60502">
        <ele>258.07578</ele>
        <time>2023-06-17T08:44:45.000Z</time>
      </trkpt>
      <trkpt lat="46.14256" lon="4.60496">
        <ele>258.24545</ele>
        <time>2023-06-17T08:44:46.000Z</time>
      </trkpt>
      <trkpt lat="46.14258" lon="4.6049">
        <ele>258.44144</ele>
        <time>2023-06-17T08:44:47.000Z</time>
      </trkpt>
      <trkpt lat="46.1426" lon="4.60484">
        <ele>258.6236</ele>
        <time>2023-06-17T08:44:48.000Z</time>
      </trkpt>
      <trkpt lat="46.14262" lon="4.60479">
        <ele>258.77368</ele>
        <time>2023-06-17T08:44:49.000Z</time>
      </trkpt>
      <trkpt lat="46.14265" lon="4.60473">
        <ele>258.90179</ele>
        <time>2023-06-17T08:44:50.000Z</time>
      </trkpt>
      <trkpt lat="46.14267" lon="4.60467">
        <ele>259.05081</ele>
        <time>2023-06-17T08:44:51.000Z</time>
      </trkpt>
      <trkpt lat="46.1427" lon="4.60462">
        <ele>259.51401</ele>
        <time>2023-06-17T08:44:52.000Z</time>
      </trkpt>
      <trkpt lat="46.14273" lon="4.60456">
        <ele>259.97882</ele>
        <time>2023-06-17T08:44:53.000Z</time>
      </trkpt>
      <trkpt lat="46.14275" lon="4.6045">
        <ele>260.50339</ele>
        <time>2023-06-17T08:44:54.000Z</time>
      </trkpt>
      <trkpt lat="46.14278" lon="4.60444">
        <ele>261.02423</ele>
        <time>2023-06-17T08:44:55.000Z</time>
      </trkpt>
      <trkpt lat="46.14282" lon="4.60438">
        <ele>261.04532</ele>
        <time>2023-06-17T08:44:56.000Z</time>
      </trkpt>
      <trkpt lat="46.14285" lon="4.60432">
        <ele>261.13812</ele>
        <time>2023-06-17T08:44:57.000Z</time>
      </trkpt>
      <trkpt lat="46.14288" lon="4.60425">
        <ele>261.19016</ele>
        <time>2023-06-17T08:44:58.000Z</time>
      </trkpt>
      <trkpt lat="46.14291" lon="4.60419">
        <ele>261.47836</ele>
        <time>2023-06-17T08:44:59.000Z</time>
      </trkpt>
      <trkpt lat="46.14294" lon="4.60412">
        <ele>261.78049</ele>
        <time>2023-06-17T08:45:00.000Z</time>
      </trkpt>
      <trkpt lat="46.14297" lon="4.60405">
        <ele>262.17505</ele>
        <time>2023-06-17T08:45:01.000Z</time>
      </trkpt>
      <trkpt lat="46.143" lon="4.60399">
        <ele>262.63489</ele>
        <time>2023-06-17T08:45:02.000Z</time>
      </trkpt>
      <trkpt lat="46.14303" lon="4.60393">
        <ele>262.54498</ele>
        <time>2023-06-17T08:45:03.000Z</time>
      </trkpt>
      <trkpt lat="46.14307" lon="4.60387">
        <ele>262.59601</ele>
        <time>2023-06-17T08:45:04.000Z</time>
      </trkpt>
      <trkpt lat="46.1431" lon="4.60381">
        <ele>262.68161</ele>
        <time>2023-06-17T08:45:05.000Z</time>
      </trkpt>
      <trkpt lat="46.14313" lon="4.60376">
        <ele>262.74622</ele>
        <time>2023-06-17T08:45:06.000Z</time>
      </trkpt>
      <trkpt lat="46.14316" lon="4.60369">
        <ele>262.7395</ele>
        <time>2023-06-17T08:45:07.000Z</time>
      </trkpt>
      <trkpt lat="46.14319" lon="4.60363">
        <ele>262.74582</ele>
        <time>2023-06-17T08:45:08.000Z</time>
      </trkpt>
      <trkpt lat="46.14322" lon="4.60357">
        <ele>262.5459</ele>
        <time>2023-06-17T08:45:09.000Z</time>
      </trkpt>
      <trkpt lat="46.14325" lon="4.60351">
        <ele>262.38068</ele>
        <time>2023-06-17T08:45:10.000Z</time>
      </trkpt>
      <trkpt lat="46.14328" lon="4.60347">
        <ele>262.07333</ele>
        <time>2023-06-17T08:45:11.000Z</time>
      </trkpt>
      <trkpt lat="46.14332" lon="4.60341">
        <ele>261.65875</ele>
        <time>2023-06-17T08:45:12.000Z</time>
      </trkpt>
      <trkpt lat="46.14335" lon="4.60336">
        <ele>261.21075</ele>
        <time>2023-06-17T08:45:13.000Z</time>
      </trkpt>
      <trkpt lat="46.14339" lon="4.6033">
        <ele>261.35559</ele>
        <time>2023-06-17T08:45:14.000Z</time>
      </trkpt>
      <trkpt lat="46.14344" lon="4.60325">
        <ele>261.41193</ele>
        <time>2023-06-17T08:45:15.000Z</time>
      </trkpt>
      <trkpt lat="46.14347" lon="4.60321">
        <ele>261.42737</ele>
        <time>2023-06-17T08:45:16.000Z</time>
      </trkpt>
      <trkpt lat="46.1435" lon="4.60315">
        <ele>261.44952</ele>
        <time>2023-06-17T08:45:17.000Z</time>
      </trkpt>
      <trkpt lat="46.14354" lon="4.60309">
        <ele>261.46692</ele>
        <time>2023-06-17T08:45:18.000Z</time>
      </trkpt>
      <trkpt lat="46.14358" lon="4.60304">
        <ele>261.4487</ele>
        <time>2023-06-17T08:45:19.000Z</time>
      </trkpt>
      <trkpt lat="46.14362" lon="4.60298">
        <ele>261.38019</ele>
        <time>2023-06-17T08:45:20.000Z</time>
      </trkpt>
      <trkpt lat="46.14365" lon="4.60293">
        <ele>261.35175</ele>
        <time>2023-06-17T08:45:21.000Z</time>
      </trkpt>
      <trkpt lat="46.14369" lon="4.60288">
        <ele>261.05292</ele>
        <time>2023-06-17T08:45:22.000Z</time>
      </trkpt>
      <trkpt lat="46.14372" lon="4.60283">
        <ele>260.79938</ele>
        <time>2023-06-17T08:45:23.000Z</time>
      </trkpt>
      <trkpt lat="46.14376" lon="4.60278">
        <ele>260.51996</ele>
        <time>2023-06-17T08:45:24.000Z</time>
      </trkpt>
      <trkpt lat="46.14379" lon="4.60272">
        <ele>260.07773</ele>
        <time>2023-06-17T08:45:25.000Z</time>
      </trkpt>
      <trkpt lat="46.14383" lon="4.60268">
        <ele>259.53412</ele>
        <time>2023-06-17T08:45:26.000Z</time>
      </trkpt>
      <trkpt lat="46.14387" lon="4.60263">
        <ele>259.59259</ele>
        <time>2023-06-17T08:45:27.000Z</time>
      </trkpt>
      <trkpt lat="46.14391" lon="4.60258">
        <ele>259.55353</ele>
        <time>2023-06-17T08:45:28.000Z</time>
      </trkpt>
      <trkpt lat="46.14395" lon="4.60252">
        <ele>259.76581</ele>
        <time>2023-06-17T08:45:29.000Z</time>
      </trkpt>
      <trkpt lat="46.14399" lon="4.60246">
        <ele>259.96466</ele>
        <time>2023-06-17T08:45:30.000Z</time>
      </trkpt>
      <trkpt lat="46.14404" lon="4.60241">
        <ele>260.27985</ele>
        <time>2023-06-17T08:45:31.000Z</time>
      </trkpt>
      <trkpt lat="46.14408" lon="4.60236">
        <ele>260.68933</ele>
        <time>2023-06-17T08:45:32.000Z</time>
      </trkpt>
      <trkpt lat="46.14412" lon="4.60232">
        <ele>261.12891</ele>
        <time>2023-06-17T08:45:33.000Z</time>
      </trkpt>
      <trkpt lat="46.14417" lon="4.60227">
        <ele>260.98972</ele>
        <time>2023-06-17T08:45:34.000Z</time>
      </trkpt>
      <trkpt lat="46.14422" lon="4.60223">
        <ele>260.92181</ele>
        <time>2023-06-17T08:45:35.000Z</time>
      </trkpt>
      <trkpt lat="46.14425" lon="4.60219">
        <ele>260.82822</ele>
        <time>2023-06-17T08:45:36.000Z</time>
      </trkpt>
      <trkpt lat="46.14429" lon="4.60216">
        <ele>260.79379</ele>
        <time>2023-06-17T08:45:37.000Z</time>
      </trkpt>
      <trkpt lat="46.14432" lon="4.60212">
        <ele>260.73944</ele>
        <time>2023-06-17T08:45:38.000Z</time>
      </trkpt>
      <trkpt lat="46.14436" lon="4.60209">
        <ele>260.50473</ele>
        <time>2023-06-17T08:45:39.000Z</time>
      </trkpt>
      <trkpt lat="46.1444" lon="4.60205">
        <ele>260.29819</ele>
        <time>2023-06-17T08:45:40.000Z</time>
      </trkpt>
      <trkpt lat="46.14443" lon="4.60202">
        <ele>260.06775</ele>
        <time>2023-06-17T08:45:41.000Z</time>
      </trkpt>
      <trkpt lat="46.14448" lon="4.60199">
        <ele>260.07779</ele>
        <time>2023-06-17T08:45:42.000Z</time>
      </trkpt>
      <trkpt lat="46.14452" lon="4.60196">
        <ele>260.09061</ele>
        <time>2023-06-17T08:45:43.000Z</time>
      </trkpt>
      <trkpt lat="46.14457" lon="4.60191">
        <ele>260.13068</ele>
        <time>2023-06-17T08:45:44.000Z</time>
      </trkpt>
      <trkpt lat="46.14461" lon="4.60187">
        <ele>260.30994</ele>
        <time>2023-06-17T08:45:45.000Z</time>
      </trkpt>
      <trkpt lat="46.14466" lon="4.60184">
        <ele>260.60074</ele>
        <time>2023-06-17T08:45:46.000Z</time>
      </trkpt>
      <trkpt lat="46.14471" lon="4.60179">
        <ele>260.31024</ele>
        <time>2023-06-17T08:45:47.000Z</time>
      </trkpt>
      <trkpt lat="46.14476" lon="4.60175">
        <ele>260.08994</ele>
        <time>2023-06-17T08:45:48.000Z</time>
      </trkpt>
      <trkpt lat="46.1448" lon="4.60171">
        <ele>259.84515</ele>
        <time>2023-06-17T08:45:49.000Z</time>
      </trkpt>
      <trkpt lat="46.14484" lon="4.60167">
        <ele>259.61426</ele>
        <time>2023-06-17T08:45:50.000Z</time>
      </trkpt>
      <trkpt lat="46.14489" lon="4.60162">
        <ele>259.38095</ele>
        <time>2023-06-17T08:45:51.000Z</time>
      </trkpt>
      <trkpt lat="46.14493" lon="4.60158">
        <ele>259.17322</ele>
        <time>2023-06-17T08:45:52.000Z</time>
      </trkpt>
      <trkpt lat="46.14497" lon="4.60153">
        <ele>258.81268</ele>
        <time>2023-06-17T08:45:53.000Z</time>
      </trkpt>
      <trkpt lat="46.14502" lon="4.60149">
        <ele>258.95209</ele>
        <time>2023-06-17T08:45:54.000Z</time>
      </trkpt>
      <trkpt lat="46.14506" lon="4.60145">
        <ele>259.01849</ele>
        <time>2023-06-17T08:45:55.000Z</time>
      </trkpt>
      <trkpt lat="46.14511" lon="4.60141">
        <ele>259.11661</ele>
        <time>2023-06-17T08:45:56.000Z</time>
      </trkpt>
      <trkpt lat="46.14516" lon="4.60137">
        <ele>259.17416</ele>
        <time>2023-06-17T08:45:57.000Z</time>
      </trkpt>
      <trkpt lat="46.1452" lon="4.60133">
        <ele>259.26166</ele>
        <time>2023-06-17T08:45:58.000Z</time>
      </trkpt>
      <trkpt lat="46.14525" lon="4.60131">
        <ele>259.32019</ele>
        <time>2023-06-17T08:45:59.000Z</time>
      </trkpt>
      <trkpt lat="46.14529" lon="4.60127">
        <ele>259.36182</ele>
        <time>2023-06-17T08:46:00.000Z</time>
      </trkpt>
      <trkpt lat="46.14535" lon="4.60124">
        <ele>259.42255</ele>
        <time>2023-06-17T08:46:01.000Z</time>
      </trkpt>
      <trkpt lat="46.14539" lon="4.60121">
        <ele>259.51355</ele>
        <time>2023-06-17T08:46:02.000Z</time>
      </trkpt>
      <trkpt lat="46.14544" lon="4.60117">
        <ele>259.59543</ele>
        <time>2023-06-17T08:46:03.000Z</time>
      </trkpt>
      <trkpt lat="46.14549" lon="4.60114">
        <ele>259.70551</ele>
        <time>2023-06-17T08:46:04.000Z</time>
      </trkpt>
      <trkpt lat="46.14553" lon="4.60112">
        <ele>259.81158</ele>
        <time>2023-06-17T08:46:05.000Z</time>
      </trkpt>
      <trkpt lat="46.14559" lon="4.60107">
        <ele>259.81876</ele>
        <time>2023-06-17T08:46:06.000Z</time>
      </trkpt>
      <trkpt lat="46.14564" lon="4.60105">
        <ele>259.69894</ele>
        <time>2023-06-17T08:46:07.000Z</time>
      </trkpt>
      <trkpt lat="46.14569" lon="4.60102">
        <ele>259.65796</ele>
        <time>2023-06-17T08:46:08.000Z</time>
      </trkpt>
      <trkpt lat="46.14573" lon="4.60098">
        <ele>259.6983</ele>
        <time>2023-06-17T08:46:09.000Z</time>
      </trkpt>
      <trkpt lat="46.14578" lon="4.60096">
        <ele>259.78644</ele>
        <time>2023-06-17T08:46:10.000Z</time>
      </trkpt>
      <trkpt lat="46.14582" lon="4.60094">
        <ele>259.89606</ele>
        <time>2023-06-17T08:46:11.000Z</time>
      </trkpt>
      <trkpt lat="46.14588" lon="4.60092">
        <ele>259.95514</ele>
        <time>2023-06-17T08:46:12.000Z</time>
      </trkpt>
      <trkpt lat="46.14592" lon="4.6009">
        <ele>260.21576</ele>
        <time>2023-06-17T08:46:13.000Z</time>
      </trkpt>
      <trkpt lat="46.14597" lon="4.60088">
        <ele>259.97226</ele>
        <time>2023-06-17T08:46:14.000Z</time>
      </trkpt>
      <trkpt lat="46.14601" lon="4.60086">
        <ele>259.81488</ele>
        <time>2023-06-17T08:46:15.000Z</time>
      </trkpt>
      <trkpt lat="46.14607" lon="4.60084">
        <ele>259.70514</ele>
        <time>2023-06-17T08:46:16.000Z</time>
      </trkpt>
      <trkpt lat="46.14612" lon="4.60082">
        <ele>259.57947</ele>
        <time>2023-06-17T08:46:17.000Z</time>
      </trkpt>
      <trkpt lat="46.14616" lon="4.60079">
        <ele>259.42194</ele>
        <time>2023-06-17T08:46:18.000Z</time>
      </trkpt>
      <trkpt lat="46.14621" lon="4.60076">
        <ele>259.48764</ele>
        <time>2023-06-17T08:46:19.000Z</time>
      </trkpt>
      <trkpt lat="46.14626" lon="4.60075">
        <ele>259.57941</ele>
        <time>2023-06-17T08:46:20.000Z</time>
      </trkpt>
      <trkpt lat="46.14629" lon="4.60072">
        <ele>259.56512</ele>
        <time>2023-06-17T08:46:21.000Z</time>
      </trkpt>
      <trkpt lat="46.14634" lon="4.6007">
        <ele>259.5239</ele>
        <time>2023-06-17T08:46:22.000Z</time>
      </trkpt>
      <trkpt lat="46.14639" lon="4.60066">
        <ele>259.43204</ele>
        <time>2023-06-17T08:46:23.000Z</time>
      </trkpt>
      <trkpt lat="46.14643" lon="4.60064">
        <ele>259.4234</ele>
        <time>2023-06-17T08:46:24.000Z</time>
      </trkpt>
      <trkpt lat="46.14648" lon="4.60061">
        <ele>259.51489</ele>
        <time>2023-06-17T08:46:25.000Z</time>
      </trkpt>
      <trkpt lat="46.14654" lon="4.60058">
        <ele>259.69995</ele>
        <time>2023-06-17T08:46:26.000Z</time>
      </trkpt>
      <trkpt lat="46.14659" lon="4.60055">
        <ele>260.06372</ele>
        <time>2023-06-17T08:46:27.000Z</time>
      </trkpt>
      <trkpt lat="46.14664" lon="4.60051">
        <ele>260.34457</ele>
        <time>2023-06-17T08:46:28.000Z</time>
      </trkpt>
      <trkpt lat="46.14669" lon="4.60048">
        <ele>260.53836</ele>
        <time>2023-06-17T08:46:29.000Z</time>
      </trkpt>
      <trkpt lat="46.14674" lon="4.60045">
        <ele>260.67804</ele>
        <time>2023-06-17T08:46:30.000Z</time>
      </trkpt>
      <trkpt lat="46.14679" lon="4.60042">
        <ele>260.8168</ele>
        <time>2023-06-17T08:46:31.000Z</time>
      </trkpt>
      <trkpt lat="46.14684" lon="4.60039">
        <ele>260.9581</ele>
        <time>2023-06-17T08:46:32.000Z</time>
      </trkpt>
      <trkpt lat="46.14689" lon="4.60037">
        <ele>261.06232</ele>
        <time>2023-06-17T08:46:33.000Z</time>
      </trkpt>
      <trkpt lat="46.14694" lon="4.60034">
        <ele>261.15958</ele>
        <time>2023-06-17T08:46:34.000Z</time>
      </trkpt>
      <trkpt lat="46.14699" lon="4.60031">
        <ele>261.26688</ele>
        <time>2023-06-17T08:46:35.000Z</time>
      </trkpt>
      <trkpt lat="46.14704" lon="4.60028">
        <ele>261.33997</ele>
        <time>2023-06-17T08:46:36.000Z</time>
      </trkpt>
      <trkpt lat="46.14708" lon="4.60025">
        <ele>261.40289</ele>
        <time>2023-06-17T08:46:37.000Z</time>
      </trkpt>
      <trkpt lat="46.14713" lon="4.60022">
        <ele>261.496</ele>
        <time>2023-06-17T08:46:38.000Z</time>
      </trkpt>
      <trkpt lat="46.14717" lon="4.60019">
        <ele>261.61349</ele>
        <time>2023-06-17T08:46:39.000Z</time>
      </trkpt>
      <trkpt lat="46.14722" lon="4.60016">
        <ele>261.71442</ele>
        <time>2023-06-17T08:46:40.000Z</time>
      </trkpt>
      <trkpt lat="46.14727" lon="4.60014">
        <ele>261.91708</ele>
        <time>2023-06-17T08:46:41.000Z</time>
      </trkpt>
      <trkpt lat="46.14731" lon="4.6001">
        <ele>262.13318</ele>
        <time>2023-06-17T08:46:42.000Z</time>
      </trkpt>
      <trkpt lat="46.14734" lon="4.60007">
        <ele>262.40015</ele>
        <time>2023-06-17T08:46:43.000Z</time>
      </trkpt>
      <trkpt lat="46.14738" lon="4.60003">
        <ele>262.54108</ele>
        <time>2023-06-17T08:46:44.000Z</time>
      </trkpt>
      <trkpt lat="46.14742" lon="4.6">
        <ele>262.57568</ele>
        <time>2023-06-17T08:46:45.000Z</time>
      </trkpt>
      <trkpt lat="46.14746" lon="4.59995">
        <ele>262.59967</ele>
        <time>2023-06-17T08:46:46.000Z</time>
      </trkpt>
      <trkpt lat="46.1475" lon="4.59991">
        <ele>262.59421</ele>
        <time>2023-06-17T08:46:47.000Z</time>
      </trkpt>
      <trkpt lat="46.14754" lon="4.59987">
        <ele>262.60947</ele>
        <time>2023-06-17T08:46:48.000Z</time>
      </trkpt>
      <trkpt lat="46.14759" lon="4.59983">
        <ele>262.62698</ele>
        <time>2023-06-17T08:46:49.000Z</time>
      </trkpt>
      <trkpt lat="46.14763" lon="4.59979">
        <ele>262.64752</ele>
        <time>2023-06-17T08:46:50.000Z</time>
      </trkpt>
      <trkpt lat="46.14768" lon="4.59975">
        <ele>262.66299</ele>
        <time>2023-06-17T08:46:51.000Z</time>
      </trkpt>
      <trkpt lat="46.14771" lon="4.59971">
        <ele>262.51309</ele>
        <time>2023-06-17T08:46:52.000Z</time>
      </trkpt>
      <trkpt lat="46.14774" lon="4.59968">
        <ele>262.37592</ele>
        <time>2023-06-17T08:46:53.000Z</time>
      </trkpt>
      <trkpt lat="46.1478" lon="4.59963">
        <ele>262.83035</ele>
        <time>2023-06-17T08:46:54.000Z</time>
      </trkpt>
      <trkpt lat="46.14784" lon="4.59958">
        <ele>263.04327</ele>
        <time>2023-06-17T08:46:55.000Z</time>
      </trkpt>
      <trkpt lat="46.14787" lon="4.59953">
        <ele>263.17935</ele>
        <time>2023-06-17T08:46:56.000Z</time>
      </trkpt>
      <trkpt lat="46.1479" lon="4.59949">
        <ele>263.43948</ele>
        <time>2023-06-17T08:46:57.000Z</time>
      </trkpt>
      <trkpt lat="46.14795" lon="4.59944">
        <ele>263.78772</ele>
        <time>2023-06-17T08:46:58.000Z</time>
      </trkpt>
      <trkpt lat="46.14799" lon="4.59938">
        <ele>264.14011</ele>
        <time>2023-06-17T08:46:59.000Z</time>
      </trkpt>
      <trkpt lat="46.14802" lon="4.59932">
        <ele>264.47614</ele>
        <time>2023-06-17T08:47:00.000Z</time>
      </trkpt>
      <trkpt lat="46.14805" lon="4.59927">
        <ele>264.75726</ele>
        <time>2023-06-17T08:47:01.000Z</time>
      </trkpt>
      <trkpt lat="46.14808" lon="4.59921">
        <ele>265.091</ele>
        <time>2023-06-17T08:47:02.000Z</time>
      </trkpt>
      <trkpt lat="46.14812" lon="4.59914">
        <ele>265.41888</ele>
        <time>2023-06-17T08:47:03.000Z</time>
      </trkpt>
      <trkpt lat="46.14816" lon="4.59909">
        <ele>265.74915</ele>
        <time>2023-06-17T08:47:04.000Z</time>
      </trkpt>
      <trkpt lat="46.14819" lon="4.59903">
        <ele>266.06143</ele>
        <time>2023-06-17T08:47:05.000Z</time>
      </trkpt>
      <trkpt lat="46.14821" lon="4.59898">
        <ele>266.40067</ele>
        <time>2023-06-17T08:47:06.000Z</time>
      </trkpt>
      <trkpt lat="46.14824" lon="4.59891">
        <ele>266.72229</ele>
        <time>2023-06-17T08:47:07.000Z</time>
      </trkpt>
      <trkpt lat="46.14827" lon="4.59886">
        <ele>267.03674</ele>
        <time>2023-06-17T08:47:08.000Z</time>
      </trkpt>
      <trkpt lat="46.1483" lon="4.5988">
        <ele>267.34741</ele>
        <time>2023-06-17T08:47:09.000Z</time>
      </trkpt>
      <trkpt lat="46.14833" lon="4.59874">
        <ele>267.65424</ele>
        <time>2023-06-17T08:47:10.000Z</time>
      </trkpt>
      <trkpt lat="46.14836" lon="4.59867">
        <ele>267.66992</ele>
        <time>2023-06-17T08:47:11.000Z</time>
      </trkpt>
      <trkpt lat="46.14838" lon="4.59861">
        <ele>267.88043</ele>
        <time>2023-06-17T08:47:12.000Z</time>
      </trkpt>
      <trkpt lat="46.14841" lon="4.59855">
        <ele>268.08426</ele>
        <time>2023-06-17T08:47:13.000Z</time>
      </trkpt>
      <trkpt lat="46.14843" lon="4.59848">
        <ele>267.69748</ele>
        <time>2023-06-17T08:47:14.000Z</time>
      </trkpt>
      <trkpt lat="46.14845" lon="4.5984">
        <ele>267.5415</ele>
        <time>2023-06-17T08:47:15.000Z</time>
      </trkpt>
      <trkpt lat="46.14846" lon="4.59834">
        <ele>267.43777</ele>
        <time>2023-06-17T08:47:16.000Z</time>
      </trkpt>
      <trkpt lat="46.14848" lon="4.59829">
        <ele>267.21033</ele>
        <time>2023-06-17T08:47:17.000Z</time>
      </trkpt>
      <trkpt lat="46.1485" lon="4.59822">
        <ele>266.90915</ele>
        <time>2023-06-17T08:47:18.000Z</time>
      </trkpt>
      <trkpt lat="46.14852" lon="4.59815">
        <ele>266.58594</ele>
        <time>2023-06-17T08:47:19.000Z</time>
      </trkpt>
      <trkpt lat="46.14854" lon="4.59808">
        <ele>266.27115</ele>
        <time>2023-06-17T08:47:20.000Z</time>
      </trkpt>
      <trkpt lat="46.14855" lon="4.59801">
        <ele>266.00928</ele>
        <time>2023-06-17T08:47:21.000Z</time>
      </trkpt>
      <trkpt lat="46.14857" lon="4.59795">
        <ele>265.70035</ele>
        <time>2023-06-17T08:47:22.000Z</time>
      </trkpt>
      <trkpt lat="46.14859" lon="4.59787">
        <ele>265.39227</ele>
        <time>2023-06-17T08:47:23.000Z</time>
      </trkpt>
      <trkpt lat="46.14861" lon="4.59782">
        <ele>265.069</ele>
        <time>2023-06-17T08:47:24.000Z</time>
      </trkpt>
      <trkpt lat="46.14862" lon="4.59775">
        <ele>264.78262</ele>
        <time>2023-06-17T08:47:25.000Z</time>
      </trkpt>
      <trkpt lat="46.14865" lon="4.59768">
        <ele>264.47208</ele>
        <time>2023-06-17T08:47:26.000Z</time>
      </trkpt>
      <trkpt lat="46.14867" lon="4.59763">
        <ele>264.1369</ele>
        <time>2023-06-17T08:47:27.000Z</time>
      </trkpt>
      <trkpt lat="46.14868" lon="4.59756">
        <ele>263.81387</ele>
        <time>2023-06-17T08:47:28.000Z</time>
      </trkpt>
      <trkpt lat="46.14871" lon="4.59749">
        <ele>263.4964</ele>
        <time>2023-06-17T08:47:29.000Z</time>
      </trkpt>
      <trkpt lat="46.14873" lon="4.59742">
        <ele>263.18652</ele>
        <time>2023-06-17T08:47:30.000Z</time>
      </trkpt>
      <trkpt lat="46.14875" lon="4.59735">
        <ele>263.17206</ele>
        <time>2023-06-17T08:47:31.000Z</time>
      </trkpt>
      <trkpt lat="46.14878" lon="4.5973">
        <ele>262.99139</ele>
        <time>2023-06-17T08:47:32.000Z</time>
      </trkpt>
      <trkpt lat="46.14881" lon="4.59724">
        <ele>262.78351</ele>
        <time>2023-06-17T08:47:33.000Z</time>
      </trkpt>
      <trkpt lat="46.14883" lon="4.59718">
        <ele>263.20007</ele>
        <time>2023-06-17T08:47:34.000Z</time>
      </trkpt>
      <trkpt lat="46.14885" lon="4.59713">
        <ele>263.51974</ele>
        <time>2023-06-17T08:47:35.000Z</time>
      </trkpt>
      <trkpt lat="46.14888" lon="4.59709">
        <ele>263.83374</ele>
        <time>2023-06-17T08:47:36.000Z</time>
      </trkpt>
      <trkpt lat="46.1489" lon="4.59705">
        <ele>264.18533</ele>
        <time>2023-06-17T08:47:37.000Z</time>
      </trkpt>
      <trkpt lat="46.14892" lon="4.59701">
        <ele>264.52155</ele>
        <time>2023-06-17T08:47:38.000Z</time>
      </trkpt>
      <trkpt lat="46.14893" lon="4.59697">
        <ele>264.8783</ele>
        <time>2023-06-17T08:47:39.000Z</time>
      </trkpt>
      <trkpt lat="46.14894" lon="4.59693">
        <ele>265.24869</ele>
        <time>2023-06-17T08:47:40.000Z</time>
      </trkpt>
      <trkpt lat="46.14894" lon="4.5969">
        <ele>265.33221</ele>
        <time>2023-06-17T08:47:41.000Z</time>
      </trkpt>
      <trkpt lat="46.14896" lon="4.59687">
        <ele>265.40509</ele>
        <time>2023-06-17T08:47:42.000Z</time>
      </trkpt>
      <trkpt lat="46.14897" lon="4.59685">
        <ele>265.4837</ele>
        <time>2023-06-17T08:47:43.000Z</time>
      </trkpt>
      <trkpt lat="46.14897" lon="4.59682">
        <ele>265.59747</ele>
        <time>2023-06-17T08:47:44.000Z</time>
      </trkpt>
      <trkpt lat="46.14898" lon="4.59679">
        <ele>265.69879</ele>
        <time>2023-06-17T08:47:45.000Z</time>
      </trkpt>
      <trkpt lat="46.14899" lon="4.59676">
        <ele>265.80548</ele>
        <time>2023-06-17T08:47:47.000Z</time>
      </trkpt>
      <trkpt lat="46.149" lon="4.59672">
        <ele>265.96918</ele>
        <time>2023-06-17T08:47:49.000Z</time>
      </trkpt>
      <trkpt lat="46.14901" lon="4.59669">
        <ele>266.11505</ele>
        <time>2023-06-17T08:47:51.000Z</time>
      </trkpt>
      <trkpt lat="46.14901" lon="4.59666">
        <ele>266.43744</ele>
        <time>2023-06-17T08:48:16.000Z</time>
      </trkpt>
      <trkpt lat="46.14902" lon="4.59662">
        <ele>266.80609</ele>
        <time>2023-06-17T08:48:18.000Z</time>
      </trkpt>
      <trkpt lat="46.14903" lon="4.5966">
        <ele>267.13226</ele>
        <time>2023-06-17T08:48:19.000Z</time>
      </trkpt>
      <trkpt lat="46.14905" lon="4.59658">
        <ele>267.65439</ele>
        <time>2023-06-17T08:48:20.000Z</time>
      </trkpt>
      <trkpt lat="46.14906" lon="4.59656">
        <ele>268.21024</ele>
        <time>2023-06-17T08:48:21.000Z</time>
      </trkpt>
      <trkpt lat="46.14908" lon="4.59655">
        <ele>268.16412</ele>
        <time>2023-06-17T08:48:22.000Z</time>
      </trkpt>
      <trkpt lat="46.1491" lon="4.59654">
        <ele>268.21609</ele>
        <time>2023-06-17T08:48:23.000Z</time>
      </trkpt>
      <trkpt lat="46.14913" lon="4.59653">
        <ele>268.28827</ele>
        <time>2023-06-17T08:48:24.000Z</time>
      </trkpt>
      <trkpt lat="46.14915" lon="4.59652">
        <ele>268.33218</ele>
        <time>2023-06-17T08:48:25.000Z</time>
      </trkpt>
      <trkpt lat="46.14917" lon="4.59651">
        <ele>268.35565</ele>
        <time>2023-06-17T08:48:26.000Z</time>
      </trkpt>
      <trkpt lat="46.14919" lon="4.59649">
        <ele>268.07495</ele>
        <time>2023-06-17T08:48:27.000Z</time>
      </trkpt>
      <trkpt lat="46.14921" lon="4.59646">
        <ele>267.79047</ele>
        <time>2023-06-17T08:48:28.000Z</time>
      </trkpt>
      <trkpt lat="46.14923" lon="4.59644">
        <ele>267.57843</ele>
        <time>2023-06-17T08:48:29.000Z</time>
      </trkpt>
      <trkpt lat="46.14924" lon="4.59642">
        <ele>267.36038</ele>
        <time>2023-06-17T08:48:30.000Z</time>
      </trkpt>
      <trkpt lat="46.14926" lon="4.5964">
        <ele>267.78458</ele>
        <time>2023-06-17T08:48:31.000Z</time>
      </trkpt>
      <trkpt lat="46.14928" lon="4.59638">
        <ele>268.11554</ele>
        <time>2023-06-17T08:48:33.000Z</time>
      </trkpt>
      <trkpt lat="46.14931" lon="4.59636">
        <ele>268.43744</ele>
        <time>2023-06-17T08:48:35.000Z</time>
      </trkpt>
      <trkpt lat="46.14933" lon="4.59636">
        <ele>268.74612</ele>
        <time>2023-06-17T08:48:37.000Z</time>
      </trkpt>
      <trkpt lat="46.14935" lon="4.59636">
        <ele>269.06152</ele>
        <time>2023-06-17T08:48:39.000Z</time>
      </trkpt>
      <trkpt lat="46.14937" lon="4.59638">
        <ele>269.35687</ele>
        <time>2023-06-17T08:48:40.000Z</time>
      </trkpt>
      <trkpt lat="46.14939" lon="4.5964">
        <ele>269.44574</ele>
        <time>2023-06-17T08:48:42.000Z</time>
      </trkpt>
      <trkpt lat="46.14941" lon="4.59641">
        <ele>269.66214</ele>
        <time>2023-06-17T08:51:07.000Z</time>
      </trkpt>
      <trkpt lat="46.14941" lon="4.59638">
        <ele>269.71262</ele>
        <time>2023-06-17T08:52:50.000Z</time>
      </trkpt>
      <trkpt lat="46.1494" lon="4.59636">
        <ele>269.77618</ele>
        <time>2023-06-17T08:52:58.000Z</time>
      </trkpt>
      <trkpt lat="46.14938" lon="4.59635">
        <ele>269.88284</ele>
        <time>2023-06-17T08:53:34.000Z</time>
      </trkpt>
      <trkpt lat="46.14936" lon="4.59632">
        <ele>269.98969</ele>
        <time>2023-06-17T08:53:36.000Z</time>
      </trkpt>
      <trkpt lat="46.14933" lon="4.5963">
        <ele>270.10321</ele>
        <time>2023-06-17T08:53:38.000Z</time>
      </trkpt>
      <trkpt lat="46.1493" lon="4.59628">
        <ele>270.18799</ele>
        <time>2023-06-17T08:53:40.000Z</time>
      </trkpt>
      <trkpt lat="46.14926" lon="4.59627">
        <ele>270.28857</ele>
        <time>2023-06-17T08:53:42.000Z</time>
      </trkpt>
      <trkpt lat="46.14924" lon="4.59629">
        <ele>270.40433</ele>
        <time>2023-06-17T08:53:43.000Z</time>
      </trkpt>
      <trkpt lat="46.14922" lon="4.5963">
        <ele>270.82471</ele>
        <time>2023-06-17T08:53:44.000Z</time>
      </trkpt>
      <trkpt lat="46.1492" lon="4.59633">
        <ele>271.23438</ele>
        <time>2023-06-17T08:53:45.000Z</time>
      </trkpt>
      <trkpt lat="46.14919" lon="4.59635">
        <ele>271.85037</ele>
        <time>2023-06-17T08:53:46.000Z</time>
      </trkpt>
      <trkpt lat="46.14918" lon="4.59638">
        <ele>272.48651</ele>
        <time>2023-06-17T08:53:47.000Z</time>
      </trkpt>
      <trkpt lat="46.14917" lon="4.59641">
        <ele>272.48221</ele>
        <time>2023-06-17T08:53:48.000Z</time>
      </trkpt>
      <trkpt lat="46.14916" lon="4.59644">
        <ele>272.55106</ele>
        <time>2023-06-17T08:53:49.000Z</time>
      </trkpt>
      <trkpt lat="46.14915" lon="4.59646">
        <ele>272.63239</ele>
        <time>2023-06-17T08:53:50.000Z</time>
      </trkpt>
      <trkpt lat="46.14913" lon="4.59649">
        <ele>272.73615</ele>
        <time>2023-06-17T08:53:51.000Z</time>
      </trkpt>
      <trkpt lat="46.14911" lon="4.59651">
        <ele>272.81107</ele>
        <time>2023-06-17T08:53:52.000Z</time>
      </trkpt>
      <trkpt lat="46.14909" lon="4.59653">
        <ele>272.92078</ele>
        <time>2023-06-17T08:53:53.000Z</time>
      </trkpt>
      <trkpt lat="46.14907" lon="4.59655">
        <ele>273.04813</ele>
        <time>2023-06-17T08:53:54.000Z</time>
      </trkpt>
      <trkpt lat="46.14905" lon="4.59657">
        <ele>273.00278</ele>
        <time>2023-06-17T08:53:55.000Z</time>
      </trkpt>
      <trkpt lat="46.14904" lon="4.59661">
        <ele>273.15259</ele>
        <time>2023-06-17T08:53:56.000Z</time>
      </trkpt>
      <trkpt lat="46.14902" lon="4.59665">
        <ele>273.25836</ele>
        <time>2023-06-17T08:53:57.000Z</time>
      </trkpt>
      <trkpt lat="46.14901" lon="4.59669">
        <ele>273.30542</ele>
        <time>2023-06-17T08:53:58.000Z</time>
      </trkpt>
      <trkpt lat="46.149" lon="4.59674">
        <ele>273.31879</ele>
        <time>2023-06-17T08:53:59.000Z</time>
      </trkpt>
      <trkpt lat="46.14899" lon="4.59678">
        <ele>273.01843</ele>
        <time>2023-06-17T08:54:00.000Z</time>
      </trkpt>
      <trkpt lat="46.14898" lon="4.59682">
        <ele>272.75507</ele>
        <time>2023-06-17T08:54:01.000Z</time>
      </trkpt>
      <trkpt lat="46.14896" lon="4.59686">
        <ele>272.47787</ele>
        <time>2023-06-17T08:54:02.000Z</time>
      </trkpt>
      <trkpt lat="46.14895" lon="4.59689">
        <ele>271.97266</ele>
        <time>2023-06-17T08:54:03.000Z</time>
      </trkpt>
      <trkpt lat="46.14894" lon="4.59693">
        <ele>271.44684</ele>
        <time>2023-06-17T08:54:04.000Z</time>
      </trkpt>
      <trkpt lat="46.14893" lon="4.59697">
        <ele>271.57477</ele>
        <time>2023-06-17T08:54:05.000Z</time>
      </trkpt>
      <trkpt lat="46.14891" lon="4.59701">
        <ele>271.5791</ele>
        <time>2023-06-17T08:54:06.000Z</time>
      </trkpt>
      <trkpt lat="46.1489" lon="4.59705">
        <ele>271.57458</ele>
        <time>2023-06-17T08:54:07.000Z</time>
      </trkpt>
      <trkpt lat="46.14888" lon="4.59709">
        <ele>271.54242</ele>
        <time>2023-06-17T08:54:08.000Z</time>
      </trkpt>
      <trkpt lat="46.14885" lon="4.59713">
        <ele>271.51093</ele>
        <time>2023-06-17T08:54:09.000Z</time>
      </trkpt>
      <trkpt lat="46.14883" lon="4.59718">
        <ele>271.48044</ele>
        <time>2023-06-17T08:54:10.000Z</time>
      </trkpt>
      <trkpt lat="46.1488" lon="4.59724">
        <ele>271.38397</ele>
        <time>2023-06-17T08:54:11.000Z</time>
      </trkpt>
      <trkpt lat="46.14878" lon="4.59729">
        <ele>271.31235</ele>
        <time>2023-06-17T08:54:12.000Z</time>
      </trkpt>
      <trkpt lat="46.14876" lon="4.59735">
        <ele>271.24216</ele>
        <time>2023-06-17T08:54:13.000Z</time>
      </trkpt>
      <trkpt lat="46.14873" lon="4.5974">
        <ele>271.16663</ele>
        <time>2023-06-17T08:54:14.000Z</time>
      </trkpt>
      <trkpt lat="46.14871" lon="4.59746">
        <ele>271.08191</ele>
        <time>2023-06-17T08:54:15.000Z</time>
      </trkpt>
      <trkpt lat="46.14869" lon="4.59753">
        <ele>270.97101</ele>
        <time>2023-06-17T08:54:16.000Z</time>
      </trkpt>
      <trkpt lat="46.14867" lon="4.5976">
        <ele>270.88257</ele>
        <time>2023-06-17T08:54:17.000Z</time>
      </trkpt>
      <trkpt lat="46.14865" lon="4.59767">
        <ele>270.81332</ele>
        <time>2023-06-17T08:54:18.000Z</time>
      </trkpt>
      <trkpt lat="46.14863" lon="4.59773">
        <ele>270.75955</ele>
        <time>2023-06-17T08:54:19.000Z</time>
      </trkpt>
      <trkpt lat="46.14861" lon="4.59779">
        <ele>271.03876</ele>
        <time>2023-06-17T08:54:20.000Z</time>
      </trkpt>
      <trkpt lat="46.14859" lon="4.59786">
        <ele>271.32388</ele>
        <time>2023-06-17T08:54:21.000Z</time>
      </trkpt>
      <trkpt lat="46.14857" lon="4.59793">
        <ele>271.59427</ele>
        <time>2023-06-17T08:54:22.000Z</time>
      </trkpt>
      <trkpt lat="46.14855" lon="4.598">
        <ele>271.77087</ele>
        <time>2023-06-17T08:54:23.000Z</time>
      </trkpt>
      <trkpt lat="46.14854" lon="4.59807">
        <ele>271.71835</ele>
        <time>2023-06-17T08:54:24.000Z</time>
      </trkpt>
      <trkpt lat="46.14852" lon="4.59814">
        <ele>271.64841</ele>
        <time>2023-06-17T08:54:25.000Z</time>
      </trkpt>
      <trkpt lat="46.14849" lon="4.59821">
        <ele>271.60504</ele>
        <time>2023-06-17T08:54:26.000Z</time>
      </trkpt>
      <trkpt lat="46.14848" lon="4.59828">
        <ele>271.55005</ele>
        <time>2023-06-17T08:54:27.000Z</time>
      </trkpt>
      <trkpt lat="46.14845" lon="4.59836">
        <ele>271.51141</ele>
        <time>2023-06-17T08:54:28.000Z</time>
      </trkpt>
      <trkpt lat="46.14843" lon="4.59844">
        <ele>271.4892</ele>
        <time>2023-06-17T08:54:29.000Z</time>
      </trkpt>
      <trkpt lat="46.14841" lon="4.59851">
        <ele>271.45804</ele>
        <time>2023-06-17T08:54:30.000Z</time>
      </trkpt>
      <trkpt lat="46.14839" lon="4.59859">
        <ele>271.48627</ele>
        <time>2023-06-17T08:54:31.000Z</time>
      </trkpt>
      <trkpt lat="46.14836" lon="4.59866">
        <ele>271.49606</ele>
        <time>2023-06-17T08:54:32.000Z</time>
      </trkpt>
      <trkpt lat="46.14832" lon="4.59873">
        <ele>271.18387</ele>
        <time>2023-06-17T08:54:33.000Z</time>
      </trkpt>
      <trkpt lat="46.14829" lon="4.5988">
        <ele>270.6568</ele>
        <time>2023-06-17T08:54:34.000Z</time>
      </trkpt>
      <trkpt lat="46.14826" lon="4.59887">
        <ele>270.74762</ele>
        <time>2023-06-17T08:54:35.000Z</time>
      </trkpt>
      <trkpt lat="46.14822" lon="4.59895">
        <ele>270.76166</ele>
        <time>2023-06-17T08:54:36.000Z</time>
      </trkpt>
      <trkpt lat="46.14818" lon="4.59902">
        <ele>270.75378</ele>
        <time>2023-06-17T08:54:37.000Z</time>
      </trkpt>
      <trkpt lat="46.14814" lon="4.59909">
        <ele>270.74084</ele>
        <time>2023-06-17T08:54:38.000Z</time>
      </trkpt>
      <trkpt lat="46.1481" lon="4.59916">
        <ele>270.46036</ele>
        <time>2023-06-17T08:54:39.000Z</time>
      </trkpt>
      <trkpt lat="46.14806" lon="4.59922">
        <ele>270.19095</ele>
        <time>2023-06-17T08:54:40.000Z</time>
      </trkpt>
      <trkpt lat="46.14802" lon="4.59929">
        <ele>269.91226</ele>
        <time>2023-06-17T08:54:41.000Z</time>
      </trkpt>
      <trkpt lat="46.14798" lon="4.59936">
        <ele>269.41653</ele>
        <time>2023-06-17T08:54:42.000Z</time>
      </trkpt>
      <trkpt lat="46.14794" lon="4.59943">
        <ele>269.88434</ele>
        <time>2023-06-17T08:54:43.000Z</time>
      </trkpt>
      <trkpt lat="46.14789" lon="4.5995">
        <ele>270.46985</ele>
        <time>2023-06-17T08:54:44.000Z</time>
      </trkpt>
      <trkpt lat="46.14784" lon="4.59956">
        <ele>270.43533</ele>
        <time>2023-06-17T08:54:45.000Z</time>
      </trkpt>
      <trkpt lat="46.14779" lon="4.59962">
        <ele>270.51529</ele>
        <time>2023-06-17T08:54:46.000Z</time>
      </trkpt>
      <trkpt lat="46.14773" lon="4.59966">
        <ele>270.28253</ele>
        <time>2023-06-17T08:54:47.000Z</time>
      </trkpt>
      <trkpt lat="46.14769" lon="4.59971">
        <ele>270.03549</ele>
        <time>2023-06-17T08:54:48.000Z</time>
      </trkpt>
      <trkpt lat="46.14764" lon="4.59977">
        <ele>269.79977</ele>
        <time>2023-06-17T08:54:49.000Z</time>
      </trkpt>
      <trkpt lat="46.14759" lon="4.59982">
        <ele>269.56256</ele>
        <time>2023-06-17T08:54:50.000Z</time>
      </trkpt>
      <trkpt lat="46.14753" lon="4.59988">
        <ele>269.32657</ele>
        <time>2023-06-17T08:54:51.000Z</time>
      </trkpt>
      <trkpt lat="46.14748" lon="4.59992">
        <ele>268.83804</ele>
        <time>2023-06-17T08:54:52.000Z</time>
      </trkpt>
      <trkpt lat="46.14743" lon="4.59997">
        <ele>268.65167</ele>
        <time>2023-06-17T08:54:53.000Z</time>
      </trkpt>
      <trkpt lat="46.14738" lon="4.60002">
        <ele>268.6535</ele>
        <time>2023-06-17T08:54:54.000Z</time>
      </trkpt>
      <trkpt lat="46.14732" lon="4.60007">
        <ele>268.67737</ele>
        <time>2023-06-17T08:54:55.000Z</time>
      </trkpt>
      <trkpt lat="46.14727" lon="4.60012">
        <ele>268.69281</ele>
        <time>2023-06-17T08:54:56.000Z</time>
      </trkpt>
      <trkpt lat="46.14722" lon="4.60017">
        <ele>268.68683</ele>
        <time>2023-06-17T08:54:57.000Z</time>
      </trkpt>
      <trkpt lat="46.14716" lon="4.6002">
        <ele>268.65329</ele>
        <time>2023-06-17T08:54:58.000Z</time>
      </trkpt>
      <trkpt lat="46.1471" lon="4.60024">
        <ele>268.86218</ele>
        <time>2023-06-17T08:54:59.000Z</time>
      </trkpt>
      <trkpt lat="46.14704" lon="4.60027">
        <ele>269.00818</ele>
        <time>2023-06-17T08:55:00.000Z</time>
      </trkpt>
      <trkpt lat="46.14698" lon="4.60031">
        <ele>269.14288</ele>
        <time>2023-06-17T08:55:01.000Z</time>
      </trkpt>
      <trkpt lat="46.14692" lon="4.60036">
        <ele>269.47003</ele>
        <time>2023-06-17T08:55:02.000Z</time>
      </trkpt>
      <trkpt lat="46.14686" lon="4.60039">
        <ele>269.12421</ele>
        <time>2023-06-17T08:55:03.000Z</time>
      </trkpt>
      <trkpt lat="46.1468" lon="4.60042">
        <ele>268.89102</ele>
        <time>2023-06-17T08:55:04.000Z</time>
      </trkpt>
      <trkpt lat="46.14674" lon="4.60045">
        <ele>268.6221</ele>
        <time>2023-06-17T08:55:05.000Z</time>
      </trkpt>
      <trkpt lat="46.14667" lon="4.60049">
        <ele>268.33844</ele>
        <time>2023-06-17T08:55:06.000Z</time>
      </trkpt>
      <trkpt lat="46.14661" lon="4.60053">
        <ele>268.38049</ele>
        <time>2023-06-17T08:55:07.000Z</time>
      </trkpt>
      <trkpt lat="46.14655" lon="4.60056">
        <ele>268.44482</ele>
        <time>2023-06-17T08:55:08.000Z</time>
      </trkpt>
      <trkpt lat="46.14649" lon="4.60059">
        <ele>268.5036</ele>
        <time>2023-06-17T08:55:09.000Z</time>
      </trkpt>
      <trkpt lat="46.14643" lon="4.60062">
        <ele>268.55618</ele>
        <time>2023-06-17T08:55:10.000Z</time>
      </trkpt>
      <trkpt lat="46.14637" lon="4.60066">
        <ele>268.58649</ele>
        <time>2023-06-17T08:55:11.000Z</time>
      </trkpt>
      <trkpt lat="46.14631" lon="4.60069">
        <ele>268.84732</ele>
        <time>2023-06-17T08:55:12.000Z</time>
      </trkpt>
      <trkpt lat="46.14626" lon="4.60071">
        <ele>269.07452</ele>
        <time>2023-06-17T08:55:13.000Z</time>
      </trkpt>
      <trkpt lat="46.1462" lon="4.60073">
        <ele>269.31195</ele>
        <time>2023-06-17T08:55:14.000Z</time>
      </trkpt>
      <trkpt lat="46.14614" lon="4.60077">
        <ele>268.71146</ele>
        <time>2023-06-17T08:55:15.000Z</time>
      </trkpt>
      <trkpt lat="46.14608" lon="4.60081">
        <ele>268.03116</ele>
        <time>2023-06-17T08:55:16.000Z</time>
      </trkpt>
      <trkpt lat="46.14601" lon="4.60084">
        <ele>267.49252</ele>
        <time>2023-06-17T08:55:17.000Z</time>
      </trkpt>
      <trkpt lat="46.14595" lon="4.60088">
        <ele>266.93832</ele>
        <time>2023-06-17T08:55:18.000Z</time>
      </trkpt>
      <trkpt lat="46.14588" lon="4.60091">
        <ele>266.52014</ele>
        <time>2023-06-17T08:55:19.000Z</time>
      </trkpt>
      <trkpt lat="46.14581" lon="4.60094">
        <ele>266.16083</ele>
        <time>2023-06-17T08:55:20.000Z</time>
      </trkpt>
      <trkpt lat="46.14575" lon="4.60097">
        <ele>265.8139</ele>
        <time>2023-06-17T08:55:21.000Z</time>
      </trkpt>
      <trkpt lat="46.14569" lon="4.60101">
        <ele>265.45636</ele>
        <time>2023-06-17T08:55:22.000Z</time>
      </trkpt>
      <trkpt lat="46.14564" lon="4.60105">
        <ele>265.02948</ele>
        <time>2023-06-17T08:55:23.000Z</time>
      </trkpt>
      <trkpt lat="46.14557" lon="4.60109">
        <ele>264.69687</ele>
        <time>2023-06-17T08:55:24.000Z</time>
      </trkpt>
      <trkpt lat="46.14551" lon="4.60113">
        <ele>264.38049</ele>
        <time>2023-06-17T08:55:25.000Z</time>
      </trkpt>
      <trkpt lat="46.14544" lon="4.60117">
        <ele>264.12228</ele>
        <time>2023-06-17T08:55:26.000Z</time>
      </trkpt>
      <trkpt lat="46.14539" lon="4.60121">
        <ele>263.87643</ele>
        <time>2023-06-17T08:55:27.000Z</time>
      </trkpt>
      <trkpt lat="46.14533" lon="4.60125">
        <ele>263.6088</ele>
        <time>2023-06-17T08:55:28.000Z</time>
      </trkpt>
      <trkpt lat="46.14527" lon="4.60129">
        <ele>263.09552</ele>
        <time>2023-06-17T08:55:29.000Z</time>
      </trkpt>
      <trkpt lat="46.14521" lon="4.60132">
        <ele>262.39081</ele>
        <time>2023-06-17T08:55:30.000Z</time>
      </trkpt>
      <trkpt lat="46.14515" lon="4.60137">
        <ele>262.29062</ele>
        <time>2023-06-17T08:55:31.000Z</time>
      </trkpt>
      <trkpt lat="46.14508" lon="4.60142">
        <ele>262.10248</ele>
        <time>2023-06-17T08:55:32.000Z</time>
      </trkpt>
      <trkpt lat="46.14503" lon="4.60148">
        <ele>261.96295</ele>
        <time>2023-06-17T08:55:33.000Z</time>
      </trkpt>
      <trkpt lat="46.14497" lon="4.60153">
        <ele>261.83774</ele>
        <time>2023-06-17T08:55:34.000Z</time>
      </trkpt>
      <trkpt lat="46.14491" lon="4.60159">
        <ele>261.91724</ele>
        <time>2023-06-17T08:55:35.000Z</time>
      </trkpt>
      <trkpt lat="46.14485" lon="4.60164">
        <ele>262.18713</ele>
        <time>2023-06-17T08:55:36.000Z</time>
      </trkpt>
      <trkpt lat="46.1448" lon="4.6017">
        <ele>262.33652</ele>
        <time>2023-06-17T08:55:37.000Z</time>
      </trkpt>
      <trkpt lat="46.14474" lon="4.60176">
        <ele>262.53168</ele>
        <time>2023-06-17T08:55:38.000Z</time>
      </trkpt>
      <trkpt lat="46.14468" lon="4.60182">
        <ele>262.60437</ele>
        <time>2023-06-17T08:55:39.000Z</time>
      </trkpt>
      <trkpt lat="46.14462" lon="4.60187">
        <ele>262.62958</ele>
        <time>2023-06-17T08:55:40.000Z</time>
      </trkpt>
      <trkpt lat="46.14457" lon="4.60192">
        <ele>262.65872</ele>
        <time>2023-06-17T08:55:41.000Z</time>
      </trkpt>
      <trkpt lat="46.14451" lon="4.60198">
        <ele>262.73087</ele>
        <time>2023-06-17T08:55:42.000Z</time>
      </trkpt>
      <trkpt lat="46.14445" lon="4.60203">
        <ele>262.90094</ele>
        <time>2023-06-17T08:55:43.000Z</time>
      </trkpt>
      <trkpt lat="46.1444" lon="4.60207">
        <ele>263.00214</ele>
        <time>2023-06-17T08:55:44.000Z</time>
      </trkpt>
      <trkpt lat="46.14435" lon="4.60212">
        <ele>263.10666</ele>
        <time>2023-06-17T08:55:45.000Z</time>
      </trkpt>
      <trkpt lat="46.14429" lon="4.60217">
        <ele>263.1416</ele>
        <time>2023-06-17T08:55:46.000Z</time>
      </trkpt>
      <trkpt lat="46.14424" lon="4.60221">
        <ele>263.14752</ele>
        <time>2023-06-17T08:55:47.000Z</time>
      </trkpt>
      <trkpt lat="46.14419" lon="4.60227">
        <ele>263.17462</ele>
        <time>2023-06-17T08:55:48.000Z</time>
      </trkpt>
      <trkpt lat="46.14414" lon="4.60232">
        <ele>263.43646</ele>
        <time>2023-06-17T08:55:49.000Z</time>
      </trkpt>
      <trkpt lat="46.14409" lon="4.60238">
        <ele>263.91779</ele>
        <time>2023-06-17T08:55:50.000Z</time>
      </trkpt>
      <trkpt lat="46.14404" lon="4.60243">
        <ele>263.83551</ele>
        <time>2023-06-17T08:55:51.000Z</time>
      </trkpt>
      <trkpt lat="46.144" lon="4.60249">
        <ele>263.83163</ele>
        <time>2023-06-17T08:55:52.000Z</time>
      </trkpt>
      <trkpt lat="46.14395" lon="4.60255">
        <ele>263.81702</ele>
        <time>2023-06-17T08:55:53.000Z</time>
      </trkpt>
      <trkpt lat="46.1439" lon="4.60261">
        <ele>263.83771</ele>
        <time>2023-06-17T08:55:54.000Z</time>
      </trkpt>
      <trkpt lat="46.14385" lon="4.60267">
        <ele>263.84515</ele>
        <time>2023-06-17T08:55:55.000Z</time>
      </trkpt>
      <trkpt lat="46.14381" lon="4.60274">
        <ele>263.85107</ele>
        <time>2023-06-17T08:55:56.000Z</time>
      </trkpt>
      <trkpt lat="46.14376" lon="4.6028">
        <ele>263.8414</ele>
        <time>2023-06-17T08:55:57.000Z</time>
      </trkpt>
      <trkpt lat="46.14371" lon="4.60286">
        <ele>263.81393</ele>
        <time>2023-06-17T08:55:58.000Z</time>
      </trkpt>
      <trkpt lat="46.14366" lon="4.60292">
        <ele>263.79562</ele>
        <time>2023-06-17T08:55:59.000Z</time>
      </trkpt>
      <trkpt lat="46.14362" lon="4.60299">
        <ele>263.79648</ele>
        <time>2023-06-17T08:56:00.000Z</time>
      </trkpt>
      <trkpt lat="46.14357" lon="4.60305">
        <ele>263.53754</ele>
        <time>2023-06-17T08:56:01.000Z</time>
      </trkpt>
      <trkpt lat="46.14353" lon="4.60311">
        <ele>263.10684</ele>
        <time>2023-06-17T08:56:02.000Z</time>
      </trkpt>
      <trkpt lat="46.14348" lon="4.60318">
        <ele>263.20148</ele>
        <time>2023-06-17T08:56:03.000Z</time>
      </trkpt>
      <trkpt lat="46.14343" lon="4.60325">
        <ele>263.18036</ele>
        <time>2023-06-17T08:56:04.000Z</time>
      </trkpt>
      <trkpt lat="46.14339" lon="4.60332">
        <ele>263.14969</ele>
        <time>2023-06-17T08:56:05.000Z</time>
      </trkpt>
      <trkpt lat="46.14334" lon="4.60339">
        <ele>263.10831</ele>
        <time>2023-06-17T08:56:06.000Z</time>
      </trkpt>
      <trkpt lat="46.14329" lon="4.60347">
        <ele>263.0733</ele>
        <time>2023-06-17T08:56:07.000Z</time>
      </trkpt>
      <trkpt lat="46.14325" lon="4.60355">
        <ele>263.03931</ele>
        <time>2023-06-17T08:56:08.000Z</time>
      </trkpt>
      <trkpt lat="46.14321" lon="4.60363">
        <ele>262.99954</ele>
        <time>2023-06-17T08:56:09.000Z</time>
      </trkpt>
      <trkpt lat="46.14316" lon="4.60371">
        <ele>262.95734</ele>
        <time>2023-06-17T08:56:10.000Z</time>
      </trkpt>
      <trkpt lat="46.14311" lon="4.60378">
        <ele>262.884</ele>
        <time>2023-06-17T08:56:11.000Z</time>
      </trkpt>
      <trkpt lat="46.14307" lon="4.60386">
        <ele>262.82843</ele>
        <time>2023-06-17T08:56:12.000Z</time>
      </trkpt>
      <trkpt lat="46.14302" lon="4.60394">
        <ele>262.53394</ele>
        <time>2023-06-17T08:56:13.000Z</time>
      </trkpt>
      <trkpt lat="46.14298" lon="4.60403">
        <ele>262.03513</ele>
        <time>2023-06-17T08:56:14.000Z</time>
      </trkpt>
      <trkpt lat="46.14294" lon="4.6041">
        <ele>262.06653</ele>
        <time>2023-06-17T08:56:15.000Z</time>
      </trkpt>
      <trkpt lat="46.1429" lon="4.60419">
        <ele>262.00613</ele>
        <time>2023-06-17T08:56:16.000Z</time>
      </trkpt>
      <trkpt lat="46.14286" lon="4.60427">
        <ele>261.96457</ele>
        <time>2023-06-17T08:56:17.000Z</time>
      </trkpt>
      <trkpt lat="46.14282" lon="4.60435">
        <ele>261.91873</ele>
        <time>2023-06-17T08:56:18.000Z</time>
      </trkpt>
      <trkpt lat="46.14278" lon="4.60444">
        <ele>261.87946</ele>
        <time>2023-06-17T08:56:19.000Z</time>
      </trkpt>
      <trkpt lat="46.14275" lon="4.60452">
        <ele>261.82343</ele>
        <time>2023-06-17T08:56:20.000Z</time>
      </trkpt>
      <trkpt lat="46.14272" lon="4.6046">
        <ele>261.97253</ele>
        <time>2023-06-17T08:56:21.000Z</time>
      </trkpt>
      <trkpt lat="46.14268" lon="4.60469">
        <ele>262.32556</ele>
        <time>2023-06-17T08:56:22.000Z</time>
      </trkpt>
      <trkpt lat="46.14265" lon="4.60476">
        <ele>262.15863</ele>
        <time>2023-06-17T08:56:23.000Z</time>
      </trkpt>
      <trkpt lat="46.14261" lon="4.60484">
        <ele>262.09213</ele>
        <time>2023-06-17T08:56:24.000Z</time>
      </trkpt>
      <trkpt lat="46.14257" lon="4.60492">
        <ele>262.04144</ele>
        <time>2023-06-17T08:56:25.000Z</time>
      </trkpt>
      <trkpt lat="46.14254" lon="4.605">
        <ele>261.99738</ele>
        <time>2023-06-17T08:56:26.000Z</time>
      </trkpt>
      <trkpt lat="46.14251" lon="4.60508">
        <ele>261.95313</ele>
        <time>2023-06-17T08:56:27.000Z</time>
      </trkpt>
      <trkpt lat="46.14247" lon="4.60517">
        <ele>261.8819</ele>
        <time>2023-06-17T08:56:28.000Z</time>
      </trkpt>
      <trkpt lat="46.14244" lon="4.60526">
        <ele>261.81583</ele>
        <time>2023-06-17T08:56:29.000Z</time>
      </trkpt>
      <trkpt lat="46.1424" lon="4.60535">
        <ele>261.73856</ele>
        <time>2023-06-17T08:56:30.000Z</time>
      </trkpt>
      <trkpt lat="46.14237" lon="4.60543">
        <ele>261.67789</ele>
        <time>2023-06-17T08:56:31.000Z</time>
      </trkpt>
      <trkpt lat="46.14233" lon="4.60552">
        <ele>261.61346</ele>
        <time>2023-06-17T08:56:32.000Z</time>
      </trkpt>
      <trkpt lat="46.14229" lon="4.6056">
        <ele>261.77631</ele>
        <time>2023-06-17T08:56:33.000Z</time>
      </trkpt>
      <trkpt lat="46.14226" lon="4.60568">
        <ele>262.09027</ele>
        <time>2023-06-17T08:56:34.000Z</time>
      </trkpt>
      <trkpt lat="46.14223" lon="4.60576">
        <ele>261.88699</ele>
        <time>2023-06-17T08:56:35.000Z</time>
      </trkpt>
      <trkpt lat="46.1422" lon="4.60584">
        <ele>261.7995</ele>
        <time>2023-06-17T08:56:36.000Z</time>
      </trkpt>
      <trkpt lat="46.14217" lon="4.60592">
        <ele>261.7041</ele>
        <time>2023-06-17T08:56:37.000Z</time>
      </trkpt>
      <trkpt lat="46.14214" lon="4.60599">
        <ele>261.63593</ele>
        <time>2023-06-17T08:56:38.000Z</time>
      </trkpt>
      <trkpt lat="46.14211" lon="4.60607">
        <ele>261.55804</ele>
        <time>2023-06-17T08:56:39.000Z</time>
      </trkpt>
      <trkpt lat="46.14208" lon="4.60615">
        <ele>261.49152</ele>
        <time>2023-06-17T08:56:40.000Z</time>
      </trkpt>
      <trkpt lat="46.14205" lon="4.60622">
        <ele>261.46255</ele>
        <time>2023-06-17T08:56:41.000Z</time>
      </trkpt>
      <trkpt lat="46.14201" lon="4.6063">
        <ele>261.38367</ele>
        <time>2023-06-17T08:56:42.000Z</time>
      </trkpt>
      <trkpt lat="46.14198" lon="4.60638">
        <ele>261.31879</ele>
        <time>2023-06-17T08:56:43.000Z</time>
      </trkpt>
      <trkpt lat="46.14195" lon="4.60647">
        <ele>261.2551</ele>
        <time>2023-06-17T08:56:44.000Z</time>
      </trkpt>
      <trkpt lat="46.14192" lon="4.60654">
        <ele>260.9577</ele>
        <time>2023-06-17T08:56:45.000Z</time>
      </trkpt>
      <trkpt lat="46.14188" lon="4.60662">
        <ele>260.55176</ele>
        <time>2023-06-17T08:56:46.000Z</time>
      </trkpt>
      <trkpt lat="46.14185" lon="4.6067">
        <ele>260.09091</ele>
        <time>2023-06-17T08:56:47.000Z</time>
      </trkpt>
      <trkpt lat="46.14182" lon="4.60679">
        <ele>260.16959</ele>
        <time>2023-06-17T08:56:48.000Z</time>
      </trkpt>
      <trkpt lat="46.14179" lon="4.60687">
        <ele>260.1268</ele>
        <time>2023-06-17T08:56:49.000Z</time>
      </trkpt>
      <trkpt lat="46.14176" lon="4.60696">
        <ele>260.08319</ele>
        <time>2023-06-17T08:56:50.000Z</time>
      </trkpt>
      <trkpt lat="46.14173" lon="4.60704">
        <ele>260.04684</ele>
        <time>2023-06-17T08:56:51.000Z</time>
      </trkpt>
      <trkpt lat="46.14169" lon="4.60713">
        <ele>260.02167</ele>
        <time>2023-06-17T08:56:52.000Z</time>
      </trkpt>
      <trkpt lat="46.14166" lon="4.6072">
        <ele>259.7829</ele>
        <time>2023-06-17T08:56:53.000Z</time>
      </trkpt>
      <trkpt lat="46.14162" lon="4.60729">
        <ele>259.45767</ele>
        <time>2023-06-17T08:56:54.000Z</time>
      </trkpt>
      <trkpt lat="46.14159" lon="4.60738">
        <ele>259.07303</ele>
        <time>2023-06-17T08:56:55.000Z</time>
      </trkpt>
      <trkpt lat="46.14156" lon="4.60747">
        <ele>259.18011</ele>
        <time>2023-06-17T08:56:56.000Z</time>
      </trkpt>
      <trkpt lat="46.14153" lon="4.60755">
        <ele>259.22241</ele>
        <time>2023-06-17T08:56:57.000Z</time>
      </trkpt>
      <trkpt lat="46.1415" lon="4.60764">
        <ele>259.22937</ele>
        <time>2023-06-17T08:56:58.000Z</time>
      </trkpt>
      <trkpt lat="46.14146" lon="4.60772">
        <ele>259.25861</ele>
        <time>2023-06-17T08:56:59.000Z</time>
      </trkpt>
      <trkpt lat="46.14143" lon="4.60781">
        <ele>259.27451</ele>
        <time>2023-06-17T08:57:00.000Z</time>
      </trkpt>
      <trkpt lat="46.14139" lon="4.6079">
        <ele>259.31332</ele>
        <time>2023-06-17T08:57:01.000Z</time>
      </trkpt>
      <trkpt lat="46.14136" lon="4.60799">
        <ele>259.35916</ele>
        <time>2023-06-17T08:57:02.000Z</time>
      </trkpt>
      <trkpt lat="46.14132" lon="4.60807">
        <ele>259.35785</ele>
        <time>2023-06-17T08:57:03.000Z</time>
      </trkpt>
      <trkpt lat="46.14129" lon="4.60815">
        <ele>259.34811</ele>
        <time>2023-06-17T08:57:04.000Z</time>
      </trkpt>
      <trkpt lat="46.14126" lon="4.60823">
        <ele>259.54681</ele>
        <time>2023-06-17T08:57:05.000Z</time>
      </trkpt>
      <trkpt lat="46.14122" lon="4.6083">
        <ele>259.85986</ele>
        <time>2023-06-17T08:57:06.000Z</time>
      </trkpt>
      <trkpt lat="46.14118" lon="4.60838">
        <ele>260.20911</ele>
        <time>2023-06-17T08:57:07.000Z</time>
      </trkpt>
      <trkpt lat="46.14115" lon="4.60846">
        <ele>260.03329</ele>
        <time>2023-06-17T08:57:08.000Z</time>
      </trkpt>
      <trkpt lat="46.14111" lon="4.60855">
        <ele>259.93686</ele>
        <time>2023-06-17T08:57:09.000Z</time>
      </trkpt>
      <trkpt lat="46.14108" lon="4.60862">
        <ele>259.83929</ele>
        <time>2023-06-17T08:57:10.000Z</time>
      </trkpt>
      <trkpt lat="46.14104" lon="4.60871">
        <ele>259.39008</ele>
        <time>2023-06-17T08:57:11.000Z</time>
      </trkpt>
      <trkpt lat="46.14101" lon="4.6088">
        <ele>258.87741</ele>
        <time>2023-06-17T08:57:12.000Z</time>
      </trkpt>
      <trkpt lat="46.14098" lon="4.60889">
        <ele>259.05264</ele>
        <time>2023-06-17T08:57:13.000Z</time>
      </trkpt>
      <trkpt lat="46.14094" lon="4.60898">
        <ele>259.26114</ele>
        <time>2023-06-17T08:57:14.000Z</time>
      </trkpt>
      <trkpt lat="46.14091" lon="4.60906">
        <ele>259.51196</ele>
        <time>2023-06-17T08:57:15.000Z</time>
      </trkpt>
      <trkpt lat="46.14088" lon="4.60915">
        <ele>259.24677</ele>
        <time>2023-06-17T08:57:16.000Z</time>
      </trkpt>
      <trkpt lat="46.14084" lon="4.60923">
        <ele>259.04544</ele>
        <time>2023-06-17T08:57:17.000Z</time>
      </trkpt>
      <trkpt lat="46.14081" lon="4.60931">
        <ele>258.85516</ele>
        <time>2023-06-17T08:57:18.000Z</time>
      </trkpt>
      <trkpt lat="46.14078" lon="4.60938">
        <ele>258.64954</ele>
        <time>2023-06-17T08:57:19.000Z</time>
      </trkpt>
      <trkpt lat="46.14073" lon="4.60943">
        <ele>258.46033</ele>
        <time>2023-06-17T08:57:20.000Z</time>
      </trkpt>
      <trkpt lat="46.14069" lon="4.60947">
        <ele>258.25897</ele>
        <time>2023-06-17T08:57:21.000Z</time>
      </trkpt>
      <trkpt lat="46.14066" lon="4.60952">
        <ele>258.08621</ele>
        <time>2023-06-17T08:57:22.000Z</time>
      </trkpt>
      <trkpt lat="46.14065" lon="4.60958">
        <ele>257.9325</ele>
        <time>2023-06-17T08:57:23.000Z</time>
      </trkpt>
      <trkpt lat="46.14064" lon="4.60965">
        <ele>257.79813</ele>
        <time>2023-06-17T08:57:24.000Z</time>
      </trkpt>
      <trkpt lat="46.14063" lon="4.60972">
        <ele>257.68469</ele>
        <time>2023-06-17T08:57:25.000Z</time>
      </trkpt>
      <trkpt lat="46.14061" lon="4.6098">
        <ele>257.58261</ele>
        <time>2023-06-17T08:57:26.000Z</time>
      </trkpt>
      <trkpt lat="46.14059" lon="4.60989">
        <ele>257.50424</ele>
        <time>2023-06-17T08:57:27.000Z</time>
      </trkpt>
      <trkpt lat="46.14057" lon="4.60998">
        <ele>257.44141</ele>
        <time>2023-06-17T08:57:28.000Z</time>
      </trkpt>
      <trkpt lat="46.14054" lon="4.61005">
        <ele>257.08026</ele>
        <time>2023-06-17T08:57:29.000Z</time>
      </trkpt>
      <trkpt lat="46.1405" lon="4.61014">
        <ele>256.71091</ele>
        <time>2023-06-17T08:57:30.000Z</time>
      </trkpt>
      <trkpt lat="46.14047" lon="4.61022">
        <ele>256.57605</ele>
        <time>2023-06-17T08:57:31.000Z</time>
      </trkpt>
      <trkpt lat="46.14044" lon="4.61029">
        <ele>256.99994</ele>
        <time>2023-06-17T08:57:32.000Z</time>
      </trkpt>
      <trkpt lat="46.14041" lon="4.61036">
        <ele>256.92813</ele>
        <time>2023-06-17T08:57:33.000Z</time>
      </trkpt>
      <trkpt lat="46.14038" lon="4.61043">
        <ele>256.94687</ele>
        <time>2023-06-17T08:57:34.000Z</time>
      </trkpt>
      <trkpt lat="46.14035" lon="4.61049">
        <ele>256.95123</ele>
        <time>2023-06-17T08:57:35.000Z</time>
      </trkpt>
      <trkpt lat="46.14032" lon="4.61057">
        <ele>256.94135</ele>
        <time>2023-06-17T08:57:36.000Z</time>
      </trkpt>
      <trkpt lat="46.14029" lon="4.61065">
        <ele>256.93671</ele>
        <time>2023-06-17T08:57:37.000Z</time>
      </trkpt>
      <trkpt lat="46.14026" lon="4.61073">
        <ele>256.93057</ele>
        <time>2023-06-17T08:57:38.000Z</time>
      </trkpt>
      <trkpt lat="46.14023" lon="4.6108">
        <ele>256.69196</ele>
        <time>2023-06-17T08:57:39.000Z</time>
      </trkpt>
      <trkpt lat="46.14019" lon="4.61089">
        <ele>256.34586</ele>
        <time>2023-06-17T08:57:40.000Z</time>
      </trkpt>
      <trkpt lat="46.14016" lon="4.61097">
        <ele>255.9487</ele>
        <time>2023-06-17T08:57:41.000Z</time>
      </trkpt>
      <trkpt lat="46.14013" lon="4.61106">
        <ele>255.51779</ele>
        <time>2023-06-17T08:57:42.000Z</time>
      </trkpt>
      <trkpt lat="46.14009" lon="4.61114">
        <ele>255.535</ele>
        <time>2023-06-17T08:57:43.000Z</time>
      </trkpt>
      <trkpt lat="46.14005" lon="4.61122">
        <ele>255.46921</ele>
        <time>2023-06-17T08:57:44.000Z</time>
      </trkpt>
      <trkpt lat="46.14002" lon="4.61131">
        <ele>255.39424</ele>
        <time>2023-06-17T08:57:45.000Z</time>
      </trkpt>
      <trkpt lat="46.13999" lon="4.61139">
        <ele>255.33264</ele>
        <time>2023-06-17T08:57:46.000Z</time>
      </trkpt>
      <trkpt lat="46.13995" lon="4.61147">
        <ele>255.24121</ele>
        <time>2023-06-17T08:57:47.000Z</time>
      </trkpt>
      <trkpt lat="46.13992" lon="4.61155">
        <ele>255.18106</ele>
        <time>2023-06-17T08:57:48.000Z</time>
      </trkpt>
      <trkpt lat="46.13989" lon="4.61164">
        <ele>255.45317</ele>
        <time>2023-06-17T08:57:49.000Z</time>
      </trkpt>
      <trkpt lat="46.13986" lon="4.61172">
        <ele>255.73152</ele>
        <time>2023-06-17T08:57:50.000Z</time>
      </trkpt>
      <trkpt lat="46.13982" lon="4.61179">
        <ele>256.10876</ele>
        <time>2023-06-17T08:57:51.000Z</time>
      </trkpt>
      <trkpt lat="46.13979" lon="4.61187">
        <ele>255.99997</ele>
        <time>2023-06-17T08:57:52.000Z</time>
      </trkpt>
      <trkpt lat="46.13976" lon="4.61195">
        <ele>255.94467</ele>
        <time>2023-06-17T08:57:53.000Z</time>
      </trkpt>
      <trkpt lat="46.13972" lon="4.61203">
        <ele>255.87613</ele>
        <time>2023-06-17T08:57:54.000Z</time>
      </trkpt>
      <trkpt lat="46.13969" lon="4.61211">
        <ele>255.82483</ele>
        <time>2023-06-17T08:57:55.000Z</time>
      </trkpt>
      <trkpt lat="46.13965" lon="4.61219">
        <ele>255.76631</ele>
        <time>2023-06-17T08:57:56.000Z</time>
      </trkpt>
      <trkpt lat="46.13961" lon="4.61227">
        <ele>255.68631</ele>
        <time>2023-06-17T08:57:57.000Z</time>
      </trkpt>
      <trkpt lat="46.13958" lon="4.61235">
        <ele>255.59668</ele>
        <time>2023-06-17T08:57:58.000Z</time>
      </trkpt>
      <trkpt lat="46.13955" lon="4.61243">
        <ele>255.74194</ele>
        <time>2023-06-17T08:57:59.000Z</time>
      </trkpt>
      <trkpt lat="46.13952" lon="4.61252">
        <ele>256.03223</ele>
        <time>2023-06-17T08:58:00.000Z</time>
      </trkpt>
      <trkpt lat="46.13948" lon="4.6126">
        <ele>256.3768</ele>
        <time>2023-06-17T08:58:01.000Z</time>
      </trkpt>
      <trkpt lat="46.13944" lon="4.61269">
        <ele>256.73923</ele>
        <time>2023-06-17T08:58:02.000Z</time>
      </trkpt>
      <trkpt lat="46.13941" lon="4.61277">
        <ele>256.6478</ele>
        <time>2023-06-17T08:58:03.000Z</time>
      </trkpt>
      <trkpt lat="46.13936" lon="4.61284">
        <ele>256.59698</ele>
        <time>2023-06-17T08:58:04.000Z</time>
      </trkpt>
      <trkpt lat="46.13933" lon="4.61293">
        <ele>256.55298</ele>
        <time>2023-06-17T08:58:05.000Z</time>
      </trkpt>
      <trkpt lat="46.13929" lon="4.61302">
        <ele>256.4776</ele>
        <time>2023-06-17T08:58:06.000Z</time>
      </trkpt>
      <trkpt lat="46.13925" lon="4.6131">
        <ele>256.43286</ele>
        <time>2023-06-17T08:58:07.000Z</time>
      </trkpt>
      <trkpt lat="46.13921" lon="4.61318">
        <ele>256.36261</ele>
        <time>2023-06-17T08:58:08.000Z</time>
      </trkpt>
      <trkpt lat="46.13917" lon="4.61327">
        <ele>256.28888</ele>
        <time>2023-06-17T08:58:09.000Z</time>
      </trkpt>
      <trkpt lat="46.13913" lon="4.61335">
        <ele>256.25574</ele>
        <time>2023-06-17T08:58:10.000Z</time>
      </trkpt>
      <trkpt lat="46.1391" lon="4.61344">
        <ele>256.23349</ele>
        <time>2023-06-17T08:58:11.000Z</time>
      </trkpt>
      <trkpt lat="46.13905" lon="4.61351">
        <ele>256.17996</ele>
        <time>2023-06-17T08:58:12.000Z</time>
      </trkpt>
      <trkpt lat="46.13902" lon="4.61359">
        <ele>256.10831</ele>
        <time>2023-06-17T08:58:13.000Z</time>
      </trkpt>
      <trkpt lat="46.13898" lon="4.61367">
        <ele>256.04376</ele>
        <time>2023-06-17T08:58:14.000Z</time>
      </trkpt>
      <trkpt lat="46.13894" lon="4.61375">
        <ele>255.98032</ele>
        <time>2023-06-17T08:58:15.000Z</time>
      </trkpt>
      <trkpt lat="46.13891" lon="4.61383">
        <ele>255.95151</ele>
        <time>2023-06-17T08:58:16.000Z</time>
      </trkpt>
      <trkpt lat="46.13888" lon="4.6139">
        <ele>255.95938</ele>
        <time>2023-06-17T08:58:17.000Z</time>
      </trkpt>
      <trkpt lat="46.13884" lon="4.61397">
        <ele>255.98018</ele>
        <time>2023-06-17T08:58:18.000Z</time>
      </trkpt>
      <trkpt lat="46.1388" lon="4.61402">
        <ele>255.96579</ele>
        <time>2023-06-17T08:58:19.000Z</time>
      </trkpt>
      <trkpt lat="46.13876" lon="4.61409">
        <ele>255.87512</ele>
        <time>2023-06-17T08:58:20.000Z</time>
      </trkpt>
      <trkpt lat="46.13873" lon="4.61417">
        <ele>255.7887</ele>
        <time>2023-06-17T08:58:21.000Z</time>
      </trkpt>
      <trkpt lat="46.13869" lon="4.61425">
        <ele>255.71635</ele>
        <time>2023-06-17T08:58:22.000Z</time>
      </trkpt>
      <trkpt lat="46.13866" lon="4.61432">
        <ele>255.64413</ele>
        <time>2023-06-17T08:58:23.000Z</time>
      </trkpt>
      <trkpt lat="46.13862" lon="4.61439">
        <ele>255.59245</ele>
        <time>2023-06-17T08:58:24.000Z</time>
      </trkpt>
      <trkpt lat="46.13858" lon="4.61446">
        <ele>255.52983</ele>
        <time>2023-06-17T08:58:25.000Z</time>
      </trkpt>
      <trkpt lat="46.13855" lon="4.61452">
        <ele>255.48495</ele>
        <time>2023-06-17T08:58:26.000Z</time>
      </trkpt>
      <trkpt lat="46.13851" lon="4.6146">
        <ele>255.44913</ele>
        <time>2023-06-17T08:58:27.000Z</time>
      </trkpt>
      <trkpt lat="46.13848" lon="4.61467">
        <ele>255.39473</ele>
        <time>2023-06-17T08:58:28.000Z</time>
      </trkpt>
      <trkpt lat="46.13844" lon="4.61474">
        <ele>255.35893</ele>
        <time>2023-06-17T08:58:29.000Z</time>
      </trkpt>
      <trkpt lat="46.1384" lon="4.6148">
        <ele>255.27583</ele>
        <time>2023-06-17T08:58:30.000Z</time>
      </trkpt>
      <trkpt lat="46.13835" lon="4.61487">
        <ele>255.16512</ele>
        <time>2023-06-17T08:58:31.000Z</time>
      </trkpt>
      <trkpt lat="46.13832" lon="4.61494">
        <ele>255.09067</ele>
        <time>2023-06-17T08:58:32.000Z</time>
      </trkpt>
      <trkpt lat="46.13828" lon="4.61502">
        <ele>255.01083</ele>
        <time>2023-06-17T08:58:33.000Z</time>
      </trkpt>
      <trkpt lat="46.13823" lon="4.6151">
        <ele>254.9169</ele>
        <time>2023-06-17T08:58:34.000Z</time>
      </trkpt>
      <trkpt lat="46.13818" lon="4.61517">
        <ele>254.8149</ele>
        <time>2023-06-17T08:58:35.000Z</time>
      </trkpt>
      <trkpt lat="46.13814" lon="4.61524">
        <ele>254.69511</ele>
        <time>2023-06-17T08:58:36.000Z</time>
      </trkpt>
      <trkpt lat="46.13809" lon="4.61532">
        <ele>254.55844</ele>
        <time>2023-06-17T08:58:37.000Z</time>
      </trkpt>
      <trkpt lat="46.13805" lon="4.61539">
        <ele>254.43253</ele>
        <time>2023-06-17T08:58:38.000Z</time>
      </trkpt>
      <trkpt lat="46.13801" lon="4.61547">
        <ele>254.32974</ele>
        <time>2023-06-17T08:58:39.000Z</time>
      </trkpt>
      <trkpt lat="46.13797" lon="4.61555">
        <ele>254.27194</ele>
        <time>2023-06-17T08:58:40.000Z</time>
      </trkpt>
      <trkpt lat="46.13793" lon="4.61562">
        <ele>254.20474</ele>
        <time>2023-06-17T08:58:41.000Z</time>
      </trkpt>
      <trkpt lat="46.13788" lon="4.61569">
        <ele>254.118</ele>
        <time>2023-06-17T08:58:42.000Z</time>
      </trkpt>
      <trkpt lat="46.13784" lon="4.61577">
        <ele>254.02539</ele>
        <time>2023-06-17T08:58:43.000Z</time>
      </trkpt>
      <trkpt lat="46.13779" lon="4.61585">
        <ele>253.94119</ele>
        <time>2023-06-17T08:58:44.000Z</time>
      </trkpt>
      <trkpt lat="46.13774" lon="4.61593">
        <ele>253.87366</ele>
        <time>2023-06-17T08:58:45.000Z</time>
      </trkpt>
      <trkpt lat="46.1377" lon="4.616">
        <ele>253.61752</ele>
        <time>2023-06-17T08:58:46.000Z</time>
      </trkpt>
      <trkpt lat="46.13765" lon="4.61608">
        <ele>253.36092</ele>
        <time>2023-06-17T08:58:47.000Z</time>
      </trkpt>
      <trkpt lat="46.13761" lon="4.61616">
        <ele>253.12801</ele>
        <time>2023-06-17T08:58:48.000Z</time>
      </trkpt>
      <trkpt lat="46.13757" lon="4.61622">
        <ele>252.88742</ele>
        <time>2023-06-17T08:58:49.000Z</time>
      </trkpt>
      <trkpt lat="46.13752" lon="4.61629">
        <ele>252.5247</ele>
        <time>2023-06-17T08:58:50.000Z</time>
      </trkpt>
      <trkpt lat="46.13747" lon="4.61636">
        <ele>252.58076</ele>
        <time>2023-06-17T08:58:51.000Z</time>
      </trkpt>
      <trkpt lat="46.13742" lon="4.61644">
        <ele>252.54085</ele>
        <time>2023-06-17T08:58:52.000Z</time>
      </trkpt>
      <trkpt lat="46.13737" lon="4.6165">
        <ele>252.49124</ele>
        <time>2023-06-17T08:58:53.000Z</time>
      </trkpt>
      <trkpt lat="46.13732" lon="4.61658">
        <ele>252.45581</ele>
        <time>2023-06-17T08:58:54.000Z</time>
      </trkpt>
      <trkpt lat="46.13728" lon="4.61665">
        <ele>252.4521</ele>
        <time>2023-06-17T08:58:55.000Z</time>
      </trkpt>
      <trkpt lat="46.13723" lon="4.61672">
        <ele>252.43103</ele>
        <time>2023-06-17T08:58:56.000Z</time>
      </trkpt>
      <trkpt lat="46.13718" lon="4.6168">
        <ele>252.40198</ele>
        <time>2023-06-17T08:58:57.000Z</time>
      </trkpt>
      <trkpt lat="46.13713" lon="4.61687">
        <ele>252.36755</ele>
        <time>2023-06-17T08:58:58.000Z</time>
      </trkpt>
      <trkpt lat="46.13708" lon="4.61694">
        <ele>252.32617</ele>
        <time>2023-06-17T08:58:59.000Z</time>
      </trkpt>
      <trkpt lat="46.13704" lon="4.61702">
        <ele>252.11836</ele>
        <time>2023-06-17T08:59:00.000Z</time>
      </trkpt>
      <trkpt lat="46.13699" lon="4.61709">
        <ele>251.79568</ele>
        <time>2023-06-17T08:59:01.000Z</time>
      </trkpt>
      <trkpt lat="46.13695" lon="4.61716">
        <ele>251.46997</ele>
        <time>2023-06-17T08:59:02.000Z</time>
      </trkpt>
      <trkpt lat="46.13689" lon="4.61723">
        <ele>251.5697</ele>
        <time>2023-06-17T08:59:03.000Z</time>
      </trkpt>
      <trkpt lat="46.13685" lon="4.61731">
        <ele>251.59445</ele>
        <time>2023-06-17T08:59:04.000Z</time>
      </trkpt>
      <trkpt lat="46.1368" lon="4.61738">
        <ele>251.61063</ele>
        <time>2023-06-17T08:59:05.000Z</time>
      </trkpt>
      <trkpt lat="46.13675" lon="4.61745">
        <ele>251.79028</ele>
        <time>2023-06-17T08:59:06.000Z</time>
      </trkpt>
      <trkpt lat="46.1367" lon="4.61752">
        <ele>251.9657</ele>
        <time>2023-06-17T08:59:07.000Z</time>
      </trkpt>
      <trkpt lat="46.13665" lon="4.6176">
        <ele>252.12639</ele>
        <time>2023-06-17T08:59:08.000Z</time>
      </trkpt>
      <trkpt lat="46.1366" lon="4.61767">
        <ele>252.13181</ele>
        <time>2023-06-17T08:59:09.000Z</time>
      </trkpt>
      <trkpt lat="46.13654" lon="4.61774">
        <ele>252.3851</ele>
        <time>2023-06-17T08:59:10.000Z</time>
      </trkpt>
      <trkpt lat="46.13649" lon="4.61782">
        <ele>252.23904</ele>
        <time>2023-06-17T08:59:11.000Z</time>
      </trkpt>
      <trkpt lat="46.13644" lon="4.6179">
        <ele>252.168</ele>
        <time>2023-06-17T08:59:12.000Z</time>
      </trkpt>
      <trkpt lat="46.13639" lon="4.61798">
        <ele>252.1106</ele>
        <time>2023-06-17T08:59:13.000Z</time>
      </trkpt>
      <trkpt lat="46.13634" lon="4.61806">
        <ele>252.06499</ele>
        <time>2023-06-17T08:59:14.000Z</time>
      </trkpt>
      <trkpt lat="46.13628" lon="4.61814">
        <ele>252.00725</ele>
        <time>2023-06-17T08:59:15.000Z</time>
      </trkpt>
      <trkpt lat="46.13624" lon="4.61822">
        <ele>251.96297</ele>
        <time>2023-06-17T08:59:16.000Z</time>
      </trkpt>
      <trkpt lat="46.13618" lon="4.61829">
        <ele>251.93057</ele>
        <time>2023-06-17T08:59:17.000Z</time>
      </trkpt>
      <trkpt lat="46.13613" lon="4.61837">
        <ele>251.90584</ele>
        <time>2023-06-17T08:59:18.000Z</time>
      </trkpt>
      <trkpt lat="46.13607" lon="4.61845">
        <ele>251.89706</ele>
        <time>2023-06-17T08:59:19.000Z</time>
      </trkpt>
      <trkpt lat="46.13602" lon="4.61852">
        <ele>252.05017</ele>
        <time>2023-06-17T08:59:20.000Z</time>
      </trkpt>
      <trkpt lat="46.13597" lon="4.6186">
        <ele>252.32608</ele>
        <time>2023-06-17T08:59:21.000Z</time>
      </trkpt>
      <trkpt lat="46.13591" lon="4.61867">
        <ele>252.61333</ele>
        <time>2023-06-17T08:59:22.000Z</time>
      </trkpt>
      <trkpt lat="46.13587" lon="4.61875">
        <ele>252.48691</ele>
        <time>2023-06-17T08:59:23.000Z</time>
      </trkpt>
      <trkpt lat="46.13582" lon="4.61883">
        <ele>252.42639</ele>
        <time>2023-06-17T08:59:24.000Z</time>
      </trkpt>
      <trkpt lat="46.13577" lon="4.6189">
        <ele>252.36633</ele>
        <time>2023-06-17T08:59:25.000Z</time>
      </trkpt>
      <trkpt lat="46.13572" lon="4.61898">
        <ele>252.32991</ele>
        <time>2023-06-17T08:59:26.000Z</time>
      </trkpt>
      <trkpt lat="46.13567" lon="4.61906">
        <ele>252.2769</ele>
        <time>2023-06-17T08:59:27.000Z</time>
      </trkpt>
      <trkpt lat="46.13562" lon="4.61913">
        <ele>252.21976</ele>
        <time>2023-06-17T08:59:28.000Z</time>
      </trkpt>
      <trkpt lat="46.13557" lon="4.6192">
        <ele>252.3145</ele>
        <time>2023-06-17T08:59:29.000Z</time>
      </trkpt>
      <trkpt lat="46.13552" lon="4.61927">
        <ele>252.293</ele>
        <time>2023-06-17T08:59:30.000Z</time>
      </trkpt>
      <trkpt lat="46.13547" lon="4.61935">
        <ele>252.27205</ele>
        <time>2023-06-17T08:59:31.000Z</time>
      </trkpt>
      <trkpt lat="46.13542" lon="4.61943">
        <ele>252.24753</ele>
        <time>2023-06-17T08:59:32.000Z</time>
      </trkpt>
      <trkpt lat="46.13537" lon="4.6195">
        <ele>252.04044</ele>
        <time>2023-06-17T08:59:33.000Z</time>
      </trkpt>
      <trkpt lat="46.13532" lon="4.61957">
        <ele>251.67619</ele>
        <time>2023-06-17T08:59:34.000Z</time>
      </trkpt>
      <trkpt lat="46.13527" lon="4.61964">
        <ele>251.29819</ele>
        <time>2023-06-17T08:59:35.000Z</time>
      </trkpt>
      <trkpt lat="46.13521" lon="4.61972">
        <ele>251.3044</ele>
        <time>2023-06-17T08:59:36.000Z</time>
      </trkpt>
      <trkpt lat="46.13517" lon="4.6198">
        <ele>251.24316</ele>
        <time>2023-06-17T08:59:37.000Z</time>
      </trkpt>
      <trkpt lat="46.13512" lon="4.61986">
        <ele>251.16104</ele>
        <time>2023-06-17T08:59:38.000Z</time>
      </trkpt>
      <trkpt lat="46.13506" lon="4.61994">
        <ele>251.07715</ele>
        <time>2023-06-17T08:59:39.000Z</time>
      </trkpt>
      <trkpt lat="46.13502" lon="4.62001">
        <ele>250.97507</ele>
        <time>2023-06-17T08:59:40.000Z</time>
      </trkpt>
      <trkpt lat="46.13497" lon="4.62008">
        <ele>250.88416</ele>
        <time>2023-06-17T08:59:41.000Z</time>
      </trkpt>
      <trkpt lat="46.13492" lon="4.62016">
        <ele>250.7988</ele>
        <time>2023-06-17T08:59:42.000Z</time>
      </trkpt>
      <trkpt lat="46.13487" lon="4.62023">
        <ele>250.72134</ele>
        <time>2023-06-17T08:59:43.000Z</time>
      </trkpt>
      <trkpt lat="46.13482" lon="4.62031">
        <ele>250.65276</ele>
        <time>2023-06-17T08:59:44.000Z</time>
      </trkpt>
      <trkpt lat="46.13478" lon="4.62039">
        <ele>250.58452</ele>
        <time>2023-06-17T08:59:45.000Z</time>
      </trkpt>
      <trkpt lat="46.13472" lon="4.62046">
        <ele>250.51643</ele>
        <time>2023-06-17T08:59:46.000Z</time>
      </trkpt>
      <trkpt lat="46.13467" lon="4.62053">
        <ele>250.47981</ele>
        <time>2023-06-17T08:59:47.000Z</time>
      </trkpt>
      <trkpt lat="46.13462" lon="4.62061">
        <ele>250.44185</ele>
        <time>2023-06-17T08:59:48.000Z</time>
      </trkpt>
      <trkpt lat="46.13456" lon="4.62069">
        <ele>250.37935</ele>
        <time>2023-06-17T08:59:49.000Z</time>
      </trkpt>
      <trkpt lat="46.13451" lon="4.62075">
        <ele>250.30798</ele>
        <time>2023-06-17T08:59:50.000Z</time>
      </trkpt>
      <trkpt lat="46.13445" lon="4.62083">
        <ele>250.23994</ele>
        <time>2023-06-17T08:59:51.000Z</time>
      </trkpt>
      <trkpt lat="46.1344" lon="4.62091">
        <ele>250.18794</ele>
        <time>2023-06-17T08:59:52.000Z</time>
      </trkpt>
      <trkpt lat="46.13436" lon="4.62098">
        <ele>250.32698</ele>
        <time>2023-06-17T08:59:53.000Z</time>
      </trkpt>
      <trkpt lat="46.13431" lon="4.62105">
        <ele>250.61069</ele>
        <time>2023-06-17T08:59:54.000Z</time>
      </trkpt>
      <trkpt lat="46.13426" lon="4.62113">
        <ele>250.88228</ele>
        <time>2023-06-17T08:59:55.000Z</time>
      </trkpt>
      <trkpt lat="46.1342" lon="4.6212">
        <ele>250.76299</ele>
        <time>2023-06-17T08:59:56.000Z</time>
      </trkpt>
      <trkpt lat="46.13415" lon="4.62128">
        <ele>250.70975</ele>
        <time>2023-06-17T08:59:57.000Z</time>
      </trkpt>
      <trkpt lat="46.13411" lon="4.62135">
        <ele>250.63481</ele>
        <time>2023-06-17T08:59:58.000Z</time>
      </trkpt>
      <trkpt lat="46.13405" lon="4.62142">
        <ele>250.53252</ele>
        <time>2023-06-17T08:59:59.000Z</time>
      </trkpt>
      <trkpt lat="46.13401" lon="4.6215">
        <ele>250.44034</ele>
        <time>2023-06-17T09:00:00.000Z</time>
      </trkpt>
      <trkpt lat="46.13395" lon="4.62157">
        <ele>250.33521</ele>
        <time>2023-06-17T09:00:01.000Z</time>
      </trkpt>
      <trkpt lat="46.1339" lon="4.62165">
        <ele>250.22379</ele>
        <time>2023-06-17T09:00:02.000Z</time>
      </trkpt>
      <trkpt lat="46.13385" lon="4.62172">
        <ele>250.11075</ele>
        <time>2023-06-17T09:00:03.000Z</time>
      </trkpt>
      <trkpt lat="46.1338" lon="4.62181">
        <ele>249.98935</ele>
        <time>2023-06-17T09:00:04.000Z</time>
      </trkpt>
      <trkpt lat="46.13374" lon="4.62188">
        <ele>249.86423</ele>
        <time>2023-06-17T09:00:05.000Z</time>
      </trkpt>
      <trkpt lat="46.1337" lon="4.62195">
        <ele>249.71924</ele>
        <time>2023-06-17T09:00:06.000Z</time>
      </trkpt>
      <trkpt lat="46.13365" lon="4.62202">
        <ele>249.57162</ele>
        <time>2023-06-17T09:00:07.000Z</time>
      </trkpt>
      <trkpt lat="46.1336" lon="4.62211">
        <ele>249.43872</ele>
        <time>2023-06-17T09:00:08.000Z</time>
      </trkpt>
      <trkpt lat="46.13356" lon="4.62218">
        <ele>249.36182</ele>
        <time>2023-06-17T09:00:09.000Z</time>
      </trkpt>
      <trkpt lat="46.13351" lon="4.62226">
        <ele>249.31328</ele>
        <time>2023-06-17T09:00:10.000Z</time>
      </trkpt>
      <trkpt lat="46.13346" lon="4.62234">
        <ele>249.25325</ele>
        <time>2023-06-17T09:00:11.000Z</time>
      </trkpt>
      <trkpt lat="46.1334" lon="4.62242">
        <ele>249.21526</ele>
        <time>2023-06-17T09:00:12.000Z</time>
      </trkpt>
      <trkpt lat="46.13335" lon="4.6225">
        <ele>249.2009</ele>
        <time>2023-06-17T09:00:13.000Z</time>
      </trkpt>
      <trkpt lat="46.13331" lon="4.62257">
        <ele>249.1956</ele>
        <time>2023-06-17T09:00:14.000Z</time>
      </trkpt>
      <trkpt lat="46.13326" lon="4.62265">
        <ele>249.20386</ele>
        <time>2023-06-17T09:00:15.000Z</time>
      </trkpt>
      <trkpt lat="46.1332" lon="4.6227">
        <ele>249.16704</ele>
        <time>2023-06-17T09:00:16.000Z</time>
      </trkpt>
      <trkpt lat="46.13316" lon="4.62278">
        <ele>249.12271</ele>
        <time>2023-06-17T09:00:17.000Z</time>
      </trkpt>
      <trkpt lat="46.13311" lon="4.62285">
        <ele>249.13791</ele>
        <time>2023-06-17T09:00:18.000Z</time>
      </trkpt>
      <trkpt lat="46.13306" lon="4.62292">
        <ele>249.18623</ele>
        <time>2023-06-17T09:00:19.000Z</time>
      </trkpt>
      <trkpt lat="46.13302" lon="4.62299">
        <ele>249.23698</ele>
        <time>2023-06-17T09:00:20.000Z</time>
      </trkpt>
      <trkpt lat="46.13298" lon="4.62305">
        <ele>249.25974</ele>
        <time>2023-06-17T09:00:21.000Z</time>
      </trkpt>
      <trkpt lat="46.13294" lon="4.62312">
        <ele>249.25688</ele>
        <time>2023-06-17T09:00:22.000Z</time>
      </trkpt>
      <trkpt lat="46.13289" lon="4.62319">
        <ele>249.26868</ele>
        <time>2023-06-17T09:00:23.000Z</time>
      </trkpt>
      <trkpt lat="46.13283" lon="4.62326">
        <ele>249.25964</ele>
        <time>2023-06-17T09:00:24.000Z</time>
      </trkpt>
      <trkpt lat="46.13279" lon="4.62333">
        <ele>249.27397</ele>
        <time>2023-06-17T09:00:25.000Z</time>
      </trkpt>
      <trkpt lat="46.13274" lon="4.6234">
        <ele>249.23837</ele>
        <time>2023-06-17T09:00:26.000Z</time>
      </trkpt>
      <trkpt lat="46.13269" lon="4.62348">
        <ele>249.02444</ele>
        <time>2023-06-17T09:00:27.000Z</time>
      </trkpt>
      <trkpt lat="46.13263" lon="4.62354">
        <ele>248.71008</ele>
        <time>2023-06-17T09:00:28.000Z</time>
      </trkpt>
      <trkpt lat="46.13258" lon="4.62361">
        <ele>248.35796</ele>
        <time>2023-06-17T09:00:29.000Z</time>
      </trkpt>
      <trkpt lat="46.13253" lon="4.62369">
        <ele>248.37589</ele>
        <time>2023-06-17T09:00:30.000Z</time>
      </trkpt>
      <trkpt lat="46.13247" lon="4.62377">
        <ele>248.31917</ele>
        <time>2023-06-17T09:00:31.000Z</time>
      </trkpt>
      <trkpt lat="46.13241" lon="4.62383">
        <ele>248.25371</ele>
        <time>2023-06-17T09:00:32.000Z</time>
      </trkpt>
      <trkpt lat="46.13236" lon="4.6239">
        <ele>248.19348</ele>
        <time>2023-06-17T09:00:33.000Z</time>
      </trkpt>
      <trkpt lat="46.13231" lon="4.62397">
        <ele>248.14493</ele>
        <time>2023-06-17T09:00:34.000Z</time>
      </trkpt>
      <trkpt lat="46.13227" lon="4.62405">
        <ele>248.0759</ele>
        <time>2023-06-17T09:00:35.000Z</time>
      </trkpt>
      <trkpt lat="46.13222" lon="4.62412">
        <ele>248.07671</ele>
        <time>2023-06-17T09:00:36.000Z</time>
      </trkpt>
      <trkpt lat="46.13217" lon="4.6242">
        <ele>248.0784</ele>
        <time>2023-06-17T09:00:37.000Z</time>
      </trkpt>
      <trkpt lat="46.13212" lon="4.62428">
        <ele>248.05151</ele>
        <time>2023-06-17T09:00:38.000Z</time>
      </trkpt>
      <trkpt lat="46.13208" lon="4.62436">
        <ele>248.00562</ele>
        <time>2023-06-17T09:00:39.000Z</time>
      </trkpt>
      <trkpt lat="46.13203" lon="4.62443">
        <ele>247.94756</ele>
        <time>2023-06-17T09:00:40.000Z</time>
      </trkpt>
      <trkpt lat="46.13198" lon="4.62451">
        <ele>247.91296</ele>
        <time>2023-06-17T09:00:41.000Z</time>
      </trkpt>
      <trkpt lat="46.13193" lon="4.62458">
        <ele>247.89218</ele>
        <time>2023-06-17T09:00:42.000Z</time>
      </trkpt>
      <trkpt lat="46.13188" lon="4.62465">
        <ele>247.85469</ele>
        <time>2023-06-17T09:00:43.000Z</time>
      </trkpt>
      <trkpt lat="46.13183" lon="4.62473">
        <ele>247.86313</ele>
        <time>2023-06-17T09:00:44.000Z</time>
      </trkpt>
      <trkpt lat="46.13178" lon="4.6248">
        <ele>247.86276</ele>
        <time>2023-06-17T09:00:45.000Z</time>
      </trkpt>
      <trkpt lat="46.13172" lon="4.62486">
        <ele>247.89066</ele>
        <time>2023-06-17T09:00:46.000Z</time>
      </trkpt>
      <trkpt lat="46.13168" lon="4.62493">
        <ele>248.08102</ele>
        <time>2023-06-17T09:00:47.000Z</time>
      </trkpt>
      <trkpt lat="46.13163" lon="4.62499">
        <ele>248.35562</ele>
        <time>2023-06-17T09:00:48.000Z</time>
      </trkpt>
      <trkpt lat="46.13159" lon="4.62506">
        <ele>248.63567</ele>
        <time>2023-06-17T09:00:49.000Z</time>
      </trkpt>
      <trkpt lat="46.13155" lon="4.62513">
        <ele>248.51595</ele>
        <time>2023-06-17T09:00:50.000Z</time>
      </trkpt>
      <trkpt lat="46.13152" lon="4.62519">
        <ele>248.47319</ele>
        <time>2023-06-17T09:00:51.000Z</time>
      </trkpt>
      <trkpt lat="46.13148" lon="4.62525">
        <ele>248.40727</ele>
        <time>2023-06-17T09:00:52.000Z</time>
      </trkpt>
      <trkpt lat="46.13144" lon="4.62531">
        <ele>248.3009</ele>
        <time>2023-06-17T09:00:53.000Z</time>
      </trkpt>
      <trkpt lat="46.1314" lon="4.62536">
        <ele>248.19109</ele>
        <time>2023-06-17T09:00:54.000Z</time>
      </trkpt>
      <trkpt lat="46.13136" lon="4.62542">
        <ele>248.10843</ele>
        <time>2023-06-17T09:00:55.000Z</time>
      </trkpt>
      <trkpt lat="46.13132" lon="4.62548">
        <ele>248.04208</ele>
        <time>2023-06-17T09:00:56.000Z</time>
      </trkpt>
      <trkpt lat="46.13128" lon="4.62553">
        <ele>247.98975</ele>
        <time>2023-06-17T09:00:57.000Z</time>
      </trkpt>
      <trkpt lat="46.13124" lon="4.6256">
        <ele>247.93559</ele>
        <time>2023-06-17T09:00:58.000Z</time>
      </trkpt>
      <trkpt lat="46.1312" lon="4.62565">
        <ele>247.08432</ele>
        <time>2023-06-17T09:00:59.000Z</time>
      </trkpt>
      <trkpt lat="46.13116" lon="4.62571">
        <ele>247.05872</ele>
        <time>2023-06-17T09:01:00.000Z</time>
      </trkpt>
      <trkpt lat="46.13112" lon="4.62578">
        <ele>246.98819</ele>
        <time>2023-06-17T09:01:01.000Z</time>
      </trkpt>
      <trkpt lat="46.13108" lon="4.62584">
        <ele>246.9425</ele>
        <time>2023-06-17T09:01:02.000Z</time>
      </trkpt>
      <trkpt lat="46.13104" lon="4.6259">
        <ele>246.8967</ele>
        <time>2023-06-17T09:01:03.000Z</time>
      </trkpt>
      <trkpt lat="46.131" lon="4.62597">
        <ele>246.8177</ele>
        <time>2023-06-17T09:01:04.000Z</time>
      </trkpt>
      <trkpt lat="46.13095" lon="4.62605">
        <ele>246.72307</ele>
        <time>2023-06-17T09:01:05.000Z</time>
      </trkpt>
      <trkpt lat="46.13091" lon="4.62611">
        <ele>246.67422</ele>
        <time>2023-06-17T09:01:06.000Z</time>
      </trkpt>
      <trkpt lat="46.13086" lon="4.62619">
        <ele>246.60513</ele>
        <time>2023-06-17T09:01:07.000Z</time>
      </trkpt>
      <trkpt lat="46.13082" lon="4.62626">
        <ele>246.52705</ele>
        <time>2023-06-17T09:01:08.000Z</time>
      </trkpt>
      <trkpt lat="46.13077" lon="4.62634">
        <ele>246.43657</ele>
        <time>2023-06-17T09:01:09.000Z</time>
      </trkpt>
      <trkpt lat="46.13073" lon="4.62641">
        <ele>246.36516</ele>
        <time>2023-06-17T09:01:10.000Z</time>
      </trkpt>
      <trkpt lat="46.13068" lon="4.62648">
        <ele>246.27344</ele>
        <time>2023-06-17T09:01:11.000Z</time>
      </trkpt>
      <trkpt lat="46.13064" lon="4.62654">
        <ele>246.20467</ele>
        <time>2023-06-17T09:01:12.000Z</time>
      </trkpt>
      <trkpt lat="46.13059" lon="4.62662">
        <ele>246.13086</ele>
        <time>2023-06-17T09:01:13.000Z</time>
      </trkpt>
      <trkpt lat="46.13054" lon="4.62669">
        <ele>245.78262</ele>
        <time>2023-06-17T09:01:14.000Z</time>
      </trkpt>
      <trkpt lat="46.13049" lon="4.62676">
        <ele>245.31482</ele>
        <time>2023-06-17T09:01:15.000Z</time>
      </trkpt>
      <trkpt lat="46.13045" lon="4.62683">
        <ele>244.82114</ele>
        <time>2023-06-17T09:01:16.000Z</time>
      </trkpt>
      <trkpt lat="46.1304" lon="4.6269">
        <ele>244.32185</ele>
        <time>2023-06-17T09:01:17.000Z</time>
      </trkpt>
      <trkpt lat="46.13035" lon="4.62697">
        <ele>244.02298</ele>
        <time>2023-06-17T09:01:18.000Z</time>
      </trkpt>
      <trkpt lat="46.13031" lon="4.62705">
        <ele>244.5367</ele>
        <time>2023-06-17T09:01:19.000Z</time>
      </trkpt>
      <trkpt lat="46.13027" lon="4.62712">
        <ele>244.12813</ele>
        <time>2023-06-17T09:01:20.000Z</time>
      </trkpt>
      <trkpt lat="46.13022" lon="4.6272">
        <ele>244.05806</ele>
        <time>2023-06-17T09:01:21.000Z</time>
      </trkpt>
      <trkpt lat="46.13017" lon="4.62728">
        <ele>243.91928</ele>
        <time>2023-06-17T09:01:22.000Z</time>
      </trkpt>
      <trkpt lat="46.13012" lon="4.62736">
        <ele>243.75986</ele>
        <time>2023-06-17T09:01:23.000Z</time>
      </trkpt>
      <trkpt lat="46.13008" lon="4.62743">
        <ele>243.6125</ele>
        <time>2023-06-17T09:01:24.000Z</time>
      </trkpt>
      <trkpt lat="46.13003" lon="4.62751">
        <ele>243.4836</ele>
        <time>2023-06-17T09:01:25.000Z</time>
      </trkpt>
      <trkpt lat="46.12998" lon="4.62758">
        <ele>243.35098</ele>
        <time>2023-06-17T09:01:26.000Z</time>
      </trkpt>
      <trkpt lat="46.12994" lon="4.62766">
        <ele>243.23547</ele>
        <time>2023-06-17T09:01:27.000Z</time>
      </trkpt>
      <trkpt lat="46.12989" lon="4.62772">
        <ele>243.10629</ele>
        <time>2023-06-17T09:01:28.000Z</time>
      </trkpt>
      <trkpt lat="46.12983" lon="4.62779">
        <ele>242.96819</ele>
        <time>2023-06-17T09:01:29.000Z</time>
      </trkpt>
      <trkpt lat="46.12979" lon="4.62786">
        <ele>242.84778</ele>
        <time>2023-06-17T09:01:30.000Z</time>
      </trkpt>
      <trkpt lat="46.12974" lon="4.62793">
        <ele>242.72635</ele>
        <time>2023-06-17T09:01:31.000Z</time>
      </trkpt>
      <trkpt lat="46.12969" lon="4.62801">
        <ele>242.55411</ele>
        <time>2023-06-17T09:01:32.000Z</time>
      </trkpt>
      <trkpt lat="46.12964" lon="4.62809">
        <ele>242.40869</ele>
        <time>2023-06-17T09:01:33.000Z</time>
      </trkpt>
      <trkpt lat="46.12959" lon="4.62816">
        <ele>242.52042</ele>
        <time>2023-06-17T09:01:34.000Z</time>
      </trkpt>
      <trkpt lat="46.12955" lon="4.62823">
        <ele>242.75223</ele>
        <time>2023-06-17T09:01:35.000Z</time>
      </trkpt>
      <trkpt lat="46.1295" lon="4.6283">
        <ele>243.00302</ele>
        <time>2023-06-17T09:01:36.000Z</time>
      </trkpt>
      <trkpt lat="46.12946" lon="4.62837">
        <ele>243.26297</ele>
        <time>2023-06-17T09:01:37.000Z</time>
      </trkpt>
      <trkpt lat="46.12941" lon="4.62845">
        <ele>243.33623</ele>
        <time>2023-06-17T09:01:38.000Z</time>
      </trkpt>
      <trkpt lat="46.12936" lon="4.62852">
        <ele>243.4106</ele>
        <time>2023-06-17T09:01:39.000Z</time>
      </trkpt>
      <trkpt lat="46.12931" lon="4.6286">
        <ele>243.59238</ele>
        <time>2023-06-17T09:01:40.000Z</time>
      </trkpt>
      <trkpt lat="46.12926" lon="4.62868">
        <ele>243.45303</ele>
        <time>2023-06-17T09:01:41.000Z</time>
      </trkpt>
      <trkpt lat="46.12921" lon="4.62875">
        <ele>243.36726</ele>
        <time>2023-06-17T09:01:42.000Z</time>
      </trkpt>
      <trkpt lat="46.12916" lon="4.62883">
        <ele>243.29379</ele>
        <time>2023-06-17T09:01:43.000Z</time>
      </trkpt>
      <trkpt lat="46.12911" lon="4.6289">
        <ele>243.22884</ele>
        <time>2023-06-17T09:01:44.000Z</time>
      </trkpt>
      <trkpt lat="46.12907" lon="4.62897">
        <ele>243.14096</ele>
        <time>2023-06-17T09:01:45.000Z</time>
      </trkpt>
      <trkpt lat="46.12902" lon="4.62905">
        <ele>243.04349</ele>
        <time>2023-06-17T09:01:46.000Z</time>
      </trkpt>
      <trkpt lat="46.12898" lon="4.62912">
        <ele>242.96729</ele>
        <time>2023-06-17T09:01:47.000Z</time>
      </trkpt>
      <trkpt lat="46.12894" lon="4.6292">
        <ele>242.91618</ele>
        <time>2023-06-17T09:01:48.000Z</time>
      </trkpt>
      <trkpt lat="46.12889" lon="4.62928">
        <ele>242.76633</ele>
        <time>2023-06-17T09:01:49.000Z</time>
      </trkpt>
      <trkpt lat="46.12885" lon="4.62935">
        <ele>242.49692</ele>
        <time>2023-06-17T09:01:50.000Z</time>
      </trkpt>
      <trkpt lat="46.1288" lon="4.62942">
        <ele>242.53018</ele>
        <time>2023-06-17T09:01:51.000Z</time>
      </trkpt>
      <trkpt lat="46.12876" lon="4.62948">
        <ele>242.55356</ele>
        <time>2023-06-17T09:01:52.000Z</time>
      </trkpt>
      <trkpt lat="46.12871" lon="4.62955">
        <ele>242.56131</ele>
        <time>2023-06-17T09:01:53.000Z</time>
      </trkpt>
      <trkpt lat="46.12867" lon="4.62963">
        <ele>242.5553</ele>
        <time>2023-06-17T09:01:54.000Z</time>
      </trkpt>
      <trkpt lat="46.12862" lon="4.62969">
        <ele>242.53259</ele>
        <time>2023-06-17T09:01:55.000Z</time>
      </trkpt>
      <trkpt lat="46.12858" lon="4.62977">
        <ele>242.50041</ele>
        <time>2023-06-17T09:01:56.000Z</time>
      </trkpt>
      <trkpt lat="46.12853" lon="4.62983">
        <ele>242.23445</ele>
        <time>2023-06-17T09:01:57.000Z</time>
      </trkpt>
      <trkpt lat="46.12849" lon="4.62989">
        <ele>241.9023</ele>
        <time>2023-06-17T09:01:58.000Z</time>
      </trkpt>
      <trkpt lat="46.12844" lon="4.62997">
        <ele>241.7074</ele>
        <time>2023-06-17T09:01:59.000Z</time>
      </trkpt>
      <trkpt lat="46.1284" lon="4.63004">
        <ele>241.43684</ele>
        <time>2023-06-17T09:02:00.000Z</time>
      </trkpt>
      <trkpt lat="46.12836" lon="4.6301">
        <ele>241.18965</ele>
        <time>2023-06-17T09:02:01.000Z</time>
      </trkpt>
      <trkpt lat="46.12831" lon="4.63018">
        <ele>240.95532</ele>
        <time>2023-06-17T09:02:02.000Z</time>
      </trkpt>
      <trkpt lat="46.12826" lon="4.63024">
        <ele>240.99637</ele>
        <time>2023-06-17T09:02:03.000Z</time>
      </trkpt>
      <trkpt lat="46.12821" lon="4.63032">
        <ele>240.96652</ele>
        <time>2023-06-17T09:02:04.000Z</time>
      </trkpt>
      <trkpt lat="46.12817" lon="4.63039">
        <ele>240.95334</ele>
        <time>2023-06-17T09:02:05.000Z</time>
      </trkpt>
      <trkpt lat="46.12812" lon="4.63047">
        <ele>240.94292</ele>
        <time>2023-06-17T09:02:06.000Z</time>
      </trkpt>
      <trkpt lat="46.12808" lon="4.63054">
        <ele>240.92439</ele>
        <time>2023-06-17T09:02:07.000Z</time>
      </trkpt>
      <trkpt lat="46.12803" lon="4.63061">
        <ele>240.93469</ele>
        <time>2023-06-17T09:02:08.000Z</time>
      </trkpt>
      <trkpt lat="46.12799" lon="4.63069">
        <ele>241.07182</ele>
        <time>2023-06-17T09:02:09.000Z</time>
      </trkpt>
      <trkpt lat="46.12794" lon="4.63077">
        <ele>241.31165</ele>
        <time>2023-06-17T09:02:10.000Z</time>
      </trkpt>
      <trkpt lat="46.1279" lon="4.63083">
        <ele>241.26741</ele>
        <time>2023-06-17T09:02:11.000Z</time>
      </trkpt>
      <trkpt lat="46.12786" lon="4.63091">
        <ele>241.25598</ele>
        <time>2023-06-17T09:02:12.000Z</time>
      </trkpt>
      <trkpt lat="46.12782" lon="4.63098">
        <ele>241.23027</ele>
        <time>2023-06-17T09:02:13.000Z</time>
      </trkpt>
      <trkpt lat="46.12777" lon="4.63106">
        <ele>241.21931</ele>
        <time>2023-06-17T09:02:14.000Z</time>
      </trkpt>
      <trkpt lat="46.12772" lon="4.63112">
        <ele>241.24321</ele>
        <time>2023-06-17T09:02:15.000Z</time>
      </trkpt>
      <trkpt lat="46.12767" lon="4.6312">
        <ele>241.22469</ele>
        <time>2023-06-17T09:02:16.000Z</time>
      </trkpt>
      <trkpt lat="46.12763" lon="4.63126">
        <ele>241.41647</ele>
        <time>2023-06-17T09:02:17.000Z</time>
      </trkpt>
      <trkpt lat="46.12759" lon="4.63133">
        <ele>241.67839</ele>
        <time>2023-06-17T09:02:18.000Z</time>
      </trkpt>
      <trkpt lat="46.12754" lon="4.6314">
        <ele>241.80899</ele>
        <time>2023-06-17T09:02:19.000Z</time>
      </trkpt>
      <trkpt lat="46.1275" lon="4.63146">
        <ele>241.99004</ele>
        <time>2023-06-17T09:02:20.000Z</time>
      </trkpt>
      <trkpt lat="46.12745" lon="4.63152">
        <ele>242.18018</ele>
        <time>2023-06-17T09:02:21.000Z</time>
      </trkpt>
      <trkpt lat="46.1274" lon="4.63161">
        <ele>242.34573</ele>
        <time>2023-06-17T09:02:22.000Z</time>
      </trkpt>
      <trkpt lat="46.12735" lon="4.63168">
        <ele>242.23648</ele>
        <time>2023-06-17T09:02:23.000Z</time>
      </trkpt>
      <trkpt lat="46.12731" lon="4.63174">
        <ele>242.15884</ele>
        <time>2023-06-17T09:02:24.000Z</time>
      </trkpt>
      <trkpt lat="46.12726" lon="4.63182">
        <ele>242.08337</ele>
        <time>2023-06-17T09:02:25.000Z</time>
      </trkpt>
      <trkpt lat="46.12721" lon="4.63189">
        <ele>242.00989</ele>
        <time>2023-06-17T09:02:26.000Z</time>
      </trkpt>
      <trkpt lat="46.12717" lon="4.63196">
        <ele>241.94931</ele>
        <time>2023-06-17T09:02:27.000Z</time>
      </trkpt>
      <trkpt lat="46.12712" lon="4.63204">
        <ele>241.8696</ele>
        <time>2023-06-17T09:02:28.000Z</time>
      </trkpt>
      <trkpt lat="46.12708" lon="4.6321">
        <ele>241.75513</ele>
        <time>2023-06-17T09:02:29.000Z</time>
      </trkpt>
      <trkpt lat="46.12704" lon="4.63218">
        <ele>241.65237</ele>
        <time>2023-06-17T09:02:30.000Z</time>
      </trkpt>
      <trkpt lat="46.12699" lon="4.63226">
        <ele>241.55737</ele>
        <time>2023-06-17T09:02:31.000Z</time>
      </trkpt>
      <trkpt lat="46.12694" lon="4.63234">
        <ele>241.45647</ele>
        <time>2023-06-17T09:02:32.000Z</time>
      </trkpt>
      <trkpt lat="46.12689" lon="4.63241">
        <ele>241.36758</ele>
        <time>2023-06-17T09:02:33.000Z</time>
      </trkpt>
      <trkpt lat="46.12685" lon="4.63248">
        <ele>241.26132</ele>
        <time>2023-06-17T09:02:34.000Z</time>
      </trkpt>
      <trkpt lat="46.12681" lon="4.63255">
        <ele>241.12874</ele>
        <time>2023-06-17T09:02:35.000Z</time>
      </trkpt>
      <trkpt lat="46.12676" lon="4.63262">
        <ele>241.04297</ele>
        <time>2023-06-17T09:02:36.000Z</time>
      </trkpt>
      <trkpt lat="46.12671" lon="4.63269">
        <ele>240.99039</ele>
        <time>2023-06-17T09:02:37.000Z</time>
      </trkpt>
      <trkpt lat="46.12667" lon="4.63276">
        <ele>240.91306</ele>
        <time>2023-06-17T09:02:38.000Z</time>
      </trkpt>
      <trkpt lat="46.12662" lon="4.63284">
        <ele>240.8343</ele>
        <time>2023-06-17T09:02:39.000Z</time>
      </trkpt>
      <trkpt lat="46.12657" lon="4.63291">
        <ele>240.76382</ele>
        <time>2023-06-17T09:02:40.000Z</time>
      </trkpt>
      <trkpt lat="46.12653" lon="4.63298">
        <ele>240.69527</ele>
        <time>2023-06-17T09:02:41.000Z</time>
      </trkpt>
      <trkpt lat="46.12648" lon="4.63306">
        <ele>240.63737</ele>
        <time>2023-06-17T09:02:42.000Z</time>
      </trkpt>
      <trkpt lat="46.12644" lon="4.63314">
        <ele>240.58904</ele>
        <time>2023-06-17T09:02:43.000Z</time>
      </trkpt>
      <trkpt lat="46.12639" lon="4.63321">
        <ele>240.57248</ele>
        <time>2023-06-17T09:02:44.000Z</time>
      </trkpt>
      <trkpt lat="46.12636" lon="4.63329">
        <ele>240.54898</ele>
        <time>2023-06-17T09:02:45.000Z</time>
      </trkpt>
      <trkpt lat="46.12631" lon="4.63337">
        <ele>240.42245</ele>
        <time>2023-06-17T09:02:46.000Z</time>
      </trkpt>
      <trkpt lat="46.12627" lon="4.63346">
        <ele>240.27869</ele>
        <time>2023-06-17T09:02:47.000Z</time>
      </trkpt>
      <trkpt lat="46.12623" lon="4.63353">
        <ele>240.13203</ele>
        <time>2023-06-17T09:02:48.000Z</time>
      </trkpt>
      <trkpt lat="46.12618" lon="4.63361">
        <ele>240.0314</ele>
        <time>2023-06-17T09:02:49.000Z</time>
      </trkpt>
      <trkpt lat="46.12613" lon="4.63368">
        <ele>239.91753</ele>
        <time>2023-06-17T09:02:50.000Z</time>
      </trkpt>
      <trkpt lat="46.12609" lon="4.63375">
        <ele>239.79646</ele>
        <time>2023-06-17T09:02:51.000Z</time>
      </trkpt>
      <trkpt lat="46.12605" lon="4.63383">
        <ele>239.8947</ele>
        <time>2023-06-17T09:02:52.000Z</time>
      </trkpt>
      <trkpt lat="46.126" lon="4.6339">
        <ele>239.90034</ele>
        <time>2023-06-17T09:02:53.000Z</time>
      </trkpt>
      <trkpt lat="46.12596" lon="4.63397">
        <ele>239.91611</ele>
        <time>2023-06-17T09:02:54.000Z</time>
      </trkpt>
      <trkpt lat="46.12591" lon="4.63406">
        <ele>239.91167</ele>
        <time>2023-06-17T09:02:55.000Z</time>
      </trkpt>
      <trkpt lat="46.12587" lon="4.63413">
        <ele>239.89558</ele>
        <time>2023-06-17T09:02:56.000Z</time>
      </trkpt>
      <trkpt lat="46.12582" lon="4.63419">
        <ele>239.86028</ele>
        <time>2023-06-17T09:02:57.000Z</time>
      </trkpt>
      <trkpt lat="46.12578" lon="4.63427">
        <ele>239.8129</ele>
        <time>2023-06-17T09:02:58.000Z</time>
      </trkpt>
      <trkpt lat="46.12573" lon="4.63434">
        <ele>239.74533</ele>
        <time>2023-06-17T09:02:59.000Z</time>
      </trkpt>
      <trkpt lat="46.12569" lon="4.63441">
        <ele>239.71353</ele>
        <time>2023-06-17T09:03:00.000Z</time>
      </trkpt>
      <trkpt lat="46.12565" lon="4.63448">
        <ele>239.68054</ele>
        <time>2023-06-17T09:03:01.000Z</time>
      </trkpt>
      <trkpt lat="46.12561" lon="4.63455">
        <ele>239.66074</ele>
        <time>2023-06-17T09:03:02.000Z</time>
      </trkpt>
      <trkpt lat="46.12555" lon="4.63462">
        <ele>239.62695</ele>
        <time>2023-06-17T09:03:03.000Z</time>
      </trkpt>
      <trkpt lat="46.1255" lon="4.63469">
        <ele>239.60098</ele>
        <time>2023-06-17T09:03:04.000Z</time>
      </trkpt>
      <trkpt lat="46.12546" lon="4.63475">
        <ele>239.59579</ele>
        <time>2023-06-17T09:03:05.000Z</time>
      </trkpt>
      <trkpt lat="46.12541" lon="4.63483">
        <ele>239.71902</ele>
        <time>2023-06-17T09:03:06.000Z</time>
      </trkpt>
      <trkpt lat="46.12537" lon="4.63489">
        <ele>239.82919</ele>
        <time>2023-06-17T09:03:07.000Z</time>
      </trkpt>
      <trkpt lat="46.12533" lon="4.63495">
        <ele>239.95293</ele>
        <time>2023-06-17T09:03:08.000Z</time>
      </trkpt>
      <trkpt lat="46.12529" lon="4.63501">
        <ele>240.08711</ele>
        <time>2023-06-17T09:03:09.000Z</time>
      </trkpt>
      <trkpt lat="46.12526" lon="4.63506">
        <ele>240.22507</ele>
        <time>2023-06-17T09:03:10.000Z</time>
      </trkpt>
      <trkpt lat="46.12525" lon="4.6351">
        <ele>240.35916</ele>
        <time>2023-06-17T09:03:11.000Z</time>
      </trkpt>
      <trkpt lat="46.12522" lon="4.63513">
        <ele>240.24312</ele>
        <time>2023-06-17T09:03:21.000Z</time>
      </trkpt>
      <trkpt lat="46.1252" lon="4.63515">
        <ele>240.20761</ele>
        <time>2023-06-17T09:03:22.000Z</time>
      </trkpt>
      <trkpt lat="46.12519" lon="4.63517">
        <ele>240.16536</ele>
        <time>2023-06-17T09:03:23.000Z</time>
      </trkpt>
      <trkpt lat="46.12516" lon="4.6352">
        <ele>240.14841</ele>
        <time>2023-06-17T09:03:24.000Z</time>
      </trkpt>
      <trkpt lat="46.12513" lon="4.63523">
        <ele>240.12793</ele>
        <time>2023-06-17T09:03:25.000Z</time>
      </trkpt>
      <trkpt lat="46.1251" lon="4.63527">
        <ele>240.0972</ele>
        <time>2023-06-17T09:03:26.000Z</time>
      </trkpt>
      <trkpt lat="46.12507" lon="4.63532">
        <ele>239.97339</ele>
        <time>2023-06-17T09:03:27.000Z</time>
      </trkpt>
      <trkpt lat="46.12504" lon="4.63536">
        <ele>239.86124</ele>
        <time>2023-06-17T09:03:28.000Z</time>
      </trkpt>
      <trkpt lat="46.12501" lon="4.6354">
        <ele>239.94551</ele>
        <time>2023-06-17T09:03:29.000Z</time>
      </trkpt>
      <trkpt lat="46.12498" lon="4.63545">
        <ele>239.94548</ele>
        <time>2023-06-17T09:03:30.000Z</time>
      </trkpt>
      <trkpt lat="46.12496" lon="4.6355">
        <ele>239.9935</ele>
        <time>2023-06-17T09:03:31.000Z</time>
      </trkpt>
      <trkpt lat="46.12492" lon="4.63556">
        <ele>240.04541</ele>
        <time>2023-06-17T09:03:32.000Z</time>
      </trkpt>
      <trkpt lat="46.12489" lon="4.63561">
        <ele>240.09309</ele>
        <time>2023-06-17T09:03:33.000Z</time>
      </trkpt>
      <trkpt lat="46.12485" lon="4.63567">
        <ele>240.1176</ele>
        <time>2023-06-17T09:03:34.000Z</time>
      </trkpt>
      <trkpt lat="46.12482" lon="4.63574">
        <ele>239.49699</ele>
        <time>2023-06-17T09:03:35.000Z</time>
      </trkpt>
      <trkpt lat="46.12478" lon="4.63579">
        <ele>239.20793</ele>
        <time>2023-06-17T09:03:36.000Z</time>
      </trkpt>
      <trkpt lat="46.12474" lon="4.63586">
        <ele>238.90572</ele>
        <time>2023-06-17T09:03:37.000Z</time>
      </trkpt>
      <trkpt lat="46.1247" lon="4.63593">
        <ele>238.57028</ele>
        <time>2023-06-17T09:03:38.000Z</time>
      </trkpt>
      <trkpt lat="46.12466" lon="4.63599">
        <ele>238.22681</ele>
        <time>2023-06-17T09:03:39.000Z</time>
      </trkpt>
      <trkpt lat="46.12462" lon="4.63606">
        <ele>237.89368</ele>
        <time>2023-06-17T09:03:40.000Z</time>
      </trkpt>
      <trkpt lat="46.12457" lon="4.63612">
        <ele>237.59885</ele>
        <time>2023-06-17T09:03:41.000Z</time>
      </trkpt>
      <trkpt lat="46.12453" lon="4.63618">
        <ele>237.31279</ele>
        <time>2023-06-17T09:03:42.000Z</time>
      </trkpt>
      <trkpt lat="46.12449" lon="4.63626">
        <ele>237.0314</ele>
        <time>2023-06-17T09:03:43.000Z</time>
      </trkpt>
      <trkpt lat="46.12445" lon="4.63632">
        <ele>236.75266</ele>
        <time>2023-06-17T09:03:44.000Z</time>
      </trkpt>
      <trkpt lat="46.12441" lon="4.63639">
        <ele>236.4614</ele>
        <time>2023-06-17T09:03:45.000Z</time>
      </trkpt>
      <trkpt lat="46.12436" lon="4.63645">
        <ele>236.17557</ele>
        <time>2023-06-17T09:03:46.000Z</time>
      </trkpt>
      <trkpt lat="46.12432" lon="4.63653">
        <ele>236.02824</ele>
        <time>2023-06-17T09:03:47.000Z</time>
      </trkpt>
      <trkpt lat="46.12428" lon="4.63659">
        <ele>236.16228</ele>
        <time>2023-06-17T09:03:48.000Z</time>
      </trkpt>
      <trkpt lat="46.12424" lon="4.63667">
        <ele>236.07881</ele>
        <time>2023-06-17T09:03:49.000Z</time>
      </trkpt>
      <trkpt lat="46.12419" lon="4.63674">
        <ele>236.07321</ele>
        <time>2023-06-17T09:03:50.000Z</time>
      </trkpt>
      <trkpt lat="46.12414" lon="4.6368">
        <ele>235.99976</ele>
        <time>2023-06-17T09:03:51.000Z</time>
      </trkpt>
      <trkpt lat="46.12411" lon="4.63686">
        <ele>235.89861</ele>
        <time>2023-06-17T09:03:52.000Z</time>
      </trkpt>
      <trkpt lat="46.12407" lon="4.63693">
        <ele>235.82016</ele>
        <time>2023-06-17T09:03:53.000Z</time>
      </trkpt>
      <trkpt lat="46.12402" lon="4.63699">
        <ele>235.73836</ele>
        <time>2023-06-17T09:03:54.000Z</time>
      </trkpt>
      <trkpt lat="46.12398" lon="4.63706">
        <ele>236.26334</ele>
        <time>2023-06-17T09:03:55.000Z</time>
      </trkpt>
      <trkpt lat="46.12393" lon="4.63712">
        <ele>236.44772</ele>
        <time>2023-06-17T09:03:56.000Z</time>
      </trkpt>
      <trkpt lat="46.12388" lon="4.63719">
        <ele>236.629</ele>
        <time>2023-06-17T09:03:57.000Z</time>
      </trkpt>
      <trkpt lat="46.12383" lon="4.63727">
        <ele>236.80106</ele>
        <time>2023-06-17T09:03:58.000Z</time>
      </trkpt>
      <trkpt lat="46.12378" lon="4.63735">
        <ele>236.97981</ele>
        <time>2023-06-17T09:03:59.000Z</time>
      </trkpt>
      <trkpt lat="46.12374" lon="4.63743">
        <ele>237.1501</ele>
        <time>2023-06-17T09:04:00.000Z</time>
      </trkpt>
      <trkpt lat="46.12369" lon="4.63751">
        <ele>237.31404</ele>
        <time>2023-06-17T09:04:01.000Z</time>
      </trkpt>
      <trkpt lat="46.12364" lon="4.63758">
        <ele>237.46506</ele>
        <time>2023-06-17T09:04:02.000Z</time>
      </trkpt>
      <trkpt lat="46.12359" lon="4.63766">
        <ele>237.60904</ele>
        <time>2023-06-17T09:04:03.000Z</time>
      </trkpt>
      <trkpt lat="46.12353" lon="4.63774">
        <ele>237.73721</ele>
        <time>2023-06-17T09:04:04.000Z</time>
      </trkpt>
      <trkpt lat="46.12348" lon="4.63782">
        <ele>237.88281</ele>
        <time>2023-06-17T09:04:05.000Z</time>
      </trkpt>
      <trkpt lat="46.12343" lon="4.6379">
        <ele>238.03242</ele>
        <time>2023-06-17T09:04:06.000Z</time>
      </trkpt>
      <trkpt lat="46.12337" lon="4.63798">
        <ele>238.06743</ele>
        <time>2023-06-17T09:04:07.000Z</time>
      </trkpt>
      <trkpt lat="46.12331" lon="4.63806">
        <ele>237.80627</ele>
        <time>2023-06-17T09:04:08.000Z</time>
      </trkpt>
      <trkpt lat="46.12326" lon="4.63815">
        <ele>237.54819</ele>
        <time>2023-06-17T09:04:09.000Z</time>
      </trkpt>
      <trkpt lat="46.12321" lon="4.63824">
        <ele>237.29025</ele>
        <time>2023-06-17T09:04:10.000Z</time>
      </trkpt>
      <trkpt lat="46.12316" lon="4.63833">
        <ele>236.99966</ele>
        <time>2023-06-17T09:04:11.000Z</time>
      </trkpt>
      <trkpt lat="46.1231" lon="4.63841">
        <ele>236.73624</ele>
        <time>2023-06-17T09:04:12.000Z</time>
      </trkpt>
      <trkpt lat="46.12305" lon="4.63848">
        <ele>236.42476</ele>
        <time>2023-06-17T09:04:13.000Z</time>
      </trkpt>
      <trkpt lat="46.12299" lon="4.63857">
        <ele>236.11215</ele>
        <time>2023-06-17T09:04:14.000Z</time>
      </trkpt>
      <trkpt lat="46.12294" lon="4.63866">
        <ele>235.99985</ele>
        <time>2023-06-17T09:04:15.000Z</time>
      </trkpt>
      <trkpt lat="46.12288" lon="4.63875">
        <ele>235.85481</ele>
        <time>2023-06-17T09:04:16.000Z</time>
      </trkpt>
      <trkpt lat="46.12283" lon="4.63883">
        <ele>235.70784</ele>
        <time>2023-06-17T09:04:17.000Z</time>
      </trkpt>
      <trkpt lat="46.12278" lon="4.63892">
        <ele>235.5676</ele>
        <time>2023-06-17T09:04:18.000Z</time>
      </trkpt>
      <trkpt lat="46.12273" lon="4.639">
        <ele>235.39841</ele>
        <time>2023-06-17T09:04:19.000Z</time>
      </trkpt>
      <trkpt lat="46.12268" lon="4.63908">
        <ele>235.22041</ele>
        <time>2023-06-17T09:04:20.000Z</time>
      </trkpt>
      <trkpt lat="46.12263" lon="4.63917">
        <ele>235.06384</ele>
        <time>2023-06-17T09:04:21.000Z</time>
      </trkpt>
      <trkpt lat="46.12258" lon="4.63924">
        <ele>234.91061</ele>
        <time>2023-06-17T09:04:22.000Z</time>
      </trkpt>
      <trkpt lat="46.12252" lon="4.63932">
        <ele>234.76468</ele>
        <time>2023-06-17T09:04:23.000Z</time>
      </trkpt>
      <trkpt lat="46.12247" lon="4.63941">
        <ele>234.64218</ele>
        <time>2023-06-17T09:04:24.000Z</time>
      </trkpt>
      <trkpt lat="46.12242" lon="4.63949">
        <ele>234.51933</ele>
        <time>2023-06-17T09:04:25.000Z</time>
      </trkpt>
      <trkpt lat="46.12236" lon="4.63956">
        <ele>234.38896</ele>
        <time>2023-06-17T09:04:26.000Z</time>
      </trkpt>
      <trkpt lat="46.12231" lon="4.63964">
        <ele>234.34558</ele>
        <time>2023-06-17T09:04:27.000Z</time>
      </trkpt>
      <trkpt lat="46.12226" lon="4.63971">
        <ele>234.32234</ele>
        <time>2023-06-17T09:04:28.000Z</time>
      </trkpt>
      <trkpt lat="46.1222" lon="4.63979">
        <ele>234.30667</ele>
        <time>2023-06-17T09:04:29.000Z</time>
      </trkpt>
      <trkpt lat="46.12215" lon="4.63988">
        <ele>234.29062</ele>
        <time>2023-06-17T09:04:30.000Z</time>
      </trkpt>
      <trkpt lat="46.12209" lon="4.63997">
        <ele>234.31465</ele>
        <time>2023-06-17T09:04:31.000Z</time>
      </trkpt>
      <trkpt lat="46.12204" lon="4.64006">
        <ele>234.34746</ele>
        <time>2023-06-17T09:04:32.000Z</time>
      </trkpt>
      <trkpt lat="46.12199" lon="4.64014">
        <ele>234.40198</ele>
        <time>2023-06-17T09:04:33.000Z</time>
      </trkpt>
      <trkpt lat="46.12194" lon="4.64023">
        <ele>234.47061</ele>
        <time>2023-06-17T09:04:34.000Z</time>
      </trkpt>
      <trkpt lat="46.12188" lon="4.64031">
        <ele>234.3429</ele>
        <time>2023-06-17T09:04:35.000Z</time>
      </trkpt>
      <trkpt lat="46.12184" lon="4.64039">
        <ele>234.27158</ele>
        <time>2023-06-17T09:04:36.000Z</time>
      </trkpt>
      <trkpt lat="46.12178" lon="4.64047">
        <ele>234.20212</ele>
        <time>2023-06-17T09:04:37.000Z</time>
      </trkpt>
      <trkpt lat="46.12173" lon="4.64055">
        <ele>234.13484</ele>
        <time>2023-06-17T09:04:38.000Z</time>
      </trkpt>
      <trkpt lat="46.12168" lon="4.64063">
        <ele>234.08867</ele>
        <time>2023-06-17T09:04:39.000Z</time>
      </trkpt>
      <trkpt lat="46.12164" lon="4.64071">
        <ele>234.05618</ele>
        <time>2023-06-17T09:04:40.000Z</time>
      </trkpt>
      <trkpt lat="46.12159" lon="4.6408">
        <ele>233.94173</ele>
        <time>2023-06-17T09:04:41.000Z</time>
      </trkpt>
      <trkpt lat="46.12155" lon="4.64087">
        <ele>233.80722</ele>
        <time>2023-06-17T09:04:42.000Z</time>
      </trkpt>
      <trkpt lat="46.1215" lon="4.64095">
        <ele>233.69026</ele>
        <time>2023-06-17T09:04:43.000Z</time>
      </trkpt>
      <trkpt lat="46.12145" lon="4.64103">
        <ele>233.54773</ele>
        <time>2023-06-17T09:04:44.000Z</time>
      </trkpt>
      <trkpt lat="46.1214" lon="4.6411">
        <ele>233.56473</ele>
        <time>2023-06-17T09:04:45.000Z</time>
      </trkpt>
      <trkpt lat="46.12135" lon="4.64117">
        <ele>233.55913</ele>
        <time>2023-06-17T09:04:46.000Z</time>
      </trkpt>
      <trkpt lat="46.12129" lon="4.64125">
        <ele>233.57248</ele>
        <time>2023-06-17T09:04:47.000Z</time>
      </trkpt>
      <trkpt lat="46.12124" lon="4.64133">
        <ele>233.5585</ele>
        <time>2023-06-17T09:04:48.000Z</time>
      </trkpt>
      <trkpt lat="46.12119" lon="4.64141">
        <ele>233.552</ele>
        <time>2023-06-17T09:04:49.000Z</time>
      </trkpt>
      <trkpt lat="46.12114" lon="4.6415">
        <ele>233.54147</ele>
        <time>2023-06-17T09:04:50.000Z</time>
      </trkpt>
      <trkpt lat="46.12109" lon="4.64158">
        <ele>233.53293</ele>
        <time>2023-06-17T09:04:51.000Z</time>
      </trkpt>
      <trkpt lat="46.12104" lon="4.64166">
        <ele>233.51534</ele>
        <time>2023-06-17T09:04:52.000Z</time>
      </trkpt>
      <trkpt lat="46.12099" lon="4.64174">
        <ele>233.42773</ele>
        <time>2023-06-17T09:04:53.000Z</time>
      </trkpt>
      <trkpt lat="46.12094" lon="4.64182">
        <ele>233.3499</ele>
        <time>2023-06-17T09:04:54.000Z</time>
      </trkpt>
      <trkpt lat="46.12089" lon="4.6419">
        <ele>233.22861</ele>
        <time>2023-06-17T09:04:55.000Z</time>
      </trkpt>
      <trkpt lat="46.12084" lon="4.64197">
        <ele>233.08952</ele>
        <time>2023-06-17T09:04:56.000Z</time>
      </trkpt>
      <trkpt lat="46.12078" lon="4.64205">
        <ele>232.94006</ele>
        <time>2023-06-17T09:04:57.000Z</time>
      </trkpt>
      <trkpt lat="46.12073" lon="4.64212">
        <ele>232.78671</ele>
        <time>2023-06-17T09:04:58.000Z</time>
      </trkpt>
      <trkpt lat="46.12068" lon="4.6422">
        <ele>232.64278</ele>
        <time>2023-06-17T09:04:59.000Z</time>
      </trkpt>
      <trkpt lat="46.12064" lon="4.64229">
        <ele>232.50415</ele>
        <time>2023-06-17T09:05:00.000Z</time>
      </trkpt>
      <trkpt lat="46.12059" lon="4.64236">
        <ele>232.43448</ele>
        <time>2023-06-17T09:05:01.000Z</time>
      </trkpt>
      <trkpt lat="46.12054" lon="4.64244">
        <ele>232.38907</ele>
        <time>2023-06-17T09:05:02.000Z</time>
      </trkpt>
      <trkpt lat="46.1205" lon="4.64252">
        <ele>232.2961</ele>
        <time>2023-06-17T09:05:03.000Z</time>
      </trkpt>
      <trkpt lat="46.12045" lon="4.6426">
        <ele>232.20483</ele>
        <time>2023-06-17T09:05:04.000Z</time>
      </trkpt>
      <trkpt lat="46.1204" lon="4.64267">
        <ele>232.12419</ele>
        <time>2023-06-17T09:05:05.000Z</time>
      </trkpt>
      <trkpt lat="46.12036" lon="4.64275">
        <ele>232.06116</ele>
        <time>2023-06-17T09:05:06.000Z</time>
      </trkpt>
      <trkpt lat="46.12031" lon="4.64283">
        <ele>231.99983</ele>
        <time>2023-06-17T09:05:07.000Z</time>
      </trkpt>
      <trkpt lat="46.12026" lon="4.64292">
        <ele>231.95786</ele>
        <time>2023-06-17T09:05:08.000Z</time>
      </trkpt>
      <trkpt lat="46.12021" lon="4.643">
        <ele>231.91048</ele>
        <time>2023-06-17T09:05:09.000Z</time>
      </trkpt>
      <trkpt lat="46.12017" lon="4.64309">
        <ele>231.88297</ele>
        <time>2023-06-17T09:05:10.000Z</time>
      </trkpt>
      <trkpt lat="46.12012" lon="4.64318">
        <ele>231.8582</ele>
        <time>2023-06-17T09:05:11.000Z</time>
      </trkpt>
      <trkpt lat="46.12008" lon="4.64327">
        <ele>231.83659</ele>
        <time>2023-06-17T09:05:12.000Z</time>
      </trkpt>
      <trkpt lat="46.12004" lon="4.64336">
        <ele>231.81357</ele>
        <time>2023-06-17T09:05:13.000Z</time>
      </trkpt>
      <trkpt lat="46.11999" lon="4.64344">
        <ele>231.72531</ele>
        <time>2023-06-17T09:05:14.000Z</time>
      </trkpt>
      <trkpt lat="46.11995" lon="4.64352">
        <ele>231.84592</ele>
        <time>2023-06-17T09:05:15.000Z</time>
      </trkpt>
      <trkpt lat="46.11991" lon="4.6436">
        <ele>231.94287</ele>
        <time>2023-06-17T09:05:16.000Z</time>
      </trkpt>
      <trkpt lat="46.11987" lon="4.64368">
        <ele>232.05832</ele>
        <time>2023-06-17T09:05:17.000Z</time>
      </trkpt>
      <trkpt lat="46.11983" lon="4.64376">
        <ele>232.17639</ele>
        <time>2023-06-17T09:05:18.000Z</time>
      </trkpt>
      <trkpt lat="46.1198" lon="4.64385">
        <ele>232.29045</ele>
        <time>2023-06-17T09:05:19.000Z</time>
      </trkpt>
      <trkpt lat="46.11976" lon="4.64393">
        <ele>232.43816</ele>
        <time>2023-06-17T09:05:20.000Z</time>
      </trkpt>
      <trkpt lat="46.11973" lon="4.64401">
        <ele>232.59457</ele>
        <time>2023-06-17T09:05:21.000Z</time>
      </trkpt>
      <trkpt lat="46.1197" lon="4.64409">
        <ele>232.27214</ele>
        <time>2023-06-17T09:05:22.000Z</time>
      </trkpt>
      <trkpt lat="46.11966" lon="4.64417">
        <ele>232.09546</ele>
        <time>2023-06-17T09:05:23.000Z</time>
      </trkpt>
      <trkpt lat="46.11962" lon="4.64426">
        <ele>231.73047</ele>
        <time>2023-06-17T09:05:24.000Z</time>
      </trkpt>
      <trkpt lat="46.11959" lon="4.64434">
        <ele>231.53223</ele>
        <time>2023-06-17T09:05:25.000Z</time>
      </trkpt>
      <trkpt lat="46.11956" lon="4.64444">
        <ele>231.41679</ele>
        <time>2023-06-17T09:05:26.000Z</time>
      </trkpt>
      <trkpt lat="46.11953" lon="4.64454">
        <ele>231.27649</ele>
        <time>2023-06-17T09:05:27.000Z</time>
      </trkpt>
      <trkpt lat="46.11949" lon="4.64464">
        <ele>231.3129</ele>
        <time>2023-06-17T09:05:28.000Z</time>
      </trkpt>
      <trkpt lat="46.11946" lon="4.64472">
        <ele>231.28183</ele>
        <time>2023-06-17T09:05:29.000Z</time>
      </trkpt>
      <trkpt lat="46.11943" lon="4.64481">
        <ele>231.25793</ele>
        <time>2023-06-17T09:05:30.000Z</time>
      </trkpt>
      <trkpt lat="46.1194" lon="4.64491">
        <ele>231.19377</ele>
        <time>2023-06-17T09:05:31.000Z</time>
      </trkpt>
      <trkpt lat="46.11937" lon="4.645">
        <ele>231.11951</ele>
        <time>2023-06-17T09:05:32.000Z</time>
      </trkpt>
      <trkpt lat="46.11934" lon="4.6451">
        <ele>231.13603</ele>
        <time>2023-06-17T09:05:33.000Z</time>
      </trkpt>
      <trkpt lat="46.11931" lon="4.64518">
        <ele>231.20747</ele>
        <time>2023-06-17T09:05:34.000Z</time>
      </trkpt>
      <trkpt lat="46.11927" lon="4.64527">
        <ele>231.10916</ele>
        <time>2023-06-17T09:05:35.000Z</time>
      </trkpt>
      <trkpt lat="46.11924" lon="4.64536">
        <ele>231.04529</ele>
        <time>2023-06-17T09:05:36.000Z</time>
      </trkpt>
      <trkpt lat="46.11921" lon="4.64546">
        <ele>230.39417</ele>
        <time>2023-06-17T09:05:37.000Z</time>
      </trkpt>
      <trkpt lat="46.11918" lon="4.64555">
        <ele>229.96793</ele>
        <time>2023-06-17T09:05:38.000Z</time>
      </trkpt>
      <trkpt lat="46.11916" lon="4.64565">
        <ele>229.94321</ele>
        <time>2023-06-17T09:05:39.000Z</time>
      </trkpt>
      <trkpt lat="46.11914" lon="4.64575">
        <ele>229.87</ele>
        <time>2023-06-17T09:05:40.000Z</time>
      </trkpt>
      <trkpt lat="46.11911" lon="4.64584">
        <ele>229.78647</ele>
        <time>2023-06-17T09:05:41.000Z</time>
      </trkpt>
      <trkpt lat="46.11908" lon="4.64594">
        <ele>229.83113</ele>
        <time>2023-06-17T09:05:42.000Z</time>
      </trkpt>
      <trkpt lat="46.11906" lon="4.64603">
        <ele>229.51114</ele>
        <time>2023-06-17T09:05:43.000Z</time>
      </trkpt>
      <trkpt lat="46.11903" lon="4.64612">
        <ele>229.38071</ele>
        <time>2023-06-17T09:05:44.000Z</time>
      </trkpt>
      <trkpt lat="46.11901" lon="4.64622">
        <ele>228.9063</ele>
        <time>2023-06-17T09:05:45.000Z</time>
      </trkpt>
      <trkpt lat="46.11899" lon="4.64632">
        <ele>228.31497</ele>
        <time>2023-06-17T09:05:46.000Z</time>
      </trkpt>
      <trkpt lat="46.11897" lon="4.64642">
        <ele>228.09122</ele>
        <time>2023-06-17T09:05:47.000Z</time>
      </trkpt>
      <trkpt lat="46.11895" lon="4.64653">
        <ele>227.62907</ele>
        <time>2023-06-17T09:05:48.000Z</time>
      </trkpt>
      <trkpt lat="46.11893" lon="4.64663">
        <ele>227.59563</ele>
        <time>2023-06-17T09:05:49.000Z</time>
      </trkpt>
      <trkpt lat="46.11891" lon="4.64673">
        <ele>227.51497</ele>
        <time>2023-06-17T09:05:50.000Z</time>
      </trkpt>
      <trkpt lat="46.11889" lon="4.64684">
        <ele>227.47815</ele>
        <time>2023-06-17T09:05:51.000Z</time>
      </trkpt>
      <trkpt lat="46.11888" lon="4.64696">
        <ele>227.44241</ele>
        <time>2023-06-17T09:05:52.000Z</time>
      </trkpt>
      <trkpt lat="46.11886" lon="4.64706">
        <ele>227.38591</ele>
        <time>2023-06-17T09:05:53.000Z</time>
      </trkpt>
      <trkpt lat="46.11884" lon="4.64717">
        <ele>227.31409</ele>
        <time>2023-06-17T09:05:54.000Z</time>
      </trkpt>
      <trkpt lat="46.11883" lon="4.64729">
        <ele>227.25122</ele>
        <time>2023-06-17T09:05:55.000Z</time>
      </trkpt>
      <trkpt lat="46.11882" lon="4.64741">
        <ele>227.18753</ele>
        <time>2023-06-17T09:05:56.000Z</time>
      </trkpt>
      <trkpt lat="46.1188" lon="4.64752">
        <ele>227.69495</ele>
        <time>2023-06-17T09:05:57.000Z</time>
      </trkpt>
      <trkpt lat="46.11879" lon="4.64763">
        <ele>227.99113</ele>
        <time>2023-06-17T09:05:58.000Z</time>
      </trkpt>
      <trkpt lat="46.11878" lon="4.64774">
        <ele>227.87576</ele>
        <time>2023-06-17T09:05:59.000Z</time>
      </trkpt>
      <trkpt lat="46.11877" lon="4.64784">
        <ele>227.76863</ele>
        <time>2023-06-17T09:06:00.000Z</time>
      </trkpt>
      <trkpt lat="46.11876" lon="4.64794">
        <ele>227.68291</ele>
        <time>2023-06-17T09:06:01.000Z</time>
      </trkpt>
      <trkpt lat="46.11874" lon="4.64804">
        <ele>227.96475</ele>
        <time>2023-06-17T09:06:02.000Z</time>
      </trkpt>
      <trkpt lat="46.11873" lon="4.64815">
        <ele>228.49141</ele>
        <time>2023-06-17T09:06:03.000Z</time>
      </trkpt>
      <trkpt lat="46.11872" lon="4.64826">
        <ele>229.02849</ele>
        <time>2023-06-17T09:06:04.000Z</time>
      </trkpt>
      <trkpt lat="46.11872" lon="4.64837">
        <ele>229.55383</ele>
        <time>2023-06-17T09:06:05.000Z</time>
      </trkpt>
      <trkpt lat="46.11872" lon="4.64848">
        <ele>230.13528</ele>
        <time>2023-06-17T09:06:06.000Z</time>
      </trkpt>
      <trkpt lat="46.11871" lon="4.64859">
        <ele>230.31711</ele>
        <time>2023-06-17T09:06:07.000Z</time>
      </trkpt>
      <trkpt lat="46.1187" lon="4.64869">
        <ele>230.56033</ele>
        <time>2023-06-17T09:06:08.000Z</time>
      </trkpt>
      <trkpt lat="46.1187" lon="4.64879">
        <ele>230.38077</ele>
        <time>2023-06-17T09:06:09.000Z</time>
      </trkpt>
      <trkpt lat="46.11869" lon="4.64889">
        <ele>230.35898</ele>
        <time>2023-06-17T09:06:10.000Z</time>
      </trkpt>
      <trkpt lat="46.11869" lon="4.64899">
        <ele>230.3062</ele>
        <time>2023-06-17T09:06:11.000Z</time>
      </trkpt>
      <trkpt lat="46.11869" lon="4.6491">
        <ele>230.26273</ele>
        <time>2023-06-17T09:06:12.000Z</time>
      </trkpt>
      <trkpt lat="46.11868" lon="4.6492">
        <ele>230.22791</ele>
        <time>2023-06-17T09:06:13.000Z</time>
      </trkpt>
      <trkpt lat="46.11868" lon="4.64931">
        <ele>230.20511</ele>
        <time>2023-06-17T09:06:14.000Z</time>
      </trkpt>
      <trkpt lat="46.11868" lon="4.6494">
        <ele>230.18832</ele>
        <time>2023-06-17T09:06:15.000Z</time>
      </trkpt>
      <trkpt lat="46.11868" lon="4.64951">
        <ele>230.16985</ele>
        <time>2023-06-17T09:06:16.000Z</time>
      </trkpt>
      <trkpt lat="46.11869" lon="4.64961">
        <ele>230.16183</ele>
        <time>2023-06-17T09:06:17.000Z</time>
      </trkpt>
      <trkpt lat="46.11869" lon="4.64971">
        <ele>230.06931</ele>
        <time>2023-06-17T09:06:18.000Z</time>
      </trkpt>
      <trkpt lat="46.11869" lon="4.64981">
        <ele>229.9678</ele>
        <time>2023-06-17T09:06:19.000Z</time>
      </trkpt>
      <trkpt lat="46.1187" lon="4.64991">
        <ele>230.00874</ele>
        <time>2023-06-17T09:06:20.000Z</time>
      </trkpt>
      <trkpt lat="46.1187" lon="4.65001">
        <ele>230.02197</ele>
        <time>2023-06-17T09:06:21.000Z</time>
      </trkpt>
      <trkpt lat="46.1187" lon="4.65011">
        <ele>230.01956</ele>
        <time>2023-06-17T09:06:22.000Z</time>
      </trkpt>
      <trkpt lat="46.11871" lon="4.6502">
        <ele>230.0201</ele>
        <time>2023-06-17T09:06:23.000Z</time>
      </trkpt>
      <trkpt lat="46.11871" lon="4.6503">
        <ele>230.02298</ele>
        <time>2023-06-17T09:06:24.000Z</time>
      </trkpt>
      <trkpt lat="46.11871" lon="4.65039">
        <ele>230.03719</ele>
        <time>2023-06-17T09:06:25.000Z</time>
      </trkpt>
      <trkpt lat="46.11872" lon="4.65049">
        <ele>230.04936</ele>
        <time>2023-06-17T09:06:26.000Z</time>
      </trkpt>
      <trkpt lat="46.11873" lon="4.65058">
        <ele>230.07426</ele>
        <time>2023-06-17T09:06:27.000Z</time>
      </trkpt>
      <trkpt lat="46.11873" lon="4.65067">
        <ele>230.10246</ele>
        <time>2023-06-17T09:06:28.000Z</time>
      </trkpt>
      <trkpt lat="46.11873" lon="4.65076">
        <ele>230.19502</ele>
        <time>2023-06-17T09:06:29.000Z</time>
      </trkpt>
      <trkpt lat="46.11874" lon="4.65085">
        <ele>230.0957</ele>
        <time>2023-06-17T09:06:30.000Z</time>
      </trkpt>
      <trkpt lat="46.11874" lon="4.65094">
        <ele>230.02768</ele>
        <time>2023-06-17T09:06:31.000Z</time>
      </trkpt>
      <trkpt lat="46.11875" lon="4.65103">
        <ele>229.96231</ele>
        <time>2023-06-17T09:06:32.000Z</time>
      </trkpt>
      <trkpt lat="46.11875" lon="4.65111">
        <ele>229.84604</ele>
        <time>2023-06-17T09:06:33.000Z</time>
      </trkpt>
      <trkpt lat="46.11876" lon="4.65118">
        <ele>229.71692</ele>
        <time>2023-06-17T09:06:34.000Z</time>
      </trkpt>
      <trkpt lat="46.11876" lon="4.65126">
        <ele>229.70659</ele>
        <time>2023-06-17T09:06:35.000Z</time>
      </trkpt>
      <trkpt lat="46.11877" lon="4.65133">
        <ele>229.6907</ele>
        <time>2023-06-17T09:06:36.000Z</time>
      </trkpt>
      <trkpt lat="46.11877" lon="4.65141">
        <ele>229.6788</ele>
        <time>2023-06-17T09:06:37.000Z</time>
      </trkpt>
      <trkpt lat="46.11877" lon="4.65147">
        <ele>229.71785</ele>
        <time>2023-06-17T09:06:38.000Z</time>
      </trkpt>
      <trkpt lat="46.11877" lon="4.65153">
        <ele>229.75534</ele>
        <time>2023-06-17T09:06:39.000Z</time>
      </trkpt>
      <trkpt lat="46.11877" lon="4.6516">
        <ele>229.6685</ele>
        <time>2023-06-17T09:06:40.000Z</time>
      </trkpt>
      <trkpt lat="46.11878" lon="4.65166">
        <ele>229.58298</ele>
        <time>2023-06-17T09:06:41.000Z</time>
      </trkpt>
      <trkpt lat="46.11878" lon="4.65173">
        <ele>229.50557</ele>
        <time>2023-06-17T09:06:42.000Z</time>
      </trkpt>
      <trkpt lat="46.11879" lon="4.65181">
        <ele>229.45593</ele>
        <time>2023-06-17T09:06:43.000Z</time>
      </trkpt>
      <trkpt lat="46.11879" lon="4.65189">
        <ele>229.40779</ele>
        <time>2023-06-17T09:06:44.000Z</time>
      </trkpt>
      <trkpt lat="46.1188" lon="4.65196">
        <ele>229.36813</ele>
        <time>2023-06-17T09:06:45.000Z</time>
      </trkpt>
      <trkpt lat="46.1188" lon="4.65205">
        <ele>229.31592</ele>
        <time>2023-06-17T09:06:46.000Z</time>
      </trkpt>
      <trkpt lat="46.1188" lon="4.65213">
        <ele>229.28659</ele>
        <time>2023-06-17T09:06:47.000Z</time>
      </trkpt>
      <trkpt lat="46.1188" lon="4.65222">
        <ele>229.25293</ele>
        <time>2023-06-17T09:06:48.000Z</time>
      </trkpt>
      <trkpt lat="46.1188" lon="4.65231">
        <ele>229.21805</ele>
        <time>2023-06-17T09:06:49.000Z</time>
      </trkpt>
      <trkpt lat="46.11881" lon="4.6524">
        <ele>229.24265</ele>
        <time>2023-06-17T09:06:50.000Z</time>
      </trkpt>
      <trkpt lat="46.11882" lon="4.6525">
        <ele>229.25644</ele>
        <time>2023-06-17T09:06:51.000Z</time>
      </trkpt>
      <trkpt lat="46.11882" lon="4.65259">
        <ele>229.26633</ele>
        <time>2023-06-17T09:06:52.000Z</time>
      </trkpt>
      <trkpt lat="46.11882" lon="4.65269">
        <ele>229.31389</ele>
        <time>2023-06-17T09:06:53.000Z</time>
      </trkpt>
      <trkpt lat="46.11882" lon="4.65279">
        <ele>229.36385</ele>
        <time>2023-06-17T09:06:54.000Z</time>
      </trkpt>
      <trkpt lat="46.11883" lon="4.65288">
        <ele>229.29097</ele>
        <time>2023-06-17T09:06:55.000Z</time>
      </trkpt>
      <trkpt lat="46.11884" lon="4.65298">
        <ele>229.22624</ele>
        <time>2023-06-17T09:06:56.000Z</time>
      </trkpt>
      <trkpt lat="46.11884" lon="4.65307">
        <ele>229.14607</ele>
        <time>2023-06-17T09:06:57.000Z</time>
      </trkpt>
      <trkpt lat="46.11885" lon="4.65317">
        <ele>229.09187</ele>
        <time>2023-06-17T09:06:58.000Z</time>
      </trkpt>
      <trkpt lat="46.11884" lon="4.65327">
        <ele>229.05103</ele>
        <time>2023-06-17T09:06:59.000Z</time>
      </trkpt>
      <trkpt lat="46.11884" lon="4.65336">
        <ele>228.99954</ele>
        <time>2023-06-17T09:07:00.000Z</time>
      </trkpt>
      <trkpt lat="46.11885" lon="4.65346">
        <ele>228.95113</ele>
        <time>2023-06-17T09:07:01.000Z</time>
      </trkpt>
      <trkpt lat="46.11885" lon="4.65356">
        <ele>228.90073</ele>
        <time>2023-06-17T09:07:02.000Z</time>
      </trkpt>
      <trkpt lat="46.11886" lon="4.65365">
        <ele>228.81723</ele>
        <time>2023-06-17T09:07:03.000Z</time>
      </trkpt>
      <trkpt lat="46.11887" lon="4.65375">
        <ele>228.71756</ele>
        <time>2023-06-17T09:07:04.000Z</time>
      </trkpt>
      <trkpt lat="46.11888" lon="4.65385">
        <ele>228.61617</ele>
        <time>2023-06-17T09:07:05.000Z</time>
      </trkpt>
      <trkpt lat="46.11888" lon="4.65395">
        <ele>228.51169</ele>
        <time>2023-06-17T09:07:06.000Z</time>
      </trkpt>
      <trkpt lat="46.11889" lon="4.65405">
        <ele>228.41309</ele>
        <time>2023-06-17T09:07:07.000Z</time>
      </trkpt>
      <trkpt lat="46.1189" lon="4.65415">
        <ele>228.30952</ele>
        <time>2023-06-17T09:07:08.000Z</time>
      </trkpt>
      <trkpt lat="46.1189" lon="4.65424">
        <ele>227.91545</ele>
        <time>2023-06-17T09:07:09.000Z</time>
      </trkpt>
      <trkpt lat="46.11891" lon="4.65434">
        <ele>227.52026</ele>
        <time>2023-06-17T09:07:10.000Z</time>
      </trkpt>
      <trkpt lat="46.11891" lon="4.65444">
        <ele>227.12944</ele>
        <time>2023-06-17T09:07:11.000Z</time>
      </trkpt>
      <trkpt lat="46.11891" lon="4.65454">
        <ele>226.73987</ele>
        <time>2023-06-17T09:07:12.000Z</time>
      </trkpt>
      <trkpt lat="46.11891" lon="4.65464">
        <ele>226.35437</ele>
        <time>2023-06-17T09:07:13.000Z</time>
      </trkpt>
      <trkpt lat="46.11892" lon="4.65473">
        <ele>225.97769</ele>
        <time>2023-06-17T09:07:14.000Z</time>
      </trkpt>
      <trkpt lat="46.11892" lon="4.65483">
        <ele>225.60721</ele>
        <time>2023-06-17T09:07:15.000Z</time>
      </trkpt>
      <trkpt lat="46.11893" lon="4.65493">
        <ele>225.23569</ele>
        <time>2023-06-17T09:07:16.000Z</time>
      </trkpt>
      <trkpt lat="46.11893" lon="4.65502">
        <ele>224.87158</ele>
        <time>2023-06-17T09:07:17.000Z</time>
      </trkpt>
      <trkpt lat="46.11894" lon="4.65511">
        <ele>224.51851</ele>
        <time>2023-06-17T09:07:18.000Z</time>
      </trkpt>
      <trkpt lat="46.11894" lon="4.6552">
        <ele>224.16464</ele>
        <time>2023-06-17T09:07:19.000Z</time>
      </trkpt>
      <trkpt lat="46.11894" lon="4.65529">
        <ele>223.80313</ele>
        <time>2023-06-17T09:07:20.000Z</time>
      </trkpt>
      <trkpt lat="46.11895" lon="4.65539">
        <ele>223.43808</ele>
        <time>2023-06-17T09:07:21.000Z</time>
      </trkpt>
      <trkpt lat="46.11895" lon="4.65548">
        <ele>223.06876</ele>
        <time>2023-06-17T09:07:22.000Z</time>
      </trkpt>
      <trkpt lat="46.11895" lon="4.65557">
        <ele>222.69748</ele>
        <time>2023-06-17T09:07:23.000Z</time>
      </trkpt>
      <trkpt lat="46.11895" lon="4.65567">
        <ele>222.24478</ele>
        <time>2023-06-17T09:07:24.000Z</time>
      </trkpt>
      <trkpt lat="46.11896" lon="4.65576">
        <ele>221.83842</ele>
        <time>2023-06-17T09:07:25.000Z</time>
      </trkpt>
      <trkpt lat="46.11897" lon="4.65585">
        <ele>221.43779</ele>
        <time>2023-06-17T09:07:26.000Z</time>
      </trkpt>
      <trkpt lat="46.11897" lon="4.65595">
        <ele>221.04099</ele>
        <time>2023-06-17T09:07:27.000Z</time>
      </trkpt>
      <trkpt lat="46.11898" lon="4.65605">
        <ele>220.63342</ele>
        <time>2023-06-17T09:07:28.000Z</time>
      </trkpt>
      <trkpt lat="46.11898" lon="4.65614">
        <ele>220.40369</ele>
        <time>2023-06-17T09:07:29.000Z</time>
      </trkpt>
      <trkpt lat="46.11898" lon="4.65624">
        <ele>220.1705</ele>
        <time>2023-06-17T09:07:30.000Z</time>
      </trkpt>
      <trkpt lat="46.11898" lon="4.65634">
        <ele>219.78061</ele>
        <time>2023-06-17T09:07:31.000Z</time>
      </trkpt>
      <trkpt lat="46.11899" lon="4.65644">
        <ele>219.40532</ele>
        <time>2023-06-17T09:07:32.000Z</time>
      </trkpt>
      <trkpt lat="46.11899" lon="4.65653">
        <ele>218.9436</ele>
        <time>2023-06-17T09:07:33.000Z</time>
      </trkpt>
      <trkpt lat="46.11899" lon="4.65663">
        <ele>218.47775</ele>
        <time>2023-06-17T09:07:34.000Z</time>
      </trkpt>
      <trkpt lat="46.119" lon="4.65673">
        <ele>218.00676</ele>
        <time>2023-06-17T09:07:35.000Z</time>
      </trkpt>
      <trkpt lat="46.119" lon="4.65682">
        <ele>217.86841</ele>
        <time>2023-06-17T09:07:36.000Z</time>
      </trkpt>
      <trkpt lat="46.119" lon="4.65692">
        <ele>217.67883</ele>
        <time>2023-06-17T09:07:37.000Z</time>
      </trkpt>
      <trkpt lat="46.11901" lon="4.65701">
        <ele>217.48344</ele>
        <time>2023-06-17T09:07:38.000Z</time>
      </trkpt>
      <trkpt lat="46.11901" lon="4.65711">
        <ele>217.26994</ele>
        <time>2023-06-17T09:07:39.000Z</time>
      </trkpt>
      <trkpt lat="46.11902" lon="4.65721">
        <ele>217.0675</ele>
        <time>2023-06-17T09:07:40.000Z</time>
      </trkpt>
      <trkpt lat="46.11902" lon="4.65731">
        <ele>216.87383</ele>
        <time>2023-06-17T09:07:41.000Z</time>
      </trkpt>
      <trkpt lat="46.11902" lon="4.65741">
        <ele>216.68188</ele>
        <time>2023-06-17T09:07:42.000Z</time>
      </trkpt>
      <trkpt lat="46.11902" lon="4.65751">
        <ele>216.49387</ele>
        <time>2023-06-17T09:07:43.000Z</time>
      </trkpt>
      <trkpt lat="46.11902" lon="4.65761">
        <ele>216.40274</ele>
        <time>2023-06-17T09:07:44.000Z</time>
      </trkpt>
      <trkpt lat="46.11903" lon="4.6577">
        <ele>216.24924</ele>
        <time>2023-06-17T09:07:45.000Z</time>
      </trkpt>
      <trkpt lat="46.11903" lon="4.6578">
        <ele>216.10867</ele>
        <time>2023-06-17T09:07:46.000Z</time>
      </trkpt>
      <trkpt lat="46.11904" lon="4.6579">
        <ele>215.96577</ele>
        <time>2023-06-17T09:07:47.000Z</time>
      </trkpt>
      <trkpt lat="46.11905" lon="4.65799">
        <ele>215.85066</ele>
        <time>2023-06-17T09:07:48.000Z</time>
      </trkpt>
      <trkpt lat="46.11905" lon="4.6581">
        <ele>215.82674</ele>
        <time>2023-06-17T09:07:49.000Z</time>
      </trkpt>
      <trkpt lat="46.11906" lon="4.65819">
        <ele>215.80319</ele>
        <time>2023-06-17T09:07:50.000Z</time>
      </trkpt>
      <trkpt lat="46.11906" lon="4.65829">
        <ele>215.90361</ele>
        <time>2023-06-17T09:07:51.000Z</time>
      </trkpt>
      <trkpt lat="46.11907" lon="4.65839">
        <ele>216.02202</ele>
        <time>2023-06-17T09:07:52.000Z</time>
      </trkpt>
      <trkpt lat="46.11907" lon="4.65848">
        <ele>216.23933</ele>
        <time>2023-06-17T09:07:53.000Z</time>
      </trkpt>
      <trkpt lat="46.11907" lon="4.65858">
        <ele>216.45218</ele>
        <time>2023-06-17T09:07:54.000Z</time>
      </trkpt>
      <trkpt lat="46.11908" lon="4.65867">
        <ele>216.66826</ele>
        <time>2023-06-17T09:07:55.000Z</time>
      </trkpt>
      <trkpt lat="46.11908" lon="4.65876">
        <ele>216.55025</ele>
        <time>2023-06-17T09:07:56.000Z</time>
      </trkpt>
      <trkpt lat="46.11908" lon="4.65885">
        <ele>216.48242</ele>
        <time>2023-06-17T09:07:57.000Z</time>
      </trkpt>
      <trkpt lat="46.11908" lon="4.65896">
        <ele>216.42102</ele>
        <time>2023-06-17T09:07:58.000Z</time>
      </trkpt>
      <trkpt lat="46.11908" lon="4.65905">
        <ele>216.38054</ele>
        <time>2023-06-17T09:07:59.000Z</time>
      </trkpt>
      <trkpt lat="46.11909" lon="4.65914">
        <ele>216.35042</ele>
        <time>2023-06-17T09:08:00.000Z</time>
      </trkpt>
      <trkpt lat="46.1191" lon="4.65925">
        <ele>216.35075</ele>
        <time>2023-06-17T09:08:01.000Z</time>
      </trkpt>
      <trkpt lat="46.1191" lon="4.65934">
        <ele>216.33902</ele>
        <time>2023-06-17T09:08:02.000Z</time>
      </trkpt>
      <trkpt lat="46.11911" lon="4.65944">
        <ele>216.34488</ele>
        <time>2023-06-17T09:08:03.000Z</time>
      </trkpt>
      <trkpt lat="46.11912" lon="4.65954">
        <ele>216.34184</ele>
        <time>2023-06-17T09:08:04.000Z</time>
      </trkpt>
      <trkpt lat="46.11912" lon="4.65963">
        <ele>216.33548</ele>
        <time>2023-06-17T09:08:05.000Z</time>
      </trkpt>
      <trkpt lat="46.11913" lon="4.65972">
        <ele>216.30779</ele>
        <time>2023-06-17T09:08:06.000Z</time>
      </trkpt>
      <trkpt lat="46.11913" lon="4.65981">
        <ele>216.30408</ele>
        <time>2023-06-17T09:08:07.000Z</time>
      </trkpt>
      <trkpt lat="46.11913" lon="4.65991">
        <ele>216.29179</ele>
        <time>2023-06-17T09:08:08.000Z</time>
      </trkpt>
      <trkpt lat="46.11914" lon="4.65998">
        <ele>216.30005</ele>
        <time>2023-06-17T09:08:09.000Z</time>
      </trkpt>
      <trkpt lat="46.11915" lon="4.66007">
        <ele>216.31204</ele>
        <time>2023-06-17T09:08:10.000Z</time>
      </trkpt>
      <trkpt lat="46.11916" lon="4.66016">
        <ele>216.38095</ele>
        <time>2023-06-17T09:08:11.000Z</time>
      </trkpt>
      <trkpt lat="46.11917" lon="4.66025">
        <ele>216.4017</ele>
        <time>2023-06-17T09:08:12.000Z</time>
      </trkpt>
      <trkpt lat="46.11918" lon="4.66033">
        <ele>216.43271</ele>
        <time>2023-06-17T09:08:13.000Z</time>
      </trkpt>
      <trkpt lat="46.11918" lon="4.66043">
        <ele>216.31563</ele>
        <time>2023-06-17T09:08:14.000Z</time>
      </trkpt>
      <trkpt lat="46.11919" lon="4.66051">
        <ele>216.20007</ele>
        <time>2023-06-17T09:08:15.000Z</time>
      </trkpt>
      <trkpt lat="46.11921" lon="4.66059">
        <ele>215.98824</ele>
        <time>2023-06-17T09:08:16.000Z</time>
      </trkpt>
      <trkpt lat="46.11921" lon="4.66067">
        <ele>215.6976</ele>
        <time>2023-06-17T09:08:17.000Z</time>
      </trkpt>
      <trkpt lat="46.11922" lon="4.66076">
        <ele>215.7502</ele>
        <time>2023-06-17T09:08:18.000Z</time>
      </trkpt>
      <trkpt lat="46.11923" lon="4.66083">
        <ele>215.76672</ele>
        <time>2023-06-17T09:08:19.000Z</time>
      </trkpt>
      <trkpt lat="46.11923" lon="4.6609">
        <ele>215.75056</ele>
        <time>2023-06-17T09:08:20.000Z</time>
      </trkpt>
      <trkpt lat="46.11924" lon="4.66097">
        <ele>215.6965</ele>
        <time>2023-06-17T09:08:21.000Z</time>
      </trkpt>
      <trkpt lat="46.11925" lon="4.66103">
        <ele>215.65625</ele>
        <time>2023-06-17T09:08:22.000Z</time>
      </trkpt>
      <trkpt lat="46.11925" lon="4.6611">
        <ele>215.39554</ele>
        <time>2023-06-17T09:08:23.000Z</time>
      </trkpt>
      <trkpt lat="46.11926" lon="4.66117">
        <ele>215.24394</ele>
        <time>2023-06-17T09:08:24.000Z</time>
      </trkpt>
      <trkpt lat="46.11926" lon="4.66123">
        <ele>215.09956</ele>
        <time>2023-06-17T09:08:25.000Z</time>
      </trkpt>
      <trkpt lat="46.11927" lon="4.66129">
        <ele>214.91081</ele>
        <time>2023-06-17T09:08:26.000Z</time>
      </trkpt>
      <trkpt lat="46.11927" lon="4.66136">
        <ele>214.71147</ele>
        <time>2023-06-17T09:08:27.000Z</time>
      </trkpt>
      <trkpt lat="46.11929" lon="4.66142">
        <ele>214.5085</ele>
        <time>2023-06-17T09:08:28.000Z</time>
      </trkpt>
      <trkpt lat="46.11929" lon="4.6615">
        <ele>214.59402</ele>
        <time>2023-06-17T09:08:29.000Z</time>
      </trkpt>
      <trkpt lat="46.11929" lon="4.66157">
        <ele>214.56351</ele>
        <time>2023-06-17T09:08:30.000Z</time>
      </trkpt>
      <trkpt lat="46.1193" lon="4.66165">
        <ele>214.50766</ele>
        <time>2023-06-17T09:08:31.000Z</time>
      </trkpt>
      <trkpt lat="46.11931" lon="4.66173">
        <ele>214.47092</ele>
        <time>2023-06-17T09:08:32.000Z</time>
      </trkpt>
      <trkpt lat="46.11932" lon="4.66181">
        <ele>214.4128</ele>
        <time>2023-06-17T09:08:33.000Z</time>
      </trkpt>
      <trkpt lat="46.11934" lon="4.66189">
        <ele>214.52463</ele>
        <time>2023-06-17T09:08:34.000Z</time>
      </trkpt>
      <trkpt lat="46.11935" lon="4.66197">
        <ele>214.63911</ele>
        <time>2023-06-17T09:08:35.000Z</time>
      </trkpt>
      <trkpt lat="46.11936" lon="4.66206">
        <ele>214.83923</ele>
        <time>2023-06-17T09:08:36.000Z</time>
      </trkpt>
      <trkpt lat="46.11938" lon="4.66215">
        <ele>215.14413</ele>
        <time>2023-06-17T09:08:37.000Z</time>
      </trkpt>
      <trkpt lat="46.11939" lon="4.66223">
        <ele>215.09232</ele>
        <time>2023-06-17T09:08:38.000Z</time>
      </trkpt>
      <trkpt lat="46.11941" lon="4.66232">
        <ele>215.08528</ele>
        <time>2023-06-17T09:08:39.000Z</time>
      </trkpt>
      <trkpt lat="46.11942" lon="4.6624">
        <ele>215.09689</ele>
        <time>2023-06-17T09:08:40.000Z</time>
      </trkpt>
      <trkpt lat="46.11944" lon="4.66249">
        <ele>215.12112</ele>
        <time>2023-06-17T09:08:41.000Z</time>
      </trkpt>
      <trkpt lat="46.11946" lon="4.66257">
        <ele>215.14302</ele>
        <time>2023-06-17T09:08:42.000Z</time>
      </trkpt>
      <trkpt lat="46.11947" lon="4.66265">
        <ele>215.36577</ele>
        <time>2023-06-17T09:08:43.000Z</time>
      </trkpt>
      <trkpt lat="46.1195" lon="4.66274">
        <ele>215.53255</ele>
        <time>2023-06-17T09:08:44.000Z</time>
      </trkpt>
      <trkpt lat="46.11951" lon="4.66283">
        <ele>215.70174</ele>
        <time>2023-06-17T09:08:45.000Z</time>
      </trkpt>
      <trkpt lat="46.11953" lon="4.66292">
        <ele>215.69946</ele>
        <time>2023-06-17T09:08:46.000Z</time>
      </trkpt>
      <trkpt lat="46.11955" lon="4.66301">
        <ele>215.83655</ele>
        <time>2023-06-17T09:08:47.000Z</time>
      </trkpt>
      <trkpt lat="46.11956" lon="4.66309">
        <ele>215.98491</ele>
        <time>2023-06-17T09:08:48.000Z</time>
      </trkpt>
      <trkpt lat="46.11958" lon="4.66317">
        <ele>215.8436</ele>
        <time>2023-06-17T09:08:49.000Z</time>
      </trkpt>
      <trkpt lat="46.1196" lon="4.66326">
        <ele>215.56604</ele>
        <time>2023-06-17T09:08:50.000Z</time>
      </trkpt>
      <trkpt lat="46.11962" lon="4.66335">
        <ele>215.48958</ele>
        <time>2023-06-17T09:08:51.000Z</time>
      </trkpt>
      <trkpt lat="46.11964" lon="4.66343">
        <ele>215.41183</ele>
        <time>2023-06-17T09:08:52.000Z</time>
      </trkpt>
      <trkpt lat="46.11966" lon="4.66352">
        <ele>215.25114</ele>
        <time>2023-06-17T09:08:53.000Z</time>
      </trkpt>
      <trkpt lat="46.11968" lon="4.66361">
        <ele>214.97856</ele>
        <time>2023-06-17T09:08:54.000Z</time>
      </trkpt>
      <trkpt lat="46.1197" lon="4.66369">
        <ele>214.69817</ele>
        <time>2023-06-17T09:08:55.000Z</time>
      </trkpt>
      <trkpt lat="46.11972" lon="4.66377">
        <ele>214.68526</ele>
        <time>2023-06-17T09:08:56.000Z</time>
      </trkpt>
      <trkpt lat="46.11975" lon="4.66385">
        <ele>214.60271</ele>
        <time>2023-06-17T09:08:57.000Z</time>
      </trkpt>
      <trkpt lat="46.11977" lon="4.66394">
        <ele>214.53293</ele>
        <time>2023-06-17T09:08:58.000Z</time>
      </trkpt>
      <trkpt lat="46.11979" lon="4.66401">
        <ele>214.4718</ele>
        <time>2023-06-17T09:08:59.000Z</time>
      </trkpt>
      <trkpt lat="46.11981" lon="4.6641">
        <ele>214.41202</ele>
        <time>2023-06-17T09:09:00.000Z</time>
      </trkpt>
      <trkpt lat="46.11983" lon="4.66418">
        <ele>214.34836</ele>
        <time>2023-06-17T09:09:01.000Z</time>
      </trkpt>
      <trkpt lat="46.11985" lon="4.66426">
        <ele>214.28879</ele>
        <time>2023-06-17T09:09:02.000Z</time>
      </trkpt>
      <trkpt lat="46.11986" lon="4.66435">
        <ele>214.2518</ele>
        <time>2023-06-17T09:09:03.000Z</time>
      </trkpt>
      <trkpt lat="46.11989" lon="4.66442">
        <ele>214.02397</ele>
        <time>2023-06-17T09:09:04.000Z</time>
      </trkpt>
      <trkpt lat="46.11991" lon="4.66451">
        <ele>213.8134</ele>
        <time>2023-06-17T09:09:05.000Z</time>
      </trkpt>
      <trkpt lat="46.11992" lon="4.6646">
        <ele>213.84517</ele>
        <time>2023-06-17T09:09:06.000Z</time>
      </trkpt>
      <trkpt lat="46.11994" lon="4.66469">
        <ele>213.724</ele>
        <time>2023-06-17T09:09:07.000Z</time>
      </trkpt>
      <trkpt lat="46.11995" lon="4.66478">
        <ele>213.50041</ele>
        <time>2023-06-17T09:09:08.000Z</time>
      </trkpt>
      <trkpt lat="46.11997" lon="4.66486">
        <ele>213.59407</ele>
        <time>2023-06-17T09:09:09.000Z</time>
      </trkpt>
      <trkpt lat="46.12" lon="4.66495">
        <ele>213.85844</ele>
        <time>2023-06-17T09:09:10.000Z</time>
      </trkpt>
      <trkpt lat="46.12002" lon="4.66504">
        <ele>213.92632</ele>
        <time>2023-06-17T09:09:11.000Z</time>
      </trkpt>
      <trkpt lat="46.12004" lon="4.66513">
        <ele>213.99146</ele>
        <time>2023-06-17T09:09:12.000Z</time>
      </trkpt>
      <trkpt lat="46.12006" lon="4.66522">
        <ele>214.15645</ele>
        <time>2023-06-17T09:09:13.000Z</time>
      </trkpt>
      <trkpt lat="46.12007" lon="4.6653">
        <ele>214.399</ele>
        <time>2023-06-17T09:09:14.000Z</time>
      </trkpt>
      <trkpt lat="46.12009" lon="4.66538">
        <ele>214.64584</ele>
        <time>2023-06-17T09:09:15.000Z</time>
      </trkpt>
      <trkpt lat="46.12011" lon="4.66547">
        <ele>214.61719</ele>
        <time>2023-06-17T09:09:16.000Z</time>
      </trkpt>
      <trkpt lat="46.12012" lon="4.66556">
        <ele>214.65344</ele>
        <time>2023-06-17T09:09:17.000Z</time>
      </trkpt>
      <trkpt lat="46.12015" lon="4.66565">
        <ele>214.65691</ele>
        <time>2023-06-17T09:09:18.000Z</time>
      </trkpt>
      <trkpt lat="46.12017" lon="4.66574">
        <ele>214.63472</ele>
        <time>2023-06-17T09:09:19.000Z</time>
      </trkpt>
      <trkpt lat="46.12019" lon="4.66582">
        <ele>214.59001</ele>
        <time>2023-06-17T09:09:20.000Z</time>
      </trkpt>
      <trkpt lat="46.12022" lon="4.66591">
        <ele>214.52844</ele>
        <time>2023-06-17T09:09:21.000Z</time>
      </trkpt>
      <trkpt lat="46.12024" lon="4.666">
        <ele>214.46436</ele>
        <time>2023-06-17T09:09:22.000Z</time>
      </trkpt>
      <trkpt lat="46.12025" lon="4.6661">
        <ele>214.38033</ele>
        <time>2023-06-17T09:09:23.000Z</time>
      </trkpt>
      <trkpt lat="46.12027" lon="4.66619">
        <ele>214.44925</ele>
        <time>2023-06-17T09:09:24.000Z</time>
      </trkpt>
      <trkpt lat="46.1203" lon="4.66628">
        <ele>214.48227</ele>
        <time>2023-06-17T09:09:25.000Z</time>
      </trkpt>
      <trkpt lat="46.12032" lon="4.66637">
        <ele>214.49944</ele>
        <time>2023-06-17T09:09:26.000Z</time>
      </trkpt>
      <trkpt lat="46.12034" lon="4.66645">
        <ele>214.52266</ele>
        <time>2023-06-17T09:09:27.000Z</time>
      </trkpt>
      <trkpt lat="46.12036" lon="4.66654">
        <ele>214.64578</ele>
        <time>2023-06-17T09:09:28.000Z</time>
      </trkpt>
      <trkpt lat="46.12038" lon="4.66663">
        <ele>214.45146</ele>
        <time>2023-06-17T09:09:29.000Z</time>
      </trkpt>
      <trkpt lat="46.1204" lon="4.66673">
        <ele>214.21182</ele>
        <time>2023-06-17T09:09:30.000Z</time>
      </trkpt>
      <trkpt lat="46.12042" lon="4.66681">
        <ele>213.85837</ele>
        <time>2023-06-17T09:09:31.000Z</time>
      </trkpt>
      <trkpt lat="46.12044" lon="4.6669">
        <ele>213.51917</ele>
        <time>2023-06-17T09:09:32.000Z</time>
      </trkpt>
      <trkpt lat="46.12046" lon="4.66699">
        <ele>213.17307</ele>
        <time>2023-06-17T09:09:33.000Z</time>
      </trkpt>
      <trkpt lat="46.12049" lon="4.66708">
        <ele>213.1528</ele>
        <time>2023-06-17T09:09:34.000Z</time>
      </trkpt>
      <trkpt lat="46.1205" lon="4.66717">
        <ele>213.09225</ele>
        <time>2023-06-17T09:09:35.000Z</time>
      </trkpt>
      <trkpt lat="46.12052" lon="4.66726">
        <ele>213.06514</ele>
        <time>2023-06-17T09:09:36.000Z</time>
      </trkpt>
      <trkpt lat="46.12054" lon="4.66734">
        <ele>213.02446</ele>
        <time>2023-06-17T09:09:37.000Z</time>
      </trkpt>
      <trkpt lat="46.12056" lon="4.66744">
        <ele>213.01997</ele>
        <time>2023-06-17T09:09:38.000Z</time>
      </trkpt>
      <trkpt lat="46.12057" lon="4.66753">
        <ele>213.03848</ele>
        <time>2023-06-17T09:09:39.000Z</time>
      </trkpt>
      <trkpt lat="46.12059" lon="4.66761">
        <ele>213.08398</ele>
        <time>2023-06-17T09:09:40.000Z</time>
      </trkpt>
      <trkpt lat="46.1206" lon="4.6677">
        <ele>213.1373</ele>
        <time>2023-06-17T09:09:41.000Z</time>
      </trkpt>
      <trkpt lat="46.12062" lon="4.66779">
        <ele>213.19295</ele>
        <time>2023-06-17T09:09:42.000Z</time>
      </trkpt>
      <trkpt lat="46.12064" lon="4.66787">
        <ele>213.25166</ele>
        <time>2023-06-17T09:09:43.000Z</time>
      </trkpt>
      <trkpt lat="46.12066" lon="4.66796">
        <ele>213.3293</ele>
        <time>2023-06-17T09:09:44.000Z</time>
      </trkpt>
      <trkpt lat="46.12067" lon="4.66804">
        <ele>213.40532</ele>
        <time>2023-06-17T09:09:45.000Z</time>
      </trkpt>
      <trkpt lat="46.12069" lon="4.66814">
        <ele>213.49406</ele>
        <time>2023-06-17T09:09:46.000Z</time>
      </trkpt>
      <trkpt lat="46.1207" lon="4.66822">
        <ele>213.59065</ele>
        <time>2023-06-17T09:09:47.000Z</time>
      </trkpt>
      <trkpt lat="46.12071" lon="4.66831">
        <ele>213.67892</ele>
        <time>2023-06-17T09:09:48.000Z</time>
      </trkpt>
      <trkpt lat="46.12073" lon="4.66839">
        <ele>213.75053</ele>
        <time>2023-06-17T09:09:49.000Z</time>
      </trkpt>
      <trkpt lat="46.12074" lon="4.66846">
        <ele>213.95166</ele>
        <time>2023-06-17T09:09:50.000Z</time>
      </trkpt>
      <trkpt lat="46.12076" lon="4.66854">
        <ele>214.26804</ele>
        <time>2023-06-17T09:09:51.000Z</time>
      </trkpt>
      <trkpt lat="46.12077" lon="4.66861">
        <ele>214.57083</ele>
        <time>2023-06-17T09:09:52.000Z</time>
      </trkpt>
      <trkpt lat="46.12079" lon="4.66867">
        <ele>214.87651</ele>
        <time>2023-06-17T09:09:53.000Z</time>
      </trkpt>
      <trkpt lat="46.12081" lon="4.66874">
        <ele>214.88814</ele>
        <time>2023-06-17T09:09:54.000Z</time>
      </trkpt>
      <trkpt lat="46.12082" lon="4.6688">
        <ele>214.94345</ele>
        <time>2023-06-17T09:09:55.000Z</time>
      </trkpt>
      <trkpt lat="46.12083" lon="4.66885">
        <ele>214.98848</ele>
        <time>2023-06-17T09:09:56.000Z</time>
      </trkpt>
      <trkpt lat="46.12085" lon="4.66888">
        <ele>215.03938</ele>
        <time>2023-06-17T09:09:57.000Z</time>
      </trkpt>
      <trkpt lat="46.12085" lon="4.66893">
        <ele>215.08325</ele>
        <time>2023-06-17T09:09:58.000Z</time>
      </trkpt>
      <trkpt lat="46.12086" lon="4.66898">
        <ele>215.14458</ele>
        <time>2023-06-17T09:09:59.000Z</time>
      </trkpt>
      <trkpt lat="46.12087" lon="4.66903">
        <ele>215.18501</ele>
        <time>2023-06-17T09:10:00.000Z</time>
      </trkpt>
      <trkpt lat="46.12088" lon="4.66909">
        <ele>215.24155</ele>
        <time>2023-06-17T09:10:01.000Z</time>
      </trkpt>
      <trkpt lat="46.12089" lon="4.66915">
        <ele>215.31055</ele>
        <time>2023-06-17T09:10:02.000Z</time>
      </trkpt>
      <trkpt lat="46.1209" lon="4.66922">
        <ele>215.01758</ele>
        <time>2023-06-17T09:10:03.000Z</time>
      </trkpt>
      <trkpt lat="46.12092" lon="4.66928">
        <ele>214.98491</ele>
        <time>2023-06-17T09:10:04.000Z</time>
      </trkpt>
      <trkpt lat="46.12094" lon="4.66935">
        <ele>214.96834</ele>
        <time>2023-06-17T09:10:05.000Z</time>
      </trkpt>
      <trkpt lat="46.12095" lon="4.66943">
        <ele>214.92831</ele>
        <time>2023-06-17T09:10:06.000Z</time>
      </trkpt>
      <trkpt lat="46.12098" lon="4.6695">
        <ele>214.85298</ele>
        <time>2023-06-17T09:10:07.000Z</time>
      </trkpt>
      <trkpt lat="46.121" lon="4.66958">
        <ele>214.77254</ele>
        <time>2023-06-17T09:10:08.000Z</time>
      </trkpt>
      <trkpt lat="46.12101" lon="4.66966">
        <ele>214.69736</ele>
        <time>2023-06-17T09:10:09.000Z</time>
      </trkpt>
      <trkpt lat="46.12102" lon="4.66974">
        <ele>214.4343</ele>
        <time>2023-06-17T09:10:10.000Z</time>
      </trkpt>
      <trkpt lat="46.12104" lon="4.66983">
        <ele>214.18472</ele>
        <time>2023-06-17T09:10:11.000Z</time>
      </trkpt>
      <trkpt lat="46.12106" lon="4.66991">
        <ele>213.88635</ele>
        <time>2023-06-17T09:10:12.000Z</time>
      </trkpt>
      <trkpt lat="46.12108" lon="4.66998">
        <ele>213.55118</ele>
        <time>2023-06-17T09:10:13.000Z</time>
      </trkpt>
      <trkpt lat="46.1211" lon="4.67006">
        <ele>213.51315</ele>
        <time>2023-06-17T09:10:14.000Z</time>
      </trkpt>
      <trkpt lat="46.12112" lon="4.67015">
        <ele>213.40169</ele>
        <time>2023-06-17T09:10:15.000Z</time>
      </trkpt>
      <trkpt lat="46.12114" lon="4.67024">
        <ele>213.29179</ele>
        <time>2023-06-17T09:10:16.000Z</time>
      </trkpt>
      <trkpt lat="46.12116" lon="4.67032">
        <ele>213.1727</ele>
        <time>2023-06-17T09:10:17.000Z</time>
      </trkpt>
      <trkpt lat="46.12117" lon="4.67041">
        <ele>213.05061</ele>
        <time>2023-06-17T09:10:18.000Z</time>
      </trkpt>
      <trkpt lat="46.12119" lon="4.6705">
        <ele>212.92351</ele>
        <time>2023-06-17T09:10:19.000Z</time>
      </trkpt>
      <trkpt lat="46.12121" lon="4.67059">
        <ele>212.81247</ele>
        <time>2023-06-17T09:10:20.000Z</time>
      </trkpt>
      <trkpt lat="46.12123" lon="4.67067">
        <ele>212.70508</ele>
        <time>2023-06-17T09:10:21.000Z</time>
      </trkpt>
      <trkpt lat="46.12125" lon="4.67076">
        <ele>212.58134</ele>
        <time>2023-06-17T09:10:22.000Z</time>
      </trkpt>
      <trkpt lat="46.12127" lon="4.67085">
        <ele>212.82755</ele>
        <time>2023-06-17T09:10:23.000Z</time>
      </trkpt>
      <trkpt lat="46.12129" lon="4.67094">
        <ele>212.80103</ele>
        <time>2023-06-17T09:10:24.000Z</time>
      </trkpt>
      <trkpt lat="46.12131" lon="4.67103">
        <ele>212.78452</ele>
        <time>2023-06-17T09:10:25.000Z</time>
      </trkpt>
      <trkpt lat="46.12132" lon="4.67112">
        <ele>212.77737</ele>
        <time>2023-06-17T09:10:26.000Z</time>
      </trkpt>
      <trkpt lat="46.12134" lon="4.6712">
        <ele>212.79996</ele>
        <time>2023-06-17T09:10:27.000Z</time>
      </trkpt>
      <trkpt lat="46.12136" lon="4.67129">
        <ele>212.83907</ele>
        <time>2023-06-17T09:10:28.000Z</time>
      </trkpt>
      <trkpt lat="46.12138" lon="4.67138">
        <ele>212.88651</ele>
        <time>2023-06-17T09:10:29.000Z</time>
      </trkpt>
      <trkpt lat="46.1214" lon="4.67148">
        <ele>213.10188</ele>
        <time>2023-06-17T09:10:30.000Z</time>
      </trkpt>
      <trkpt lat="46.12142" lon="4.67157">
        <ele>213.31343</ele>
        <time>2023-06-17T09:10:31.000Z</time>
      </trkpt>
      <trkpt lat="46.12143" lon="4.67166">
        <ele>213.57158</ele>
        <time>2023-06-17T09:10:32.000Z</time>
      </trkpt>
      <trkpt lat="46.12144" lon="4.67176">
        <ele>213.85071</ele>
        <time>2023-06-17T09:10:33.000Z</time>
      </trkpt>
      <trkpt lat="46.12146" lon="4.67184">
        <ele>213.81079</ele>
        <time>2023-06-17T09:10:34.000Z</time>
      </trkpt>
      <trkpt lat="46.12148" lon="4.67193">
        <ele>213.84798</ele>
        <time>2023-06-17T09:10:35.000Z</time>
      </trkpt>
      <trkpt lat="46.1215" lon="4.67202">
        <ele>213.89116</ele>
        <time>2023-06-17T09:10:36.000Z</time>
      </trkpt>
      <trkpt lat="46.12151" lon="4.67211">
        <ele>213.93469</ele>
        <time>2023-06-17T09:10:37.000Z</time>
      </trkpt>
      <trkpt lat="46.12153" lon="4.67219">
        <ele>213.97318</ele>
        <time>2023-06-17T09:10:38.000Z</time>
      </trkpt>
      <trkpt lat="46.12154" lon="4.67229">
        <ele>213.97531</ele>
        <time>2023-06-17T09:10:39.000Z</time>
      </trkpt>
      <trkpt lat="46.12156" lon="4.67238">
        <ele>213.97002</ele>
        <time>2023-06-17T09:10:40.000Z</time>
      </trkpt>
      <trkpt lat="46.12157" lon="4.67247">
        <ele>213.94576</ele>
        <time>2023-06-17T09:10:41.000Z</time>
      </trkpt>
      <trkpt lat="46.12159" lon="4.67256">
        <ele>213.92404</ele>
        <time>2023-06-17T09:10:42.000Z</time>
      </trkpt>
      <trkpt lat="46.1216" lon="4.67265">
        <ele>213.89177</ele>
        <time>2023-06-17T09:10:43.000Z</time>
      </trkpt>
      <trkpt lat="46.12162" lon="4.67274">
        <ele>213.81152</ele>
        <time>2023-06-17T09:10:44.000Z</time>
      </trkpt>
      <trkpt lat="46.12164" lon="4.67282">
        <ele>213.72063</ele>
        <time>2023-06-17T09:10:45.000Z</time>
      </trkpt>
      <trkpt lat="46.12166" lon="4.67291">
        <ele>213.66074</ele>
        <time>2023-06-17T09:10:46.000Z</time>
      </trkpt>
      <trkpt lat="46.12168" lon="4.673">
        <ele>213.60103</ele>
        <time>2023-06-17T09:10:47.000Z</time>
      </trkpt>
      <trkpt lat="46.12169" lon="4.67308">
        <ele>213.52646</ele>
        <time>2023-06-17T09:10:48.000Z</time>
      </trkpt>
      <trkpt lat="46.12171" lon="4.67316">
        <ele>213.45889</ele>
        <time>2023-06-17T09:10:49.000Z</time>
      </trkpt>
      <trkpt lat="46.12172" lon="4.67325">
        <ele>213.41191</ele>
        <time>2023-06-17T09:10:50.000Z</time>
      </trkpt>
      <trkpt lat="46.12174" lon="4.67334">
        <ele>213.35925</ele>
        <time>2023-06-17T09:10:51.000Z</time>
      </trkpt>
      <trkpt lat="46.12175" lon="4.67342">
        <ele>213.32263</ele>
        <time>2023-06-17T09:10:52.000Z</time>
      </trkpt>
      <trkpt lat="46.12176" lon="4.6735">
        <ele>213.29138</ele>
        <time>2023-06-17T09:10:53.000Z</time>
      </trkpt>
      <trkpt lat="46.12178" lon="4.67359">
        <ele>213.25296</ele>
        <time>2023-06-17T09:10:54.000Z</time>
      </trkpt>
      <trkpt lat="46.12179" lon="4.67367">
        <ele>213.21236</ele>
        <time>2023-06-17T09:10:55.000Z</time>
      </trkpt>
      <trkpt lat="46.1218" lon="4.67375">
        <ele>213.14645</ele>
        <time>2023-06-17T09:10:56.000Z</time>
      </trkpt>
      <trkpt lat="46.1218" lon="4.67384">
        <ele>213.02617</ele>
        <time>2023-06-17T09:10:57.000Z</time>
      </trkpt>
      <trkpt lat="46.12182" lon="4.67392">
        <ele>212.91194</ele>
        <time>2023-06-17T09:10:58.000Z</time>
      </trkpt>
      <trkpt lat="46.12183" lon="4.674">
        <ele>212.8024</ele>
        <time>2023-06-17T09:10:59.000Z</time>
      </trkpt>
      <trkpt lat="46.12184" lon="4.67409">
        <ele>212.67282</ele>
        <time>2023-06-17T09:11:00.000Z</time>
      </trkpt>
      <trkpt lat="46.12186" lon="4.67418">
        <ele>212.56161</ele>
        <time>2023-06-17T09:11:01.000Z</time>
      </trkpt>
      <trkpt lat="46.12187" lon="4.67427">
        <ele>212.45627</ele>
        <time>2023-06-17T09:11:02.000Z</time>
      </trkpt>
      <trkpt lat="46.12188" lon="4.67435">
        <ele>212.34175</ele>
        <time>2023-06-17T09:11:03.000Z</time>
      </trkpt>
      <trkpt lat="46.1219" lon="4.67444">
        <ele>212.26086</ele>
        <time>2023-06-17T09:11:04.000Z</time>
      </trkpt>
      <trkpt lat="46.12192" lon="4.67452">
        <ele>212.19096</ele>
        <time>2023-06-17T09:11:05.000Z</time>
      </trkpt>
      <trkpt lat="46.12194" lon="4.67461">
        <ele>212.10544</ele>
        <time>2023-06-17T09:11:06.000Z</time>
      </trkpt>
      <trkpt lat="46.12195" lon="4.6747">
        <ele>212.0081</ele>
        <time>2023-06-17T09:11:07.000Z</time>
      </trkpt>
      <trkpt lat="46.12197" lon="4.6748">
        <ele>211.92094</ele>
        <time>2023-06-17T09:11:08.000Z</time>
      </trkpt>
      <trkpt lat="46.12198" lon="4.67489">
        <ele>211.81023</ele>
        <time>2023-06-17T09:11:09.000Z</time>
      </trkpt>
      <trkpt lat="46.122" lon="4.67498">
        <ele>211.69299</ele>
        <time>2023-06-17T09:11:10.000Z</time>
      </trkpt>
      <trkpt lat="46.12201" lon="4.67508">
        <ele>211.57141</ele>
        <time>2023-06-17T09:11:11.000Z</time>
      </trkpt>
      <trkpt lat="46.12202" lon="4.67518">
        <ele>211.44107</ele>
        <time>2023-06-17T09:11:12.000Z</time>
      </trkpt>
      <trkpt lat="46.12203" lon="4.67528">
        <ele>211.30319</ele>
        <time>2023-06-17T09:11:13.000Z</time>
      </trkpt>
      <trkpt lat="46.12205" lon="4.67537">
        <ele>211.18405</ele>
        <time>2023-06-17T09:11:14.000Z</time>
      </trkpt>
      <trkpt lat="46.12206" lon="4.67547">
        <ele>211.07718</ele>
        <time>2023-06-17T09:11:15.000Z</time>
      </trkpt>
      <trkpt lat="46.12207" lon="4.67556">
        <ele>210.9489</ele>
        <time>2023-06-17T09:11:16.000Z</time>
      </trkpt>
      <trkpt lat="46.12208" lon="4.67566">
        <ele>210.87924</ele>
        <time>2023-06-17T09:11:17.000Z</time>
      </trkpt>
      <trkpt lat="46.1221" lon="4.67575">
        <ele>210.79416</ele>
        <time>2023-06-17T09:11:18.000Z</time>
      </trkpt>
      <trkpt lat="46.12212" lon="4.67586">
        <ele>210.72104</ele>
        <time>2023-06-17T09:11:19.000Z</time>
      </trkpt>
      <trkpt lat="46.12212" lon="4.67596">
        <ele>210.6613</ele>
        <time>2023-06-17T09:11:20.000Z</time>
      </trkpt>
      <trkpt lat="46.12214" lon="4.67607">
        <ele>210.59702</ele>
        <time>2023-06-17T09:11:21.000Z</time>
      </trkpt>
      <trkpt lat="46.12216" lon="4.67616">
        <ele>210.54074</ele>
        <time>2023-06-17T09:11:22.000Z</time>
      </trkpt>
      <trkpt lat="46.12217" lon="4.67626">
        <ele>210.50386</ele>
        <time>2023-06-17T09:11:23.000Z</time>
      </trkpt>
      <trkpt lat="46.1222" lon="4.67635">
        <ele>210.48335</ele>
        <time>2023-06-17T09:11:24.000Z</time>
      </trkpt>
      <trkpt lat="46.12221" lon="4.67644">
        <ele>210.4585</ele>
        <time>2023-06-17T09:11:25.000Z</time>
      </trkpt>
      <trkpt lat="46.12223" lon="4.67654">
        <ele>210.42439</ele>
        <time>2023-06-17T09:11:26.000Z</time>
      </trkpt>
      <trkpt lat="46.12225" lon="4.67663">
        <ele>210.39497</ele>
        <time>2023-06-17T09:11:27.000Z</time>
      </trkpt>
      <trkpt lat="46.12226" lon="4.67672">
        <ele>210.36079</ele>
        <time>2023-06-17T09:11:28.000Z</time>
      </trkpt>
      <trkpt lat="46.12228" lon="4.67682">
        <ele>210.35091</ele>
        <time>2023-06-17T09:11:29.000Z</time>
      </trkpt>
      <trkpt lat="46.12229" lon="4.67692">
        <ele>210.3367</ele>
        <time>2023-06-17T09:11:30.000Z</time>
      </trkpt>
      <trkpt lat="46.1223" lon="4.677">
        <ele>210.34236</ele>
        <time>2023-06-17T09:11:31.000Z</time>
      </trkpt>
      <trkpt lat="46.12232" lon="4.6771">
        <ele>210.33667</ele>
        <time>2023-06-17T09:11:32.000Z</time>
      </trkpt>
      <trkpt lat="46.12234" lon="4.67719">
        <ele>210.35039</ele>
        <time>2023-06-17T09:11:33.000Z</time>
      </trkpt>
      <trkpt lat="46.12235" lon="4.67728">
        <ele>210.37517</ele>
        <time>2023-06-17T09:11:34.000Z</time>
      </trkpt>
      <trkpt lat="46.12237" lon="4.67738">
        <ele>210.40503</ele>
        <time>2023-06-17T09:11:35.000Z</time>
      </trkpt>
      <trkpt lat="46.12238" lon="4.67747">
        <ele>210.4803</ele>
        <time>2023-06-17T09:11:36.000Z</time>
      </trkpt>
      <trkpt lat="46.1224" lon="4.67756">
        <ele>210.53503</ele>
        <time>2023-06-17T09:11:37.000Z</time>
      </trkpt>
      <trkpt lat="46.12242" lon="4.67765">
        <ele>210.58774</ele>
        <time>2023-06-17T09:11:38.000Z</time>
      </trkpt>
      <trkpt lat="46.12243" lon="4.67773">
        <ele>210.63159</ele>
        <time>2023-06-17T09:11:39.000Z</time>
      </trkpt>
      <trkpt lat="46.12245" lon="4.67782">
        <ele>210.69417</ele>
        <time>2023-06-17T09:11:40.000Z</time>
      </trkpt>
      <trkpt lat="46.12246" lon="4.6779">
        <ele>210.74744</ele>
        <time>2023-06-17T09:11:41.000Z</time>
      </trkpt>
      <trkpt lat="46.12247" lon="4.67798">
        <ele>210.79671</ele>
        <time>2023-06-17T09:11:42.000Z</time>
      </trkpt>
      <trkpt lat="46.12249" lon="4.67807">
        <ele>210.85068</ele>
        <time>2023-06-17T09:11:43.000Z</time>
      </trkpt>
      <trkpt lat="46.1225" lon="4.67816">
        <ele>210.90276</ele>
        <time>2023-06-17T09:11:44.000Z</time>
      </trkpt>
      <trkpt lat="46.12251" lon="4.67825">
        <ele>210.96501</ele>
        <time>2023-06-17T09:11:45.000Z</time>
      </trkpt>
      <trkpt lat="46.12252" lon="4.67833">
        <ele>211.00552</ele>
        <time>2023-06-17T09:11:46.000Z</time>
      </trkpt>
      <trkpt lat="46.12253" lon="4.67842">
        <ele>211.01384</ele>
        <time>2023-06-17T09:11:47.000Z</time>
      </trkpt>
      <trkpt lat="46.12254" lon="4.67852">
        <ele>211.00391</ele>
        <time>2023-06-17T09:11:48.000Z</time>
      </trkpt>
      <trkpt lat="46.12256" lon="4.67859">
        <ele>210.98335</ele>
        <time>2023-06-17T09:11:49.000Z</time>
      </trkpt>
      <trkpt lat="46.12258" lon="4.67869">
        <ele>210.95625</ele>
        <time>2023-06-17T09:11:50.000Z</time>
      </trkpt>
      <trkpt lat="46.12259" lon="4.67879">
        <ele>210.89297</ele>
        <time>2023-06-17T09:11:51.000Z</time>
      </trkpt>
      <trkpt lat="46.1226" lon="4.67888">
        <ele>210.82585</ele>
        <time>2023-06-17T09:11:52.000Z</time>
      </trkpt>
      <trkpt lat="46.12262" lon="4.67898">
        <ele>210.63632</ele>
        <time>2023-06-17T09:11:53.000Z</time>
      </trkpt>
      <trkpt lat="46.12263" lon="4.67907">
        <ele>210.40897</ele>
        <time>2023-06-17T09:11:54.000Z</time>
      </trkpt>
      <trkpt lat="46.12265" lon="4.67916">
        <ele>210.15784</ele>
        <time>2023-06-17T09:11:55.000Z</time>
      </trkpt>
      <trkpt lat="46.12267" lon="4.67924">
        <ele>209.81412</ele>
        <time>2023-06-17T09:11:56.000Z</time>
      </trkpt>
      <trkpt lat="46.12268" lon="4.67934">
        <ele>209.49861</ele>
        <time>2023-06-17T09:11:57.000Z</time>
      </trkpt>
      <trkpt lat="46.1227" lon="4.67944">
        <ele>209.20132</ele>
        <time>2023-06-17T09:11:58.000Z</time>
      </trkpt>
      <trkpt lat="46.12272" lon="4.67954">
        <ele>208.90263</ele>
        <time>2023-06-17T09:11:59.000Z</time>
      </trkpt>
      <trkpt lat="46.12273" lon="4.67962">
        <ele>208.59566</ele>
        <time>2023-06-17T09:12:00.000Z</time>
      </trkpt>
      <trkpt lat="46.12274" lon="4.67968">
        <ele>208.29648</ele>
        <time>2023-06-17T09:12:01.000Z</time>
      </trkpt>
      <trkpt lat="46.12275" lon="4.67972">
        <ele>208.21452</ele>
        <time>2023-06-17T09:12:02.000Z</time>
      </trkpt>
      <trkpt lat="46.12276" lon="4.67976">
        <ele>208.08199</ele>
        <time>2023-06-17T09:12:03.000Z</time>
      </trkpt>
      <trkpt lat="46.12276" lon="4.6798">
        <ele>207.92366</ele>
        <time>2023-06-17T09:12:04.000Z</time>
      </trkpt>
      <trkpt lat="46.12277" lon="4.67983">
        <ele>207.77617</ele>
        <time>2023-06-17T09:12:05.000Z</time>
      </trkpt>
      <trkpt lat="46.12277" lon="4.67988">
        <ele>207.65581</ele>
        <time>2023-06-17T09:12:06.000Z</time>
      </trkpt>
      <trkpt lat="46.12278" lon="4.67994">
        <ele>207.58765</ele>
        <time>2023-06-17T09:12:07.000Z</time>
      </trkpt>
      <trkpt lat="46.12279" lon="4.67999">
        <ele>207.52567</ele>
        <time>2023-06-17T09:12:08.000Z</time>
      </trkpt>
      <trkpt lat="46.12279" lon="4.68005">
        <ele>207.45944</ele>
        <time>2023-06-17T09:12:09.000Z</time>
      </trkpt>
      <trkpt lat="46.1228" lon="4.68011">
        <ele>207.42769</ele>
        <time>2023-06-17T09:12:10.000Z</time>
      </trkpt>
      <trkpt lat="46.12281" lon="4.68018">
        <ele>207.39453</ele>
        <time>2023-06-17T09:12:11.000Z</time>
      </trkpt>
      <trkpt lat="46.12282" lon="4.68023">
        <ele>207.3687</ele>
        <time>2023-06-17T09:12:12.000Z</time>
      </trkpt>
      <trkpt lat="46.12283" lon="4.6803">
        <ele>207.45288</ele>
        <time>2023-06-17T09:12:13.000Z</time>
      </trkpt>
      <trkpt lat="46.12285" lon="4.68036">
        <ele>207.595</ele>
        <time>2023-06-17T09:12:14.000Z</time>
      </trkpt>
      <trkpt lat="46.12285" lon="4.68043">
        <ele>207.73274</ele>
        <time>2023-06-17T09:12:15.000Z</time>
      </trkpt>
      <trkpt lat="46.12286" lon="4.6805">
        <ele>207.94751</ele>
        <time>2023-06-17T09:12:16.000Z</time>
      </trkpt>
      <trkpt lat="46.12288" lon="4.68058">
        <ele>208.13834</ele>
        <time>2023-06-17T09:12:17.000Z</time>
      </trkpt>
      <trkpt lat="46.12289" lon="4.68065">
        <ele>208.27815</ele>
        <time>2023-06-17T09:12:18.000Z</time>
      </trkpt>
      <trkpt lat="46.12291" lon="4.68072">
        <ele>208.43521</ele>
        <time>2023-06-17T09:12:19.000Z</time>
      </trkpt>
      <trkpt lat="46.12292" lon="4.6808">
        <ele>208.61528</ele>
        <time>2023-06-17T09:12:20.000Z</time>
      </trkpt>
      <trkpt lat="46.12293" lon="4.68088">
        <ele>208.81035</ele>
        <time>2023-06-17T09:12:21.000Z</time>
      </trkpt>
      <trkpt lat="46.12294" lon="4.68096">
        <ele>208.76767</ele>
        <time>2023-06-17T09:12:22.000Z</time>
      </trkpt>
      <trkpt lat="46.12295" lon="4.68104">
        <ele>208.73286</ele>
        <time>2023-06-17T09:12:23.000Z</time>
      </trkpt>
      <trkpt lat="46.12297" lon="4.68112">
        <ele>208.71878</ele>
        <time>2023-06-17T09:12:24.000Z</time>
      </trkpt>
      <trkpt lat="46.12298" lon="4.6812">
        <ele>208.7011</ele>
        <time>2023-06-17T09:12:25.000Z</time>
      </trkpt>
      <trkpt lat="46.12299" lon="4.68128">
        <ele>208.6871</ele>
        <time>2023-06-17T09:12:26.000Z</time>
      </trkpt>
      <trkpt lat="46.12301" lon="4.68136">
        <ele>208.65401</ele>
        <time>2023-06-17T09:12:27.000Z</time>
      </trkpt>
      <trkpt lat="46.12302" lon="4.68145">
        <ele>208.64957</ele>
        <time>2023-06-17T09:12:28.000Z</time>
      </trkpt>
      <trkpt lat="46.12303" lon="4.68153">
        <ele>208.55183</ele>
        <time>2023-06-17T09:12:29.000Z</time>
      </trkpt>
      <trkpt lat="46.12304" lon="4.68161">
        <ele>208.36411</ele>
        <time>2023-06-17T09:12:30.000Z</time>
      </trkpt>
      <trkpt lat="46.12306" lon="4.6817">
        <ele>208.43283</ele>
        <time>2023-06-17T09:12:31.000Z</time>
      </trkpt>
      <trkpt lat="46.12307" lon="4.68178">
        <ele>208.46086</ele>
        <time>2023-06-17T09:12:32.000Z</time>
      </trkpt>
      <trkpt lat="46.12308" lon="4.68186">
        <ele>208.48709</ele>
        <time>2023-06-17T09:12:33.000Z</time>
      </trkpt>
      <trkpt lat="46.12309" lon="4.68194">
        <ele>208.49588</ele>
        <time>2023-06-17T09:12:34.000Z</time>
      </trkpt>
      <trkpt lat="46.1231" lon="4.68203">
        <ele>208.51001</ele>
        <time>2023-06-17T09:12:35.000Z</time>
      </trkpt>
      <trkpt lat="46.12312" lon="4.68211">
        <ele>208.53601</ele>
        <time>2023-06-17T09:12:36.000Z</time>
      </trkpt>
      <trkpt lat="46.12313" lon="4.6822">
        <ele>208.56926</ele>
        <time>2023-06-17T09:12:37.000Z</time>
      </trkpt>
      <trkpt lat="46.12314" lon="4.68228">
        <ele>208.64023</ele>
        <time>2023-06-17T09:12:38.000Z</time>
      </trkpt>
      <trkpt lat="46.12315" lon="4.68237">
        <ele>208.7009</ele>
        <time>2023-06-17T09:12:39.000Z</time>
      </trkpt>
      <trkpt lat="46.12317" lon="4.68245">
        <ele>208.7247</ele>
        <time>2023-06-17T09:12:40.000Z</time>
      </trkpt>
      <trkpt lat="46.12319" lon="4.68254">
        <ele>208.73042</ele>
        <time>2023-06-17T09:12:41.000Z</time>
      </trkpt>
      <trkpt lat="46.1232" lon="4.68263">
        <ele>208.75008</ele>
        <time>2023-06-17T09:12:42.000Z</time>
      </trkpt>
      <trkpt lat="46.12321" lon="4.68272">
        <ele>208.79903</ele>
        <time>2023-06-17T09:12:43.000Z</time>
      </trkpt>
      <trkpt lat="46.12323" lon="4.68281">
        <ele>208.83015</ele>
        <time>2023-06-17T09:12:44.000Z</time>
      </trkpt>
      <trkpt lat="46.12324" lon="4.68289">
        <ele>208.87491</ele>
        <time>2023-06-17T09:12:45.000Z</time>
      </trkpt>
      <trkpt lat="46.12326" lon="4.68298">
        <ele>208.91272</ele>
        <time>2023-06-17T09:12:46.000Z</time>
      </trkpt>
      <trkpt lat="46.12327" lon="4.68308">
        <ele>208.95779</ele>
        <time>2023-06-17T09:12:47.000Z</time>
      </trkpt>
      <trkpt lat="46.12329" lon="4.68317">
        <ele>208.98747</ele>
        <time>2023-06-17T09:12:48.000Z</time>
      </trkpt>
      <trkpt lat="46.1233" lon="4.68326">
        <ele>209.08223</ele>
        <time>2023-06-17T09:12:49.000Z</time>
      </trkpt>
      <trkpt lat="46.12331" lon="4.68335">
        <ele>209.2618</ele>
        <time>2023-06-17T09:12:50.000Z</time>
      </trkpt>
      <trkpt lat="46.12333" lon="4.68343">
        <ele>209.20447</ele>
        <time>2023-06-17T09:12:51.000Z</time>
      </trkpt>
      <trkpt lat="46.12334" lon="4.68352">
        <ele>209.19865</ele>
        <time>2023-06-17T09:12:52.000Z</time>
      </trkpt>
      <trkpt lat="46.12336" lon="4.68361">
        <ele>209.20198</ele>
        <time>2023-06-17T09:12:53.000Z</time>
      </trkpt>
      <trkpt lat="46.12337" lon="4.6837">
        <ele>209.20784</ele>
        <time>2023-06-17T09:12:54.000Z</time>
      </trkpt>
      <trkpt lat="46.1234" lon="4.68379">
        <ele>209.20972</ele>
        <time>2023-06-17T09:12:55.000Z</time>
      </trkpt>
      <trkpt lat="46.12341" lon="4.68389">
        <ele>209.20061</ele>
        <time>2023-06-17T09:12:56.000Z</time>
      </trkpt>
      <trkpt lat="46.12343" lon="4.68399">
        <ele>209.20413</ele>
        <time>2023-06-17T09:12:57.000Z</time>
      </trkpt>
      <trkpt lat="46.12344" lon="4.68408">
        <ele>209.24088</ele>
        <time>2023-06-17T09:12:58.000Z</time>
      </trkpt>
      <trkpt lat="46.12346" lon="4.68419">
        <ele>209.26151</ele>
        <time>2023-06-17T09:12:59.000Z</time>
      </trkpt>
      <trkpt lat="46.12347" lon="4.68429">
        <ele>209.25517</ele>
        <time>2023-06-17T09:13:00.000Z</time>
      </trkpt>
      <trkpt lat="46.12348" lon="4.6844">
        <ele>209.25302</ele>
        <time>2023-06-17T09:13:01.000Z</time>
      </trkpt>
      <trkpt lat="46.1235" lon="4.6845">
        <ele>209.28903</ele>
        <time>2023-06-17T09:13:02.000Z</time>
      </trkpt>
      <trkpt lat="46.12352" lon="4.68459">
        <ele>209.27678</ele>
        <time>2023-06-17T09:13:03.000Z</time>
      </trkpt>
      <trkpt lat="46.12354" lon="4.6847">
        <ele>209.2961</ele>
        <time>2023-06-17T09:13:04.000Z</time>
      </trkpt>
      <trkpt lat="46.12355" lon="4.68481">
        <ele>209.31133</ele>
        <time>2023-06-17T09:13:05.000Z</time>
      </trkpt>
      <trkpt lat="46.12357" lon="4.68492">
        <ele>209.3497</ele>
        <time>2023-06-17T09:13:06.000Z</time>
      </trkpt>
      <trkpt lat="46.1236" lon="4.68502">
        <ele>209.43364</ele>
        <time>2023-06-17T09:13:07.000Z</time>
      </trkpt>
      <trkpt lat="46.12362" lon="4.68512">
        <ele>209.47159</ele>
        <time>2023-06-17T09:13:08.000Z</time>
      </trkpt>
      <trkpt lat="46.12363" lon="4.68522">
        <ele>209.47408</ele>
        <time>2023-06-17T09:13:09.000Z</time>
      </trkpt>
      <trkpt lat="46.12364" lon="4.68534">
        <ele>209.48343</ele>
        <time>2023-06-17T09:13:10.000Z</time>
      </trkpt>
      <trkpt lat="46.12366" lon="4.68546">
        <ele>209.42029</ele>
        <time>2023-06-17T09:13:11.000Z</time>
      </trkpt>
      <trkpt lat="46.12368" lon="4.68558">
        <ele>209.40283</ele>
        <time>2023-06-17T09:13:12.000Z</time>
      </trkpt>
      <trkpt lat="46.1237" lon="4.68568">
        <ele>209.41475</ele>
        <time>2023-06-17T09:13:13.000Z</time>
      </trkpt>
      <trkpt lat="46.12372" lon="4.68579">
        <ele>209.51424</ele>
        <time>2023-06-17T09:13:14.000Z</time>
      </trkpt>
      <trkpt lat="46.12374" lon="4.68591">
        <ele>209.55502</ele>
        <time>2023-06-17T09:13:15.000Z</time>
      </trkpt>
      <trkpt lat="46.12375" lon="4.68604">
        <ele>209.60344</ele>
        <time>2023-06-17T09:13:16.000Z</time>
      </trkpt>
      <trkpt lat="46.12377" lon="4.68615">
        <ele>209.66682</ele>
        <time>2023-06-17T09:13:17.000Z</time>
      </trkpt>
      <trkpt lat="46.12379" lon="4.68627">
        <ele>209.72607</ele>
        <time>2023-06-17T09:13:18.000Z</time>
      </trkpt>
      <trkpt lat="46.12381" lon="4.68638">
        <ele>209.80977</ele>
        <time>2023-06-17T09:13:19.000Z</time>
      </trkpt>
      <trkpt lat="46.12382" lon="4.68648">
        <ele>209.80464</ele>
        <time>2023-06-17T09:13:20.000Z</time>
      </trkpt>
      <trkpt lat="46.12382" lon="4.68661">
        <ele>209.72578</ele>
        <time>2023-06-17T09:13:21.000Z</time>
      </trkpt>
      <trkpt lat="46.12383" lon="4.68673">
        <ele>209.63594</ele>
        <time>2023-06-17T09:13:22.000Z</time>
      </trkpt>
      <trkpt lat="46.12384" lon="4.68684">
        <ele>209.54959</ele>
        <time>2023-06-17T09:13:23.000Z</time>
      </trkpt>
      <trkpt lat="46.12385" lon="4.68696">
        <ele>209.49287</ele>
        <time>2023-06-17T09:13:24.000Z</time>
      </trkpt>
      <trkpt lat="46.12386" lon="4.68707">
        <ele>209.3822</ele>
        <time>2023-06-17T09:13:25.000Z</time>
      </trkpt>
      <trkpt lat="46.12387" lon="4.68718">
        <ele>209.2581</ele>
        <time>2023-06-17T09:13:26.000Z</time>
      </trkpt>
      <trkpt lat="46.12388" lon="4.68731">
        <ele>209.08064</ele>
        <time>2023-06-17T09:13:27.000Z</time>
      </trkpt>
      <trkpt lat="46.12389" lon="4.68742">
        <ele>208.93997</ele>
        <time>2023-06-17T09:13:28.000Z</time>
      </trkpt>
      <trkpt lat="46.12389" lon="4.68755">
        <ele>208.84744</ele>
        <time>2023-06-17T09:13:29.000Z</time>
      </trkpt>
      <trkpt lat="46.12388" lon="4.68768">
        <ele>208.73547</ele>
        <time>2023-06-17T09:13:30.000Z</time>
      </trkpt>
      <trkpt lat="46.12388" lon="4.68779">
        <ele>208.65359</ele>
        <time>2023-06-17T09:13:31.000Z</time>
      </trkpt>
      <trkpt lat="46.12388" lon="4.68791">
        <ele>208.51266</ele>
        <time>2023-06-17T09:13:32.000Z</time>
      </trkpt>
      <trkpt lat="46.12386" lon="4.68803">
        <ele>208.25049</ele>
        <time>2023-06-17T09:13:33.000Z</time>
      </trkpt>
      <trkpt lat="46.12385" lon="4.68815">
        <ele>207.90726</ele>
        <time>2023-06-17T09:13:34.000Z</time>
      </trkpt>
      <trkpt lat="46.12385" lon="4.68828">
        <ele>207.67114</ele>
        <time>2023-06-17T09:13:35.000Z</time>
      </trkpt>
      <trkpt lat="46.12384" lon="4.68841">
        <ele>207.43282</ele>
        <time>2023-06-17T09:13:36.000Z</time>
      </trkpt>
      <trkpt lat="46.12384" lon="4.68853">
        <ele>207.19026</ele>
        <time>2023-06-17T09:13:37.000Z</time>
      </trkpt>
      <trkpt lat="46.12382" lon="4.68866">
        <ele>206.89043</ele>
        <time>2023-06-17T09:13:38.000Z</time>
      </trkpt>
      <trkpt lat="46.12381" lon="4.68879">
        <ele>206.56169</ele>
        <time>2023-06-17T09:13:39.000Z</time>
      </trkpt>
      <trkpt lat="46.1238" lon="4.68891">
        <ele>206.35104</ele>
        <time>2023-06-17T09:13:40.000Z</time>
      </trkpt>
      <trkpt lat="46.1238" lon="4.68903">
        <ele>206.21463</ele>
        <time>2023-06-17T09:13:41.000Z</time>
      </trkpt>
      <trkpt lat="46.12379" lon="4.68916">
        <ele>206.04514</ele>
        <time>2023-06-17T09:13:42.000Z</time>
      </trkpt>
      <trkpt lat="46.12378" lon="4.68927">
        <ele>205.93929</ele>
        <time>2023-06-17T09:13:43.000Z</time>
      </trkpt>
      <trkpt lat="46.12377" lon="4.6894">
        <ele>205.78293</ele>
        <time>2023-06-17T09:13:44.000Z</time>
      </trkpt>
      <trkpt lat="46.12376" lon="4.68952">
        <ele>205.63887</ele>
        <time>2023-06-17T09:13:45.000Z</time>
      </trkpt>
      <trkpt lat="46.12376" lon="4.68964">
        <ele>205.48135</ele>
        <time>2023-06-17T09:13:46.000Z</time>
      </trkpt>
      <trkpt lat="46.12375" lon="4.68978">
        <ele>205.30135</ele>
        <time>2023-06-17T09:13:47.000Z</time>
      </trkpt>
      <trkpt lat="46.12375" lon="4.6899">
        <ele>205.13242</ele>
        <time>2023-06-17T09:13:48.000Z</time>
      </trkpt>
      <trkpt lat="46.12374" lon="4.69002">
        <ele>204.97958</ele>
        <time>2023-06-17T09:13:49.000Z</time>
      </trkpt>
      <trkpt lat="46.12374" lon="4.69014">
        <ele>204.81401</ele>
        <time>2023-06-17T09:13:50.000Z</time>
      </trkpt>
      <trkpt lat="46.12373" lon="4.69025">
        <ele>204.69014</ele>
        <time>2023-06-17T09:13:51.000Z</time>
      </trkpt>
      <trkpt lat="46.12372" lon="4.69036">
        <ele>204.58618</ele>
        <time>2023-06-17T09:13:52.000Z</time>
      </trkpt>
      <trkpt lat="46.12371" lon="4.69049">
        <ele>204.58211</ele>
        <time>2023-06-17T09:13:53.000Z</time>
      </trkpt>
      <trkpt lat="46.12371" lon="4.69062">
        <ele>204.51498</ele>
        <time>2023-06-17T09:13:54.000Z</time>
      </trkpt>
      <trkpt lat="46.12371" lon="4.69074">
        <ele>204.35257</ele>
        <time>2023-06-17T09:13:55.000Z</time>
      </trkpt>
      <trkpt lat="46.12371" lon="4.69085">
        <ele>204.32387</ele>
        <time>2023-06-17T09:13:56.000Z</time>
      </trkpt>
      <trkpt lat="46.12371" lon="4.69096">
        <ele>204.25441</ele>
        <time>2023-06-17T09:13:57.000Z</time>
      </trkpt>
      <trkpt lat="46.12371" lon="4.69107">
        <ele>204.24474</ele>
        <time>2023-06-17T09:13:58.000Z</time>
      </trkpt>
      <trkpt lat="46.12372" lon="4.69118">
        <ele>204.24911</ele>
        <time>2023-06-17T09:13:59.000Z</time>
      </trkpt>
      <trkpt lat="46.12371" lon="4.69127">
        <ele>204.23526</ele>
        <time>2023-06-17T09:14:00.000Z</time>
      </trkpt>
      <trkpt lat="46.12372" lon="4.69141">
        <ele>204.2124</ele>
        <time>2023-06-17T09:14:01.000Z</time>
      </trkpt>
      <trkpt lat="46.12372" lon="4.69152">
        <ele>204.19272</ele>
        <time>2023-06-17T09:14:02.000Z</time>
      </trkpt>
      <trkpt lat="46.12374" lon="4.69166">
        <ele>204.18715</ele>
        <time>2023-06-17T09:14:03.000Z</time>
      </trkpt>
      <trkpt lat="46.12374" lon="4.69178">
        <ele>204.14934</ele>
        <time>2023-06-17T09:14:04.000Z</time>
      </trkpt>
      <trkpt lat="46.12375" lon="4.69189">
        <ele>204.12376</ele>
        <time>2023-06-17T09:14:05.000Z</time>
      </trkpt>
      <trkpt lat="46.12377" lon="4.692">
        <ele>204.10553</ele>
        <time>2023-06-17T09:14:06.000Z</time>
      </trkpt>
      <trkpt lat="46.12378" lon="4.69211">
        <ele>204.06535</ele>
        <time>2023-06-17T09:14:07.000Z</time>
      </trkpt>
      <trkpt lat="46.1238" lon="4.69223">
        <ele>203.99922</ele>
        <time>2023-06-17T09:14:08.000Z</time>
      </trkpt>
      <trkpt lat="46.12381" lon="4.69233">
        <ele>203.92786</ele>
        <time>2023-06-17T09:14:09.000Z</time>
      </trkpt>
      <trkpt lat="46.12383" lon="4.69244">
        <ele>203.89738</ele>
        <time>2023-06-17T09:14:10.000Z</time>
      </trkpt>
      <trkpt lat="46.12385" lon="4.69254">
        <ele>203.99338</ele>
        <time>2023-06-17T09:14:11.000Z</time>
      </trkpt>
      <trkpt lat="46.12387" lon="4.69264">
        <ele>204.05905</ele>
        <time>2023-06-17T09:14:12.000Z</time>
      </trkpt>
      <trkpt lat="46.12389" lon="4.69275">
        <ele>204.09625</ele>
        <time>2023-06-17T09:14:13.000Z</time>
      </trkpt>
      <trkpt lat="46.12391" lon="4.69285">
        <ele>204.17445</ele>
        <time>2023-06-17T09:14:14.000Z</time>
      </trkpt>
      <trkpt lat="46.12393" lon="4.69296">
        <ele>204.31</ele>
        <time>2023-06-17T09:14:15.000Z</time>
      </trkpt>
      <trkpt lat="46.12395" lon="4.69306">
        <ele>204.31593</ele>
        <time>2023-06-17T09:14:16.000Z</time>
      </trkpt>
      <trkpt lat="46.12396" lon="4.69316">
        <ele>204.35994</ele>
        <time>2023-06-17T09:14:17.000Z</time>
      </trkpt>
      <trkpt lat="46.12398" lon="4.69325">
        <ele>204.37914</ele>
        <time>2023-06-17T09:14:18.000Z</time>
      </trkpt>
      <trkpt lat="46.124" lon="4.69335">
        <ele>204.41</ele>
        <time>2023-06-17T09:14:19.000Z</time>
      </trkpt>
      <trkpt lat="46.12402" lon="4.69345">
        <ele>204.48344</ele>
        <time>2023-06-17T09:14:20.000Z</time>
      </trkpt>
      <trkpt lat="46.12404" lon="4.69353">
        <ele>204.55312</ele>
        <time>2023-06-17T09:14:21.000Z</time>
      </trkpt>
      <trkpt lat="46.12407" lon="4.69363">
        <ele>204.63141</ele>
        <time>2023-06-17T09:14:22.000Z</time>
      </trkpt>
      <trkpt lat="46.12409" lon="4.69371">
        <ele>204.67802</ele>
        <time>2023-06-17T09:14:23.000Z</time>
      </trkpt>
      <trkpt lat="46.12412" lon="4.69381">
        <ele>204.75337</ele>
        <time>2023-06-17T09:14:24.000Z</time>
      </trkpt>
      <trkpt lat="46.12414" lon="4.69391">
        <ele>205.15079</ele>
        <time>2023-06-17T09:14:25.000Z</time>
      </trkpt>
      <trkpt lat="46.12417" lon="4.694">
        <ele>205.52902</ele>
        <time>2023-06-17T09:14:26.000Z</time>
      </trkpt>
      <trkpt lat="46.1242" lon="4.6941">
        <ele>205.54688</ele>
        <time>2023-06-17T09:14:27.000Z</time>
      </trkpt>
      <trkpt lat="46.12424" lon="4.69419">
        <ele>205.58273</ele>
        <time>2023-06-17T09:14:28.000Z</time>
      </trkpt>
      <trkpt lat="46.12427" lon="4.69429">
        <ele>205.57071</ele>
        <time>2023-06-17T09:14:29.000Z</time>
      </trkpt>
      <trkpt lat="46.1243" lon="4.69438">
        <ele>205.52441</ele>
        <time>2023-06-17T09:14:30.000Z</time>
      </trkpt>
      <trkpt lat="46.12434" lon="4.69447">
        <ele>205.46594</ele>
        <time>2023-06-17T09:14:31.000Z</time>
      </trkpt>
      <trkpt lat="46.12437" lon="4.69457">
        <ele>205.42107</ele>
        <time>2023-06-17T09:14:32.000Z</time>
      </trkpt>
      <trkpt lat="46.12441" lon="4.69466">
        <ele>205.38423</ele>
        <time>2023-06-17T09:14:33.000Z</time>
      </trkpt>
      <trkpt lat="46.12444" lon="4.69475">
        <ele>205.34799</ele>
        <time>2023-06-17T09:14:34.000Z</time>
      </trkpt>
      <trkpt lat="46.12448" lon="4.69484">
        <ele>205.30713</ele>
        <time>2023-06-17T09:14:35.000Z</time>
      </trkpt>
      <trkpt lat="46.12451" lon="4.69493">
        <ele>205.26135</ele>
        <time>2023-06-17T09:14:36.000Z</time>
      </trkpt>
      <trkpt lat="46.12454" lon="4.69502">
        <ele>205.2059</ele>
        <time>2023-06-17T09:14:37.000Z</time>
      </trkpt>
      <trkpt lat="46.12457" lon="4.69512">
        <ele>205.15726</ele>
        <time>2023-06-17T09:14:38.000Z</time>
      </trkpt>
      <trkpt lat="46.1246" lon="4.6952">
        <ele>205.12857</ele>
        <time>2023-06-17T09:14:39.000Z</time>
      </trkpt>
      <trkpt lat="46.12464" lon="4.6953">
        <ele>205.0737</ele>
        <time>2023-06-17T09:14:40.000Z</time>
      </trkpt>
      <trkpt lat="46.12467" lon="4.69539">
        <ele>204.94975</ele>
        <time>2023-06-17T09:14:41.000Z</time>
      </trkpt>
      <trkpt lat="46.1247" lon="4.69548">
        <ele>204.81953</ele>
        <time>2023-06-17T09:14:42.000Z</time>
      </trkpt>
      <trkpt lat="46.12474" lon="4.69557">
        <ele>204.64761</ele>
        <time>2023-06-17T09:14:43.000Z</time>
      </trkpt>
      <trkpt lat="46.12477" lon="4.69566">
        <ele>204.61945</ele>
        <time>2023-06-17T09:14:44.000Z</time>
      </trkpt>
      <trkpt lat="46.1248" lon="4.69575">
        <ele>204.25414</ele>
        <time>2023-06-17T09:14:45.000Z</time>
      </trkpt>
      <trkpt lat="46.12483" lon="4.69584">
        <ele>203.90659</ele>
        <time>2023-06-17T09:14:46.000Z</time>
      </trkpt>
      <trkpt lat="46.12486" lon="4.69592">
        <ele>203.97873</ele>
        <time>2023-06-17T09:14:47.000Z</time>
      </trkpt>
      <trkpt lat="46.12488" lon="4.696">
        <ele>204.05611</ele>
        <time>2023-06-17T09:14:48.000Z</time>
      </trkpt>
      <trkpt lat="46.1249" lon="4.69608">
        <ele>204.18631</ele>
        <time>2023-06-17T09:14:49.000Z</time>
      </trkpt>
      <trkpt lat="46.12493" lon="4.69616">
        <ele>204.32176</ele>
        <time>2023-06-17T09:14:50.000Z</time>
      </trkpt>
      <trkpt lat="46.12495" lon="4.69624">
        <ele>204.31236</ele>
        <time>2023-06-17T09:14:51.000Z</time>
      </trkpt>
      <trkpt lat="46.12498" lon="4.69632">
        <ele>204.29463</ele>
        <time>2023-06-17T09:14:52.000Z</time>
      </trkpt>
      <trkpt lat="46.125" lon="4.69639">
        <ele>204.28781</ele>
        <time>2023-06-17T09:14:53.000Z</time>
      </trkpt>
      <trkpt lat="46.12503" lon="4.69646">
        <ele>204.21689</ele>
        <time>2023-06-17T09:14:54.000Z</time>
      </trkpt>
      <trkpt lat="46.12505" lon="4.69653">
        <ele>204.10495</ele>
        <time>2023-06-17T09:14:55.000Z</time>
      </trkpt>
      <trkpt lat="46.12507" lon="4.69662">
        <ele>204.08974</ele>
        <time>2023-06-17T09:14:56.000Z</time>
      </trkpt>
      <trkpt lat="46.12509" lon="4.6967">
        <ele>204.06137</ele>
        <time>2023-06-17T09:14:57.000Z</time>
      </trkpt>
      <trkpt lat="46.12511" lon="4.69678">
        <ele>203.99509</ele>
        <time>2023-06-17T09:14:58.000Z</time>
      </trkpt>
      <trkpt lat="46.12513" lon="4.69687">
        <ele>203.90532</ele>
        <time>2023-06-17T09:14:59.000Z</time>
      </trkpt>
      <trkpt lat="46.12515" lon="4.69695">
        <ele>203.82878</ele>
        <time>2023-06-17T09:15:00.000Z</time>
      </trkpt>
      <trkpt lat="46.12518" lon="4.69703">
        <ele>203.84085</ele>
        <time>2023-06-17T09:15:01.000Z</time>
      </trkpt>
      <trkpt lat="46.12521" lon="4.69711">
        <ele>203.87904</ele>
        <time>2023-06-17T09:15:02.000Z</time>
      </trkpt>
      <trkpt lat="46.12522" lon="4.6972">
        <ele>203.96629</ele>
        <time>2023-06-17T09:15:03.000Z</time>
      </trkpt>
      <trkpt lat="46.12525" lon="4.69729">
        <ele>203.85867</ele>
        <time>2023-06-17T09:15:04.000Z</time>
      </trkpt>
      <trkpt lat="46.12527" lon="4.69738">
        <ele>203.78198</ele>
        <time>2023-06-17T09:15:05.000Z</time>
      </trkpt>
      <trkpt lat="46.12528" lon="4.69747">
        <ele>203.69089</ele>
        <time>2023-06-17T09:15:06.000Z</time>
      </trkpt>
      <trkpt lat="46.12529" lon="4.69756">
        <ele>203.47488</ele>
        <time>2023-06-17T09:15:07.000Z</time>
      </trkpt>
      <trkpt lat="46.12531" lon="4.69765">
        <ele>203.25331</ele>
        <time>2023-06-17T09:15:08.000Z</time>
      </trkpt>
      <trkpt lat="46.12533" lon="4.69775">
        <ele>203.18921</ele>
        <time>2023-06-17T09:15:09.000Z</time>
      </trkpt>
      <trkpt lat="46.12535" lon="4.69784">
        <ele>203.07327</ele>
        <time>2023-06-17T09:15:10.000Z</time>
      </trkpt>
      <trkpt lat="46.12536" lon="4.69794">
        <ele>202.98636</ele>
        <time>2023-06-17T09:15:11.000Z</time>
      </trkpt>
      <trkpt lat="46.12537" lon="4.69803">
        <ele>202.92392</ele>
        <time>2023-06-17T09:15:12.000Z</time>
      </trkpt>
      <trkpt lat="46.12539" lon="4.69813">
        <ele>202.90388</ele>
        <time>2023-06-17T09:15:13.000Z</time>
      </trkpt>
      <trkpt lat="46.1254" lon="4.69823">
        <ele>202.89896</ele>
        <time>2023-06-17T09:15:14.000Z</time>
      </trkpt>
      <trkpt lat="46.1254" lon="4.69833">
        <ele>202.92508</ele>
        <time>2023-06-17T09:15:15.000Z</time>
      </trkpt>
      <trkpt lat="46.12541" lon="4.69843">
        <ele>202.85959</ele>
        <time>2023-06-17T09:15:16.000Z</time>
      </trkpt>
      <trkpt lat="46.12542" lon="4.69853">
        <ele>202.80974</ele>
        <time>2023-06-17T09:15:17.000Z</time>
      </trkpt>
      <trkpt lat="46.12543" lon="4.69863">
        <ele>202.80136</ele>
        <time>2023-06-17T09:15:18.000Z</time>
      </trkpt>
      <trkpt lat="46.12544" lon="4.69871">
        <ele>203.27208</ele>
        <time>2023-06-17T09:15:19.000Z</time>
      </trkpt>
      <trkpt lat="46.12544" lon="4.69882">
        <ele>203.7372</ele>
        <time>2023-06-17T09:15:20.000Z</time>
      </trkpt>
      <trkpt lat="46.12545" lon="4.69891">
        <ele>204.08727</ele>
        <time>2023-06-17T09:15:21.000Z</time>
      </trkpt>
      <trkpt lat="46.12545" lon="4.699">
        <ele>204.33028</ele>
        <time>2023-06-17T09:15:22.000Z</time>
      </trkpt>
      <trkpt lat="46.12545" lon="4.69911">
        <ele>204.56494</ele>
        <time>2023-06-17T09:15:23.000Z</time>
      </trkpt>
      <trkpt lat="46.12544" lon="4.69921">
        <ele>204.84549</ele>
        <time>2023-06-17T09:15:24.000Z</time>
      </trkpt>
      <trkpt lat="46.12544" lon="4.69931">
        <ele>205.13118</ele>
        <time>2023-06-17T09:15:25.000Z</time>
      </trkpt>
      <trkpt lat="46.12544" lon="4.69939">
        <ele>205.30486</ele>
        <time>2023-06-17T09:15:26.000Z</time>
      </trkpt>
      <trkpt lat="46.12543" lon="4.69947">
        <ele>205.3846</ele>
        <time>2023-06-17T09:15:27.000Z</time>
      </trkpt>
      <trkpt lat="46.12543" lon="4.69957">
        <ele>205.49545</ele>
        <time>2023-06-17T09:15:28.000Z</time>
      </trkpt>
      <trkpt lat="46.1254" lon="4.69967">
        <ele>205.41232</ele>
        <time>2023-06-17T09:15:29.000Z</time>
      </trkpt>
      <trkpt lat="46.1254" lon="4.69976">
        <ele>205.39729</ele>
        <time>2023-06-17T09:15:30.000Z</time>
      </trkpt>
      <trkpt lat="46.1254" lon="4.69985">
        <ele>205.41052</ele>
        <time>2023-06-17T09:15:31.000Z</time>
      </trkpt>
      <trkpt lat="46.12539" lon="4.69996">
        <ele>205.37483</ele>
        <time>2023-06-17T09:15:32.000Z</time>
      </trkpt>
      <trkpt lat="46.12539" lon="4.70006">
        <ele>205.2928</ele>
        <time>2023-06-17T09:15:33.000Z</time>
      </trkpt>
      <trkpt lat="46.12538" lon="4.70015">
        <ele>205.24451</ele>
        <time>2023-06-17T09:15:34.000Z</time>
      </trkpt>
      <trkpt lat="46.12537" lon="4.70026">
        <ele>205.20284</ele>
        <time>2023-06-17T09:15:35.000Z</time>
      </trkpt>
      <trkpt lat="46.12536" lon="4.70035">
        <ele>205.22229</ele>
        <time>2023-06-17T09:15:36.000Z</time>
      </trkpt>
      <trkpt lat="46.12535" lon="4.70045">
        <ele>205.19266</ele>
        <time>2023-06-17T09:15:37.000Z</time>
      </trkpt>
      <trkpt lat="46.12534" lon="4.70054">
        <ele>205.15926</ele>
        <time>2023-06-17T09:15:38.000Z</time>
      </trkpt>
      <trkpt lat="46.12532" lon="4.70065">
        <ele>204.62004</ele>
        <time>2023-06-17T09:15:39.000Z</time>
      </trkpt>
      <trkpt lat="46.1253" lon="4.70074">
        <ele>204.07906</ele>
        <time>2023-06-17T09:15:40.000Z</time>
      </trkpt>
      <trkpt lat="46.12528" lon="4.70085">
        <ele>203.64716</ele>
        <time>2023-06-17T09:15:41.000Z</time>
      </trkpt>
      <trkpt lat="46.12527" lon="4.70095">
        <ele>203.2885</ele>
        <time>2023-06-17T09:15:42.000Z</time>
      </trkpt>
      <trkpt lat="46.12524" lon="4.70105">
        <ele>202.90369</ele>
        <time>2023-06-17T09:15:43.000Z</time>
      </trkpt>
      <trkpt lat="46.12523" lon="4.70114">
        <ele>202.55083</ele>
        <time>2023-06-17T09:15:44.000Z</time>
      </trkpt>
      <trkpt lat="46.12521" lon="4.70124">
        <ele>202.17769</ele>
        <time>2023-06-17T09:15:45.000Z</time>
      </trkpt>
      <trkpt lat="46.12519" lon="4.70133">
        <ele>201.87865</ele>
        <time>2023-06-17T09:15:46.000Z</time>
      </trkpt>
      <trkpt lat="46.12517" lon="4.70141">
        <ele>201.76643</ele>
        <time>2023-06-17T09:15:47.000Z</time>
      </trkpt>
      <trkpt lat="46.12514" lon="4.70149">
        <ele>201.6523</ele>
        <time>2023-06-17T09:15:48.000Z</time>
      </trkpt>
      <trkpt lat="46.12513" lon="4.70158">
        <ele>201.59642</ele>
        <time>2023-06-17T09:15:49.000Z</time>
      </trkpt>
      <trkpt lat="46.1251" lon="4.70168">
        <ele>201.52061</ele>
        <time>2023-06-17T09:15:50.000Z</time>
      </trkpt>
      <trkpt lat="46.12508" lon="4.70177">
        <ele>201.41455</ele>
        <time>2023-06-17T09:15:51.000Z</time>
      </trkpt>
      <trkpt lat="46.12506" lon="4.70186">
        <ele>201.33865</ele>
        <time>2023-06-17T09:15:52.000Z</time>
      </trkpt>
      <trkpt lat="46.12503" lon="4.70195">
        <ele>201.25462</ele>
        <time>2023-06-17T09:15:53.000Z</time>
      </trkpt>
      <trkpt lat="46.12501" lon="4.70204">
        <ele>201.18613</ele>
        <time>2023-06-17T09:15:54.000Z</time>
      </trkpt>
      <trkpt lat="46.12498" lon="4.70212">
        <ele>201.13304</ele>
        <time>2023-06-17T09:15:55.000Z</time>
      </trkpt>
      <trkpt lat="46.12496" lon="4.70221">
        <ele>201.04062</ele>
        <time>2023-06-17T09:15:56.000Z</time>
      </trkpt>
      <trkpt lat="46.12494" lon="4.7023">
        <ele>201.00652</ele>
        <time>2023-06-17T09:15:57.000Z</time>
      </trkpt>
      <trkpt lat="46.12491" lon="4.70239">
        <ele>200.9543</ele>
        <time>2023-06-17T09:15:58.000Z</time>
      </trkpt>
      <trkpt lat="46.12489" lon="4.70247">
        <ele>200.97224</ele>
        <time>2023-06-17T09:15:59.000Z</time>
      </trkpt>
      <trkpt lat="46.12487" lon="4.70257">
        <ele>201.00076</ele>
        <time>2023-06-17T09:16:00.000Z</time>
      </trkpt>
      <trkpt lat="46.12484" lon="4.70266">
        <ele>201.07738</ele>
        <time>2023-06-17T09:16:01.000Z</time>
      </trkpt>
      <trkpt lat="46.12482" lon="4.70275">
        <ele>201.15721</ele>
        <time>2023-06-17T09:16:02.000Z</time>
      </trkpt>
      <trkpt lat="46.1248" lon="4.70283">
        <ele>201.27657</ele>
        <time>2023-06-17T09:16:03.000Z</time>
      </trkpt>
      <trkpt lat="46.12478" lon="4.70292">
        <ele>201.38585</ele>
        <time>2023-06-17T09:16:04.000Z</time>
      </trkpt>
      <trkpt lat="46.12475" lon="4.703">
        <ele>201.47691</ele>
        <time>2023-06-17T09:16:05.000Z</time>
      </trkpt>
      <trkpt lat="46.12473" lon="4.70309">
        <ele>201.62617</ele>
        <time>2023-06-17T09:16:06.000Z</time>
      </trkpt>
      <trkpt lat="46.12471" lon="4.70318">
        <ele>201.79918</ele>
        <time>2023-06-17T09:16:07.000Z</time>
      </trkpt>
      <trkpt lat="46.12469" lon="4.70327">
        <ele>201.94377</ele>
        <time>2023-06-17T09:16:08.000Z</time>
      </trkpt>
      <trkpt lat="46.12466" lon="4.70336">
        <ele>202.07016</ele>
        <time>2023-06-17T09:16:09.000Z</time>
      </trkpt>
      <trkpt lat="46.12464" lon="4.70344">
        <ele>202.20053</ele>
        <time>2023-06-17T09:16:10.000Z</time>
      </trkpt>
      <trkpt lat="46.12462" lon="4.70353">
        <ele>202.32791</ele>
        <time>2023-06-17T09:16:11.000Z</time>
      </trkpt>
      <trkpt lat="46.1246" lon="4.70361">
        <ele>202.4722</ele>
        <time>2023-06-17T09:16:12.000Z</time>
      </trkpt>
      <trkpt lat="46.12459" lon="4.70369">
        <ele>202.62808</ele>
        <time>2023-06-17T09:16:13.000Z</time>
      </trkpt>
      <trkpt lat="46.12457" lon="4.70376">
        <ele>202.77177</ele>
        <time>2023-06-17T09:16:14.000Z</time>
      </trkpt>
      <trkpt lat="46.12455" lon="4.70383">
        <ele>202.90866</ele>
        <time>2023-06-17T09:16:15.000Z</time>
      </trkpt>
      <trkpt lat="46.12454" lon="4.7039">
        <ele>203.02113</ele>
        <time>2023-06-17T09:16:16.000Z</time>
      </trkpt>
      <trkpt lat="46.12452" lon="4.70396">
        <ele>203.10699</ele>
        <time>2023-06-17T09:16:17.000Z</time>
      </trkpt>
      <trkpt lat="46.1245" lon="4.70403">
        <ele>203.11499</ele>
        <time>2023-06-17T09:16:18.000Z</time>
      </trkpt>
      <trkpt lat="46.12449" lon="4.7041">
        <ele>203.08572</ele>
        <time>2023-06-17T09:16:19.000Z</time>
      </trkpt>
      <trkpt lat="46.12447" lon="4.70416">
        <ele>203.0713</ele>
        <time>2023-06-17T09:16:20.000Z</time>
      </trkpt>
      <trkpt lat="46.12445" lon="4.70422">
        <ele>202.98508</ele>
        <time>2023-06-17T09:16:21.000Z</time>
      </trkpt>
      <trkpt lat="46.12441" lon="4.7043">
        <ele>202.93173</ele>
        <time>2023-06-17T09:16:22.000Z</time>
      </trkpt>
      <trkpt lat="46.12439" lon="4.7044">
        <ele>202.85153</ele>
        <time>2023-06-17T09:16:23.000Z</time>
      </trkpt>
      <trkpt lat="46.12438" lon="4.70446">
        <ele>202.73337</ele>
        <time>2023-06-17T09:16:24.000Z</time>
      </trkpt>
      <trkpt lat="46.12437" lon="4.70454">
        <ele>202.67146</ele>
        <time>2023-06-17T09:16:25.000Z</time>
      </trkpt>
      <trkpt lat="46.12435" lon="4.70465">
        <ele>202.66106</ele>
        <time>2023-06-17T09:16:26.000Z</time>
      </trkpt>
      <trkpt lat="46.12432" lon="4.70474">
        <ele>202.64822</ele>
        <time>2023-06-17T09:16:27.000Z</time>
      </trkpt>
      <trkpt lat="46.12429" lon="4.70482">
        <ele>202.6004</ele>
        <time>2023-06-17T09:16:28.000Z</time>
      </trkpt>
      <trkpt lat="46.12426" lon="4.70491">
        <ele>202.54396</ele>
        <time>2023-06-17T09:16:29.000Z</time>
      </trkpt>
      <trkpt lat="46.12424" lon="4.70499">
        <ele>202.54536</ele>
        <time>2023-06-17T09:16:30.000Z</time>
      </trkpt>
      <trkpt lat="46.12421" lon="4.70506">
        <ele>202.53331</ele>
        <time>2023-06-17T09:16:31.000Z</time>
      </trkpt>
      <trkpt lat="46.12417" lon="4.70514">
        <ele>202.49373</ele>
        <time>2023-06-17T09:16:32.000Z</time>
      </trkpt>
      <trkpt lat="46.12415" lon="4.70523">
        <ele>202.4604</ele>
        <time>2023-06-17T09:16:33.000Z</time>
      </trkpt>
      <trkpt lat="46.12413" lon="4.7053">
        <ele>202.44449</ele>
        <time>2023-06-17T09:16:34.000Z</time>
      </trkpt>
      <trkpt lat="46.12411" lon="4.70539">
        <ele>202.41138</ele>
        <time>2023-06-17T09:16:35.000Z</time>
      </trkpt>
      <trkpt lat="46.12408" lon="4.70547">
        <ele>202.38541</ele>
        <time>2023-06-17T09:16:36.000Z</time>
      </trkpt>
      <trkpt lat="46.12406" lon="4.70555">
        <ele>202.33403</ele>
        <time>2023-06-17T09:16:37.000Z</time>
      </trkpt>
      <trkpt lat="46.12405" lon="4.70564">
        <ele>202.3884</ele>
        <time>2023-06-17T09:16:38.000Z</time>
      </trkpt>
      <trkpt lat="46.12403" lon="4.70572">
        <ele>202.40799</ele>
        <time>2023-06-17T09:16:39.000Z</time>
      </trkpt>
      <trkpt lat="46.12401" lon="4.7058">
        <ele>202.41093</ele>
        <time>2023-06-17T09:16:40.000Z</time>
      </trkpt>
      <trkpt lat="46.12399" lon="4.70588">
        <ele>202.40927</ele>
        <time>2023-06-17T09:16:41.000Z</time>
      </trkpt>
      <trkpt lat="46.12396" lon="4.70596">
        <ele>202.35352</ele>
        <time>2023-06-17T09:16:42.000Z</time>
      </trkpt>
      <trkpt lat="46.12395" lon="4.70605">
        <ele>202.30753</ele>
        <time>2023-06-17T09:16:43.000Z</time>
      </trkpt>
      <trkpt lat="46.12392" lon="4.70614">
        <ele>202.29356</ele>
        <time>2023-06-17T09:16:44.000Z</time>
      </trkpt>
      <trkpt lat="46.1239" lon="4.70623">
        <ele>202.26004</ele>
        <time>2023-06-17T09:16:45.000Z</time>
      </trkpt>
      <trkpt lat="46.12388" lon="4.70631">
        <ele>202.17307</ele>
        <time>2023-06-17T09:16:46.000Z</time>
      </trkpt>
      <trkpt lat="46.12387" lon="4.7064">
        <ele>202.05103</ele>
        <time>2023-06-17T09:16:47.000Z</time>
      </trkpt>
      <trkpt lat="46.12385" lon="4.70649">
        <ele>201.96896</ele>
        <time>2023-06-17T09:16:48.000Z</time>
      </trkpt>
      <trkpt lat="46.12383" lon="4.70657">
        <ele>201.89531</ele>
        <time>2023-06-17T09:16:49.000Z</time>
      </trkpt>
      <trkpt lat="46.12381" lon="4.70665">
        <ele>201.76633</ele>
        <time>2023-06-17T09:16:50.000Z</time>
      </trkpt>
      <trkpt lat="46.12379" lon="4.70673">
        <ele>201.65959</ele>
        <time>2023-06-17T09:16:51.000Z</time>
      </trkpt>
      <trkpt lat="46.12378" lon="4.7068">
        <ele>201.58226</ele>
        <time>2023-06-17T09:16:52.000Z</time>
      </trkpt>
      <trkpt lat="46.12376" lon="4.70688">
        <ele>201.44376</ele>
        <time>2023-06-17T09:16:53.000Z</time>
      </trkpt>
      <trkpt lat="46.12374" lon="4.70695">
        <ele>201.31442</ele>
        <time>2023-06-17T09:16:54.000Z</time>
      </trkpt>
      <trkpt lat="46.12372" lon="4.70702">
        <ele>201.1955</ele>
        <time>2023-06-17T09:16:55.000Z</time>
      </trkpt>
      <trkpt lat="46.12369" lon="4.70711">
        <ele>201.08945</ele>
        <time>2023-06-17T09:16:56.000Z</time>
      </trkpt>
      <trkpt lat="46.12367" lon="4.70719">
        <ele>200.99951</ele>
        <time>2023-06-17T09:16:57.000Z</time>
      </trkpt>
      <trkpt lat="46.12364" lon="4.70728">
        <ele>200.90736</ele>
        <time>2023-06-17T09:16:58.000Z</time>
      </trkpt>
      <trkpt lat="46.12362" lon="4.70735">
        <ele>200.82883</ele>
        <time>2023-06-17T09:16:59.000Z</time>
      </trkpt>
      <trkpt lat="46.1236" lon="4.70743">
        <ele>200.72621</ele>
        <time>2023-06-17T09:17:00.000Z</time>
      </trkpt>
      <trkpt lat="46.12357" lon="4.70751">
        <ele>200.63634</ele>
        <time>2023-06-17T09:17:01.000Z</time>
      </trkpt>
      <trkpt lat="46.12354" lon="4.70759">
        <ele>200.58846</ele>
        <time>2023-06-17T09:17:02.000Z</time>
      </trkpt>
      <trkpt lat="46.12353" lon="4.70766">
        <ele>200.5029</ele>
        <time>2023-06-17T09:17:03.000Z</time>
      </trkpt>
      <trkpt lat="46.12351" lon="4.70775">
        <ele>200.40761</ele>
        <time>2023-06-17T09:17:04.000Z</time>
      </trkpt>
      <trkpt lat="46.12348" lon="4.70784">
        <ele>200.28928</ele>
        <time>2023-06-17T09:17:05.000Z</time>
      </trkpt>
      <trkpt lat="46.12346" lon="4.70792">
        <ele>200.18472</ele>
        <time>2023-06-17T09:17:06.000Z</time>
      </trkpt>
      <trkpt lat="46.12343" lon="4.708">
        <ele>200.12744</ele>
        <time>2023-06-17T09:17:07.000Z</time>
      </trkpt>
      <trkpt lat="46.12341" lon="4.70808">
        <ele>200.08688</ele>
        <time>2023-06-17T09:17:08.000Z</time>
      </trkpt>
      <trkpt lat="46.12339" lon="4.70818">
        <ele>200.0172</ele>
        <time>2023-06-17T09:17:09.000Z</time>
      </trkpt>
      <trkpt lat="46.12336" lon="4.70828">
        <ele>199.9413</ele>
        <time>2023-06-17T09:17:10.000Z</time>
      </trkpt>
      <trkpt lat="46.12334" lon="4.70835">
        <ele>199.8728</ele>
        <time>2023-06-17T09:17:11.000Z</time>
      </trkpt>
      <trkpt lat="46.12333" lon="4.70844">
        <ele>199.78873</ele>
        <time>2023-06-17T09:17:12.000Z</time>
      </trkpt>
      <trkpt lat="46.12331" lon="4.70852">
        <ele>199.74931</ele>
        <time>2023-06-17T09:17:13.000Z</time>
      </trkpt>
      <trkpt lat="46.12328" lon="4.70861">
        <ele>199.69743</ele>
        <time>2023-06-17T09:17:14.000Z</time>
      </trkpt>
      <trkpt lat="46.12326" lon="4.70871">
        <ele>199.66031</ele>
        <time>2023-06-17T09:17:15.000Z</time>
      </trkpt>
      <trkpt lat="46.12324" lon="4.7088">
        <ele>199.62082</ele>
        <time>2023-06-17T09:17:16.000Z</time>
      </trkpt>
      <trkpt lat="46.12321" lon="4.7089">
        <ele>199.5672</ele>
        <time>2023-06-17T09:17:17.000Z</time>
      </trkpt>
      <trkpt lat="46.12319" lon="4.70899">
        <ele>199.52536</ele>
        <time>2023-06-17T09:17:18.000Z</time>
      </trkpt>
      <trkpt lat="46.12317" lon="4.70907">
        <ele>199.49765</ele>
        <time>2023-06-17T09:17:19.000Z</time>
      </trkpt>
      <trkpt lat="46.12314" lon="4.70917">
        <ele>199.4791</ele>
        <time>2023-06-17T09:17:20.000Z</time>
      </trkpt>
      <trkpt lat="46.12312" lon="4.70926">
        <ele>199.46278</ele>
        <time>2023-06-17T09:17:21.000Z</time>
      </trkpt>
      <trkpt lat="46.12309" lon="4.70934">
        <ele>199.50488</ele>
        <time>2023-06-17T09:17:22.000Z</time>
      </trkpt>
      <trkpt lat="46.12307" lon="4.70943">
        <ele>199.57925</ele>
        <time>2023-06-17T09:17:23.000Z</time>
      </trkpt>
      <trkpt lat="46.12304" lon="4.70952">
        <ele>199.6447</ele>
        <time>2023-06-17T09:17:24.000Z</time>
      </trkpt>
      <trkpt lat="46.12302" lon="4.70961">
        <ele>199.73923</ele>
        <time>2023-06-17T09:17:25.000Z</time>
      </trkpt>
      <trkpt lat="46.123" lon="4.70969">
        <ele>199.78529</ele>
        <time>2023-06-17T09:17:26.000Z</time>
      </trkpt>
      <trkpt lat="46.12298" lon="4.70977">
        <ele>199.79102</ele>
        <time>2023-06-17T09:17:27.000Z</time>
      </trkpt>
      <trkpt lat="46.12296" lon="4.70986">
        <ele>199.7314</ele>
        <time>2023-06-17T09:17:28.000Z</time>
      </trkpt>
      <trkpt lat="46.12294" lon="4.70995">
        <ele>199.69687</ele>
        <time>2023-06-17T09:17:29.000Z</time>
      </trkpt>
      <trkpt lat="46.12292" lon="4.71004">
        <ele>199.67186</ele>
        <time>2023-06-17T09:17:30.000Z</time>
      </trkpt>
      <trkpt lat="46.1229" lon="4.71013">
        <ele>199.59866</ele>
        <time>2023-06-17T09:17:31.000Z</time>
      </trkpt>
      <trkpt lat="46.12288" lon="4.71022">
        <ele>199.56302</ele>
        <time>2023-06-17T09:17:32.000Z</time>
      </trkpt>
      <trkpt lat="46.12286" lon="4.71031">
        <ele>199.56284</ele>
        <time>2023-06-17T09:17:33.000Z</time>
      </trkpt>
      <trkpt lat="46.12284" lon="4.7104">
        <ele>199.56557</ele>
        <time>2023-06-17T09:17:34.000Z</time>
      </trkpt>
      <trkpt lat="46.12281" lon="4.71049">
        <ele>199.5618</ele>
        <time>2023-06-17T09:17:35.000Z</time>
      </trkpt>
      <trkpt lat="46.12279" lon="4.71057">
        <ele>199.54147</ele>
        <time>2023-06-17T09:17:36.000Z</time>
      </trkpt>
      <trkpt lat="46.12277" lon="4.71065">
        <ele>199.53958</ele>
        <time>2023-06-17T09:17:37.000Z</time>
      </trkpt>
      <trkpt lat="46.12274" lon="4.71074">
        <ele>199.51404</ele>
        <time>2023-06-17T09:17:38.000Z</time>
      </trkpt>
      <trkpt lat="46.12272" lon="4.71083">
        <ele>199.49191</ele>
        <time>2023-06-17T09:17:39.000Z</time>
      </trkpt>
      <trkpt lat="46.1227" lon="4.71092">
        <ele>199.50003</ele>
        <time>2023-06-17T09:17:40.000Z</time>
      </trkpt>
      <trkpt lat="46.12268" lon="4.711">
        <ele>199.51933</ele>
        <time>2023-06-17T09:17:41.000Z</time>
      </trkpt>
      <trkpt lat="46.12266" lon="4.71108">
        <ele>199.45976</ele>
        <time>2023-06-17T09:17:42.000Z</time>
      </trkpt>
      <trkpt lat="46.12264" lon="4.71116">
        <ele>199.40996</ele>
        <time>2023-06-17T09:17:43.000Z</time>
      </trkpt>
      <trkpt lat="46.12261" lon="4.71123">
        <ele>199.37744</ele>
        <time>2023-06-17T09:17:44.000Z</time>
      </trkpt>
      <trkpt lat="46.12259" lon="4.71131">
        <ele>199.31912</ele>
        <time>2023-06-17T09:17:45.000Z</time>
      </trkpt>
      <trkpt lat="46.12257" lon="4.71139">
        <ele>199.27689</ele>
        <time>2023-06-17T09:17:46.000Z</time>
      </trkpt>
      <trkpt lat="46.12256" lon="4.71147">
        <ele>199.26685</ele>
        <time>2023-06-17T09:17:47.000Z</time>
      </trkpt>
      <trkpt lat="46.12256" lon="4.71156">
        <ele>199.29626</ele>
        <time>2023-06-17T09:17:48.000Z</time>
      </trkpt>
      <trkpt lat="46.12256" lon="4.71165">
        <ele>199.321</ele>
        <time>2023-06-17T09:17:49.000Z</time>
      </trkpt>
      <trkpt lat="46.12254" lon="4.71174">
        <ele>199.38481</ele>
        <time>2023-06-17T09:17:50.000Z</time>
      </trkpt>
      <trkpt lat="46.12253" lon="4.71183">
        <ele>199.48032</ele>
        <time>2023-06-17T09:17:51.000Z</time>
      </trkpt>
      <trkpt lat="46.1225" lon="4.71192">
        <ele>199.53566</ele>
        <time>2023-06-17T09:17:52.000Z</time>
      </trkpt>
      <trkpt lat="46.12248" lon="4.71201">
        <ele>199.56306</ele>
        <time>2023-06-17T09:17:53.000Z</time>
      </trkpt>
      <trkpt lat="46.12245" lon="4.7121">
        <ele>199.59409</ele>
        <time>2023-06-17T09:17:54.000Z</time>
      </trkpt>
      <trkpt lat="46.12243" lon="4.71219">
        <ele>199.6187</ele>
        <time>2023-06-17T09:17:55.000Z</time>
      </trkpt>
      <trkpt lat="46.1224" lon="4.71228">
        <ele>199.64761</ele>
        <time>2023-06-17T09:17:56.000Z</time>
      </trkpt>
      <trkpt lat="46.12238" lon="4.71237">
        <ele>199.69267</ele>
        <time>2023-06-17T09:17:57.000Z</time>
      </trkpt>
      <trkpt lat="46.12236" lon="4.71246">
        <ele>199.70418</ele>
        <time>2023-06-17T09:17:58.000Z</time>
      </trkpt>
      <trkpt lat="46.12233" lon="4.71255">
        <ele>199.71159</ele>
        <time>2023-06-17T09:17:59.000Z</time>
      </trkpt>
      <trkpt lat="46.12231" lon="4.71264">
        <ele>199.69977</ele>
        <time>2023-06-17T09:18:00.000Z</time>
      </trkpt>
      <trkpt lat="46.12229" lon="4.71273">
        <ele>199.69109</ele>
        <time>2023-06-17T09:18:01.000Z</time>
      </trkpt>
      <trkpt lat="46.12226" lon="4.71282">
        <ele>199.66699</ele>
        <time>2023-06-17T09:18:02.000Z</time>
      </trkpt>
      <trkpt lat="46.12224" lon="4.71291">
        <ele>199.6042</ele>
        <time>2023-06-17T09:18:03.000Z</time>
      </trkpt>
      <trkpt lat="46.12221" lon="4.713">
        <ele>199.53395</ele>
        <time>2023-06-17T09:18:04.000Z</time>
      </trkpt>
      <trkpt lat="46.12218" lon="4.71309">
        <ele>199.44553</ele>
        <time>2023-06-17T09:18:05.000Z</time>
      </trkpt>
      <trkpt lat="46.12216" lon="4.71318">
        <ele>199.35086</ele>
        <time>2023-06-17T09:18:06.000Z</time>
      </trkpt>
      <trkpt lat="46.12214" lon="4.71327">
        <ele>199.25674</ele>
        <time>2023-06-17T09:18:07.000Z</time>
      </trkpt>
      <trkpt lat="46.12212" lon="4.71336">
        <ele>199.1758</ele>
        <time>2023-06-17T09:18:08.000Z</time>
      </trkpt>
      <trkpt lat="46.12209" lon="4.71345">
        <ele>199.09886</ele>
        <time>2023-06-17T09:18:09.000Z</time>
      </trkpt>
      <trkpt lat="46.12207" lon="4.71354">
        <ele>198.97859</ele>
        <time>2023-06-17T09:18:10.000Z</time>
      </trkpt>
      <trkpt lat="46.12205" lon="4.71363">
        <ele>198.86234</ele>
        <time>2023-06-17T09:18:11.000Z</time>
      </trkpt>
      <trkpt lat="46.12203" lon="4.71372">
        <ele>198.76547</ele>
        <time>2023-06-17T09:18:12.000Z</time>
      </trkpt>
      <trkpt lat="46.122" lon="4.71381">
        <ele>198.67291</ele>
        <time>2023-06-17T09:18:13.000Z</time>
      </trkpt>
      <trkpt lat="46.12198" lon="4.71389">
        <ele>198.61214</ele>
        <time>2023-06-17T09:18:14.000Z</time>
      </trkpt>
      <trkpt lat="46.12195" lon="4.71398">
        <ele>198.55533</ele>
        <time>2023-06-17T09:18:15.000Z</time>
      </trkpt>
      <trkpt lat="46.12193" lon="4.71406">
        <ele>198.48526</ele>
        <time>2023-06-17T09:18:16.000Z</time>
      </trkpt>
      <trkpt lat="46.12191" lon="4.71415">
        <ele>198.41837</ele>
        <time>2023-06-17T09:18:17.000Z</time>
      </trkpt>
      <trkpt lat="46.1219" lon="4.71423">
        <ele>198.38132</ele>
        <time>2023-06-17T09:18:18.000Z</time>
      </trkpt>
      <trkpt lat="46.12188" lon="4.7143">
        <ele>198.33276</ele>
        <time>2023-06-17T09:18:19.000Z</time>
      </trkpt>
      <trkpt lat="46.12185" lon="4.71435">
        <ele>198.25357</ele>
        <time>2023-06-17T09:18:20.000Z</time>
      </trkpt>
      <trkpt lat="46.12181" lon="4.71441">
        <ele>198.15994</ele>
        <time>2023-06-17T09:18:21.000Z</time>
      </trkpt>
      <trkpt lat="46.12177" lon="4.71445">
        <ele>198.07767</ele>
        <time>2023-06-17T09:18:22.000Z</time>
      </trkpt>
      <trkpt lat="46.12174" lon="4.71452">
        <ele>198.08151</ele>
        <time>2023-06-17T09:18:23.000Z</time>
      </trkpt>
      <trkpt lat="46.12172" lon="4.71459">
        <ele>198.10072</ele>
        <time>2023-06-17T09:18:24.000Z</time>
      </trkpt>
      <trkpt lat="46.1217" lon="4.71466">
        <ele>198.1174</ele>
        <time>2023-06-17T09:18:25.000Z</time>
      </trkpt>
      <trkpt lat="46.12167" lon="4.71472">
        <ele>198.14285</ele>
        <time>2023-06-17T09:18:26.000Z</time>
      </trkpt>
      <trkpt lat="46.12165" lon="4.7148">
        <ele>198.17924</ele>
        <time>2023-06-17T09:18:27.000Z</time>
      </trkpt>
      <trkpt lat="46.12163" lon="4.71488">
        <ele>198.20407</ele>
        <time>2023-06-17T09:18:28.000Z</time>
      </trkpt>
      <trkpt lat="46.12161" lon="4.71495">
        <ele>198.21823</ele>
        <time>2023-06-17T09:18:29.000Z</time>
      </trkpt>
      <trkpt lat="46.12159" lon="4.71502">
        <ele>198.15863</ele>
        <time>2023-06-17T09:18:30.000Z</time>
      </trkpt>
      <trkpt lat="46.12157" lon="4.7151">
        <ele>198.07877</ele>
        <time>2023-06-17T09:18:31.000Z</time>
      </trkpt>
      <trkpt lat="46.12155" lon="4.71519">
        <ele>198.01561</ele>
        <time>2023-06-17T09:18:32.000Z</time>
      </trkpt>
      <trkpt lat="46.12153" lon="4.71527">
        <ele>197.97136</ele>
        <time>2023-06-17T09:18:33.000Z</time>
      </trkpt>
      <trkpt lat="46.12151" lon="4.71536">
        <ele>197.92856</ele>
        <time>2023-06-17T09:18:34.000Z</time>
      </trkpt>
      <trkpt lat="46.12149" lon="4.71545">
        <ele>197.88803</ele>
        <time>2023-06-17T09:18:35.000Z</time>
      </trkpt>
      <trkpt lat="46.12146" lon="4.71554">
        <ele>197.85474</ele>
        <time>2023-06-17T09:18:36.000Z</time>
      </trkpt>
      <trkpt lat="46.12144" lon="4.71563">
        <ele>197.81418</ele>
        <time>2023-06-17T09:18:37.000Z</time>
      </trkpt>
      <trkpt lat="46.12142" lon="4.71572">
        <ele>197.77115</ele>
        <time>2023-06-17T09:18:38.000Z</time>
      </trkpt>
      <trkpt lat="46.1214" lon="4.71581">
        <ele>197.7377</ele>
        <time>2023-06-17T09:18:39.000Z</time>
      </trkpt>
      <trkpt lat="46.12138" lon="4.7159">
        <ele>197.75563</ele>
        <time>2023-06-17T09:18:40.000Z</time>
      </trkpt>
      <trkpt lat="46.12136" lon="4.71599">
        <ele>197.78369</ele>
        <time>2023-06-17T09:18:41.000Z</time>
      </trkpt>
      <trkpt lat="46.12133" lon="4.71609">
        <ele>197.81094</ele>
        <time>2023-06-17T09:18:42.000Z</time>
      </trkpt>
      <trkpt lat="46.12131" lon="4.71618">
        <ele>197.7941</ele>
        <time>2023-06-17T09:18:43.000Z</time>
      </trkpt>
      <trkpt lat="46.12129" lon="4.71627">
        <ele>197.76492</ele>
        <time>2023-06-17T09:18:44.000Z</time>
      </trkpt>
      <trkpt lat="46.12126" lon="4.71636">
        <ele>197.77847</ele>
        <time>2023-06-17T09:18:45.000Z</time>
      </trkpt>
      <trkpt lat="46.12124" lon="4.71644">
        <ele>197.79874</ele>
        <time>2023-06-17T09:18:46.000Z</time>
      </trkpt>
      <trkpt lat="46.12121" lon="4.71653">
        <ele>197.8067</ele>
        <time>2023-06-17T09:18:47.000Z</time>
      </trkpt>
      <trkpt lat="46.12119" lon="4.71661">
        <ele>197.8094</ele>
        <time>2023-06-17T09:18:48.000Z</time>
      </trkpt>
      <trkpt lat="46.12117" lon="4.7167">
        <ele>197.88091</ele>
        <time>2023-06-17T09:18:49.000Z</time>
      </trkpt>
      <trkpt lat="46.12114" lon="4.7168">
        <ele>198.01163</ele>
        <time>2023-06-17T09:18:50.000Z</time>
      </trkpt>
      <trkpt lat="46.12112" lon="4.71689">
        <ele>198.16942</ele>
        <time>2023-06-17T09:18:51.000Z</time>
      </trkpt>
      <trkpt lat="46.1211" lon="4.71698">
        <ele>198.29301</ele>
        <time>2023-06-17T09:18:52.000Z</time>
      </trkpt>
      <trkpt lat="46.12107" lon="4.71708">
        <ele>198.41592</ele>
        <time>2023-06-17T09:18:53.000Z</time>
      </trkpt>
      <trkpt lat="46.12105" lon="4.71717">
        <ele>198.43427</ele>
        <time>2023-06-17T09:18:54.000Z</time>
      </trkpt>
      <trkpt lat="46.12102" lon="4.71726">
        <ele>198.43301</ele>
        <time>2023-06-17T09:18:55.000Z</time>
      </trkpt>
      <trkpt lat="46.121" lon="4.71736">
        <ele>198.41888</ele>
        <time>2023-06-17T09:18:56.000Z</time>
      </trkpt>
      <trkpt lat="46.12098" lon="4.71745">
        <ele>198.38684</ele>
        <time>2023-06-17T09:18:57.000Z</time>
      </trkpt>
      <trkpt lat="46.12096" lon="4.71754">
        <ele>198.37125</ele>
        <time>2023-06-17T09:18:58.000Z</time>
      </trkpt>
      <trkpt lat="46.12093" lon="4.71762">
        <ele>198.34625</ele>
        <time>2023-06-17T09:18:59.000Z</time>
      </trkpt>
      <trkpt lat="46.12089" lon="4.7177">
        <ele>198.31097</ele>
        <time>2023-06-17T09:19:00.000Z</time>
      </trkpt>
      <trkpt lat="46.12087" lon="4.71778">
        <ele>198.27538</ele>
        <time>2023-06-17T09:19:01.000Z</time>
      </trkpt>
      <trkpt lat="46.12085" lon="4.71786">
        <ele>198.25342</ele>
        <time>2023-06-17T09:19:02.000Z</time>
      </trkpt>
      <trkpt lat="46.12085" lon="4.71794">
        <ele>198.21375</ele>
        <time>2023-06-17T09:19:03.000Z</time>
      </trkpt>
      <trkpt lat="46.12085" lon="4.71803">
        <ele>198.17041</ele>
        <time>2023-06-17T09:19:04.000Z</time>
      </trkpt>
      <trkpt lat="46.12084" lon="4.71812">
        <ele>198.11749</ele>
        <time>2023-06-17T09:19:05.000Z</time>
      </trkpt>
      <trkpt lat="46.12085" lon="4.7182">
        <ele>198.04556</ele>
        <time>2023-06-17T09:19:06.000Z</time>
      </trkpt>
      <trkpt lat="46.12086" lon="4.71829">
        <ele>197.99556</ele>
        <time>2023-06-17T09:19:07.000Z</time>
      </trkpt>
      <trkpt lat="46.12088" lon="4.71836">
        <ele>197.9655</ele>
        <time>2023-06-17T09:19:08.000Z</time>
      </trkpt>
      <trkpt lat="46.12091" lon="4.71844">
        <ele>197.88168</ele>
        <time>2023-06-17T09:19:09.000Z</time>
      </trkpt>
      <trkpt lat="46.12095" lon="4.71849">
        <ele>197.80627</ele>
        <time>2023-06-17T09:19:10.000Z</time>
      </trkpt>
      <trkpt lat="46.12101" lon="4.71853">
        <ele>197.69815</ele>
        <time>2023-06-17T09:19:11.000Z</time>
      </trkpt>
      <trkpt lat="46.12106" lon="4.71853">
        <ele>197.58098</ele>
        <time>2023-06-17T09:19:12.000Z</time>
      </trkpt>
      <trkpt lat="46.12111" lon="4.71853">
        <ele>197.44521</ele>
        <time>2023-06-17T09:19:13.000Z</time>
      </trkpt>
      <trkpt lat="46.12117" lon="4.71851">
        <ele>197.39627</ele>
        <time>2023-06-17T09:19:14.000Z</time>
      </trkpt>
      <trkpt lat="46.12122" lon="4.71849">
        <ele>197.37578</ele>
        <time>2023-06-17T09:19:15.000Z</time>
      </trkpt>
      <trkpt lat="46.12126" lon="4.71847">
        <ele>197.34663</ele>
        <time>2023-06-17T09:19:16.000Z</time>
      </trkpt>
      <trkpt lat="46.12132" lon="4.71847">
        <ele>197.34781</ele>
        <time>2023-06-17T09:19:17.000Z</time>
      </trkpt>
      <trkpt lat="46.12136" lon="4.71847">
        <ele>197.3474</ele>
        <time>2023-06-17T09:19:18.000Z</time>
      </trkpt>
      <trkpt lat="46.12141" lon="4.71847">
        <ele>197.29915</ele>
        <time>2023-06-17T09:19:19.000Z</time>
      </trkpt>
      <trkpt lat="46.12145" lon="4.71847">
        <ele>197.28409</ele>
        <time>2023-06-17T09:19:20.000Z</time>
      </trkpt>
      <trkpt lat="46.12148" lon="4.71848">
        <ele>197.27571</ele>
        <time>2023-06-17T09:19:21.000Z</time>
      </trkpt>
      <trkpt lat="46.12151" lon="4.7185">
        <ele>197.28311</ele>
        <time>2023-06-17T09:19:22.000Z</time>
      </trkpt>
      <trkpt lat="46.12154" lon="4.71852">
        <ele>197.30344</ele>
        <time>2023-06-17T09:19:23.000Z</time>
      </trkpt>
      <trkpt lat="46.12156" lon="4.71855">
        <ele>197.33731</ele>
        <time>2023-06-17T09:19:24.000Z</time>
      </trkpt>
      <trkpt lat="46.12157" lon="4.71856">
        <ele>197.36507</ele>
        <time>2023-06-17T09:19:25.000Z</time>
      </trkpt>
      <trkpt lat="46.12159" lon="4.71857">
        <ele>197.39066</ele>
        <time>2023-06-17T09:19:26.000Z</time>
      </trkpt>
      <trkpt lat="46.12163" lon="4.71859">
        <ele>197.39449</ele>
        <time>2023-06-17T09:19:28.000Z</time>
      </trkpt>
      <trkpt lat="46.12165" lon="4.71859">
        <ele>197.36363</ele>
        <time>2023-06-17T09:19:29.000Z</time>
      </trkpt>
      <trkpt lat="46.12168" lon="4.7186">
        <ele>197.36624</ele>
        <time>2023-06-17T09:19:31.000Z</time>
      </trkpt>
      <trkpt lat="46.1217" lon="4.71861">
        <ele>197.35538</ele>
        <time>2023-06-17T09:19:33.000Z</time>
      </trkpt>
      <trkpt lat="46.12173" lon="4.71863">
        <ele>197.35905</ele>
        <time>2023-06-17T09:19:35.000Z</time>
      </trkpt>
      <trkpt lat="46.12175" lon="4.71862">
        <ele>197.36122</ele>
        <time>2023-06-17T09:19:36.000Z</time>
      </trkpt>
      <trkpt lat="46.12177" lon="4.7186">
        <ele>197.33723</ele>
        <time>2023-06-17T09:19:37.000Z</time>
      </trkpt>
      <trkpt lat="46.12177" lon="4.71856">
        <ele>197.28423</ele>
        <time>2023-06-17T09:19:39.000Z</time>
      </trkpt>
      <trkpt lat="46.12175" lon="4.71855">
        <ele>197.22606</ele>
        <time>2023-06-17T09:19:47.000Z</time>
      </trkpt>
    </trkseg>
  </trk>
</gpx>